<?xml version="1.0" encoding="UTF-8" standalone="no" ?>
<gpx xmlns="http://www.topografix.com/GPX/1/1" xmlns:xsi="http://www.w3.org/2001/XMLSchema-instance" xsi:schemaLocation="http://www.topografix.com/GPX/1/1 http://www.topografix.com/GPX/1/1/gpx.xsd" version="1.1" creator="VisuGPX - https://www.visugpx.com">
  <metadata>
    <name>pic de mauros</name>
    <desc><![CDATA[Petite rando familiale sous un soleil automnal.]]></desc>
  </metadata>
  <trk>
    <name><![CDATA[30/10/2016 10:46:00]]></name>
    <trkseg>
      <trkpt lat="42.52322" lon="2.02471">
        <ele>1934.8000488281</ele>
        <time>2016-10-30T09:46:00Z</time>
      </trkpt>
      <trkpt lat="42.52323" lon="2.02472">
        <ele>1934.8000488281</ele>
        <time>2016-10-30T09:46:03Z</time>
      </trkpt>
      <trkpt lat="42.52324" lon="2.02472">
        <ele>1937.8000488281</ele>
        <time>2016-10-30T09:46:04Z</time>
      </trkpt>
      <trkpt lat="42.52324" lon="2.02473">
        <ele>1940.5999755859</ele>
        <time>2016-10-30T09:46:05Z</time>
      </trkpt>
      <trkpt lat="42.52325" lon="2.02473">
        <ele>1943.1999511719</ele>
        <time>2016-10-30T09:46:06Z</time>
      </trkpt>
      <trkpt lat="42.52325" lon="2.02473">
        <ele>1943.1999511719</ele>
        <time>2016-10-30T09:46:08Z</time>
      </trkpt>
      <trkpt lat="42.52328" lon="2.02476">
        <ele>1943.1999511719</ele>
        <time>2016-10-30T09:46:15Z</time>
      </trkpt>
      <trkpt lat="42.52332" lon="2.02478">
        <ele>1943.1999511719</ele>
        <time>2016-10-30T09:46:21Z</time>
      </trkpt>
      <trkpt lat="42.52338" lon="2.02478">
        <ele>1943.1999511719</ele>
        <time>2016-10-30T09:46:28Z</time>
      </trkpt>
      <trkpt lat="42.52343" lon="2.02478">
        <ele>1943.1999511719</ele>
        <time>2016-10-30T09:46:34Z</time>
      </trkpt>
      <trkpt lat="42.52348" lon="2.02477">
        <ele>1943.1999511719</ele>
        <time>2016-10-30T09:46:39Z</time>
      </trkpt>
      <trkpt lat="42.52353" lon="2.02476">
        <ele>1943.1999511719</ele>
        <time>2016-10-30T09:46:45Z</time>
      </trkpt>
      <trkpt lat="42.52354" lon="2.02475">
        <ele>1943.1999511719</ele>
        <time>2016-10-30T09:46:46Z</time>
      </trkpt>
      <trkpt lat="42.52358" lon="2.02471">
        <ele>1943.1999511719</ele>
        <time>2016-10-30T09:46:53Z</time>
      </trkpt>
      <trkpt lat="42.52359" lon="2.02469">
        <ele>1942</ele>
        <time>2016-10-30T09:46:55Z</time>
      </trkpt>
      <trkpt lat="42.52359" lon="2.02469">
        <ele>1940.8000488281</ele>
        <time>2016-10-30T09:46:56Z</time>
      </trkpt>
      <trkpt lat="42.5236" lon="2.02468">
        <ele>1939.5999755859</ele>
        <time>2016-10-30T09:46:57Z</time>
      </trkpt>
      <trkpt lat="42.52361" lon="2.02467">
        <ele>1938.4000244141</ele>
        <time>2016-10-30T09:46:58Z</time>
      </trkpt>
      <trkpt lat="42.52361" lon="2.02466">
        <ele>1937.1999511719</ele>
        <time>2016-10-30T09:46:59Z</time>
      </trkpt>
      <trkpt lat="42.52362" lon="2.02465">
        <ele>1937.1999511719</ele>
        <time>2016-10-30T09:47:00Z</time>
      </trkpt>
      <trkpt lat="42.52365" lon="2.0246">
        <ele>1937.1999511719</ele>
        <time>2016-10-30T09:47:06Z</time>
      </trkpt>
      <trkpt lat="42.52368" lon="2.02454">
        <ele>1937.1999511719</ele>
        <time>2016-10-30T09:47:12Z</time>
      </trkpt>
      <trkpt lat="42.52371" lon="2.02448">
        <ele>1937.1999511719</ele>
        <time>2016-10-30T09:47:18Z</time>
      </trkpt>
      <trkpt lat="42.52375" lon="2.02441">
        <ele>1937.1999511719</ele>
        <time>2016-10-30T09:47:24Z</time>
      </trkpt>
      <trkpt lat="42.52379" lon="2.02435">
        <ele>1937.1999511719</ele>
        <time>2016-10-30T09:47:30Z</time>
      </trkpt>
      <trkpt lat="42.5238" lon="2.02434">
        <ele>1937.1999511719</ele>
        <time>2016-10-30T09:47:31Z</time>
      </trkpt>
      <trkpt lat="42.5238" lon="2.02434">
        <ele>1937.5999755859</ele>
        <time>2016-10-30T09:47:32Z</time>
      </trkpt>
      <trkpt lat="42.52381" lon="2.02433">
        <ele>1938</ele>
        <time>2016-10-30T09:47:33Z</time>
      </trkpt>
      <trkpt lat="42.52382" lon="2.02433">
        <ele>1938.4000244141</ele>
        <time>2016-10-30T09:47:34Z</time>
      </trkpt>
      <trkpt lat="42.52383" lon="2.02432">
        <ele>1938.8000488281</ele>
        <time>2016-10-30T09:47:35Z</time>
      </trkpt>
      <trkpt lat="42.52383" lon="2.02431">
        <ele>1939.1999511719</ele>
        <time>2016-10-30T09:47:36Z</time>
      </trkpt>
      <trkpt lat="42.52388" lon="2.02425">
        <ele>1939.1999511719</ele>
        <time>2016-10-30T09:47:42Z</time>
      </trkpt>
      <trkpt lat="42.5239" lon="2.02421">
        <ele>1939.1999511719</ele>
        <time>2016-10-30T09:47:47Z</time>
      </trkpt>
      <trkpt lat="42.52391" lon="2.02418">
        <ele>1939.1999511719</ele>
        <time>2016-10-30T09:47:49Z</time>
      </trkpt>
      <trkpt lat="42.52392" lon="2.02414">
        <ele>1939.1999511719</ele>
        <time>2016-10-30T09:47:53Z</time>
      </trkpt>
      <trkpt lat="42.52394" lon="2.0241">
        <ele>1939.5999755859</ele>
        <time>2016-10-30T09:47:58Z</time>
      </trkpt>
      <trkpt lat="42.52395" lon="2.02408">
        <ele>1940</ele>
        <time>2016-10-30T09:47:59Z</time>
      </trkpt>
      <trkpt lat="42.52396" lon="2.02407">
        <ele>1940.4000244141</ele>
        <time>2016-10-30T09:48:00Z</time>
      </trkpt>
      <trkpt lat="42.52396" lon="2.02406">
        <ele>1940.8000488281</ele>
        <time>2016-10-30T09:48:01Z</time>
      </trkpt>
      <trkpt lat="42.52397" lon="2.02405">
        <ele>1941.1999511719</ele>
        <time>2016-10-30T09:48:02Z</time>
      </trkpt>
      <trkpt lat="42.524" lon="2.02401">
        <ele>1941.1999511719</ele>
        <time>2016-10-30T09:48:06Z</time>
      </trkpt>
      <trkpt lat="42.52405" lon="2.02395">
        <ele>1941.1999511719</ele>
        <time>2016-10-30T09:48:12Z</time>
      </trkpt>
      <trkpt lat="42.52408" lon="2.02389">
        <ele>1941.1999511719</ele>
        <time>2016-10-30T09:48:18Z</time>
      </trkpt>
      <trkpt lat="42.52412" lon="2.02384">
        <ele>1941.1999511719</ele>
        <time>2016-10-30T09:48:23Z</time>
      </trkpt>
      <trkpt lat="42.52412" lon="2.02384">
        <ele>1941.5999755859</ele>
        <time>2016-10-30T09:48:24Z</time>
      </trkpt>
      <trkpt lat="42.52413" lon="2.02383">
        <ele>1942</ele>
        <time>2016-10-30T09:48:25Z</time>
      </trkpt>
      <trkpt lat="42.52414" lon="2.02382">
        <ele>1942.4000244141</ele>
        <time>2016-10-30T09:48:26Z</time>
      </trkpt>
      <trkpt lat="42.52414" lon="2.02382">
        <ele>1943</ele>
        <time>2016-10-30T09:48:27Z</time>
      </trkpt>
      <trkpt lat="42.52415" lon="2.0238">
        <ele>1943.4000244141</ele>
        <time>2016-10-30T09:48:28Z</time>
      </trkpt>
      <trkpt lat="42.52416" lon="2.02379">
        <ele>1943.4000244141</ele>
        <time>2016-10-30T09:48:30Z</time>
      </trkpt>
      <trkpt lat="42.5242" lon="2.02373">
        <ele>1943.4000244141</ele>
        <time>2016-10-30T09:48:37Z</time>
      </trkpt>
      <trkpt lat="42.52427" lon="2.02367">
        <ele>1943.4000244141</ele>
        <time>2016-10-30T09:48:43Z</time>
      </trkpt>
      <trkpt lat="42.5243" lon="2.02365">
        <ele>1943.4000244141</ele>
        <time>2016-10-30T09:48:46Z</time>
      </trkpt>
      <trkpt lat="42.52431" lon="2.02365">
        <ele>1943.4000244141</ele>
        <time>2016-10-30T09:48:48Z</time>
      </trkpt>
      <trkpt lat="42.52438" lon="2.02362">
        <ele>1943.4000244141</ele>
        <time>2016-10-30T09:48:55Z</time>
      </trkpt>
      <trkpt lat="42.5244" lon="2.02361">
        <ele>1943.8000488281</ele>
        <time>2016-10-30T09:48:58Z</time>
      </trkpt>
      <trkpt lat="42.52441" lon="2.0236">
        <ele>1944.1999511719</ele>
        <time>2016-10-30T09:48:59Z</time>
      </trkpt>
      <trkpt lat="42.52442" lon="2.0236">
        <ele>1944.5999755859</ele>
        <time>2016-10-30T09:49:00Z</time>
      </trkpt>
      <trkpt lat="42.52443" lon="2.0236">
        <ele>1945</ele>
        <time>2016-10-30T09:49:01Z</time>
      </trkpt>
      <trkpt lat="42.52444" lon="2.02359">
        <ele>1945.4000244141</ele>
        <time>2016-10-30T09:49:02Z</time>
      </trkpt>
      <trkpt lat="42.5245" lon="2.02359">
        <ele>1945.4000244141</ele>
        <time>2016-10-30T09:49:08Z</time>
      </trkpt>
      <trkpt lat="42.52453" lon="2.02359">
        <ele>1945.4000244141</ele>
        <time>2016-10-30T09:49:14Z</time>
      </trkpt>
      <trkpt lat="42.52455" lon="2.02359">
        <ele>1945.4000244141</ele>
        <time>2016-10-30T09:49:20Z</time>
      </trkpt>
      <trkpt lat="42.5246" lon="2.02358">
        <ele>1945.4000244141</ele>
        <time>2016-10-30T09:49:27Z</time>
      </trkpt>
      <trkpt lat="42.52464" lon="2.02358">
        <ele>1945.4000244141</ele>
        <time>2016-10-30T09:49:31Z</time>
      </trkpt>
      <trkpt lat="42.52468" lon="2.02359">
        <ele>1945.4000244141</ele>
        <time>2016-10-30T09:49:35Z</time>
      </trkpt>
      <trkpt lat="42.52469" lon="2.02359">
        <ele>1945.8000488281</ele>
        <time>2016-10-30T09:49:36Z</time>
      </trkpt>
      <trkpt lat="42.5247" lon="2.02359">
        <ele>1946.1999511719</ele>
        <time>2016-10-30T09:49:37Z</time>
      </trkpt>
      <trkpt lat="42.5247" lon="2.0236">
        <ele>1946.5999755859</ele>
        <time>2016-10-30T09:49:38Z</time>
      </trkpt>
      <trkpt lat="42.52471" lon="2.0236">
        <ele>1947</ele>
        <time>2016-10-30T09:49:39Z</time>
      </trkpt>
      <trkpt lat="42.52472" lon="2.0236">
        <ele>1947.4000244141</ele>
        <time>2016-10-30T09:49:40Z</time>
      </trkpt>
      <trkpt lat="42.52475" lon="2.02361">
        <ele>1947.4000244141</ele>
        <time>2016-10-30T09:49:43Z</time>
      </trkpt>
      <trkpt lat="42.5248" lon="2.0236">
        <ele>1947.4000244141</ele>
        <time>2016-10-30T09:49:48Z</time>
      </trkpt>
      <trkpt lat="42.52486" lon="2.02361">
        <ele>1947.4000244141</ele>
        <time>2016-10-30T09:49:54Z</time>
      </trkpt>
      <trkpt lat="42.52492" lon="2.02363">
        <ele>1947.4000244141</ele>
        <time>2016-10-30T09:50:00Z</time>
      </trkpt>
      <trkpt lat="42.52496" lon="2.02363">
        <ele>1947.4000244141</ele>
        <time>2016-10-30T09:50:05Z</time>
      </trkpt>
      <trkpt lat="42.52503" lon="2.02364">
        <ele>1947.4000244141</ele>
        <time>2016-10-30T09:50:12Z</time>
      </trkpt>
      <trkpt lat="42.52504" lon="2.02364">
        <ele>1947.8000488281</ele>
        <time>2016-10-30T09:50:14Z</time>
      </trkpt>
      <trkpt lat="42.52505" lon="2.02364">
        <ele>1948.1999511719</ele>
        <time>2016-10-30T09:50:15Z</time>
      </trkpt>
      <trkpt lat="42.52506" lon="2.02365">
        <ele>1948.5999755859</ele>
        <time>2016-10-30T09:50:16Z</time>
      </trkpt>
      <trkpt lat="42.52507" lon="2.02366">
        <ele>1949</ele>
        <time>2016-10-30T09:50:17Z</time>
      </trkpt>
      <trkpt lat="42.52507" lon="2.02367">
        <ele>1949.4000244141</ele>
        <time>2016-10-30T09:50:18Z</time>
      </trkpt>
      <trkpt lat="42.52509" lon="2.0237">
        <ele>1949.4000244141</ele>
        <time>2016-10-30T09:50:20Z</time>
      </trkpt>
      <trkpt lat="42.52511" lon="2.02376">
        <ele>1949.4000244141</ele>
        <time>2016-10-30T09:50:26Z</time>
      </trkpt>
      <trkpt lat="42.52517" lon="2.02372">
        <ele>1949.4000244141</ele>
        <time>2016-10-30T09:50:32Z</time>
      </trkpt>
      <trkpt lat="42.5252" lon="2.02369">
        <ele>1949.4000244141</ele>
        <time>2016-10-30T09:50:38Z</time>
      </trkpt>
      <trkpt lat="42.5252" lon="2.02369">
        <ele>1949.4000244141</ele>
        <time>2016-10-30T09:50:48Z</time>
      </trkpt>
      <trkpt lat="42.5252" lon="2.02369">
        <ele>1949.4000244141</ele>
        <time>2016-10-30T09:50:57Z</time>
      </trkpt>
      <trkpt lat="42.5252" lon="2.02369">
        <ele>1949.4000244141</ele>
        <time>2016-10-30T09:51:08Z</time>
      </trkpt>
      <trkpt lat="42.5252" lon="2.02369">
        <ele>1949.4000244141</ele>
        <time>2016-10-30T09:51:13Z</time>
      </trkpt>
      <trkpt lat="42.5252" lon="2.02369">
        <ele>1949.4000244141</ele>
        <time>2016-10-30T09:51:27Z</time>
      </trkpt>
      <trkpt lat="42.5252" lon="2.02369">
        <ele>1949.4000244141</ele>
        <time>2016-10-30T09:51:36Z</time>
      </trkpt>
      <trkpt lat="42.52522" lon="2.02369">
        <ele>1949.4000244141</ele>
        <time>2016-10-30T09:51:39Z</time>
      </trkpt>
      <trkpt lat="42.52526" lon="2.0237">
        <ele>1949.4000244141</ele>
        <time>2016-10-30T09:51:43Z</time>
      </trkpt>
      <trkpt lat="42.52532" lon="2.02372">
        <ele>1949.4000244141</ele>
        <time>2016-10-30T09:51:49Z</time>
      </trkpt>
      <trkpt lat="42.52535" lon="2.02372">
        <ele>1949.4000244141</ele>
        <time>2016-10-30T09:51:52Z</time>
      </trkpt>
      <trkpt lat="42.52539" lon="2.02372">
        <ele>1949.4000244141</ele>
        <time>2016-10-30T09:51:55Z</time>
      </trkpt>
      <trkpt lat="42.5254" lon="2.02372">
        <ele>1949.4000244141</ele>
        <time>2016-10-30T09:51:56Z</time>
      </trkpt>
      <trkpt lat="42.52541" lon="2.02373">
        <ele>1949.8000488281</ele>
        <time>2016-10-30T09:51:57Z</time>
      </trkpt>
      <trkpt lat="42.52542" lon="2.02373">
        <ele>1950.5999755859</ele>
        <time>2016-10-30T09:51:58Z</time>
      </trkpt>
      <trkpt lat="42.52543" lon="2.02373">
        <ele>1951</ele>
        <time>2016-10-30T09:51:59Z</time>
      </trkpt>
      <trkpt lat="42.52544" lon="2.02373">
        <ele>1951.4000244141</ele>
        <time>2016-10-30T09:52:00Z</time>
      </trkpt>
      <trkpt lat="42.52546" lon="2.02373">
        <ele>1951.4000244141</ele>
        <time>2016-10-30T09:52:02Z</time>
      </trkpt>
      <trkpt lat="42.52555" lon="2.02375">
        <ele>1951.4000244141</ele>
        <time>2016-10-30T09:52:09Z</time>
      </trkpt>
      <trkpt lat="42.5256" lon="2.02375">
        <ele>1951.4000244141</ele>
        <time>2016-10-30T09:52:15Z</time>
      </trkpt>
      <trkpt lat="42.52567" lon="2.02377">
        <ele>1951.4000244141</ele>
        <time>2016-10-30T09:52:22Z</time>
      </trkpt>
      <trkpt lat="42.52575" lon="2.02378">
        <ele>1951.4000244141</ele>
        <time>2016-10-30T09:52:29Z</time>
      </trkpt>
      <trkpt lat="42.52583" lon="2.0238">
        <ele>1951.4000244141</ele>
        <time>2016-10-30T09:52:36Z</time>
      </trkpt>
      <trkpt lat="42.52592" lon="2.02382">
        <ele>1951.4000244141</ele>
        <time>2016-10-30T09:52:45Z</time>
      </trkpt>
      <trkpt lat="42.52594" lon="2.02382">
        <ele>1951.8000488281</ele>
        <time>2016-10-30T09:52:46Z</time>
      </trkpt>
      <trkpt lat="42.52595" lon="2.02382">
        <ele>1952.8000488281</ele>
        <time>2016-10-30T09:52:47Z</time>
      </trkpt>
      <trkpt lat="42.52596" lon="2.02382">
        <ele>1953.1999511719</ele>
        <time>2016-10-30T09:52:48Z</time>
      </trkpt>
      <trkpt lat="42.52597" lon="2.02382">
        <ele>1953.5999755859</ele>
        <time>2016-10-30T09:52:49Z</time>
      </trkpt>
      <trkpt lat="42.52599" lon="2.02383">
        <ele>1953.5999755859</ele>
        <time>2016-10-30T09:52:51Z</time>
      </trkpt>
      <trkpt lat="42.52609" lon="2.02383">
        <ele>1953.5999755859</ele>
        <time>2016-10-30T09:52:59Z</time>
      </trkpt>
      <trkpt lat="42.52615" lon="2.02381">
        <ele>1953.5999755859</ele>
        <time>2016-10-30T09:53:04Z</time>
      </trkpt>
      <trkpt lat="42.5262" lon="2.02377">
        <ele>1953.5999755859</ele>
        <time>2016-10-30T09:53:09Z</time>
      </trkpt>
      <trkpt lat="42.52625" lon="2.02372">
        <ele>1953.5999755859</ele>
        <time>2016-10-30T09:53:14Z</time>
      </trkpt>
      <trkpt lat="42.52626" lon="2.0237">
        <ele>1953.5999755859</ele>
        <time>2016-10-30T09:53:16Z</time>
      </trkpt>
      <trkpt lat="42.52629" lon="2.02368">
        <ele>1953.5999755859</ele>
        <time>2016-10-30T09:53:19Z</time>
      </trkpt>
      <trkpt lat="42.52634" lon="2.02364">
        <ele>1953.5999755859</ele>
        <time>2016-10-30T09:53:24Z</time>
      </trkpt>
      <trkpt lat="42.52635" lon="2.02362">
        <ele>1953.5999755859</ele>
        <time>2016-10-30T09:53:26Z</time>
      </trkpt>
      <trkpt lat="42.52638" lon="2.0236">
        <ele>1953.5999755859</ele>
        <time>2016-10-30T09:53:29Z</time>
      </trkpt>
      <trkpt lat="42.52641" lon="2.02358">
        <ele>1953.5999755859</ele>
        <time>2016-10-30T09:53:31Z</time>
      </trkpt>
      <trkpt lat="42.52642" lon="2.02356">
        <ele>1953.5999755859</ele>
        <time>2016-10-30T09:53:33Z</time>
      </trkpt>
      <trkpt lat="42.52643" lon="2.02355">
        <ele>1953.5999755859</ele>
        <time>2016-10-30T09:53:34Z</time>
      </trkpt>
      <trkpt lat="42.52647" lon="2.02349">
        <ele>1953.5999755859</ele>
        <time>2016-10-30T09:53:39Z</time>
      </trkpt>
      <trkpt lat="42.52651" lon="2.02346">
        <ele>1953.5999755859</ele>
        <time>2016-10-30T09:53:43Z</time>
      </trkpt>
      <trkpt lat="42.52652" lon="2.02345">
        <ele>1953.5999755859</ele>
        <time>2016-10-30T09:53:44Z</time>
      </trkpt>
      <trkpt lat="42.52656" lon="2.02341">
        <ele>1953.5999755859</ele>
        <time>2016-10-30T09:53:49Z</time>
      </trkpt>
      <trkpt lat="42.52657" lon="2.02339">
        <ele>1953.5999755859</ele>
        <time>2016-10-30T09:53:51Z</time>
      </trkpt>
      <trkpt lat="42.5266" lon="2.02336">
        <ele>1953.5999755859</ele>
        <time>2016-10-30T09:53:54Z</time>
      </trkpt>
      <trkpt lat="42.52666" lon="2.0233">
        <ele>1954</ele>
        <time>2016-10-30T09:54:00Z</time>
      </trkpt>
      <trkpt lat="42.52667" lon="2.02329">
        <ele>1954.8000488281</ele>
        <time>2016-10-30T09:54:01Z</time>
      </trkpt>
      <trkpt lat="42.52667" lon="2.02328">
        <ele>1955.1999511719</ele>
        <time>2016-10-30T09:54:02Z</time>
      </trkpt>
      <trkpt lat="42.52668" lon="2.02327">
        <ele>1955.5999755859</ele>
        <time>2016-10-30T09:54:03Z</time>
      </trkpt>
      <trkpt lat="42.52671" lon="2.02324">
        <ele>1955.5999755859</ele>
        <time>2016-10-30T09:54:06Z</time>
      </trkpt>
      <trkpt lat="42.52671" lon="2.02323">
        <ele>1955.5999755859</ele>
        <time>2016-10-30T09:54:07Z</time>
      </trkpt>
      <trkpt lat="42.52675" lon="2.0232">
        <ele>1955.5999755859</ele>
        <time>2016-10-30T09:54:11Z</time>
      </trkpt>
      <trkpt lat="42.52679" lon="2.02315">
        <ele>1955.5999755859</ele>
        <time>2016-10-30T09:54:16Z</time>
      </trkpt>
      <trkpt lat="42.52683" lon="2.02309">
        <ele>1955.5999755859</ele>
        <time>2016-10-30T09:54:21Z</time>
      </trkpt>
      <trkpt lat="42.52686" lon="2.02304">
        <ele>1955.5999755859</ele>
        <time>2016-10-30T09:54:26Z</time>
      </trkpt>
      <trkpt lat="42.52691" lon="2.02297">
        <ele>1955.5999755859</ele>
        <time>2016-10-30T09:54:32Z</time>
      </trkpt>
      <trkpt lat="42.52695" lon="2.02292">
        <ele>1955.5999755859</ele>
        <time>2016-10-30T09:54:38Z</time>
      </trkpt>
      <trkpt lat="42.52699" lon="2.02286">
        <ele>1956</ele>
        <time>2016-10-30T09:54:43Z</time>
      </trkpt>
      <trkpt lat="42.52699" lon="2.02285">
        <ele>1956.4000244141</ele>
        <time>2016-10-30T09:54:44Z</time>
      </trkpt>
      <trkpt lat="42.527" lon="2.02283">
        <ele>1957</ele>
        <time>2016-10-30T09:54:45Z</time>
      </trkpt>
      <trkpt lat="42.527" lon="2.02282">
        <ele>1957.4000244141</ele>
        <time>2016-10-30T09:54:46Z</time>
      </trkpt>
      <trkpt lat="42.527" lon="2.0228">
        <ele>1957.8000488281</ele>
        <time>2016-10-30T09:54:47Z</time>
      </trkpt>
      <trkpt lat="42.52701" lon="2.02277">
        <ele>1957.8000488281</ele>
        <time>2016-10-30T09:54:49Z</time>
      </trkpt>
      <trkpt lat="42.52702" lon="2.02275">
        <ele>1957.8000488281</ele>
        <time>2016-10-30T09:54:51Z</time>
      </trkpt>
      <trkpt lat="42.52703" lon="2.02273">
        <ele>1957.8000488281</ele>
        <time>2016-10-30T09:54:52Z</time>
      </trkpt>
      <trkpt lat="42.52705" lon="2.02271">
        <ele>1957.8000488281</ele>
        <time>2016-10-30T09:54:54Z</time>
      </trkpt>
      <trkpt lat="42.52707" lon="2.02267">
        <ele>1957.8000488281</ele>
        <time>2016-10-30T09:54:59Z</time>
      </trkpt>
      <trkpt lat="42.52709" lon="2.02263">
        <ele>1957.8000488281</ele>
        <time>2016-10-30T09:55:02Z</time>
      </trkpt>
      <trkpt lat="42.5271" lon="2.02261">
        <ele>1957.8000488281</ele>
        <time>2016-10-30T09:55:04Z</time>
      </trkpt>
      <trkpt lat="42.52711" lon="2.02259">
        <ele>1957.8000488281</ele>
        <time>2016-10-30T09:55:06Z</time>
      </trkpt>
      <trkpt lat="42.52713" lon="2.02255">
        <ele>1957.8000488281</ele>
        <time>2016-10-30T09:55:09Z</time>
      </trkpt>
      <trkpt lat="42.52716" lon="2.02249">
        <ele>1957.8000488281</ele>
        <time>2016-10-30T09:55:14Z</time>
      </trkpt>
      <trkpt lat="42.52721" lon="2.02242">
        <ele>1957.8000488281</ele>
        <time>2016-10-30T09:55:20Z</time>
      </trkpt>
      <trkpt lat="42.52724" lon="2.02236">
        <ele>1957.8000488281</ele>
        <time>2016-10-30T09:55:25Z</time>
      </trkpt>
      <trkpt lat="42.52726" lon="2.02234">
        <ele>1958.1999511719</ele>
        <time>2016-10-30T09:55:27Z</time>
      </trkpt>
      <trkpt lat="42.52727" lon="2.02233">
        <ele>1958.5999755859</ele>
        <time>2016-10-30T09:55:28Z</time>
      </trkpt>
      <trkpt lat="42.52728" lon="2.02232">
        <ele>1959</ele>
        <time>2016-10-30T09:55:29Z</time>
      </trkpt>
      <trkpt lat="42.52728" lon="2.02231">
        <ele>1959.4000244141</ele>
        <time>2016-10-30T09:55:30Z</time>
      </trkpt>
      <trkpt lat="42.52729" lon="2.02229">
        <ele>1959.8000488281</ele>
        <time>2016-10-30T09:55:31Z</time>
      </trkpt>
      <trkpt lat="42.52731" lon="2.02226">
        <ele>1959.8000488281</ele>
        <time>2016-10-30T09:55:33Z</time>
      </trkpt>
      <trkpt lat="42.52734" lon="2.02223">
        <ele>1959.8000488281</ele>
        <time>2016-10-30T09:55:37Z</time>
      </trkpt>
      <trkpt lat="42.52737" lon="2.02219">
        <ele>1959.8000488281</ele>
        <time>2016-10-30T09:55:41Z</time>
      </trkpt>
      <trkpt lat="42.52738" lon="2.02218">
        <ele>1959.8000488281</ele>
        <time>2016-10-30T09:55:42Z</time>
      </trkpt>
      <trkpt lat="42.5274" lon="2.02213">
        <ele>1959.8000488281</ele>
        <time>2016-10-30T09:55:45Z</time>
      </trkpt>
      <trkpt lat="42.52739" lon="2.02209">
        <ele>1959.8000488281</ele>
        <time>2016-10-30T09:55:48Z</time>
      </trkpt>
      <trkpt lat="42.5274" lon="2.02204">
        <ele>1959.8000488281</ele>
        <time>2016-10-30T09:55:51Z</time>
      </trkpt>
      <trkpt lat="42.52742" lon="2.02202">
        <ele>1959.8000488281</ele>
        <time>2016-10-30T09:55:54Z</time>
      </trkpt>
      <trkpt lat="42.52744" lon="2.02201">
        <ele>1959.8000488281</ele>
        <time>2016-10-30T09:55:55Z</time>
      </trkpt>
      <trkpt lat="42.52748" lon="2.02196">
        <ele>1959.8000488281</ele>
        <time>2016-10-30T09:56:00Z</time>
      </trkpt>
      <trkpt lat="42.52749" lon="2.02195">
        <ele>1960.1999511719</ele>
        <time>2016-10-30T09:56:02Z</time>
      </trkpt>
      <trkpt lat="42.5275" lon="2.02195">
        <ele>1960.5999755859</ele>
        <time>2016-10-30T09:56:03Z</time>
      </trkpt>
      <trkpt lat="42.5275" lon="2.02195">
        <ele>1961</ele>
        <time>2016-10-30T09:56:04Z</time>
      </trkpt>
      <trkpt lat="42.52751" lon="2.02195">
        <ele>1961.8000488281</ele>
        <time>2016-10-30T09:56:05Z</time>
      </trkpt>
      <trkpt lat="42.52753" lon="2.02194">
        <ele>1961.8000488281</ele>
        <time>2016-10-30T09:56:06Z</time>
      </trkpt>
      <trkpt lat="42.52757" lon="2.02191">
        <ele>1961.8000488281</ele>
        <time>2016-10-30T09:56:11Z</time>
      </trkpt>
      <trkpt lat="42.52762" lon="2.02186">
        <ele>1961.8000488281</ele>
        <time>2016-10-30T09:56:17Z</time>
      </trkpt>
      <trkpt lat="42.52764" lon="2.02183">
        <ele>1961.8000488281</ele>
        <time>2016-10-30T09:56:20Z</time>
      </trkpt>
      <trkpt lat="42.52766" lon="2.02181">
        <ele>1961.8000488281</ele>
        <time>2016-10-30T09:56:22Z</time>
      </trkpt>
      <trkpt lat="42.52767" lon="2.02179">
        <ele>1961.8000488281</ele>
        <time>2016-10-30T09:56:24Z</time>
      </trkpt>
      <trkpt lat="42.5277" lon="2.02175">
        <ele>1961.8000488281</ele>
        <time>2016-10-30T09:56:27Z</time>
      </trkpt>
      <trkpt lat="42.52771" lon="2.02174">
        <ele>1961.8000488281</ele>
        <time>2016-10-30T09:56:28Z</time>
      </trkpt>
      <trkpt lat="42.52774" lon="2.0217">
        <ele>1961.8000488281</ele>
        <time>2016-10-30T09:56:32Z</time>
      </trkpt>
      <trkpt lat="42.52779" lon="2.02165">
        <ele>1961.8000488281</ele>
        <time>2016-10-30T09:56:37Z</time>
      </trkpt>
      <trkpt lat="42.52782" lon="2.02158">
        <ele>1961.8000488281</ele>
        <time>2016-10-30T09:56:42Z</time>
      </trkpt>
      <trkpt lat="42.52784" lon="2.02155">
        <ele>1961.8000488281</ele>
        <time>2016-10-30T09:56:45Z</time>
      </trkpt>
      <trkpt lat="42.52786" lon="2.02153">
        <ele>1961.8000488281</ele>
        <time>2016-10-30T09:56:47Z</time>
      </trkpt>
      <trkpt lat="42.52788" lon="2.02151">
        <ele>1962.1999511719</ele>
        <time>2016-10-30T09:56:49Z</time>
      </trkpt>
      <trkpt lat="42.52787" lon="2.02151">
        <ele>1962.5999755859</ele>
        <time>2016-10-30T09:56:50Z</time>
      </trkpt>
      <trkpt lat="42.52789" lon="2.02149">
        <ele>1963</ele>
        <time>2016-10-30T09:56:51Z</time>
      </trkpt>
      <trkpt lat="42.5279" lon="2.02149">
        <ele>1963.5999755859</ele>
        <time>2016-10-30T09:56:52Z</time>
      </trkpt>
      <trkpt lat="42.52791" lon="2.02148">
        <ele>1964</ele>
        <time>2016-10-30T09:56:53Z</time>
      </trkpt>
      <trkpt lat="42.52793" lon="2.02147">
        <ele>1964</ele>
        <time>2016-10-30T09:56:55Z</time>
      </trkpt>
      <trkpt lat="42.52794" lon="2.02145">
        <ele>1964</ele>
        <time>2016-10-30T09:56:57Z</time>
      </trkpt>
      <trkpt lat="42.52796" lon="2.02144">
        <ele>1964</ele>
        <time>2016-10-30T09:57:00Z</time>
      </trkpt>
      <trkpt lat="42.52798" lon="2.02143">
        <ele>1964</ele>
        <time>2016-10-30T09:57:02Z</time>
      </trkpt>
      <trkpt lat="42.528" lon="2.02141">
        <ele>1964</ele>
        <time>2016-10-30T09:57:04Z</time>
      </trkpt>
      <trkpt lat="42.52802" lon="2.02139">
        <ele>1964</ele>
        <time>2016-10-30T09:57:07Z</time>
      </trkpt>
      <trkpt lat="42.52807" lon="2.02131">
        <ele>1964</ele>
        <time>2016-10-30T09:57:14Z</time>
      </trkpt>
      <trkpt lat="42.52808" lon="2.02127">
        <ele>1964</ele>
        <time>2016-10-30T09:57:17Z</time>
      </trkpt>
      <trkpt lat="42.5281" lon="2.02123">
        <ele>1964</ele>
        <time>2016-10-30T09:57:20Z</time>
      </trkpt>
      <trkpt lat="42.52812" lon="2.02117">
        <ele>1964</ele>
        <time>2016-10-30T09:57:25Z</time>
      </trkpt>
      <trkpt lat="42.52812" lon="2.02117">
        <ele>1964</ele>
        <time>2016-10-30T09:57:32Z</time>
      </trkpt>
      <trkpt lat="42.52812" lon="2.02117">
        <ele>1964</ele>
        <time>2016-10-30T09:57:42Z</time>
      </trkpt>
      <trkpt lat="42.52812" lon="2.02116">
        <ele>1964</ele>
        <time>2016-10-30T09:57:54Z</time>
      </trkpt>
      <trkpt lat="42.52815" lon="2.02112">
        <ele>1964</ele>
        <time>2016-10-30T09:57:57Z</time>
      </trkpt>
      <trkpt lat="42.52817" lon="2.0211">
        <ele>1964</ele>
        <time>2016-10-30T09:57:59Z</time>
      </trkpt>
      <trkpt lat="42.52821" lon="2.02104">
        <ele>1964</ele>
        <time>2016-10-30T09:58:04Z</time>
      </trkpt>
      <trkpt lat="42.52828" lon="2.021">
        <ele>1964</ele>
        <time>2016-10-30T09:58:10Z</time>
      </trkpt>
      <trkpt lat="42.5283" lon="2.02095">
        <ele>1964</ele>
        <time>2016-10-30T09:58:15Z</time>
      </trkpt>
      <trkpt lat="42.52835" lon="2.02091">
        <ele>1964</ele>
        <time>2016-10-30T09:58:21Z</time>
      </trkpt>
      <trkpt lat="42.52836" lon="2.0209">
        <ele>1964</ele>
        <time>2016-10-30T09:58:22Z</time>
      </trkpt>
      <trkpt lat="42.52839" lon="2.02086">
        <ele>1964</ele>
        <time>2016-10-30T09:58:26Z</time>
      </trkpt>
      <trkpt lat="42.52844" lon="2.02082">
        <ele>1964</ele>
        <time>2016-10-30T09:58:31Z</time>
      </trkpt>
      <trkpt lat="42.52845" lon="2.0208">
        <ele>1964</ele>
        <time>2016-10-30T09:58:32Z</time>
      </trkpt>
      <trkpt lat="42.52846" lon="2.02077">
        <ele>1964</ele>
        <time>2016-10-30T09:58:35Z</time>
      </trkpt>
      <trkpt lat="42.52847" lon="2.02076">
        <ele>1964</ele>
        <time>2016-10-30T09:58:36Z</time>
      </trkpt>
      <trkpt lat="42.52851" lon="2.02073">
        <ele>1964</ele>
        <time>2016-10-30T09:58:40Z</time>
      </trkpt>
      <trkpt lat="42.52853" lon="2.02071">
        <ele>1964</ele>
        <time>2016-10-30T09:58:42Z</time>
      </trkpt>
      <trkpt lat="42.52856" lon="2.02069">
        <ele>1964</ele>
        <time>2016-10-30T09:58:46Z</time>
      </trkpt>
      <trkpt lat="42.52861" lon="2.02063">
        <ele>1964</ele>
        <time>2016-10-30T09:58:51Z</time>
      </trkpt>
      <trkpt lat="42.52863" lon="2.02061">
        <ele>1964</ele>
        <time>2016-10-30T09:58:54Z</time>
      </trkpt>
      <trkpt lat="42.52864" lon="2.0206">
        <ele>1964</ele>
        <time>2016-10-30T09:58:56Z</time>
      </trkpt>
      <trkpt lat="42.52866" lon="2.02057">
        <ele>1964</ele>
        <time>2016-10-30T09:59:02Z</time>
      </trkpt>
      <trkpt lat="42.52866" lon="2.02054">
        <ele>1963.5999755859</ele>
        <time>2016-10-30T09:59:06Z</time>
      </trkpt>
      <trkpt lat="42.52866" lon="2.02054">
        <ele>1963.1999511719</ele>
        <time>2016-10-30T09:59:07Z</time>
      </trkpt>
      <trkpt lat="42.52866" lon="2.02052">
        <ele>1962.8000488281</ele>
        <time>2016-10-30T09:59:08Z</time>
      </trkpt>
      <trkpt lat="42.52868" lon="2.02051">
        <ele>1962.1999511719</ele>
        <time>2016-10-30T09:59:09Z</time>
      </trkpt>
      <trkpt lat="42.52868" lon="2.02051">
        <ele>1961.8000488281</ele>
        <time>2016-10-30T09:59:10Z</time>
      </trkpt>
      <trkpt lat="42.52869" lon="2.0205">
        <ele>1961.8000488281</ele>
        <time>2016-10-30T09:59:12Z</time>
      </trkpt>
      <trkpt lat="42.52872" lon="2.02046">
        <ele>1961.8000488281</ele>
        <time>2016-10-30T09:59:16Z</time>
      </trkpt>
      <trkpt lat="42.52873" lon="2.02045">
        <ele>1961.8000488281</ele>
        <time>2016-10-30T09:59:17Z</time>
      </trkpt>
      <trkpt lat="42.52875" lon="2.02042">
        <ele>1961.8000488281</ele>
        <time>2016-10-30T09:59:20Z</time>
      </trkpt>
      <trkpt lat="42.52877" lon="2.02039">
        <ele>1961.8000488281</ele>
        <time>2016-10-30T09:59:22Z</time>
      </trkpt>
      <trkpt lat="42.5288" lon="2.02037">
        <ele>1961.8000488281</ele>
        <time>2016-10-30T09:59:26Z</time>
      </trkpt>
      <trkpt lat="42.52881" lon="2.02036">
        <ele>1961.8000488281</ele>
        <time>2016-10-30T09:59:28Z</time>
      </trkpt>
      <trkpt lat="42.52884" lon="2.02029">
        <ele>1961.8000488281</ele>
        <time>2016-10-30T09:59:34Z</time>
      </trkpt>
      <trkpt lat="42.52885" lon="2.02021">
        <ele>1961.8000488281</ele>
        <time>2016-10-30T09:59:40Z</time>
      </trkpt>
      <trkpt lat="42.52886" lon="2.02019">
        <ele>1961.8000488281</ele>
        <time>2016-10-30T09:59:41Z</time>
      </trkpt>
      <trkpt lat="42.52889" lon="2.02014">
        <ele>1961.8000488281</ele>
        <time>2016-10-30T09:59:45Z</time>
      </trkpt>
      <trkpt lat="42.52891" lon="2.02011">
        <ele>1961.8000488281</ele>
        <time>2016-10-30T09:59:47Z</time>
      </trkpt>
      <trkpt lat="42.52896" lon="2.02005">
        <ele>1961.8000488281</ele>
        <time>2016-10-30T09:59:53Z</time>
      </trkpt>
      <trkpt lat="42.52897" lon="2.02005">
        <ele>1961.8000488281</ele>
        <time>2016-10-30T09:59:54Z</time>
      </trkpt>
      <trkpt lat="42.52899" lon="2.02003">
        <ele>1961.8000488281</ele>
        <time>2016-10-30T09:59:58Z</time>
      </trkpt>
      <trkpt lat="42.52904" lon="2.01999">
        <ele>1961.8000488281</ele>
        <time>2016-10-30T10:00:03Z</time>
      </trkpt>
      <trkpt lat="42.5291" lon="2.01995">
        <ele>1961.8000488281</ele>
        <time>2016-10-30T10:00:09Z</time>
      </trkpt>
      <trkpt lat="42.52915" lon="2.01991">
        <ele>1961.8000488281</ele>
        <time>2016-10-30T10:00:14Z</time>
      </trkpt>
      <trkpt lat="42.52921" lon="2.01989">
        <ele>1961.8000488281</ele>
        <time>2016-10-30T10:00:20Z</time>
      </trkpt>
      <trkpt lat="42.52925" lon="2.01988">
        <ele>1961.8000488281</ele>
        <time>2016-10-30T10:00:25Z</time>
      </trkpt>
      <trkpt lat="42.52928" lon="2.01987">
        <ele>1961.8000488281</ele>
        <time>2016-10-30T10:00:29Z</time>
      </trkpt>
      <trkpt lat="42.5293" lon="2.01984">
        <ele>1961.8000488281</ele>
        <time>2016-10-30T10:00:31Z</time>
      </trkpt>
      <trkpt lat="42.52931" lon="2.01984">
        <ele>1961.8000488281</ele>
        <time>2016-10-30T10:00:33Z</time>
      </trkpt>
      <trkpt lat="42.52933" lon="2.01982">
        <ele>1961.8000488281</ele>
        <time>2016-10-30T10:00:36Z</time>
      </trkpt>
      <trkpt lat="42.52935" lon="2.01974">
        <ele>1962.4000244141</ele>
        <time>2016-10-30T10:00:41Z</time>
      </trkpt>
      <trkpt lat="42.52934" lon="2.01973">
        <ele>1962.8000488281</ele>
        <time>2016-10-30T10:00:42Z</time>
      </trkpt>
      <trkpt lat="42.52934" lon="2.01972">
        <ele>1963.1999511719</ele>
        <time>2016-10-30T10:00:43Z</time>
      </trkpt>
      <trkpt lat="42.52935" lon="2.01971">
        <ele>1963.5999755859</ele>
        <time>2016-10-30T10:00:44Z</time>
      </trkpt>
      <trkpt lat="42.52936" lon="2.0197">
        <ele>1964</ele>
        <time>2016-10-30T10:00:45Z</time>
      </trkpt>
      <trkpt lat="42.52936" lon="2.01969">
        <ele>1964</ele>
        <time>2016-10-30T10:00:46Z</time>
      </trkpt>
      <trkpt lat="42.5294" lon="2.01964">
        <ele>1964</ele>
        <time>2016-10-30T10:00:53Z</time>
      </trkpt>
      <trkpt lat="42.52941" lon="2.01963">
        <ele>1964</ele>
        <time>2016-10-30T10:00:54Z</time>
      </trkpt>
      <trkpt lat="42.52944" lon="2.0196">
        <ele>1964</ele>
        <time>2016-10-30T10:00:58Z</time>
      </trkpt>
      <trkpt lat="42.52946" lon="2.01958">
        <ele>1964</ele>
        <time>2016-10-30T10:01:01Z</time>
      </trkpt>
      <trkpt lat="42.52946" lon="2.01956">
        <ele>1964</ele>
        <time>2016-10-30T10:01:04Z</time>
      </trkpt>
      <trkpt lat="42.52947" lon="2.01956">
        <ele>1964</ele>
        <time>2016-10-30T10:01:10Z</time>
      </trkpt>
      <trkpt lat="42.52949" lon="2.01953">
        <ele>1964</ele>
        <time>2016-10-30T10:01:17Z</time>
      </trkpt>
      <trkpt lat="42.52949" lon="2.01952">
        <ele>1964</ele>
        <time>2016-10-30T10:01:23Z</time>
      </trkpt>
      <trkpt lat="42.52949" lon="2.01952">
        <ele>1964</ele>
        <time>2016-10-30T10:01:31Z</time>
      </trkpt>
      <trkpt lat="42.52949" lon="2.01952">
        <ele>1964</ele>
        <time>2016-10-30T10:01:39Z</time>
      </trkpt>
      <trkpt lat="42.52949" lon="2.01948">
        <ele>1964</ele>
        <time>2016-10-30T10:01:46Z</time>
      </trkpt>
      <trkpt lat="42.52949" lon="2.01948">
        <ele>1964</ele>
        <time>2016-10-30T10:01:59Z</time>
      </trkpt>
      <trkpt lat="42.5295" lon="2.01945">
        <ele>1964</ele>
        <time>2016-10-30T10:02:08Z</time>
      </trkpt>
      <trkpt lat="42.52951" lon="2.01942">
        <ele>1964</ele>
        <time>2016-10-30T10:02:14Z</time>
      </trkpt>
      <trkpt lat="42.52952" lon="2.01939">
        <ele>1964</ele>
        <time>2016-10-30T10:02:16Z</time>
      </trkpt>
      <trkpt lat="42.52952" lon="2.01936">
        <ele>1964</ele>
        <time>2016-10-30T10:02:20Z</time>
      </trkpt>
      <trkpt lat="42.52953" lon="2.01933">
        <ele>1964</ele>
        <time>2016-10-30T10:02:26Z</time>
      </trkpt>
      <trkpt lat="42.52953" lon="2.01933">
        <ele>1964</ele>
        <time>2016-10-30T10:02:35Z</time>
      </trkpt>
      <trkpt lat="42.5295" lon="2.01932">
        <ele>1964</ele>
        <time>2016-10-30T10:02:43Z</time>
      </trkpt>
      <trkpt lat="42.52949" lon="2.01931">
        <ele>1964</ele>
        <time>2016-10-30T10:02:44Z</time>
      </trkpt>
      <trkpt lat="42.52946" lon="2.01928">
        <ele>1964</ele>
        <time>2016-10-30T10:02:48Z</time>
      </trkpt>
      <trkpt lat="42.52942" lon="2.0192">
        <ele>1964</ele>
        <time>2016-10-30T10:02:55Z</time>
      </trkpt>
      <trkpt lat="42.52938" lon="2.01915">
        <ele>1964</ele>
        <time>2016-10-30T10:03:01Z</time>
      </trkpt>
      <trkpt lat="42.52937" lon="2.01913">
        <ele>1964</ele>
        <time>2016-10-30T10:03:03Z</time>
      </trkpt>
      <trkpt lat="42.52937" lon="2.01908">
        <ele>1964</ele>
        <time>2016-10-30T10:03:07Z</time>
      </trkpt>
      <trkpt lat="42.52935" lon="2.01906">
        <ele>1964</ele>
        <time>2016-10-30T10:03:09Z</time>
      </trkpt>
      <trkpt lat="42.52935" lon="2.01901">
        <ele>1964</ele>
        <time>2016-10-30T10:03:12Z</time>
      </trkpt>
      <trkpt lat="42.52935" lon="2.01899">
        <ele>1964</ele>
        <time>2016-10-30T10:03:13Z</time>
      </trkpt>
      <trkpt lat="42.52935" lon="2.01897">
        <ele>1964</ele>
        <time>2016-10-30T10:03:15Z</time>
      </trkpt>
      <trkpt lat="42.52937" lon="2.01893">
        <ele>1964</ele>
        <time>2016-10-30T10:03:18Z</time>
      </trkpt>
      <trkpt lat="42.5294" lon="2.01887">
        <ele>1964</ele>
        <time>2016-10-30T10:03:23Z</time>
      </trkpt>
      <trkpt lat="42.52941" lon="2.01886">
        <ele>1964</ele>
        <time>2016-10-30T10:03:24Z</time>
      </trkpt>
      <trkpt lat="42.52943" lon="2.01883">
        <ele>1964</ele>
        <time>2016-10-30T10:03:29Z</time>
      </trkpt>
      <trkpt lat="42.52946" lon="2.0188">
        <ele>1964</ele>
        <time>2016-10-30T10:03:31Z</time>
      </trkpt>
      <trkpt lat="42.52948" lon="2.01875">
        <ele>1964</ele>
        <time>2016-10-30T10:03:35Z</time>
      </trkpt>
      <trkpt lat="42.52948" lon="2.01872">
        <ele>1964</ele>
        <time>2016-10-30T10:03:37Z</time>
      </trkpt>
      <trkpt lat="42.5295" lon="2.01869">
        <ele>1964</ele>
        <time>2016-10-30T10:03:39Z</time>
      </trkpt>
      <trkpt lat="42.5295" lon="2.01868">
        <ele>1964</ele>
        <time>2016-10-30T10:03:40Z</time>
      </trkpt>
      <trkpt lat="42.52951" lon="2.01859">
        <ele>1964</ele>
        <time>2016-10-30T10:03:47Z</time>
      </trkpt>
      <trkpt lat="42.52952" lon="2.01852">
        <ele>1964</ele>
        <time>2016-10-30T10:03:51Z</time>
      </trkpt>
      <trkpt lat="42.52951" lon="2.0185">
        <ele>1964</ele>
        <time>2016-10-30T10:03:53Z</time>
      </trkpt>
      <trkpt lat="42.52952" lon="2.01846">
        <ele>1964</ele>
        <time>2016-10-30T10:03:55Z</time>
      </trkpt>
      <trkpt lat="42.52952" lon="2.01842">
        <ele>1964</ele>
        <time>2016-10-30T10:03:59Z</time>
      </trkpt>
      <trkpt lat="42.52953" lon="2.01837">
        <ele>1964</ele>
        <time>2016-10-30T10:04:03Z</time>
      </trkpt>
      <trkpt lat="42.52953" lon="2.01836">
        <ele>1964</ele>
        <time>2016-10-30T10:04:05Z</time>
      </trkpt>
      <trkpt lat="42.52953" lon="2.0183">
        <ele>1964</ele>
        <time>2016-10-30T10:04:07Z</time>
      </trkpt>
      <trkpt lat="42.52955" lon="2.01823">
        <ele>1964</ele>
        <time>2016-10-30T10:04:09Z</time>
      </trkpt>
      <trkpt lat="42.52958" lon="2.0182">
        <ele>1964</ele>
        <time>2016-10-30T10:04:12Z</time>
      </trkpt>
      <trkpt lat="42.52959" lon="2.01818">
        <ele>1964</ele>
        <time>2016-10-30T10:04:13Z</time>
      </trkpt>
      <trkpt lat="42.52959" lon="2.01811">
        <ele>1964</ele>
        <time>2016-10-30T10:04:19Z</time>
      </trkpt>
      <trkpt lat="42.52958" lon="2.01808">
        <ele>1964</ele>
        <time>2016-10-30T10:04:25Z</time>
      </trkpt>
      <trkpt lat="42.52958" lon="2.018">
        <ele>1964</ele>
        <time>2016-10-30T10:04:31Z</time>
      </trkpt>
      <trkpt lat="42.52957" lon="2.01796">
        <ele>1964</ele>
        <time>2016-10-30T10:04:33Z</time>
      </trkpt>
      <trkpt lat="42.52957" lon="2.01792">
        <ele>1964</ele>
        <time>2016-10-30T10:04:36Z</time>
      </trkpt>
      <trkpt lat="42.52957" lon="2.01783">
        <ele>1964</ele>
        <time>2016-10-30T10:04:43Z</time>
      </trkpt>
      <trkpt lat="42.52956" lon="2.01778">
        <ele>1964</ele>
        <time>2016-10-30T10:04:47Z</time>
      </trkpt>
      <trkpt lat="42.52953" lon="2.0177">
        <ele>1964</ele>
        <time>2016-10-30T10:04:53Z</time>
      </trkpt>
      <trkpt lat="42.52951" lon="2.01765">
        <ele>1964</ele>
        <time>2016-10-30T10:04:59Z</time>
      </trkpt>
      <trkpt lat="42.52951" lon="2.01765">
        <ele>1964</ele>
        <time>2016-10-30T10:05:13Z</time>
      </trkpt>
      <trkpt lat="42.5295" lon="2.01763">
        <ele>1964</ele>
        <time>2016-10-30T10:05:18Z</time>
      </trkpt>
      <trkpt lat="42.5295" lon="2.01763">
        <ele>1964</ele>
        <time>2016-10-30T10:05:32Z</time>
      </trkpt>
      <trkpt lat="42.5295" lon="2.01763">
        <ele>1964</ele>
        <time>2016-10-30T10:05:42Z</time>
      </trkpt>
      <trkpt lat="42.5295" lon="2.01763">
        <ele>1964</ele>
        <time>2016-10-30T10:05:56Z</time>
      </trkpt>
      <trkpt lat="42.52949" lon="2.0176">
        <ele>1964</ele>
        <time>2016-10-30T10:06:08Z</time>
      </trkpt>
      <trkpt lat="42.52947" lon="2.01752">
        <ele>1964</ele>
        <time>2016-10-30T10:06:14Z</time>
      </trkpt>
      <trkpt lat="42.52946" lon="2.01744">
        <ele>1964</ele>
        <time>2016-10-30T10:06:20Z</time>
      </trkpt>
      <trkpt lat="42.52943" lon="2.01735">
        <ele>1964</ele>
        <time>2016-10-30T10:06:27Z</time>
      </trkpt>
      <trkpt lat="42.52942" lon="2.01731">
        <ele>1964</ele>
        <time>2016-10-30T10:06:32Z</time>
      </trkpt>
      <trkpt lat="42.5294" lon="2.01723">
        <ele>1964</ele>
        <time>2016-10-30T10:06:38Z</time>
      </trkpt>
      <trkpt lat="42.52937" lon="2.01717">
        <ele>1964</ele>
        <time>2016-10-30T10:06:43Z</time>
      </trkpt>
      <trkpt lat="42.52935" lon="2.0171">
        <ele>1964</ele>
        <time>2016-10-30T10:06:48Z</time>
      </trkpt>
      <trkpt lat="42.52935" lon="2.01709">
        <ele>1964</ele>
        <time>2016-10-30T10:06:49Z</time>
      </trkpt>
      <trkpt lat="42.52934" lon="2.01704">
        <ele>1964</ele>
        <time>2016-10-30T10:06:53Z</time>
      </trkpt>
      <trkpt lat="42.52932" lon="2.01696">
        <ele>1964</ele>
        <time>2016-10-30T10:06:59Z</time>
      </trkpt>
      <trkpt lat="42.52931" lon="2.01689">
        <ele>1964</ele>
        <time>2016-10-30T10:07:05Z</time>
      </trkpt>
      <trkpt lat="42.52931" lon="2.01683">
        <ele>1964</ele>
        <time>2016-10-30T10:07:10Z</time>
      </trkpt>
      <trkpt lat="42.5293" lon="2.01677">
        <ele>1964</ele>
        <time>2016-10-30T10:07:15Z</time>
      </trkpt>
      <trkpt lat="42.52928" lon="2.0167">
        <ele>1964</ele>
        <time>2016-10-30T10:07:21Z</time>
      </trkpt>
      <trkpt lat="42.52926" lon="2.01662">
        <ele>1964</ele>
        <time>2016-10-30T10:07:27Z</time>
      </trkpt>
      <trkpt lat="42.52926" lon="2.01659">
        <ele>1964</ele>
        <time>2016-10-30T10:07:30Z</time>
      </trkpt>
      <trkpt lat="42.52925" lon="2.01656">
        <ele>1964</ele>
        <time>2016-10-30T10:07:33Z</time>
      </trkpt>
      <trkpt lat="42.52923" lon="2.01648">
        <ele>1964</ele>
        <time>2016-10-30T10:07:39Z</time>
      </trkpt>
      <trkpt lat="42.52921" lon="2.0164">
        <ele>1964</ele>
        <time>2016-10-30T10:07:46Z</time>
      </trkpt>
      <trkpt lat="42.52919" lon="2.01633">
        <ele>1964</ele>
        <time>2016-10-30T10:07:51Z</time>
      </trkpt>
      <trkpt lat="42.52919" lon="2.01628">
        <ele>1964</ele>
        <time>2016-10-30T10:07:56Z</time>
      </trkpt>
      <trkpt lat="42.52919" lon="2.01621">
        <ele>1964</ele>
        <time>2016-10-30T10:08:02Z</time>
      </trkpt>
      <trkpt lat="42.52918" lon="2.01619">
        <ele>1964</ele>
        <time>2016-10-30T10:08:03Z</time>
      </trkpt>
      <trkpt lat="42.52918" lon="2.01618">
        <ele>1964</ele>
        <time>2016-10-30T10:08:04Z</time>
      </trkpt>
      <trkpt lat="42.52917" lon="2.01613">
        <ele>1964</ele>
        <time>2016-10-30T10:08:08Z</time>
      </trkpt>
      <trkpt lat="42.52916" lon="2.01605">
        <ele>1964</ele>
        <time>2016-10-30T10:08:15Z</time>
      </trkpt>
      <trkpt lat="42.52914" lon="2.01596">
        <ele>1964</ele>
        <time>2016-10-30T10:08:21Z</time>
      </trkpt>
      <trkpt lat="42.52911" lon="2.01589">
        <ele>1964</ele>
        <time>2016-10-30T10:08:27Z</time>
      </trkpt>
      <trkpt lat="42.52913" lon="2.01581">
        <ele>1964</ele>
        <time>2016-10-30T10:08:33Z</time>
      </trkpt>
      <trkpt lat="42.52915" lon="2.01575">
        <ele>1964</ele>
        <time>2016-10-30T10:08:39Z</time>
      </trkpt>
      <trkpt lat="42.52917" lon="2.01566">
        <ele>1964</ele>
        <time>2016-10-30T10:08:46Z</time>
      </trkpt>
      <trkpt lat="42.52916" lon="2.01559">
        <ele>1964</ele>
        <time>2016-10-30T10:08:52Z</time>
      </trkpt>
      <trkpt lat="42.52914" lon="2.01553">
        <ele>1964</ele>
        <time>2016-10-30T10:08:57Z</time>
      </trkpt>
      <trkpt lat="42.52908" lon="2.01547">
        <ele>1964</ele>
        <time>2016-10-30T10:09:04Z</time>
      </trkpt>
      <trkpt lat="42.52903" lon="2.0154">
        <ele>1964</ele>
        <time>2016-10-30T10:09:11Z</time>
      </trkpt>
      <trkpt lat="42.529" lon="2.01533">
        <ele>1964</ele>
        <time>2016-10-30T10:09:17Z</time>
      </trkpt>
      <trkpt lat="42.52898" lon="2.01525">
        <ele>1964</ele>
        <time>2016-10-30T10:09:23Z</time>
      </trkpt>
      <trkpt lat="42.52899" lon="2.01517">
        <ele>1964</ele>
        <time>2016-10-30T10:09:29Z</time>
      </trkpt>
      <trkpt lat="42.52899" lon="2.01515">
        <ele>1964</ele>
        <time>2016-10-30T10:09:30Z</time>
      </trkpt>
      <trkpt lat="42.52898" lon="2.0151">
        <ele>1964</ele>
        <time>2016-10-30T10:09:33Z</time>
      </trkpt>
      <trkpt lat="42.52899" lon="2.01504">
        <ele>1964</ele>
        <time>2016-10-30T10:09:38Z</time>
      </trkpt>
      <trkpt lat="42.529" lon="2.01497">
        <ele>1964</ele>
        <time>2016-10-30T10:09:44Z</time>
      </trkpt>
      <trkpt lat="42.52901" lon="2.01488">
        <ele>1964</ele>
        <time>2016-10-30T10:09:50Z</time>
      </trkpt>
      <trkpt lat="42.52899" lon="2.01482">
        <ele>1964</ele>
        <time>2016-10-30T10:09:55Z</time>
      </trkpt>
      <trkpt lat="42.52898" lon="2.01475">
        <ele>1964</ele>
        <time>2016-10-30T10:10:01Z</time>
      </trkpt>
      <trkpt lat="42.52897" lon="2.01468">
        <ele>1964</ele>
        <time>2016-10-30T10:10:07Z</time>
      </trkpt>
      <trkpt lat="42.52896" lon="2.01465">
        <ele>1964</ele>
        <time>2016-10-30T10:10:13Z</time>
      </trkpt>
      <trkpt lat="42.52895" lon="2.01456">
        <ele>1964</ele>
        <time>2016-10-30T10:10:20Z</time>
      </trkpt>
      <trkpt lat="42.52896" lon="2.01449">
        <ele>1964</ele>
        <time>2016-10-30T10:10:25Z</time>
      </trkpt>
      <trkpt lat="42.52897" lon="2.01442">
        <ele>1964</ele>
        <time>2016-10-30T10:10:31Z</time>
      </trkpt>
      <trkpt lat="42.52896" lon="2.01431">
        <ele>1964</ele>
        <time>2016-10-30T10:10:39Z</time>
      </trkpt>
      <trkpt lat="42.52892" lon="2.01423">
        <ele>1964</ele>
        <time>2016-10-30T10:10:46Z</time>
      </trkpt>
      <trkpt lat="42.52892" lon="2.01422">
        <ele>1964</ele>
        <time>2016-10-30T10:10:47Z</time>
      </trkpt>
      <trkpt lat="42.5289" lon="2.01417">
        <ele>1964</ele>
        <time>2016-10-30T10:10:51Z</time>
      </trkpt>
      <trkpt lat="42.52888" lon="2.01415">
        <ele>1964</ele>
        <time>2016-10-30T10:10:53Z</time>
      </trkpt>
      <trkpt lat="42.52887" lon="2.01408">
        <ele>1964</ele>
        <time>2016-10-30T10:10:58Z</time>
      </trkpt>
      <trkpt lat="42.52888" lon="2.01405">
        <ele>1964</ele>
        <time>2016-10-30T10:11:02Z</time>
      </trkpt>
      <trkpt lat="42.52892" lon="2.01398">
        <ele>1964.4000244141</ele>
        <time>2016-10-30T10:11:08Z</time>
      </trkpt>
      <trkpt lat="42.52892" lon="2.01397">
        <ele>1964.8000488281</ele>
        <time>2016-10-30T10:11:09Z</time>
      </trkpt>
      <trkpt lat="42.52893" lon="2.01396">
        <ele>1965.1999511719</ele>
        <time>2016-10-30T10:11:10Z</time>
      </trkpt>
      <trkpt lat="42.52894" lon="2.01395">
        <ele>1965.8000488281</ele>
        <time>2016-10-30T10:11:11Z</time>
      </trkpt>
      <trkpt lat="42.52894" lon="2.01394">
        <ele>1966.1999511719</ele>
        <time>2016-10-30T10:11:12Z</time>
      </trkpt>
      <trkpt lat="42.52896" lon="2.01392">
        <ele>1966.1999511719</ele>
        <time>2016-10-30T10:11:16Z</time>
      </trkpt>
      <trkpt lat="42.52899" lon="2.01388">
        <ele>1966.5999755859</ele>
        <time>2016-10-30T10:11:21Z</time>
      </trkpt>
      <trkpt lat="42.529" lon="2.01387">
        <ele>1967</ele>
        <time>2016-10-30T10:11:22Z</time>
      </trkpt>
      <trkpt lat="42.529" lon="2.01387">
        <ele>1967.4000244141</ele>
        <time>2016-10-30T10:11:23Z</time>
      </trkpt>
      <trkpt lat="42.52901" lon="2.01386">
        <ele>1967.8000488281</ele>
        <time>2016-10-30T10:11:24Z</time>
      </trkpt>
      <trkpt lat="42.52902" lon="2.01386">
        <ele>1968.4000244141</ele>
        <time>2016-10-30T10:11:25Z</time>
      </trkpt>
      <trkpt lat="42.52904" lon="2.01384">
        <ele>1968.4000244141</ele>
        <time>2016-10-30T10:11:28Z</time>
      </trkpt>
      <trkpt lat="42.52908" lon="2.01383">
        <ele>1968.4000244141</ele>
        <time>2016-10-30T10:11:33Z</time>
      </trkpt>
      <trkpt lat="42.52908" lon="2.01383">
        <ele>1968.8000488281</ele>
        <time>2016-10-30T10:11:34Z</time>
      </trkpt>
      <trkpt lat="42.52909" lon="2.01382">
        <ele>1969.1999511719</ele>
        <time>2016-10-30T10:11:35Z</time>
      </trkpt>
      <trkpt lat="42.5291" lon="2.01382">
        <ele>1969.5999755859</ele>
        <time>2016-10-30T10:11:36Z</time>
      </trkpt>
      <trkpt lat="42.52911" lon="2.01382">
        <ele>1970</ele>
        <time>2016-10-30T10:11:37Z</time>
      </trkpt>
      <trkpt lat="42.52912" lon="2.01381">
        <ele>1970.4000244141</ele>
        <time>2016-10-30T10:11:38Z</time>
      </trkpt>
      <trkpt lat="42.52912" lon="2.0138">
        <ele>1970.4000244141</ele>
        <time>2016-10-30T10:11:39Z</time>
      </trkpt>
      <trkpt lat="42.52913" lon="2.0138">
        <ele>1970.4000244141</ele>
        <time>2016-10-30T10:11:41Z</time>
      </trkpt>
      <trkpt lat="42.52914" lon="2.01379">
        <ele>1970.8000488281</ele>
        <time>2016-10-30T10:11:44Z</time>
      </trkpt>
      <trkpt lat="42.52915" lon="2.01379">
        <ele>1971.4000244141</ele>
        <time>2016-10-30T10:11:45Z</time>
      </trkpt>
      <trkpt lat="42.52916" lon="2.01378">
        <ele>1971.8000488281</ele>
        <time>2016-10-30T10:11:46Z</time>
      </trkpt>
      <trkpt lat="42.52916" lon="2.01378">
        <ele>1972.1999511719</ele>
        <time>2016-10-30T10:11:47Z</time>
      </trkpt>
      <trkpt lat="42.52917" lon="2.01377">
        <ele>1972.8000488281</ele>
        <time>2016-10-30T10:11:48Z</time>
      </trkpt>
      <trkpt lat="42.52919" lon="2.01376">
        <ele>1972.8000488281</ele>
        <time>2016-10-30T10:11:51Z</time>
      </trkpt>
      <trkpt lat="42.52923" lon="2.01373">
        <ele>1972.8000488281</ele>
        <time>2016-10-30T10:11:59Z</time>
      </trkpt>
      <trkpt lat="42.52924" lon="2.01372">
        <ele>1973.1999511719</ele>
        <time>2016-10-30T10:12:00Z</time>
      </trkpt>
      <trkpt lat="42.52924" lon="2.01371">
        <ele>1973.5999755859</ele>
        <time>2016-10-30T10:12:01Z</time>
      </trkpt>
      <trkpt lat="42.52925" lon="2.01371">
        <ele>1974</ele>
        <time>2016-10-30T10:12:02Z</time>
      </trkpt>
      <trkpt lat="42.52925" lon="2.01371">
        <ele>1974.4000244141</ele>
        <time>2016-10-30T10:12:03Z</time>
      </trkpt>
      <trkpt lat="42.52925" lon="2.0137">
        <ele>1974.8000488281</ele>
        <time>2016-10-30T10:12:04Z</time>
      </trkpt>
      <trkpt lat="42.52926" lon="2.01368">
        <ele>1974.8000488281</ele>
        <time>2016-10-30T10:12:06Z</time>
      </trkpt>
      <trkpt lat="42.5293" lon="2.01364">
        <ele>1974.8000488281</ele>
        <time>2016-10-30T10:12:12Z</time>
      </trkpt>
      <trkpt lat="42.52931" lon="2.01362">
        <ele>1975.4000244141</ele>
        <time>2016-10-30T10:12:15Z</time>
      </trkpt>
      <trkpt lat="42.52932" lon="2.01362">
        <ele>1975.8000488281</ele>
        <time>2016-10-30T10:12:16Z</time>
      </trkpt>
      <trkpt lat="42.52932" lon="2.01361">
        <ele>1976.1999511719</ele>
        <time>2016-10-30T10:12:17Z</time>
      </trkpt>
      <trkpt lat="42.52933" lon="2.0136">
        <ele>1976.8000488281</ele>
        <time>2016-10-30T10:12:18Z</time>
      </trkpt>
      <trkpt lat="42.52934" lon="2.0136">
        <ele>1977.1999511719</ele>
        <time>2016-10-30T10:12:19Z</time>
      </trkpt>
      <trkpt lat="42.52936" lon="2.01357">
        <ele>1977.1999511719</ele>
        <time>2016-10-30T10:12:23Z</time>
      </trkpt>
      <trkpt lat="42.52939" lon="2.01354">
        <ele>1977.1999511719</ele>
        <time>2016-10-30T10:12:29Z</time>
      </trkpt>
      <trkpt lat="42.52939" lon="2.01349">
        <ele>1977.1999511719</ele>
        <time>2016-10-30T10:12:35Z</time>
      </trkpt>
      <trkpt lat="42.52939" lon="2.01349">
        <ele>1977.5999755859</ele>
        <time>2016-10-30T10:12:37Z</time>
      </trkpt>
      <trkpt lat="42.52939" lon="2.01349">
        <ele>1978</ele>
        <time>2016-10-30T10:12:38Z</time>
      </trkpt>
      <trkpt lat="42.52939" lon="2.01349">
        <ele>1978.4000244141</ele>
        <time>2016-10-30T10:12:39Z</time>
      </trkpt>
      <trkpt lat="42.52939" lon="2.01349">
        <ele>1979</ele>
        <time>2016-10-30T10:12:40Z</time>
      </trkpt>
      <trkpt lat="42.52939" lon="2.01349">
        <ele>1979.4000244141</ele>
        <time>2016-10-30T10:12:41Z</time>
      </trkpt>
      <trkpt lat="42.52939" lon="2.01347">
        <ele>1979.4000244141</ele>
        <time>2016-10-30T10:12:43Z</time>
      </trkpt>
      <trkpt lat="42.5294" lon="2.01344">
        <ele>1979.4000244141</ele>
        <time>2016-10-30T10:12:46Z</time>
      </trkpt>
      <trkpt lat="42.5294" lon="2.01342">
        <ele>1979.4000244141</ele>
        <time>2016-10-30T10:12:48Z</time>
      </trkpt>
      <trkpt lat="42.52941" lon="2.01336">
        <ele>1979.4000244141</ele>
        <time>2016-10-30T10:12:54Z</time>
      </trkpt>
      <trkpt lat="42.52943" lon="2.01331">
        <ele>1979.4000244141</ele>
        <time>2016-10-30T10:12:59Z</time>
      </trkpt>
      <trkpt lat="42.52944" lon="2.0133">
        <ele>1979.8000488281</ele>
        <time>2016-10-30T10:13:02Z</time>
      </trkpt>
      <trkpt lat="42.52944" lon="2.01329">
        <ele>1980.1999511719</ele>
        <time>2016-10-30T10:13:03Z</time>
      </trkpt>
      <trkpt lat="42.52944" lon="2.01328">
        <ele>1980.5999755859</ele>
        <time>2016-10-30T10:13:04Z</time>
      </trkpt>
      <trkpt lat="42.52944" lon="2.01327">
        <ele>1981</ele>
        <time>2016-10-30T10:13:05Z</time>
      </trkpt>
      <trkpt lat="42.52944" lon="2.01326">
        <ele>1981.4000244141</ele>
        <time>2016-10-30T10:13:06Z</time>
      </trkpt>
      <trkpt lat="42.52945" lon="2.01323">
        <ele>1981.4000244141</ele>
        <time>2016-10-30T10:13:10Z</time>
      </trkpt>
      <trkpt lat="42.52945" lon="2.0132">
        <ele>1982</ele>
        <time>2016-10-30T10:13:13Z</time>
      </trkpt>
      <trkpt lat="42.52945" lon="2.01319">
        <ele>1982.4000244141</ele>
        <time>2016-10-30T10:13:14Z</time>
      </trkpt>
      <trkpt lat="42.52945" lon="2.01318">
        <ele>1982.8000488281</ele>
        <time>2016-10-30T10:13:15Z</time>
      </trkpt>
      <trkpt lat="42.52945" lon="2.01317">
        <ele>1983.1999511719</ele>
        <time>2016-10-30T10:13:16Z</time>
      </trkpt>
      <trkpt lat="42.52945" lon="2.01316">
        <ele>1983.5999755859</ele>
        <time>2016-10-30T10:13:17Z</time>
      </trkpt>
      <trkpt lat="42.52945" lon="2.01316">
        <ele>1983.5999755859</ele>
        <time>2016-10-30T10:13:18Z</time>
      </trkpt>
      <trkpt lat="42.52947" lon="2.0131">
        <ele>1983.5999755859</ele>
        <time>2016-10-30T10:13:24Z</time>
      </trkpt>
      <trkpt lat="42.52947" lon="2.01309">
        <ele>1984.1999511719</ele>
        <time>2016-10-30T10:13:26Z</time>
      </trkpt>
      <trkpt lat="42.52947" lon="2.01308">
        <ele>1984.5999755859</ele>
        <time>2016-10-30T10:13:27Z</time>
      </trkpt>
      <trkpt lat="42.52947" lon="2.01307">
        <ele>1985</ele>
        <time>2016-10-30T10:13:28Z</time>
      </trkpt>
      <trkpt lat="42.52948" lon="2.01306">
        <ele>1985.5999755859</ele>
        <time>2016-10-30T10:13:29Z</time>
      </trkpt>
      <trkpt lat="42.52948" lon="2.01306">
        <ele>1986</ele>
        <time>2016-10-30T10:13:30Z</time>
      </trkpt>
      <trkpt lat="42.52951" lon="2.01301">
        <ele>1986</ele>
        <time>2016-10-30T10:13:35Z</time>
      </trkpt>
      <trkpt lat="42.52951" lon="2.01301">
        <ele>1986.4000244141</ele>
        <time>2016-10-30T10:13:36Z</time>
      </trkpt>
      <trkpt lat="42.52951" lon="2.013">
        <ele>1986.8000488281</ele>
        <time>2016-10-30T10:13:37Z</time>
      </trkpt>
      <trkpt lat="42.52951" lon="2.01299">
        <ele>1987.1999511719</ele>
        <time>2016-10-30T10:13:38Z</time>
      </trkpt>
      <trkpt lat="42.52951" lon="2.01298">
        <ele>1987.5999755859</ele>
        <time>2016-10-30T10:13:39Z</time>
      </trkpt>
      <trkpt lat="42.52951" lon="2.01297">
        <ele>1988.1999511719</ele>
        <time>2016-10-30T10:13:40Z</time>
      </trkpt>
      <trkpt lat="42.52951" lon="2.01297">
        <ele>1988.1999511719</ele>
        <time>2016-10-30T10:13:41Z</time>
      </trkpt>
      <trkpt lat="42.52953" lon="2.01295">
        <ele>1988.1999511719</ele>
        <time>2016-10-30T10:13:46Z</time>
      </trkpt>
      <trkpt lat="42.52953" lon="2.01293">
        <ele>1988.5999755859</ele>
        <time>2016-10-30T10:13:48Z</time>
      </trkpt>
      <trkpt lat="42.52953" lon="2.01293">
        <ele>1989</ele>
        <time>2016-10-30T10:13:49Z</time>
      </trkpt>
      <trkpt lat="42.52954" lon="2.01292">
        <ele>1989.5999755859</ele>
        <time>2016-10-30T10:13:50Z</time>
      </trkpt>
      <trkpt lat="42.52954" lon="2.01292">
        <ele>1990</ele>
        <time>2016-10-30T10:13:51Z</time>
      </trkpt>
      <trkpt lat="42.52955" lon="2.01291">
        <ele>1990.4000244141</ele>
        <time>2016-10-30T10:13:52Z</time>
      </trkpt>
      <trkpt lat="42.52956" lon="2.01289">
        <ele>1990.4000244141</ele>
        <time>2016-10-30T10:13:57Z</time>
      </trkpt>
      <trkpt lat="42.52956" lon="2.01286">
        <ele>1990.8000488281</ele>
        <time>2016-10-30T10:14:01Z</time>
      </trkpt>
      <trkpt lat="42.52956" lon="2.01285">
        <ele>1991.4000244141</ele>
        <time>2016-10-30T10:14:02Z</time>
      </trkpt>
      <trkpt lat="42.52957" lon="2.01285">
        <ele>1991.8000488281</ele>
        <time>2016-10-30T10:14:03Z</time>
      </trkpt>
      <trkpt lat="42.52957" lon="2.01285">
        <ele>1992.1999511719</ele>
        <time>2016-10-30T10:14:04Z</time>
      </trkpt>
      <trkpt lat="42.52957" lon="2.01285">
        <ele>1992.5999755859</ele>
        <time>2016-10-30T10:14:05Z</time>
      </trkpt>
      <trkpt lat="42.52958" lon="2.01283">
        <ele>1992.5999755859</ele>
        <time>2016-10-30T10:14:07Z</time>
      </trkpt>
      <trkpt lat="42.52958" lon="2.0128">
        <ele>1992.5999755859</ele>
        <time>2016-10-30T10:14:11Z</time>
      </trkpt>
      <trkpt lat="42.52959" lon="2.01279">
        <ele>1992.5999755859</ele>
        <time>2016-10-30T10:14:13Z</time>
      </trkpt>
      <trkpt lat="42.52959" lon="2.01278">
        <ele>1993</ele>
        <time>2016-10-30T10:14:14Z</time>
      </trkpt>
      <trkpt lat="42.52959" lon="2.01277">
        <ele>1993.4000244141</ele>
        <time>2016-10-30T10:14:15Z</time>
      </trkpt>
      <trkpt lat="42.5296" lon="2.01276">
        <ele>1993.8000488281</ele>
        <time>2016-10-30T10:14:16Z</time>
      </trkpt>
      <trkpt lat="42.5296" lon="2.01275">
        <ele>1994.1999511719</ele>
        <time>2016-10-30T10:14:17Z</time>
      </trkpt>
      <trkpt lat="42.52961" lon="2.01274">
        <ele>1994.5999755859</ele>
        <time>2016-10-30T10:14:18Z</time>
      </trkpt>
      <trkpt lat="42.52962" lon="2.01273">
        <ele>1994.5999755859</ele>
        <time>2016-10-30T10:14:19Z</time>
      </trkpt>
      <trkpt lat="42.52965" lon="2.0127">
        <ele>1994.5999755859</ele>
        <time>2016-10-30T10:14:24Z</time>
      </trkpt>
      <trkpt lat="42.52968" lon="2.01268">
        <ele>1995</ele>
        <time>2016-10-30T10:14:29Z</time>
      </trkpt>
      <trkpt lat="42.52969" lon="2.01268">
        <ele>1995.4000244141</ele>
        <time>2016-10-30T10:14:30Z</time>
      </trkpt>
      <trkpt lat="42.5297" lon="2.01267">
        <ele>1996</ele>
        <time>2016-10-30T10:14:31Z</time>
      </trkpt>
      <trkpt lat="42.5297" lon="2.01266">
        <ele>1996.4000244141</ele>
        <time>2016-10-30T10:14:32Z</time>
      </trkpt>
      <trkpt lat="42.52971" lon="2.01266">
        <ele>1996.8000488281</ele>
        <time>2016-10-30T10:14:33Z</time>
      </trkpt>
      <trkpt lat="42.52972" lon="2.01264">
        <ele>1996.8000488281</ele>
        <time>2016-10-30T10:14:35Z</time>
      </trkpt>
      <trkpt lat="42.52974" lon="2.01262">
        <ele>1996.8000488281</ele>
        <time>2016-10-30T10:14:38Z</time>
      </trkpt>
      <trkpt lat="42.52975" lon="2.01259">
        <ele>1996.8000488281</ele>
        <time>2016-10-30T10:14:40Z</time>
      </trkpt>
      <trkpt lat="42.52977" lon="2.01255">
        <ele>1996.8000488281</ele>
        <time>2016-10-30T10:14:45Z</time>
      </trkpt>
      <trkpt lat="42.52978" lon="2.01254">
        <ele>1997.1999511719</ele>
        <time>2016-10-30T10:14:46Z</time>
      </trkpt>
      <trkpt lat="42.52978" lon="2.01254">
        <ele>1997.5999755859</ele>
        <time>2016-10-30T10:14:47Z</time>
      </trkpt>
      <trkpt lat="42.52979" lon="2.01254">
        <ele>1998</ele>
        <time>2016-10-30T10:14:48Z</time>
      </trkpt>
      <trkpt lat="42.5298" lon="2.01253">
        <ele>1998.5999755859</ele>
        <time>2016-10-30T10:14:49Z</time>
      </trkpt>
      <trkpt lat="42.5298" lon="2.01253">
        <ele>1999</ele>
        <time>2016-10-30T10:14:50Z</time>
      </trkpt>
      <trkpt lat="42.5298" lon="2.01252">
        <ele>1999</ele>
        <time>2016-10-30T10:14:51Z</time>
      </trkpt>
      <trkpt lat="42.52985" lon="2.01249">
        <ele>1999</ele>
        <time>2016-10-30T10:14:57Z</time>
      </trkpt>
      <trkpt lat="42.52989" lon="2.01246">
        <ele>1999</ele>
        <time>2016-10-30T10:15:02Z</time>
      </trkpt>
      <trkpt lat="42.52989" lon="2.01245">
        <ele>1999.4000244141</ele>
        <time>2016-10-30T10:15:03Z</time>
      </trkpt>
      <trkpt lat="42.5299" lon="2.01245">
        <ele>1999.8000488281</ele>
        <time>2016-10-30T10:15:04Z</time>
      </trkpt>
      <trkpt lat="42.5299" lon="2.01245">
        <ele>2000.1999511719</ele>
        <time>2016-10-30T10:15:05Z</time>
      </trkpt>
      <trkpt lat="42.52991" lon="2.01244">
        <ele>2000.5999755859</ele>
        <time>2016-10-30T10:15:06Z</time>
      </trkpt>
      <trkpt lat="42.52991" lon="2.01243">
        <ele>2001</ele>
        <time>2016-10-30T10:15:07Z</time>
      </trkpt>
      <trkpt lat="42.52995" lon="2.01241">
        <ele>2001</ele>
        <time>2016-10-30T10:15:12Z</time>
      </trkpt>
      <trkpt lat="42.52999" lon="2.01238">
        <ele>2001</ele>
        <time>2016-10-30T10:15:18Z</time>
      </trkpt>
      <trkpt lat="42.52999" lon="2.01238">
        <ele>2001.5999755859</ele>
        <time>2016-10-30T10:15:19Z</time>
      </trkpt>
      <trkpt lat="42.52999" lon="2.01237">
        <ele>2002</ele>
        <time>2016-10-30T10:15:20Z</time>
      </trkpt>
      <trkpt lat="42.53" lon="2.01237">
        <ele>2002.5999755859</ele>
        <time>2016-10-30T10:15:21Z</time>
      </trkpt>
      <trkpt lat="42.53" lon="2.01236">
        <ele>2003</ele>
        <time>2016-10-30T10:15:22Z</time>
      </trkpt>
      <trkpt lat="42.53" lon="2.01236">
        <ele>2003.5999755859</ele>
        <time>2016-10-30T10:15:23Z</time>
      </trkpt>
      <trkpt lat="42.53001" lon="2.01236">
        <ele>2003.5999755859</ele>
        <time>2016-10-30T10:15:24Z</time>
      </trkpt>
      <trkpt lat="42.53002" lon="2.01233">
        <ele>2003.5999755859</ele>
        <time>2016-10-30T10:15:29Z</time>
      </trkpt>
      <trkpt lat="42.53002" lon="2.01232">
        <ele>2004</ele>
        <time>2016-10-30T10:15:32Z</time>
      </trkpt>
      <trkpt lat="42.53002" lon="2.01232">
        <ele>2004.4000244141</ele>
        <time>2016-10-30T10:15:33Z</time>
      </trkpt>
      <trkpt lat="42.53002" lon="2.01232">
        <ele>2004.8000488281</ele>
        <time>2016-10-30T10:15:34Z</time>
      </trkpt>
      <trkpt lat="42.53002" lon="2.0123">
        <ele>2005.1999511719</ele>
        <time>2016-10-30T10:15:35Z</time>
      </trkpt>
      <trkpt lat="42.53003" lon="2.0123">
        <ele>2005.5999755859</ele>
        <time>2016-10-30T10:15:36Z</time>
      </trkpt>
      <trkpt lat="42.53002" lon="2.01228">
        <ele>2005.5999755859</ele>
        <time>2016-10-30T10:15:39Z</time>
      </trkpt>
      <trkpt lat="42.53002" lon="2.01223">
        <ele>2005.5999755859</ele>
        <time>2016-10-30T10:15:45Z</time>
      </trkpt>
      <trkpt lat="42.53002" lon="2.01221">
        <ele>2006.1999511719</ele>
        <time>2016-10-30T10:15:47Z</time>
      </trkpt>
      <trkpt lat="42.53002" lon="2.01221">
        <ele>2006.5999755859</ele>
        <time>2016-10-30T10:15:48Z</time>
      </trkpt>
      <trkpt lat="42.53002" lon="2.01221">
        <ele>2007</ele>
        <time>2016-10-30T10:15:49Z</time>
      </trkpt>
      <trkpt lat="42.53002" lon="2.0122">
        <ele>2007.8000488281</ele>
        <time>2016-10-30T10:15:50Z</time>
      </trkpt>
      <trkpt lat="42.53002" lon="2.0122">
        <ele>2007.8000488281</ele>
        <time>2016-10-30T10:15:51Z</time>
      </trkpt>
      <trkpt lat="42.53003" lon="2.01216">
        <ele>2007.8000488281</ele>
        <time>2016-10-30T10:15:57Z</time>
      </trkpt>
      <trkpt lat="42.53003" lon="2.01213">
        <ele>2008.4000244141</ele>
        <time>2016-10-30T10:16:00Z</time>
      </trkpt>
      <trkpt lat="42.53002" lon="2.01213">
        <ele>2008.8000488281</ele>
        <time>2016-10-30T10:16:01Z</time>
      </trkpt>
      <trkpt lat="42.53002" lon="2.01211">
        <ele>2009.4000244141</ele>
        <time>2016-10-30T10:16:02Z</time>
      </trkpt>
      <trkpt lat="42.53002" lon="2.0121">
        <ele>2009.8000488281</ele>
        <time>2016-10-30T10:16:03Z</time>
      </trkpt>
      <trkpt lat="42.53002" lon="2.01209">
        <ele>2010.4000244141</ele>
        <time>2016-10-30T10:16:04Z</time>
      </trkpt>
      <trkpt lat="42.53003" lon="2.01204">
        <ele>2010.4000244141</ele>
        <time>2016-10-30T10:16:08Z</time>
      </trkpt>
      <trkpt lat="42.53003" lon="2.01202">
        <ele>2010.4000244141</ele>
        <time>2016-10-30T10:16:14Z</time>
      </trkpt>
      <trkpt lat="42.53003" lon="2.01199">
        <ele>2010.4000244141</ele>
        <time>2016-10-30T10:16:20Z</time>
      </trkpt>
      <trkpt lat="42.53004" lon="2.01192">
        <ele>2010.8000488281</ele>
        <time>2016-10-30T10:16:26Z</time>
      </trkpt>
      <trkpt lat="42.53004" lon="2.0119">
        <ele>2011.1999511719</ele>
        <time>2016-10-30T10:16:27Z</time>
      </trkpt>
      <trkpt lat="42.53004" lon="2.01189">
        <ele>2011.5999755859</ele>
        <time>2016-10-30T10:16:28Z</time>
      </trkpt>
      <trkpt lat="42.53003" lon="2.01188">
        <ele>2012</ele>
        <time>2016-10-30T10:16:29Z</time>
      </trkpt>
      <trkpt lat="42.53003" lon="2.01187">
        <ele>2012.4000244141</ele>
        <time>2016-10-30T10:16:30Z</time>
      </trkpt>
      <trkpt lat="42.53003" lon="2.01185">
        <ele>2012.4000244141</ele>
        <time>2016-10-30T10:16:31Z</time>
      </trkpt>
      <trkpt lat="42.53003" lon="2.01184">
        <ele>2012.4000244141</ele>
        <time>2016-10-30T10:16:32Z</time>
      </trkpt>
      <trkpt lat="42.53004" lon="2.01179">
        <ele>2012.4000244141</ele>
        <time>2016-10-30T10:16:36Z</time>
      </trkpt>
      <trkpt lat="42.53005" lon="2.01177">
        <ele>2012.4000244141</ele>
        <time>2016-10-30T10:16:38Z</time>
      </trkpt>
      <trkpt lat="42.53007" lon="2.01174">
        <ele>2012.8000488281</ele>
        <time>2016-10-30T10:16:42Z</time>
      </trkpt>
      <trkpt lat="42.53007" lon="2.01173">
        <ele>2013.1999511719</ele>
        <time>2016-10-30T10:16:43Z</time>
      </trkpt>
      <trkpt lat="42.53008" lon="2.01171">
        <ele>2013.8000488281</ele>
        <time>2016-10-30T10:16:44Z</time>
      </trkpt>
      <trkpt lat="42.53008" lon="2.0117">
        <ele>2014.1999511719</ele>
        <time>2016-10-30T10:16:45Z</time>
      </trkpt>
      <trkpt lat="42.53009" lon="2.01169">
        <ele>2014.5999755859</ele>
        <time>2016-10-30T10:16:46Z</time>
      </trkpt>
      <trkpt lat="42.53009" lon="2.01167">
        <ele>2014.5999755859</ele>
        <time>2016-10-30T10:16:48Z</time>
      </trkpt>
      <trkpt lat="42.5301" lon="2.01162">
        <ele>2014.5999755859</ele>
        <time>2016-10-30T10:16:52Z</time>
      </trkpt>
      <trkpt lat="42.53011" lon="2.0116">
        <ele>2014.5999755859</ele>
        <time>2016-10-30T10:16:53Z</time>
      </trkpt>
      <trkpt lat="42.53012" lon="2.01155">
        <ele>2014.5999755859</ele>
        <time>2016-10-30T10:16:58Z</time>
      </trkpt>
      <trkpt lat="42.53012" lon="2.01149">
        <ele>2015</ele>
        <time>2016-10-30T10:17:03Z</time>
      </trkpt>
      <trkpt lat="42.53012" lon="2.01149">
        <ele>2015.8000488281</ele>
        <time>2016-10-30T10:17:04Z</time>
      </trkpt>
      <trkpt lat="42.53013" lon="2.01148">
        <ele>2016.1999511719</ele>
        <time>2016-10-30T10:17:05Z</time>
      </trkpt>
      <trkpt lat="42.53013" lon="2.01146">
        <ele>2016.5999755859</ele>
        <time>2016-10-30T10:17:06Z</time>
      </trkpt>
      <trkpt lat="42.53014" lon="2.01144">
        <ele>2016.5999755859</ele>
        <time>2016-10-30T10:17:08Z</time>
      </trkpt>
      <trkpt lat="42.53014" lon="2.0114">
        <ele>2016.5999755859</ele>
        <time>2016-10-30T10:17:12Z</time>
      </trkpt>
      <trkpt lat="42.53015" lon="2.01138">
        <ele>2016.5999755859</ele>
        <time>2016-10-30T10:17:14Z</time>
      </trkpt>
      <trkpt lat="42.53016" lon="2.0113">
        <ele>2016.5999755859</ele>
        <time>2016-10-30T10:17:20Z</time>
      </trkpt>
      <trkpt lat="42.53015" lon="2.01123">
        <ele>2016.5999755859</ele>
        <time>2016-10-30T10:17:26Z</time>
      </trkpt>
      <trkpt lat="42.53015" lon="2.0112">
        <ele>2016.5999755859</ele>
        <time>2016-10-30T10:17:32Z</time>
      </trkpt>
      <trkpt lat="42.53015" lon="2.0112">
        <ele>2016.5999755859</ele>
        <time>2016-10-30T10:17:45Z</time>
      </trkpt>
      <trkpt lat="42.53015" lon="2.0112">
        <ele>2016.5999755859</ele>
        <time>2016-10-30T10:17:56Z</time>
      </trkpt>
      <trkpt lat="42.53015" lon="2.0112">
        <ele>2016.5999755859</ele>
        <time>2016-10-30T10:18:03Z</time>
      </trkpt>
      <trkpt lat="42.53015" lon="2.0112">
        <ele>2016.5999755859</ele>
        <time>2016-10-30T10:18:13Z</time>
      </trkpt>
      <trkpt lat="42.53015" lon="2.0112">
        <ele>2016.5999755859</ele>
        <time>2016-10-30T10:18:21Z</time>
      </trkpt>
      <trkpt lat="42.53015" lon="2.0112">
        <ele>2016.5999755859</ele>
        <time>2016-10-30T10:18:31Z</time>
      </trkpt>
      <trkpt lat="42.53014" lon="2.01121">
        <ele>2016.5999755859</ele>
        <time>2016-10-30T10:18:32Z</time>
      </trkpt>
      <trkpt lat="42.53014" lon="2.0112">
        <ele>2017.1999511719</ele>
        <time>2016-10-30T10:18:35Z</time>
      </trkpt>
      <trkpt lat="42.53014" lon="2.0112">
        <ele>2017.5999755859</ele>
        <time>2016-10-30T10:18:36Z</time>
      </trkpt>
      <trkpt lat="42.53014" lon="2.0112">
        <ele>2018</ele>
        <time>2016-10-30T10:18:37Z</time>
      </trkpt>
      <trkpt lat="42.53014" lon="2.0112">
        <ele>2018.4000244141</ele>
        <time>2016-10-30T10:18:38Z</time>
      </trkpt>
      <trkpt lat="42.53014" lon="2.0112">
        <ele>2018.8000488281</ele>
        <time>2016-10-30T10:18:39Z</time>
      </trkpt>
      <trkpt lat="42.53014" lon="2.0112">
        <ele>2018.8000488281</ele>
        <time>2016-10-30T10:18:52Z</time>
      </trkpt>
      <trkpt lat="42.53014" lon="2.0112">
        <ele>2018.8000488281</ele>
        <time>2016-10-30T10:19:07Z</time>
      </trkpt>
      <trkpt lat="42.53014" lon="2.0112">
        <ele>2018.8000488281</ele>
        <time>2016-10-30T10:19:19Z</time>
      </trkpt>
      <trkpt lat="42.53014" lon="2.0112">
        <ele>2018.8000488281</ele>
        <time>2016-10-30T10:19:21Z</time>
      </trkpt>
      <trkpt lat="42.53014" lon="2.0112">
        <ele>2018.8000488281</ele>
        <time>2016-10-30T10:19:33Z</time>
      </trkpt>
      <trkpt lat="42.53014" lon="2.0112">
        <ele>2018.8000488281</ele>
        <time>2016-10-30T10:19:42Z</time>
      </trkpt>
      <trkpt lat="42.53015" lon="2.0112">
        <ele>2018.8000488281</ele>
        <time>2016-10-30T10:19:48Z</time>
      </trkpt>
      <trkpt lat="42.53017" lon="2.01121">
        <ele>2018.8000488281</ele>
        <time>2016-10-30T10:19:50Z</time>
      </trkpt>
      <trkpt lat="42.53022" lon="2.0112">
        <ele>2018.8000488281</ele>
        <time>2016-10-30T10:19:54Z</time>
      </trkpt>
      <trkpt lat="42.53026" lon="2.01119">
        <ele>2018.8000488281</ele>
        <time>2016-10-30T10:19:59Z</time>
      </trkpt>
      <trkpt lat="42.53032" lon="2.01118">
        <ele>2018.8000488281</ele>
        <time>2016-10-30T10:20:05Z</time>
      </trkpt>
      <trkpt lat="42.53039" lon="2.01117">
        <ele>2018.8000488281</ele>
        <time>2016-10-30T10:20:11Z</time>
      </trkpt>
      <trkpt lat="42.53043" lon="2.01117">
        <ele>2018.8000488281</ele>
        <time>2016-10-30T10:20:15Z</time>
      </trkpt>
      <trkpt lat="42.53044" lon="2.01119">
        <ele>2018.8000488281</ele>
        <time>2016-10-30T10:20:17Z</time>
      </trkpt>
      <trkpt lat="42.5305" lon="2.0112">
        <ele>2018.8000488281</ele>
        <time>2016-10-30T10:20:23Z</time>
      </trkpt>
      <trkpt lat="42.53055" lon="2.01121">
        <ele>2018.8000488281</ele>
        <time>2016-10-30T10:20:30Z</time>
      </trkpt>
      <trkpt lat="42.53059" lon="2.01124">
        <ele>2019.1999511719</ele>
        <time>2016-10-30T10:20:34Z</time>
      </trkpt>
      <trkpt lat="42.5306" lon="2.01125">
        <ele>2019.5999755859</ele>
        <time>2016-10-30T10:20:35Z</time>
      </trkpt>
      <trkpt lat="42.53062" lon="2.01125">
        <ele>2020</ele>
        <time>2016-10-30T10:20:36Z</time>
      </trkpt>
      <trkpt lat="42.53062" lon="2.01126">
        <ele>2020.4000244141</ele>
        <time>2016-10-30T10:20:37Z</time>
      </trkpt>
      <trkpt lat="42.53063" lon="2.01126">
        <ele>2020.8000488281</ele>
        <time>2016-10-30T10:20:38Z</time>
      </trkpt>
      <trkpt lat="42.5307" lon="2.01131">
        <ele>2020.8000488281</ele>
        <time>2016-10-30T10:20:45Z</time>
      </trkpt>
      <trkpt lat="42.53074" lon="2.01134">
        <ele>2020.8000488281</ele>
        <time>2016-10-30T10:20:51Z</time>
      </trkpt>
      <trkpt lat="42.53081" lon="2.01137">
        <ele>2020.8000488281</ele>
        <time>2016-10-30T10:20:58Z</time>
      </trkpt>
      <trkpt lat="42.53085" lon="2.01137">
        <ele>2020.8000488281</ele>
        <time>2016-10-30T10:21:03Z</time>
      </trkpt>
      <trkpt lat="42.53086" lon="2.01136">
        <ele>2020.8000488281</ele>
        <time>2016-10-30T10:21:04Z</time>
      </trkpt>
      <trkpt lat="42.53089" lon="2.01135">
        <ele>2021.1999511719</ele>
        <time>2016-10-30T10:21:08Z</time>
      </trkpt>
      <trkpt lat="42.53091" lon="2.01135">
        <ele>2021.5999755859</ele>
        <time>2016-10-30T10:21:09Z</time>
      </trkpt>
      <trkpt lat="42.53091" lon="2.01135">
        <ele>2022.1999511719</ele>
        <time>2016-10-30T10:21:10Z</time>
      </trkpt>
      <trkpt lat="42.53092" lon="2.01134">
        <ele>2023</ele>
        <time>2016-10-30T10:21:11Z</time>
      </trkpt>
      <trkpt lat="42.53092" lon="2.01135">
        <ele>2023</ele>
        <time>2016-10-30T10:21:12Z</time>
      </trkpt>
      <trkpt lat="42.53098" lon="2.01134">
        <ele>2023</ele>
        <time>2016-10-30T10:21:20Z</time>
      </trkpt>
      <trkpt lat="42.53103" lon="2.01132">
        <ele>2023</ele>
        <time>2016-10-30T10:21:26Z</time>
      </trkpt>
      <trkpt lat="42.53109" lon="2.0113">
        <ele>2023</ele>
        <time>2016-10-30T10:21:32Z</time>
      </trkpt>
      <trkpt lat="42.5311" lon="2.0113">
        <ele>2023.4000244141</ele>
        <time>2016-10-30T10:21:34Z</time>
      </trkpt>
      <trkpt lat="42.5311" lon="2.0113">
        <ele>2023.8000488281</ele>
        <time>2016-10-30T10:21:35Z</time>
      </trkpt>
      <trkpt lat="42.53111" lon="2.0113">
        <ele>2024.8000488281</ele>
        <time>2016-10-30T10:21:36Z</time>
      </trkpt>
      <trkpt lat="42.53112" lon="2.01129">
        <ele>2025.4000244141</ele>
        <time>2016-10-30T10:21:37Z</time>
      </trkpt>
      <trkpt lat="42.53113" lon="2.01129">
        <ele>2025.4000244141</ele>
        <time>2016-10-30T10:21:38Z</time>
      </trkpt>
      <trkpt lat="42.53118" lon="2.01124">
        <ele>2025.4000244141</ele>
        <time>2016-10-30T10:21:44Z</time>
      </trkpt>
      <trkpt lat="42.53122" lon="2.01122">
        <ele>2025.4000244141</ele>
        <time>2016-10-30T10:21:50Z</time>
      </trkpt>
      <trkpt lat="42.53125" lon="2.01118">
        <ele>2025.4000244141</ele>
        <time>2016-10-30T10:21:54Z</time>
      </trkpt>
      <trkpt lat="42.53127" lon="2.01117">
        <ele>2025.4000244141</ele>
        <time>2016-10-30T10:21:56Z</time>
      </trkpt>
      <trkpt lat="42.53132" lon="2.01115">
        <ele>2025.8000488281</ele>
        <time>2016-10-30T10:22:03Z</time>
      </trkpt>
      <trkpt lat="42.53133" lon="2.01114">
        <ele>2026.1999511719</ele>
        <time>2016-10-30T10:22:04Z</time>
      </trkpt>
      <trkpt lat="42.53134" lon="2.01114">
        <ele>2026.5999755859</ele>
        <time>2016-10-30T10:22:05Z</time>
      </trkpt>
      <trkpt lat="42.53135" lon="2.01113">
        <ele>2027</ele>
        <time>2016-10-30T10:22:06Z</time>
      </trkpt>
      <trkpt lat="42.53136" lon="2.01113">
        <ele>2027.4000244141</ele>
        <time>2016-10-30T10:22:07Z</time>
      </trkpt>
      <trkpt lat="42.53137" lon="2.01113">
        <ele>2027.4000244141</ele>
        <time>2016-10-30T10:22:09Z</time>
      </trkpt>
      <trkpt lat="42.53145" lon="2.01111">
        <ele>2027.4000244141</ele>
        <time>2016-10-30T10:22:18Z</time>
      </trkpt>
      <trkpt lat="42.5315" lon="2.0111">
        <ele>2027.8000488281</ele>
        <time>2016-10-30T10:22:23Z</time>
      </trkpt>
      <trkpt lat="42.5315" lon="2.0111">
        <ele>2028.4000244141</ele>
        <time>2016-10-30T10:22:24Z</time>
      </trkpt>
      <trkpt lat="42.53151" lon="2.01109">
        <ele>2029.1999511719</ele>
        <time>2016-10-30T10:22:25Z</time>
      </trkpt>
      <trkpt lat="42.53152" lon="2.01109">
        <ele>2029.5999755859</ele>
        <time>2016-10-30T10:22:26Z</time>
      </trkpt>
      <trkpt lat="42.53153" lon="2.01108">
        <ele>2029.5999755859</ele>
        <time>2016-10-30T10:22:27Z</time>
      </trkpt>
      <trkpt lat="42.53158" lon="2.01102">
        <ele>2029.5999755859</ele>
        <time>2016-10-30T10:22:34Z</time>
      </trkpt>
      <trkpt lat="42.53163" lon="2.011">
        <ele>2030</ele>
        <time>2016-10-30T10:22:40Z</time>
      </trkpt>
      <trkpt lat="42.53164" lon="2.011">
        <ele>2030.4000244141</ele>
        <time>2016-10-30T10:22:41Z</time>
      </trkpt>
      <trkpt lat="42.53165" lon="2.011">
        <ele>2031</ele>
        <time>2016-10-30T10:22:42Z</time>
      </trkpt>
      <trkpt lat="42.53165" lon="2.01099">
        <ele>2031.4000244141</ele>
        <time>2016-10-30T10:22:43Z</time>
      </trkpt>
      <trkpt lat="42.53166" lon="2.01099">
        <ele>2031.8000488281</ele>
        <time>2016-10-30T10:22:44Z</time>
      </trkpt>
      <trkpt lat="42.5317" lon="2.01098">
        <ele>2031.8000488281</ele>
        <time>2016-10-30T10:22:48Z</time>
      </trkpt>
      <trkpt lat="42.53176" lon="2.01095">
        <ele>2031.8000488281</ele>
        <time>2016-10-30T10:22:55Z</time>
      </trkpt>
      <trkpt lat="42.53178" lon="2.01095">
        <ele>2032.1999511719</ele>
        <time>2016-10-30T10:22:57Z</time>
      </trkpt>
      <trkpt lat="42.53178" lon="2.01095">
        <ele>2032.5999755859</ele>
        <time>2016-10-30T10:22:58Z</time>
      </trkpt>
      <trkpt lat="42.53179" lon="2.01095">
        <ele>2033</ele>
        <time>2016-10-30T10:22:59Z</time>
      </trkpt>
      <trkpt lat="42.5318" lon="2.01095">
        <ele>2033.4000244141</ele>
        <time>2016-10-30T10:23:00Z</time>
      </trkpt>
      <trkpt lat="42.53181" lon="2.01096">
        <ele>2033.8000488281</ele>
        <time>2016-10-30T10:23:01Z</time>
      </trkpt>
      <trkpt lat="42.53186" lon="2.01093">
        <ele>2033.8000488281</ele>
        <time>2016-10-30T10:23:08Z</time>
      </trkpt>
      <trkpt lat="42.53191" lon="2.01091">
        <ele>2033.8000488281</ele>
        <time>2016-10-30T10:23:14Z</time>
      </trkpt>
      <trkpt lat="42.53195" lon="2.01089">
        <ele>2034.1999511719</ele>
        <time>2016-10-30T10:23:18Z</time>
      </trkpt>
      <trkpt lat="42.53196" lon="2.01088">
        <ele>2034.5999755859</ele>
        <time>2016-10-30T10:23:19Z</time>
      </trkpt>
      <trkpt lat="42.53196" lon="2.01088">
        <ele>2035</ele>
        <time>2016-10-30T10:23:20Z</time>
      </trkpt>
      <trkpt lat="42.53196" lon="2.01088">
        <ele>2035.4000244141</ele>
        <time>2016-10-30T10:23:21Z</time>
      </trkpt>
      <trkpt lat="42.53197" lon="2.01087">
        <ele>2035.8000488281</ele>
        <time>2016-10-30T10:23:22Z</time>
      </trkpt>
      <trkpt lat="42.53199" lon="2.01085">
        <ele>2035.8000488281</ele>
        <time>2016-10-30T10:23:25Z</time>
      </trkpt>
      <trkpt lat="42.53205" lon="2.01081">
        <ele>2035.8000488281</ele>
        <time>2016-10-30T10:23:31Z</time>
      </trkpt>
      <trkpt lat="42.5321" lon="2.01076">
        <ele>2035.8000488281</ele>
        <time>2016-10-30T10:23:38Z</time>
      </trkpt>
      <trkpt lat="42.53213" lon="2.0107">
        <ele>2035.8000488281</ele>
        <time>2016-10-30T10:23:43Z</time>
      </trkpt>
      <trkpt lat="42.53216" lon="2.01064">
        <ele>2035.8000488281</ele>
        <time>2016-10-30T10:23:48Z</time>
      </trkpt>
      <trkpt lat="42.53216" lon="2.01063">
        <ele>2036.1999511719</ele>
        <time>2016-10-30T10:23:49Z</time>
      </trkpt>
      <trkpt lat="42.53216" lon="2.01062">
        <ele>2036.8000488281</ele>
        <time>2016-10-30T10:23:50Z</time>
      </trkpt>
      <trkpt lat="42.53216" lon="2.01062">
        <ele>2037.1999511719</ele>
        <time>2016-10-30T10:23:51Z</time>
      </trkpt>
      <trkpt lat="42.53217" lon="2.0106">
        <ele>2037.5999755859</ele>
        <time>2016-10-30T10:23:52Z</time>
      </trkpt>
      <trkpt lat="42.53218" lon="2.01059">
        <ele>2038</ele>
        <time>2016-10-30T10:23:53Z</time>
      </trkpt>
      <trkpt lat="42.53218" lon="2.01059">
        <ele>2038</ele>
        <time>2016-10-30T10:23:54Z</time>
      </trkpt>
      <trkpt lat="42.53218" lon="2.01057">
        <ele>2038</ele>
        <time>2016-10-30T10:24:00Z</time>
      </trkpt>
      <trkpt lat="42.5322" lon="2.01049">
        <ele>2038</ele>
        <time>2016-10-30T10:24:05Z</time>
      </trkpt>
      <trkpt lat="42.53222" lon="2.0104">
        <ele>2038</ele>
        <time>2016-10-30T10:24:11Z</time>
      </trkpt>
      <trkpt lat="42.53224" lon="2.01034">
        <ele>2038</ele>
        <time>2016-10-30T10:24:17Z</time>
      </trkpt>
      <trkpt lat="42.53224" lon="2.01033">
        <ele>2038.4000244141</ele>
        <time>2016-10-30T10:24:18Z</time>
      </trkpt>
      <trkpt lat="42.53225" lon="2.01032">
        <ele>2038.8000488281</ele>
        <time>2016-10-30T10:24:19Z</time>
      </trkpt>
      <trkpt lat="42.53226" lon="2.01031">
        <ele>2039.4000244141</ele>
        <time>2016-10-30T10:24:20Z</time>
      </trkpt>
      <trkpt lat="42.53226" lon="2.01031">
        <ele>2039.8000488281</ele>
        <time>2016-10-30T10:24:21Z</time>
      </trkpt>
      <trkpt lat="42.53227" lon="2.0103">
        <ele>2040.1999511719</ele>
        <time>2016-10-30T10:24:22Z</time>
      </trkpt>
      <trkpt lat="42.53227" lon="2.01028">
        <ele>2040.1999511719</ele>
        <time>2016-10-30T10:24:23Z</time>
      </trkpt>
      <trkpt lat="42.53229" lon="2.01024">
        <ele>2040.1999511719</ele>
        <time>2016-10-30T10:24:28Z</time>
      </trkpt>
      <trkpt lat="42.53231" lon="2.01016">
        <ele>2040.1999511719</ele>
        <time>2016-10-30T10:24:35Z</time>
      </trkpt>
      <trkpt lat="42.53233" lon="2.01011">
        <ele>2040.5999755859</ele>
        <time>2016-10-30T10:24:39Z</time>
      </trkpt>
      <trkpt lat="42.53234" lon="2.01011">
        <ele>2041</ele>
        <time>2016-10-30T10:24:40Z</time>
      </trkpt>
      <trkpt lat="42.53234" lon="2.0101">
        <ele>2041.4000244141</ele>
        <time>2016-10-30T10:24:41Z</time>
      </trkpt>
      <trkpt lat="42.53235" lon="2.0101">
        <ele>2041.8000488281</ele>
        <time>2016-10-30T10:24:42Z</time>
      </trkpt>
      <trkpt lat="42.53235" lon="2.01009">
        <ele>2042.1999511719</ele>
        <time>2016-10-30T10:24:43Z</time>
      </trkpt>
      <trkpt lat="42.53237" lon="2.01004">
        <ele>2042.1999511719</ele>
        <time>2016-10-30T10:24:48Z</time>
      </trkpt>
      <trkpt lat="42.53239" lon="2.01003">
        <ele>2042.1999511719</ele>
        <time>2016-10-30T10:24:50Z</time>
      </trkpt>
      <trkpt lat="42.53241" lon="2.01001">
        <ele>2042.1999511719</ele>
        <time>2016-10-30T10:24:53Z</time>
      </trkpt>
      <trkpt lat="42.53244" lon="2.00999">
        <ele>2042.5999755859</ele>
        <time>2016-10-30T10:24:58Z</time>
      </trkpt>
      <trkpt lat="42.53244" lon="2.00998">
        <ele>2043.1999511719</ele>
        <time>2016-10-30T10:24:59Z</time>
      </trkpt>
      <trkpt lat="42.53244" lon="2.00998">
        <ele>2043.5999755859</ele>
        <time>2016-10-30T10:25:00Z</time>
      </trkpt>
      <trkpt lat="42.53245" lon="2.00997">
        <ele>2044</ele>
        <time>2016-10-30T10:25:01Z</time>
      </trkpt>
      <trkpt lat="42.53246" lon="2.00996">
        <ele>2044.4000244141</ele>
        <time>2016-10-30T10:25:02Z</time>
      </trkpt>
      <trkpt lat="42.53248" lon="2.00991">
        <ele>2044.4000244141</ele>
        <time>2016-10-30T10:25:07Z</time>
      </trkpt>
      <trkpt lat="42.53251" lon="2.00987">
        <ele>2044.4000244141</ele>
        <time>2016-10-30T10:25:14Z</time>
      </trkpt>
      <trkpt lat="42.53253" lon="2.00984">
        <ele>2045</ele>
        <time>2016-10-30T10:25:19Z</time>
      </trkpt>
      <trkpt lat="42.53254" lon="2.00983">
        <ele>2045.4000244141</ele>
        <time>2016-10-30T10:25:20Z</time>
      </trkpt>
      <trkpt lat="42.53254" lon="2.00982">
        <ele>2045.8000488281</ele>
        <time>2016-10-30T10:25:21Z</time>
      </trkpt>
      <trkpt lat="42.53255" lon="2.00981">
        <ele>2046.5999755859</ele>
        <time>2016-10-30T10:25:22Z</time>
      </trkpt>
      <trkpt lat="42.53256" lon="2.00978">
        <ele>2046.5999755859</ele>
        <time>2016-10-30T10:25:26Z</time>
      </trkpt>
      <trkpt lat="42.53258" lon="2.00971">
        <ele>2046.5999755859</ele>
        <time>2016-10-30T10:25:32Z</time>
      </trkpt>
      <trkpt lat="42.53261" lon="2.00964">
        <ele>2046.5999755859</ele>
        <time>2016-10-30T10:25:38Z</time>
      </trkpt>
      <trkpt lat="42.53261" lon="2.00963">
        <ele>2046.5999755859</ele>
        <time>2016-10-30T10:25:39Z</time>
      </trkpt>
      <trkpt lat="42.53263" lon="2.00957">
        <ele>2046.5999755859</ele>
        <time>2016-10-30T10:25:45Z</time>
      </trkpt>
      <trkpt lat="42.53263" lon="2.00956">
        <ele>2046.5999755859</ele>
        <time>2016-10-30T10:25:46Z</time>
      </trkpt>
      <trkpt lat="42.53265" lon="2.0095">
        <ele>2046.5999755859</ele>
        <time>2016-10-30T10:25:52Z</time>
      </trkpt>
      <trkpt lat="42.53267" lon="2.00943">
        <ele>2046.5999755859</ele>
        <time>2016-10-30T10:25:58Z</time>
      </trkpt>
      <trkpt lat="42.53271" lon="2.00938">
        <ele>2046.5999755859</ele>
        <time>2016-10-30T10:26:04Z</time>
      </trkpt>
      <trkpt lat="42.53274" lon="2.00933">
        <ele>2047</ele>
        <time>2016-10-30T10:26:08Z</time>
      </trkpt>
      <trkpt lat="42.53275" lon="2.00933">
        <ele>2047.4000244141</ele>
        <time>2016-10-30T10:26:09Z</time>
      </trkpt>
      <trkpt lat="42.53275" lon="2.00932">
        <ele>2047.8000488281</ele>
        <time>2016-10-30T10:26:10Z</time>
      </trkpt>
      <trkpt lat="42.53276" lon="2.00931">
        <ele>2048.1999511719</ele>
        <time>2016-10-30T10:26:11Z</time>
      </trkpt>
      <trkpt lat="42.53276" lon="2.0093">
        <ele>2048.6000976562</ele>
        <time>2016-10-30T10:26:12Z</time>
      </trkpt>
      <trkpt lat="42.5328" lon="2.00926">
        <ele>2048.6000976562</ele>
        <time>2016-10-30T10:26:17Z</time>
      </trkpt>
      <trkpt lat="42.53283" lon="2.00925">
        <ele>2048.6000976562</ele>
        <time>2016-10-30T10:26:21Z</time>
      </trkpt>
      <trkpt lat="42.53284" lon="2.00925">
        <ele>2048.6000976562</ele>
        <time>2016-10-30T10:26:23Z</time>
      </trkpt>
      <trkpt lat="42.53287" lon="2.00921">
        <ele>2048.6000976562</ele>
        <time>2016-10-30T10:26:28Z</time>
      </trkpt>
      <trkpt lat="42.53288" lon="2.00921">
        <ele>2048.6000976562</ele>
        <time>2016-10-30T10:26:29Z</time>
      </trkpt>
      <trkpt lat="42.53289" lon="2.00919">
        <ele>2049</ele>
        <time>2016-10-30T10:26:31Z</time>
      </trkpt>
      <trkpt lat="42.5329" lon="2.00918">
        <ele>2049.3999023438</ele>
        <time>2016-10-30T10:26:32Z</time>
      </trkpt>
      <trkpt lat="42.53291" lon="2.00918">
        <ele>2049.8000488281</ele>
        <time>2016-10-30T10:26:33Z</time>
      </trkpt>
      <trkpt lat="42.53292" lon="2.00918">
        <ele>2050.1999511719</ele>
        <time>2016-10-30T10:26:34Z</time>
      </trkpt>
      <trkpt lat="42.53292" lon="2.00918">
        <ele>2050.6000976562</ele>
        <time>2016-10-30T10:26:35Z</time>
      </trkpt>
      <trkpt lat="42.53293" lon="2.00918">
        <ele>2050.6000976562</ele>
        <time>2016-10-30T10:26:36Z</time>
      </trkpt>
      <trkpt lat="42.53294" lon="2.00917">
        <ele>2050.6000976562</ele>
        <time>2016-10-30T10:26:37Z</time>
      </trkpt>
      <trkpt lat="42.53296" lon="2.00916">
        <ele>2050.6000976562</ele>
        <time>2016-10-30T10:26:41Z</time>
      </trkpt>
      <trkpt lat="42.533" lon="2.00914">
        <ele>2050.6000976562</ele>
        <time>2016-10-30T10:26:45Z</time>
      </trkpt>
      <trkpt lat="42.53301" lon="2.00914">
        <ele>2050.6000976562</ele>
        <time>2016-10-30T10:26:46Z</time>
      </trkpt>
      <trkpt lat="42.53305" lon="2.00913">
        <ele>2051</ele>
        <time>2016-10-30T10:26:51Z</time>
      </trkpt>
      <trkpt lat="42.53306" lon="2.00913">
        <ele>2051.3999023438</ele>
        <time>2016-10-30T10:26:52Z</time>
      </trkpt>
      <trkpt lat="42.53307" lon="2.00914">
        <ele>2051.8000488281</ele>
        <time>2016-10-30T10:26:53Z</time>
      </trkpt>
      <trkpt lat="42.53307" lon="2.00913">
        <ele>2052.1999511719</ele>
        <time>2016-10-30T10:26:54Z</time>
      </trkpt>
      <trkpt lat="42.53308" lon="2.00913">
        <ele>2052.8000488281</ele>
        <time>2016-10-30T10:26:55Z</time>
      </trkpt>
      <trkpt lat="42.53311" lon="2.00913">
        <ele>2052.8000488281</ele>
        <time>2016-10-30T10:26:58Z</time>
      </trkpt>
      <trkpt lat="42.53314" lon="2.00912">
        <ele>2052.8000488281</ele>
        <time>2016-10-30T10:27:03Z</time>
      </trkpt>
      <trkpt lat="42.53319" lon="2.0091">
        <ele>2052.8000488281</ele>
        <time>2016-10-30T10:27:08Z</time>
      </trkpt>
      <trkpt lat="42.53322" lon="2.00909">
        <ele>2053.1999511719</ele>
        <time>2016-10-30T10:27:12Z</time>
      </trkpt>
      <trkpt lat="42.53323" lon="2.00909">
        <ele>2053.6000976562</ele>
        <time>2016-10-30T10:27:13Z</time>
      </trkpt>
      <trkpt lat="42.53324" lon="2.00907">
        <ele>2054</ele>
        <time>2016-10-30T10:27:14Z</time>
      </trkpt>
      <trkpt lat="42.53325" lon="2.00907">
        <ele>2054.3999023438</ele>
        <time>2016-10-30T10:27:15Z</time>
      </trkpt>
      <trkpt lat="42.53325" lon="2.00906">
        <ele>2055</ele>
        <time>2016-10-30T10:27:16Z</time>
      </trkpt>
      <trkpt lat="42.53329" lon="2.00903">
        <ele>2055</ele>
        <time>2016-10-30T10:27:21Z</time>
      </trkpt>
      <trkpt lat="42.53333" lon="2.00899">
        <ele>2055</ele>
        <time>2016-10-30T10:27:27Z</time>
      </trkpt>
      <trkpt lat="42.53337" lon="2.00892">
        <ele>2055.3999023438</ele>
        <time>2016-10-30T10:27:33Z</time>
      </trkpt>
      <trkpt lat="42.53337" lon="2.00891">
        <ele>2055.8000488281</ele>
        <time>2016-10-30T10:27:34Z</time>
      </trkpt>
      <trkpt lat="42.53337" lon="2.00889">
        <ele>2056.1999511719</ele>
        <time>2016-10-30T10:27:35Z</time>
      </trkpt>
      <trkpt lat="42.53337" lon="2.00887">
        <ele>2056.6000976562</ele>
        <time>2016-10-30T10:27:36Z</time>
      </trkpt>
      <trkpt lat="42.53338" lon="2.00887">
        <ele>2057.1999511719</ele>
        <time>2016-10-30T10:27:37Z</time>
      </trkpt>
      <trkpt lat="42.53338" lon="2.00885">
        <ele>2057.1999511719</ele>
        <time>2016-10-30T10:27:38Z</time>
      </trkpt>
      <trkpt lat="42.53339" lon="2.00883">
        <ele>2057.1999511719</ele>
        <time>2016-10-30T10:27:44Z</time>
      </trkpt>
      <trkpt lat="42.5334" lon="2.0088">
        <ele>2057.1999511719</ele>
        <time>2016-10-30T10:27:50Z</time>
      </trkpt>
      <trkpt lat="42.53341" lon="2.00874">
        <ele>2057.1999511719</ele>
        <time>2016-10-30T10:27:55Z</time>
      </trkpt>
      <trkpt lat="42.53344" lon="2.00867">
        <ele>2057.1999511719</ele>
        <time>2016-10-30T10:28:02Z</time>
      </trkpt>
      <trkpt lat="42.53346" lon="2.0086">
        <ele>2057.1999511719</ele>
        <time>2016-10-30T10:28:07Z</time>
      </trkpt>
      <trkpt lat="42.5335" lon="2.00857">
        <ele>2057.1999511719</ele>
        <time>2016-10-30T10:28:13Z</time>
      </trkpt>
      <trkpt lat="42.53351" lon="2.00856">
        <ele>2057.6000976562</ele>
        <time>2016-10-30T10:28:15Z</time>
      </trkpt>
      <trkpt lat="42.53352" lon="2.00856">
        <ele>2058.1999511719</ele>
        <time>2016-10-30T10:28:16Z</time>
      </trkpt>
      <trkpt lat="42.53352" lon="2.00856">
        <ele>2058.6000976562</ele>
        <time>2016-10-30T10:28:17Z</time>
      </trkpt>
      <trkpt lat="42.53353" lon="2.00855">
        <ele>2059</ele>
        <time>2016-10-30T10:28:18Z</time>
      </trkpt>
      <trkpt lat="42.53353" lon="2.00854">
        <ele>2059.6000976562</ele>
        <time>2016-10-30T10:28:19Z</time>
      </trkpt>
      <trkpt lat="42.53354" lon="2.00853">
        <ele>2059.6000976562</ele>
        <time>2016-10-30T10:28:20Z</time>
      </trkpt>
      <trkpt lat="42.53354" lon="2.00845">
        <ele>2059.6000976562</ele>
        <time>2016-10-30T10:28:25Z</time>
      </trkpt>
      <trkpt lat="42.53355" lon="2.00836">
        <ele>2059.6000976562</ele>
        <time>2016-10-30T10:28:31Z</time>
      </trkpt>
      <trkpt lat="42.53355" lon="2.00832">
        <ele>2059.6000976562</ele>
        <time>2016-10-30T10:28:33Z</time>
      </trkpt>
      <trkpt lat="42.53357" lon="2.00827">
        <ele>2059.6000976562</ele>
        <time>2016-10-30T10:28:37Z</time>
      </trkpt>
      <trkpt lat="42.53357" lon="2.00823">
        <ele>2059.6000976562</ele>
        <time>2016-10-30T10:28:40Z</time>
      </trkpt>
      <trkpt lat="42.53358" lon="2.0082">
        <ele>2059.6000976562</ele>
        <time>2016-10-30T10:28:44Z</time>
      </trkpt>
      <trkpt lat="42.53358" lon="2.00816">
        <ele>2060.3999023438</ele>
        <time>2016-10-30T10:28:47Z</time>
      </trkpt>
      <trkpt lat="42.53358" lon="2.00814">
        <ele>2060.8000488281</ele>
        <time>2016-10-30T10:28:48Z</time>
      </trkpt>
      <trkpt lat="42.53358" lon="2.00813">
        <ele>2061.1999511719</ele>
        <time>2016-10-30T10:28:49Z</time>
      </trkpt>
      <trkpt lat="42.53358" lon="2.00812">
        <ele>2061.6000976562</ele>
        <time>2016-10-30T10:28:50Z</time>
      </trkpt>
      <trkpt lat="42.5336" lon="2.00805">
        <ele>2061.6000976562</ele>
        <time>2016-10-30T10:28:55Z</time>
      </trkpt>
      <trkpt lat="42.53361" lon="2.00803">
        <ele>2061.6000976562</ele>
        <time>2016-10-30T10:28:56Z</time>
      </trkpt>
      <trkpt lat="42.53363" lon="2.008">
        <ele>2061.6000976562</ele>
        <time>2016-10-30T10:28:59Z</time>
      </trkpt>
      <trkpt lat="42.53367" lon="2.00792">
        <ele>2061.6000976562</ele>
        <time>2016-10-30T10:29:06Z</time>
      </trkpt>
      <trkpt lat="42.53372" lon="2.00784">
        <ele>2061.6000976562</ele>
        <time>2016-10-30T10:29:13Z</time>
      </trkpt>
      <trkpt lat="42.53376" lon="2.00776">
        <ele>2061.6000976562</ele>
        <time>2016-10-30T10:29:19Z</time>
      </trkpt>
      <trkpt lat="42.53376" lon="2.00775">
        <ele>2061.6000976562</ele>
        <time>2016-10-30T10:29:24Z</time>
      </trkpt>
      <trkpt lat="42.53375" lon="2.00776">
        <ele>2061.6000976562</ele>
        <time>2016-10-30T10:29:29Z</time>
      </trkpt>
      <trkpt lat="42.53378" lon="2.00772">
        <ele>2061.6000976562</ele>
        <time>2016-10-30T10:29:35Z</time>
      </trkpt>
      <trkpt lat="42.53379" lon="2.00767">
        <ele>2061.6000976562</ele>
        <time>2016-10-30T10:29:41Z</time>
      </trkpt>
      <trkpt lat="42.53381" lon="2.00758">
        <ele>2061.6000976562</ele>
        <time>2016-10-30T10:29:46Z</time>
      </trkpt>
      <trkpt lat="42.53384" lon="2.00751">
        <ele>2061.6000976562</ele>
        <time>2016-10-30T10:29:50Z</time>
      </trkpt>
      <trkpt lat="42.53384" lon="2.0075">
        <ele>2061.6000976562</ele>
        <time>2016-10-30T10:29:51Z</time>
      </trkpt>
      <trkpt lat="42.53387" lon="2.00743">
        <ele>2062</ele>
        <time>2016-10-30T10:29:56Z</time>
      </trkpt>
      <trkpt lat="42.53387" lon="2.00741">
        <ele>2062.3999023438</ele>
        <time>2016-10-30T10:29:57Z</time>
      </trkpt>
      <trkpt lat="42.53388" lon="2.0074">
        <ele>2063</ele>
        <time>2016-10-30T10:29:58Z</time>
      </trkpt>
      <trkpt lat="42.53389" lon="2.00739">
        <ele>2063.3999023438</ele>
        <time>2016-10-30T10:29:59Z</time>
      </trkpt>
      <trkpt lat="42.53389" lon="2.00737">
        <ele>2063.8000488281</ele>
        <time>2016-10-30T10:30:00Z</time>
      </trkpt>
      <trkpt lat="42.5339" lon="2.00735">
        <ele>2063.8000488281</ele>
        <time>2016-10-30T10:30:02Z</time>
      </trkpt>
      <trkpt lat="42.5339" lon="2.00732">
        <ele>2063.8000488281</ele>
        <time>2016-10-30T10:30:04Z</time>
      </trkpt>
      <trkpt lat="42.5339" lon="2.00727">
        <ele>2063.8000488281</ele>
        <time>2016-10-30T10:30:07Z</time>
      </trkpt>
      <trkpt lat="42.53392" lon="2.00722">
        <ele>2064.1999511719</ele>
        <time>2016-10-30T10:30:11Z</time>
      </trkpt>
      <trkpt lat="42.53393" lon="2.0072">
        <ele>2064.6000976562</ele>
        <time>2016-10-30T10:30:12Z</time>
      </trkpt>
      <trkpt lat="42.53393" lon="2.00719">
        <ele>2065</ele>
        <time>2016-10-30T10:30:13Z</time>
      </trkpt>
      <trkpt lat="42.53393" lon="2.00719">
        <ele>2065.6000976562</ele>
        <time>2016-10-30T10:30:14Z</time>
      </trkpt>
      <trkpt lat="42.53393" lon="2.00718">
        <ele>2066</ele>
        <time>2016-10-30T10:30:15Z</time>
      </trkpt>
      <trkpt lat="42.53393" lon="2.00716">
        <ele>2066</ele>
        <time>2016-10-30T10:30:16Z</time>
      </trkpt>
      <trkpt lat="42.53393" lon="2.00714">
        <ele>2066</ele>
        <time>2016-10-30T10:30:18Z</time>
      </trkpt>
      <trkpt lat="42.53389" lon="2.00706">
        <ele>2066</ele>
        <time>2016-10-30T10:30:25Z</time>
      </trkpt>
      <trkpt lat="42.53388" lon="2.00704">
        <ele>2066.8000488281</ele>
        <time>2016-10-30T10:30:27Z</time>
      </trkpt>
      <trkpt lat="42.53387" lon="2.00703">
        <ele>2067.1999511719</ele>
        <time>2016-10-30T10:30:28Z</time>
      </trkpt>
      <trkpt lat="42.53386" lon="2.00701">
        <ele>2067.6000976562</ele>
        <time>2016-10-30T10:30:29Z</time>
      </trkpt>
      <trkpt lat="42.53386" lon="2.007">
        <ele>2068</ele>
        <time>2016-10-30T10:30:30Z</time>
      </trkpt>
      <trkpt lat="42.53382" lon="2.00695">
        <ele>2068</ele>
        <time>2016-10-30T10:30:36Z</time>
      </trkpt>
      <trkpt lat="42.53375" lon="2.00692">
        <ele>2068</ele>
        <time>2016-10-30T10:30:42Z</time>
      </trkpt>
      <trkpt lat="42.53373" lon="2.00691">
        <ele>2068</ele>
        <time>2016-10-30T10:30:45Z</time>
      </trkpt>
      <trkpt lat="42.53371" lon="2.00691">
        <ele>2068</ele>
        <time>2016-10-30T10:30:46Z</time>
      </trkpt>
      <trkpt lat="42.53367" lon="2.00689">
        <ele>2068</ele>
        <time>2016-10-30T10:30:50Z</time>
      </trkpt>
      <trkpt lat="42.5336" lon="2.00687">
        <ele>2068</ele>
        <time>2016-10-30T10:30:55Z</time>
      </trkpt>
      <trkpt lat="42.53356" lon="2.00686">
        <ele>2068</ele>
        <time>2016-10-30T10:31:00Z</time>
      </trkpt>
      <trkpt lat="42.5335" lon="2.00682">
        <ele>2068</ele>
        <time>2016-10-30T10:31:07Z</time>
      </trkpt>
      <trkpt lat="42.53344" lon="2.00677">
        <ele>2068</ele>
        <time>2016-10-30T10:31:14Z</time>
      </trkpt>
      <trkpt lat="42.53339" lon="2.00674">
        <ele>2068</ele>
        <time>2016-10-30T10:31:19Z</time>
      </trkpt>
      <trkpt lat="42.53335" lon="2.00672">
        <ele>2068</ele>
        <time>2016-10-30T10:31:26Z</time>
      </trkpt>
      <trkpt lat="42.53333" lon="2.0067">
        <ele>2068</ele>
        <time>2016-10-30T10:31:33Z</time>
      </trkpt>
      <trkpt lat="42.53332" lon="2.00669">
        <ele>2068</ele>
        <time>2016-10-30T10:31:38Z</time>
      </trkpt>
      <trkpt lat="42.5333" lon="2.00664">
        <ele>2068</ele>
        <time>2016-10-30T10:31:43Z</time>
      </trkpt>
      <trkpt lat="42.53326" lon="2.0066">
        <ele>2068</ele>
        <time>2016-10-30T10:31:49Z</time>
      </trkpt>
      <trkpt lat="42.53324" lon="2.00659">
        <ele>2068</ele>
        <time>2016-10-30T10:31:53Z</time>
      </trkpt>
      <trkpt lat="42.53324" lon="2.00659">
        <ele>2068</ele>
        <time>2016-10-30T10:32:06Z</time>
      </trkpt>
      <trkpt lat="42.53324" lon="2.00659">
        <ele>2068</ele>
        <time>2016-10-30T10:32:17Z</time>
      </trkpt>
      <trkpt lat="42.53325" lon="2.00657">
        <ele>2068</ele>
        <time>2016-10-30T10:32:25Z</time>
      </trkpt>
      <trkpt lat="42.53325" lon="2.00657">
        <ele>2068</ele>
        <time>2016-10-30T10:32:34Z</time>
      </trkpt>
      <trkpt lat="42.53325" lon="2.00656">
        <ele>2067.6000976562</ele>
        <time>2016-10-30T10:32:42Z</time>
      </trkpt>
      <trkpt lat="42.53326" lon="2.00655">
        <ele>2067.1999511719</ele>
        <time>2016-10-30T10:32:43Z</time>
      </trkpt>
      <trkpt lat="42.53326" lon="2.00654">
        <ele>2066.8000488281</ele>
        <time>2016-10-30T10:32:44Z</time>
      </trkpt>
      <trkpt lat="42.53326" lon="2.00653">
        <ele>2066.3999023438</ele>
        <time>2016-10-30T10:32:45Z</time>
      </trkpt>
      <trkpt lat="42.53326" lon="2.00652">
        <ele>2066</ele>
        <time>2016-10-30T10:32:46Z</time>
      </trkpt>
      <trkpt lat="42.53326" lon="2.0065">
        <ele>2066</ele>
        <time>2016-10-30T10:32:49Z</time>
      </trkpt>
      <trkpt lat="42.53326" lon="2.0065">
        <ele>2066</ele>
        <time>2016-10-30T10:33:02Z</time>
      </trkpt>
      <trkpt lat="42.53326" lon="2.0065">
        <ele>2066</ele>
        <time>2016-10-30T10:33:16Z</time>
      </trkpt>
      <trkpt lat="42.53326" lon="2.00654">
        <ele>2066</ele>
        <time>2016-10-30T10:33:21Z</time>
      </trkpt>
      <trkpt lat="42.53323" lon="2.00656">
        <ele>2066</ele>
        <time>2016-10-30T10:33:28Z</time>
      </trkpt>
      <trkpt lat="42.53323" lon="2.00656">
        <ele>2066</ele>
        <time>2016-10-30T10:33:35Z</time>
      </trkpt>
      <trkpt lat="42.53323" lon="2.00656">
        <ele>2066</ele>
        <time>2016-10-30T10:33:47Z</time>
      </trkpt>
      <trkpt lat="42.53323" lon="2.00656">
        <ele>2066</ele>
        <time>2016-10-30T10:33:57Z</time>
      </trkpt>
      <trkpt lat="42.53323" lon="2.00656">
        <ele>2066</ele>
        <time>2016-10-30T10:34:04Z</time>
      </trkpt>
      <trkpt lat="42.53323" lon="2.00656">
        <ele>2066</ele>
        <time>2016-10-30T10:34:15Z</time>
      </trkpt>
      <trkpt lat="42.53323" lon="2.00656">
        <ele>2066</ele>
        <time>2016-10-30T10:34:27Z</time>
      </trkpt>
      <trkpt lat="42.53323" lon="2.00656">
        <ele>2066</ele>
        <time>2016-10-30T10:34:29Z</time>
      </trkpt>
      <trkpt lat="42.53323" lon="2.00656">
        <ele>2066</ele>
        <time>2016-10-30T10:34:36Z</time>
      </trkpt>
      <trkpt lat="42.53323" lon="2.00656">
        <ele>2066</ele>
        <time>2016-10-30T10:34:51Z</time>
      </trkpt>
      <trkpt lat="42.53323" lon="2.00656">
        <ele>2066</ele>
        <time>2016-10-30T10:35:03Z</time>
      </trkpt>
      <trkpt lat="42.53323" lon="2.00656">
        <ele>2066</ele>
        <time>2016-10-30T10:35:15Z</time>
      </trkpt>
      <trkpt lat="42.53323" lon="2.00655">
        <ele>2066</ele>
        <time>2016-10-30T10:35:27Z</time>
      </trkpt>
      <trkpt lat="42.53322" lon="2.00653">
        <ele>2066</ele>
        <time>2016-10-30T10:35:37Z</time>
      </trkpt>
      <trkpt lat="42.5332" lon="2.0065">
        <ele>2066</ele>
        <time>2016-10-30T10:35:41Z</time>
      </trkpt>
      <trkpt lat="42.53316" lon="2.00645">
        <ele>2066</ele>
        <time>2016-10-30T10:35:47Z</time>
      </trkpt>
      <trkpt lat="42.53314" lon="2.00644">
        <ele>2066</ele>
        <time>2016-10-30T10:35:53Z</time>
      </trkpt>
      <trkpt lat="42.53311" lon="2.00642">
        <ele>2066</ele>
        <time>2016-10-30T10:35:57Z</time>
      </trkpt>
      <trkpt lat="42.53308" lon="2.00641">
        <ele>2066</ele>
        <time>2016-10-30T10:35:59Z</time>
      </trkpt>
      <trkpt lat="42.53305" lon="2.00638">
        <ele>2066</ele>
        <time>2016-10-30T10:36:04Z</time>
      </trkpt>
      <trkpt lat="42.53302" lon="2.00637">
        <ele>2066</ele>
        <time>2016-10-30T10:36:06Z</time>
      </trkpt>
      <trkpt lat="42.53296" lon="2.00634">
        <ele>2066</ele>
        <time>2016-10-30T10:36:12Z</time>
      </trkpt>
      <trkpt lat="42.53292" lon="2.00633">
        <ele>2065.6000976562</ele>
        <time>2016-10-30T10:36:15Z</time>
      </trkpt>
      <trkpt lat="42.53291" lon="2.00633">
        <ele>2065.1999511719</ele>
        <time>2016-10-30T10:36:16Z</time>
      </trkpt>
      <trkpt lat="42.5329" lon="2.00632">
        <ele>2064.8000488281</ele>
        <time>2016-10-30T10:36:17Z</time>
      </trkpt>
      <trkpt lat="42.53289" lon="2.00632">
        <ele>2064.3999023438</ele>
        <time>2016-10-30T10:36:18Z</time>
      </trkpt>
      <trkpt lat="42.53288" lon="2.00632">
        <ele>2064</ele>
        <time>2016-10-30T10:36:19Z</time>
      </trkpt>
      <trkpt lat="42.53288" lon="2.00631">
        <ele>2064</ele>
        <time>2016-10-30T10:36:20Z</time>
      </trkpt>
      <trkpt lat="42.53287" lon="2.00631">
        <ele>2064</ele>
        <time>2016-10-30T10:36:22Z</time>
      </trkpt>
      <trkpt lat="42.5328" lon="2.00632">
        <ele>2064</ele>
        <time>2016-10-30T10:36:29Z</time>
      </trkpt>
      <trkpt lat="42.53279" lon="2.00632">
        <ele>2063.6000976562</ele>
        <time>2016-10-30T10:36:31Z</time>
      </trkpt>
      <trkpt lat="42.53279" lon="2.00632">
        <ele>2063.1999511719</ele>
        <time>2016-10-30T10:36:32Z</time>
      </trkpt>
      <trkpt lat="42.53279" lon="2.00632">
        <ele>2062.8000488281</ele>
        <time>2016-10-30T10:36:33Z</time>
      </trkpt>
      <trkpt lat="42.53278" lon="2.00632">
        <ele>2062.3999023438</ele>
        <time>2016-10-30T10:36:34Z</time>
      </trkpt>
      <trkpt lat="42.53277" lon="2.00633">
        <ele>2062</ele>
        <time>2016-10-30T10:36:35Z</time>
      </trkpt>
      <trkpt lat="42.53273" lon="2.00632">
        <ele>2062</ele>
        <time>2016-10-30T10:36:39Z</time>
      </trkpt>
      <trkpt lat="42.5327" lon="2.00631">
        <ele>2062</ele>
        <time>2016-10-30T10:36:41Z</time>
      </trkpt>
      <trkpt lat="42.53264" lon="2.00629">
        <ele>2062</ele>
        <time>2016-10-30T10:36:47Z</time>
      </trkpt>
      <trkpt lat="42.53262" lon="2.00629">
        <ele>2061.6000976562</ele>
        <time>2016-10-30T10:36:48Z</time>
      </trkpt>
      <trkpt lat="42.53261" lon="2.00628">
        <ele>2061.1999511719</ele>
        <time>2016-10-30T10:36:49Z</time>
      </trkpt>
      <trkpt lat="42.5326" lon="2.00627">
        <ele>2060.8000488281</ele>
        <time>2016-10-30T10:36:50Z</time>
      </trkpt>
      <trkpt lat="42.53259" lon="2.00626">
        <ele>2060.3999023438</ele>
        <time>2016-10-30T10:36:51Z</time>
      </trkpt>
      <trkpt lat="42.53258" lon="2.00626">
        <ele>2060</ele>
        <time>2016-10-30T10:36:52Z</time>
      </trkpt>
      <trkpt lat="42.53253" lon="2.00623">
        <ele>2060</ele>
        <time>2016-10-30T10:36:57Z</time>
      </trkpt>
      <trkpt lat="42.5325" lon="2.00621">
        <ele>2060</ele>
        <time>2016-10-30T10:37:01Z</time>
      </trkpt>
      <trkpt lat="42.53249" lon="2.0062">
        <ele>2060</ele>
        <time>2016-10-30T10:37:02Z</time>
      </trkpt>
      <trkpt lat="42.53246" lon="2.00618">
        <ele>2059.6000976562</ele>
        <time>2016-10-30T10:37:05Z</time>
      </trkpt>
      <trkpt lat="42.53245" lon="2.00617">
        <ele>2059.1999511719</ele>
        <time>2016-10-30T10:37:06Z</time>
      </trkpt>
      <trkpt lat="42.53245" lon="2.00615">
        <ele>2058.8000488281</ele>
        <time>2016-10-30T10:37:07Z</time>
      </trkpt>
      <trkpt lat="42.53244" lon="2.00614">
        <ele>2058.1999511719</ele>
        <time>2016-10-30T10:37:08Z</time>
      </trkpt>
      <trkpt lat="42.53243" lon="2.00614">
        <ele>2057.8000488281</ele>
        <time>2016-10-30T10:37:09Z</time>
      </trkpt>
      <trkpt lat="42.5324" lon="2.0061">
        <ele>2057.8000488281</ele>
        <time>2016-10-30T10:37:13Z</time>
      </trkpt>
      <trkpt lat="42.53237" lon="2.00605">
        <ele>2057.8000488281</ele>
        <time>2016-10-30T10:37:18Z</time>
      </trkpt>
      <trkpt lat="42.53234" lon="2.00598">
        <ele>2057.8000488281</ele>
        <time>2016-10-30T10:37:24Z</time>
      </trkpt>
      <trkpt lat="42.53233" lon="2.00598">
        <ele>2057.3999023438</ele>
        <time>2016-10-30T10:37:25Z</time>
      </trkpt>
      <trkpt lat="42.53232" lon="2.00596">
        <ele>2056.6000976562</ele>
        <time>2016-10-30T10:37:26Z</time>
      </trkpt>
      <trkpt lat="42.53231" lon="2.00595">
        <ele>2056.1999511719</ele>
        <time>2016-10-30T10:37:27Z</time>
      </trkpt>
      <trkpt lat="42.5323" lon="2.00593">
        <ele>2055.8000488281</ele>
        <time>2016-10-30T10:37:28Z</time>
      </trkpt>
      <trkpt lat="42.53228" lon="2.00584">
        <ele>2055.8000488281</ele>
        <time>2016-10-30T10:37:34Z</time>
      </trkpt>
      <trkpt lat="42.53226" lon="2.00575">
        <ele>2055.8000488281</ele>
        <time>2016-10-30T10:37:42Z</time>
      </trkpt>
      <trkpt lat="42.53223" lon="2.00572">
        <ele>2055.8000488281</ele>
        <time>2016-10-30T10:37:47Z</time>
      </trkpt>
      <trkpt lat="42.53222" lon="2.00569">
        <ele>2055.8000488281</ele>
        <time>2016-10-30T10:37:49Z</time>
      </trkpt>
      <trkpt lat="42.53222" lon="2.00567">
        <ele>2055</ele>
        <time>2016-10-30T10:37:51Z</time>
      </trkpt>
      <trkpt lat="42.53221" lon="2.00565">
        <ele>2054.6000976562</ele>
        <time>2016-10-30T10:37:52Z</time>
      </trkpt>
      <trkpt lat="42.53221" lon="2.00564">
        <ele>2054.1999511719</ele>
        <time>2016-10-30T10:37:53Z</time>
      </trkpt>
      <trkpt lat="42.5322" lon="2.00562">
        <ele>2053.8000488281</ele>
        <time>2016-10-30T10:37:54Z</time>
      </trkpt>
      <trkpt lat="42.53219" lon="2.0056">
        <ele>2053.8000488281</ele>
        <time>2016-10-30T10:37:56Z</time>
      </trkpt>
      <trkpt lat="42.53216" lon="2.00555">
        <ele>2053.8000488281</ele>
        <time>2016-10-30T10:38:01Z</time>
      </trkpt>
      <trkpt lat="42.53215" lon="2.00552">
        <ele>2053.8000488281</ele>
        <time>2016-10-30T10:38:03Z</time>
      </trkpt>
      <trkpt lat="42.53213" lon="2.00545">
        <ele>2053.8000488281</ele>
        <time>2016-10-30T10:38:07Z</time>
      </trkpt>
      <trkpt lat="42.53212" lon="2.00541">
        <ele>2053.8000488281</ele>
        <time>2016-10-30T10:38:11Z</time>
      </trkpt>
      <trkpt lat="42.53211" lon="2.0054">
        <ele>2053.8000488281</ele>
        <time>2016-10-30T10:38:12Z</time>
      </trkpt>
      <trkpt lat="42.53209" lon="2.00535">
        <ele>2053.3999023438</ele>
        <time>2016-10-30T10:38:15Z</time>
      </trkpt>
      <trkpt lat="42.53209" lon="2.00535">
        <ele>2053</ele>
        <time>2016-10-30T10:38:16Z</time>
      </trkpt>
      <trkpt lat="42.53208" lon="2.00535">
        <ele>2052.6000976562</ele>
        <time>2016-10-30T10:38:17Z</time>
      </trkpt>
      <trkpt lat="42.53207" lon="2.00532">
        <ele>2052.1999511719</ele>
        <time>2016-10-30T10:38:18Z</time>
      </trkpt>
      <trkpt lat="42.53206" lon="2.0053">
        <ele>2051.8000488281</ele>
        <time>2016-10-30T10:38:19Z</time>
      </trkpt>
      <trkpt lat="42.53205" lon="2.00526">
        <ele>2051.8000488281</ele>
        <time>2016-10-30T10:38:22Z</time>
      </trkpt>
      <trkpt lat="42.53203" lon="2.00518">
        <ele>2051.8000488281</ele>
        <time>2016-10-30T10:38:28Z</time>
      </trkpt>
      <trkpt lat="42.53202" lon="2.00507">
        <ele>2051.8000488281</ele>
        <time>2016-10-30T10:38:34Z</time>
      </trkpt>
      <trkpt lat="42.53202" lon="2.00499">
        <ele>2051.8000488281</ele>
        <time>2016-10-30T10:38:39Z</time>
      </trkpt>
      <trkpt lat="42.53203" lon="2.00491">
        <ele>2051.8000488281</ele>
        <time>2016-10-30T10:38:45Z</time>
      </trkpt>
      <trkpt lat="42.53202" lon="2.00488">
        <ele>2051.8000488281</ele>
        <time>2016-10-30T10:38:48Z</time>
      </trkpt>
      <trkpt lat="42.53202" lon="2.00484">
        <ele>2051.8000488281</ele>
        <time>2016-10-30T10:38:50Z</time>
      </trkpt>
      <trkpt lat="42.53201" lon="2.00481">
        <ele>2051.8000488281</ele>
        <time>2016-10-30T10:38:52Z</time>
      </trkpt>
      <trkpt lat="42.532" lon="2.00475">
        <ele>2051.8000488281</ele>
        <time>2016-10-30T10:38:55Z</time>
      </trkpt>
      <trkpt lat="42.53198" lon="2.00467">
        <ele>2051.8000488281</ele>
        <time>2016-10-30T10:39:00Z</time>
      </trkpt>
      <trkpt lat="42.53195" lon="2.0046">
        <ele>2051.8000488281</ele>
        <time>2016-10-30T10:39:05Z</time>
      </trkpt>
      <trkpt lat="42.53195" lon="2.00459">
        <ele>2051.8000488281</ele>
        <time>2016-10-30T10:39:06Z</time>
      </trkpt>
      <trkpt lat="42.53195" lon="2.00453">
        <ele>2051.8000488281</ele>
        <time>2016-10-30T10:39:10Z</time>
      </trkpt>
      <trkpt lat="42.53192" lon="2.00446">
        <ele>2051.8000488281</ele>
        <time>2016-10-30T10:39:16Z</time>
      </trkpt>
      <trkpt lat="42.5319" lon="2.00443">
        <ele>2051.8000488281</ele>
        <time>2016-10-30T10:39:19Z</time>
      </trkpt>
      <trkpt lat="42.53189" lon="2.00439">
        <ele>2051.8000488281</ele>
        <time>2016-10-30T10:39:21Z</time>
      </trkpt>
      <trkpt lat="42.53188" lon="2.00438">
        <ele>2051.8000488281</ele>
        <time>2016-10-30T10:39:22Z</time>
      </trkpt>
      <trkpt lat="42.53185" lon="2.00434">
        <ele>2051.8000488281</ele>
        <time>2016-10-30T10:39:26Z</time>
      </trkpt>
      <trkpt lat="42.5318" lon="2.00428">
        <ele>2051.8000488281</ele>
        <time>2016-10-30T10:39:32Z</time>
      </trkpt>
      <trkpt lat="42.53178" lon="2.00426">
        <ele>2051.8000488281</ele>
        <time>2016-10-30T10:39:34Z</time>
      </trkpt>
      <trkpt lat="42.53175" lon="2.00425">
        <ele>2051.8000488281</ele>
        <time>2016-10-30T10:39:37Z</time>
      </trkpt>
      <trkpt lat="42.53169" lon="2.0042">
        <ele>2051.8000488281</ele>
        <time>2016-10-30T10:39:43Z</time>
      </trkpt>
      <trkpt lat="42.53161" lon="2.00414">
        <ele>2051.8000488281</ele>
        <time>2016-10-30T10:39:50Z</time>
      </trkpt>
      <trkpt lat="42.53156" lon="2.00409">
        <ele>2051.8000488281</ele>
        <time>2016-10-30T10:39:56Z</time>
      </trkpt>
      <trkpt lat="42.5315" lon="2.00403">
        <ele>2051.8000488281</ele>
        <time>2016-10-30T10:40:02Z</time>
      </trkpt>
      <trkpt lat="42.53145" lon="2.00398">
        <ele>2051.8000488281</ele>
        <time>2016-10-30T10:40:07Z</time>
      </trkpt>
      <trkpt lat="42.53144" lon="2.00397">
        <ele>2051.8000488281</ele>
        <time>2016-10-30T10:40:08Z</time>
      </trkpt>
      <trkpt lat="42.53139" lon="2.00392">
        <ele>2051.8000488281</ele>
        <time>2016-10-30T10:40:14Z</time>
      </trkpt>
      <trkpt lat="42.53132" lon="2.00387">
        <ele>2051.8000488281</ele>
        <time>2016-10-30T10:40:21Z</time>
      </trkpt>
      <trkpt lat="42.53126" lon="2.00383">
        <ele>2051.1999511719</ele>
        <time>2016-10-30T10:40:28Z</time>
      </trkpt>
      <trkpt lat="42.53126" lon="2.00383">
        <ele>2050.8000488281</ele>
        <time>2016-10-30T10:40:29Z</time>
      </trkpt>
      <trkpt lat="42.53125" lon="2.00381">
        <ele>2050.3999023438</ele>
        <time>2016-10-30T10:40:30Z</time>
      </trkpt>
      <trkpt lat="42.53124" lon="2.0038">
        <ele>2050</ele>
        <time>2016-10-30T10:40:31Z</time>
      </trkpt>
      <trkpt lat="42.53124" lon="2.00378">
        <ele>2049.6000976562</ele>
        <time>2016-10-30T10:40:32Z</time>
      </trkpt>
      <trkpt lat="42.53123" lon="2.00378">
        <ele>2049.6000976562</ele>
        <time>2016-10-30T10:40:33Z</time>
      </trkpt>
      <trkpt lat="42.53118" lon="2.00372">
        <ele>2049.6000976562</ele>
        <time>2016-10-30T10:40:39Z</time>
      </trkpt>
      <trkpt lat="42.53113" lon="2.00365">
        <ele>2049.6000976562</ele>
        <time>2016-10-30T10:40:45Z</time>
      </trkpt>
      <trkpt lat="42.53108" lon="2.0036">
        <ele>2049.6000976562</ele>
        <time>2016-10-30T10:40:50Z</time>
      </trkpt>
      <trkpt lat="42.53106" lon="2.00358">
        <ele>2049.6000976562</ele>
        <time>2016-10-30T10:40:52Z</time>
      </trkpt>
      <trkpt lat="42.53102" lon="2.00352">
        <ele>2049.6000976562</ele>
        <time>2016-10-30T10:40:58Z</time>
      </trkpt>
      <trkpt lat="42.531" lon="2.00347">
        <ele>2049.6000976562</ele>
        <time>2016-10-30T10:41:02Z</time>
      </trkpt>
      <trkpt lat="42.53095" lon="2.00341">
        <ele>2049.6000976562</ele>
        <time>2016-10-30T10:41:08Z</time>
      </trkpt>
      <trkpt lat="42.5309" lon="2.00335">
        <ele>2049.6000976562</ele>
        <time>2016-10-30T10:41:14Z</time>
      </trkpt>
      <trkpt lat="42.53086" lon="2.00328">
        <ele>2049.6000976562</ele>
        <time>2016-10-30T10:41:22Z</time>
      </trkpt>
      <trkpt lat="42.53082" lon="2.0032">
        <ele>2049.6000976562</ele>
        <time>2016-10-30T10:41:28Z</time>
      </trkpt>
      <trkpt lat="42.53081" lon="2.00319">
        <ele>2049.6000976562</ele>
        <time>2016-10-30T10:41:29Z</time>
      </trkpt>
      <trkpt lat="42.53076" lon="2.00312">
        <ele>2049.6000976562</ele>
        <time>2016-10-30T10:41:34Z</time>
      </trkpt>
      <trkpt lat="42.53072" lon="2.00308">
        <ele>2049.6000976562</ele>
        <time>2016-10-30T10:41:38Z</time>
      </trkpt>
      <trkpt lat="42.5307" lon="2.00308">
        <ele>2049.6000976562</ele>
        <time>2016-10-30T10:41:40Z</time>
      </trkpt>
      <trkpt lat="42.53065" lon="2.0031">
        <ele>2049.6000976562</ele>
        <time>2016-10-30T10:41:44Z</time>
      </trkpt>
      <trkpt lat="42.5306" lon="2.00312">
        <ele>2049.6000976562</ele>
        <time>2016-10-30T10:41:49Z</time>
      </trkpt>
      <trkpt lat="42.53054" lon="2.00312">
        <ele>2049.6000976562</ele>
        <time>2016-10-30T10:41:54Z</time>
      </trkpt>
      <trkpt lat="42.53053" lon="2.00312">
        <ele>2049.6000976562</ele>
        <time>2016-10-30T10:41:55Z</time>
      </trkpt>
      <trkpt lat="42.5305" lon="2.00312">
        <ele>2048.8000488281</ele>
        <time>2016-10-30T10:41:57Z</time>
      </trkpt>
      <trkpt lat="42.5305" lon="2.00313">
        <ele>2048.3999023438</ele>
        <time>2016-10-30T10:41:58Z</time>
      </trkpt>
      <trkpt lat="42.53049" lon="2.00313">
        <ele>2048</ele>
        <time>2016-10-30T10:41:59Z</time>
      </trkpt>
      <trkpt lat="42.53047" lon="2.00313">
        <ele>2047.4000244141</ele>
        <time>2016-10-30T10:42:00Z</time>
      </trkpt>
      <trkpt lat="42.53039" lon="2.00315">
        <ele>2047.4000244141</ele>
        <time>2016-10-30T10:42:07Z</time>
      </trkpt>
      <trkpt lat="42.53035" lon="2.00314">
        <ele>2047.4000244141</ele>
        <time>2016-10-30T10:42:12Z</time>
      </trkpt>
      <trkpt lat="42.53028" lon="2.00314">
        <ele>2047.4000244141</ele>
        <time>2016-10-30T10:42:18Z</time>
      </trkpt>
      <trkpt lat="42.53024" lon="2.00315">
        <ele>2047.4000244141</ele>
        <time>2016-10-30T10:42:21Z</time>
      </trkpt>
      <trkpt lat="42.5302" lon="2.00316">
        <ele>2047.4000244141</ele>
        <time>2016-10-30T10:42:24Z</time>
      </trkpt>
      <trkpt lat="42.53019" lon="2.00316">
        <ele>2047.4000244141</ele>
        <time>2016-10-30T10:42:29Z</time>
      </trkpt>
      <trkpt lat="42.53016" lon="2.00317">
        <ele>2047.4000244141</ele>
        <time>2016-10-30T10:42:34Z</time>
      </trkpt>
      <trkpt lat="42.53014" lon="2.00317">
        <ele>2047.4000244141</ele>
        <time>2016-10-30T10:42:36Z</time>
      </trkpt>
      <trkpt lat="42.53004" lon="2.00318">
        <ele>2047.4000244141</ele>
        <time>2016-10-30T10:42:43Z</time>
      </trkpt>
      <trkpt lat="42.53003" lon="2.00318">
        <ele>2047.4000244141</ele>
        <time>2016-10-30T10:42:44Z</time>
      </trkpt>
      <trkpt lat="42.53002" lon="2.00317">
        <ele>2047</ele>
        <time>2016-10-30T10:42:45Z</time>
      </trkpt>
      <trkpt lat="42.53" lon="2.00317">
        <ele>2046.5999755859</ele>
        <time>2016-10-30T10:42:46Z</time>
      </trkpt>
      <trkpt lat="42.52999" lon="2.00315">
        <ele>2045.8000488281</ele>
        <time>2016-10-30T10:42:47Z</time>
      </trkpt>
      <trkpt lat="42.52998" lon="2.00315">
        <ele>2045.4000244141</ele>
        <time>2016-10-30T10:42:48Z</time>
      </trkpt>
      <trkpt lat="42.52992" lon="2.00311">
        <ele>2045.4000244141</ele>
        <time>2016-10-30T10:42:53Z</time>
      </trkpt>
      <trkpt lat="42.52989" lon="2.0031">
        <ele>2045.4000244141</ele>
        <time>2016-10-30T10:42:56Z</time>
      </trkpt>
      <trkpt lat="42.52986" lon="2.00308">
        <ele>2045.4000244141</ele>
        <time>2016-10-30T10:42:58Z</time>
      </trkpt>
      <trkpt lat="42.52981" lon="2.00304">
        <ele>2045.4000244141</ele>
        <time>2016-10-30T10:43:04Z</time>
      </trkpt>
      <trkpt lat="42.52974" lon="2.00301">
        <ele>2045.4000244141</ele>
        <time>2016-10-30T10:43:10Z</time>
      </trkpt>
      <trkpt lat="42.52972" lon="2.00299">
        <ele>2045</ele>
        <time>2016-10-30T10:43:14Z</time>
      </trkpt>
      <trkpt lat="42.52971" lon="2.00299">
        <ele>2044.5999755859</ele>
        <time>2016-10-30T10:43:15Z</time>
      </trkpt>
      <trkpt lat="42.52972" lon="2.00299">
        <ele>2044.1999511719</ele>
        <time>2016-10-30T10:43:16Z</time>
      </trkpt>
      <trkpt lat="42.52972" lon="2.00299">
        <ele>2043.8000488281</ele>
        <time>2016-10-30T10:43:17Z</time>
      </trkpt>
      <trkpt lat="42.52972" lon="2.00299">
        <ele>2043.4000244141</ele>
        <time>2016-10-30T10:43:18Z</time>
      </trkpt>
      <trkpt lat="42.52972" lon="2.00299">
        <ele>2043.4000244141</ele>
        <time>2016-10-30T10:43:26Z</time>
      </trkpt>
      <trkpt lat="42.5297" lon="2.00296">
        <ele>2043.4000244141</ele>
        <time>2016-10-30T10:43:37Z</time>
      </trkpt>
      <trkpt lat="42.52965" lon="2.00289">
        <ele>2043.4000244141</ele>
        <time>2016-10-30T10:43:43Z</time>
      </trkpt>
      <trkpt lat="42.5296" lon="2.00283">
        <ele>2043.4000244141</ele>
        <time>2016-10-30T10:43:49Z</time>
      </trkpt>
      <trkpt lat="42.52955" lon="2.00277">
        <ele>2043.4000244141</ele>
        <time>2016-10-30T10:43:55Z</time>
      </trkpt>
      <trkpt lat="42.5295" lon="2.0027">
        <ele>2043.4000244141</ele>
        <time>2016-10-30T10:44:00Z</time>
      </trkpt>
      <trkpt lat="42.52944" lon="2.0026">
        <ele>2043.4000244141</ele>
        <time>2016-10-30T10:44:08Z</time>
      </trkpt>
      <trkpt lat="42.52939" lon="2.00253">
        <ele>2043.4000244141</ele>
        <time>2016-10-30T10:44:14Z</time>
      </trkpt>
      <trkpt lat="42.52935" lon="2.00245">
        <ele>2043.4000244141</ele>
        <time>2016-10-30T10:44:21Z</time>
      </trkpt>
      <trkpt lat="42.5293" lon="2.00239">
        <ele>2043.4000244141</ele>
        <time>2016-10-30T10:44:27Z</time>
      </trkpt>
      <trkpt lat="42.52928" lon="2.00237">
        <ele>2043.4000244141</ele>
        <time>2016-10-30T10:44:29Z</time>
      </trkpt>
      <trkpt lat="42.52925" lon="2.00234">
        <ele>2043.4000244141</ele>
        <time>2016-10-30T10:44:32Z</time>
      </trkpt>
      <trkpt lat="42.52921" lon="2.00227">
        <ele>2043.4000244141</ele>
        <time>2016-10-30T10:44:38Z</time>
      </trkpt>
      <trkpt lat="42.52915" lon="2.0022">
        <ele>2043.4000244141</ele>
        <time>2016-10-30T10:44:45Z</time>
      </trkpt>
      <trkpt lat="42.5291" lon="2.00212">
        <ele>2043.4000244141</ele>
        <time>2016-10-30T10:44:51Z</time>
      </trkpt>
      <trkpt lat="42.52908" lon="2.00209">
        <ele>2043.4000244141</ele>
        <time>2016-10-30T10:44:54Z</time>
      </trkpt>
      <trkpt lat="42.52907" lon="2.00207">
        <ele>2043.4000244141</ele>
        <time>2016-10-30T10:44:56Z</time>
      </trkpt>
      <trkpt lat="42.52906" lon="2.00202">
        <ele>2043.4000244141</ele>
        <time>2016-10-30T10:44:59Z</time>
      </trkpt>
      <trkpt lat="42.52905" lon="2.00199">
        <ele>2043.4000244141</ele>
        <time>2016-10-30T10:45:02Z</time>
      </trkpt>
      <trkpt lat="42.52901" lon="2.0019">
        <ele>2043.4000244141</ele>
        <time>2016-10-30T10:45:09Z</time>
      </trkpt>
      <trkpt lat="42.529" lon="2.00187">
        <ele>2042.8000488281</ele>
        <time>2016-10-30T10:45:11Z</time>
      </trkpt>
      <trkpt lat="42.52899" lon="2.00186">
        <ele>2042.4000244141</ele>
        <time>2016-10-30T10:45:12Z</time>
      </trkpt>
      <trkpt lat="42.52899" lon="2.00185">
        <ele>2041.8000488281</ele>
        <time>2016-10-30T10:45:13Z</time>
      </trkpt>
      <trkpt lat="42.52898" lon="2.00183">
        <ele>2041.4000244141</ele>
        <time>2016-10-30T10:45:14Z</time>
      </trkpt>
      <trkpt lat="42.52898" lon="2.00182">
        <ele>2041</ele>
        <time>2016-10-30T10:45:15Z</time>
      </trkpt>
      <trkpt lat="42.52896" lon="2.00176">
        <ele>2041</ele>
        <time>2016-10-30T10:45:20Z</time>
      </trkpt>
      <trkpt lat="42.52895" lon="2.0017">
        <ele>2041</ele>
        <time>2016-10-30T10:45:27Z</time>
      </trkpt>
      <trkpt lat="42.52888" lon="2.00164">
        <ele>2041</ele>
        <time>2016-10-30T10:45:33Z</time>
      </trkpt>
      <trkpt lat="42.52883" lon="2.00157">
        <ele>2041</ele>
        <time>2016-10-30T10:45:39Z</time>
      </trkpt>
      <trkpt lat="42.52878" lon="2.00151">
        <ele>2041</ele>
        <time>2016-10-30T10:45:45Z</time>
      </trkpt>
      <trkpt lat="42.52873" lon="2.00144">
        <ele>2041</ele>
        <time>2016-10-30T10:45:51Z</time>
      </trkpt>
      <trkpt lat="42.52872" lon="2.00143">
        <ele>2041</ele>
        <time>2016-10-30T10:45:58Z</time>
      </trkpt>
      <trkpt lat="42.5287" lon="2.00134">
        <ele>2041</ele>
        <time>2016-10-30T10:46:04Z</time>
      </trkpt>
      <trkpt lat="42.52869" lon="2.00131">
        <ele>2041</ele>
        <time>2016-10-30T10:46:07Z</time>
      </trkpt>
      <trkpt lat="42.52869" lon="2.00128">
        <ele>2041</ele>
        <time>2016-10-30T10:46:09Z</time>
      </trkpt>
      <trkpt lat="42.52868" lon="2.00123">
        <ele>2041</ele>
        <time>2016-10-30T10:46:12Z</time>
      </trkpt>
      <trkpt lat="42.52866" lon="2.00119">
        <ele>2041</ele>
        <time>2016-10-30T10:46:15Z</time>
      </trkpt>
      <trkpt lat="42.52864" lon="2.00113">
        <ele>2041</ele>
        <time>2016-10-30T10:46:20Z</time>
      </trkpt>
      <trkpt lat="42.52861" lon="2.00106">
        <ele>2041</ele>
        <time>2016-10-30T10:46:25Z</time>
      </trkpt>
      <trkpt lat="42.52858" lon="2.001">
        <ele>2041</ele>
        <time>2016-10-30T10:46:30Z</time>
      </trkpt>
      <trkpt lat="42.52854" lon="2.00093">
        <ele>2041</ele>
        <time>2016-10-30T10:46:36Z</time>
      </trkpt>
      <trkpt lat="42.52852" lon="2.00083">
        <ele>2041</ele>
        <time>2016-10-30T10:46:42Z</time>
      </trkpt>
      <trkpt lat="42.52852" lon="2.00078">
        <ele>2041</ele>
        <time>2016-10-30T10:46:46Z</time>
      </trkpt>
      <trkpt lat="42.52851" lon="2.00074">
        <ele>2041</ele>
        <time>2016-10-30T10:46:48Z</time>
      </trkpt>
      <trkpt lat="42.5285" lon="2.00064">
        <ele>2041</ele>
        <time>2016-10-30T10:46:54Z</time>
      </trkpt>
      <trkpt lat="42.5285" lon="2.00055">
        <ele>2041</ele>
        <time>2016-10-30T10:47:00Z</time>
      </trkpt>
      <trkpt lat="42.52849" lon="2.00052">
        <ele>2041</ele>
        <time>2016-10-30T10:47:02Z</time>
      </trkpt>
      <trkpt lat="42.52848" lon="2.00047">
        <ele>2041</ele>
        <time>2016-10-30T10:47:05Z</time>
      </trkpt>
      <trkpt lat="42.52846" lon="2.00039">
        <ele>2041</ele>
        <time>2016-10-30T10:47:10Z</time>
      </trkpt>
      <trkpt lat="42.52844" lon="2.00033">
        <ele>2040.4000244141</ele>
        <time>2016-10-30T10:47:14Z</time>
      </trkpt>
      <trkpt lat="42.52844" lon="2.00032">
        <ele>2040</ele>
        <time>2016-10-30T10:47:15Z</time>
      </trkpt>
      <trkpt lat="42.52843" lon="2.00031">
        <ele>2039.5999755859</ele>
        <time>2016-10-30T10:47:16Z</time>
      </trkpt>
      <trkpt lat="42.52843" lon="2.0003">
        <ele>2039.1999511719</ele>
        <time>2016-10-30T10:47:17Z</time>
      </trkpt>
      <trkpt lat="42.52842" lon="2.00029">
        <ele>2038.8000488281</ele>
        <time>2016-10-30T10:47:18Z</time>
      </trkpt>
      <trkpt lat="42.52842" lon="2.00028">
        <ele>2038.8000488281</ele>
        <time>2016-10-30T10:47:21Z</time>
      </trkpt>
      <trkpt lat="42.52841" lon="2.00025">
        <ele>2038.8000488281</ele>
        <time>2016-10-30T10:47:24Z</time>
      </trkpt>
      <trkpt lat="42.5284" lon="2.00021">
        <ele>2038.8000488281</ele>
        <time>2016-10-30T10:47:26Z</time>
      </trkpt>
      <trkpt lat="42.52839" lon="2.00014">
        <ele>2038.8000488281</ele>
        <time>2016-10-30T10:47:31Z</time>
      </trkpt>
      <trkpt lat="42.52839" lon="2.00013">
        <ele>2038.8000488281</ele>
        <time>2016-10-30T10:47:37Z</time>
      </trkpt>
      <trkpt lat="42.52839" lon="2.00012">
        <ele>2038.8000488281</ele>
        <time>2016-10-30T10:47:46Z</time>
      </trkpt>
      <trkpt lat="42.52838" lon="2.00006">
        <ele>2038.8000488281</ele>
        <time>2016-10-30T10:47:51Z</time>
      </trkpt>
      <trkpt lat="42.52833" lon="1.99997">
        <ele>2038.8000488281</ele>
        <time>2016-10-30T10:47:57Z</time>
      </trkpt>
      <trkpt lat="42.52832" lon="1.99991">
        <ele>2038.8000488281</ele>
        <time>2016-10-30T10:48:02Z</time>
      </trkpt>
      <trkpt lat="42.52832" lon="1.99988">
        <ele>2038.8000488281</ele>
        <time>2016-10-30T10:48:04Z</time>
      </trkpt>
      <trkpt lat="42.52831" lon="1.99985">
        <ele>2038.8000488281</ele>
        <time>2016-10-30T10:48:06Z</time>
      </trkpt>
      <trkpt lat="42.52831" lon="1.99981">
        <ele>2038.4000244141</ele>
        <time>2016-10-30T10:48:09Z</time>
      </trkpt>
      <trkpt lat="42.52832" lon="1.99979">
        <ele>2038</ele>
        <time>2016-10-30T10:48:10Z</time>
      </trkpt>
      <trkpt lat="42.52832" lon="1.99977">
        <ele>2037.5999755859</ele>
        <time>2016-10-30T10:48:11Z</time>
      </trkpt>
      <trkpt lat="42.52832" lon="1.99975">
        <ele>2037.1999511719</ele>
        <time>2016-10-30T10:48:12Z</time>
      </trkpt>
      <trkpt lat="42.52832" lon="1.99973">
        <ele>2036.8000488281</ele>
        <time>2016-10-30T10:48:13Z</time>
      </trkpt>
      <trkpt lat="42.52831" lon="1.99969">
        <ele>2036.8000488281</ele>
        <time>2016-10-30T10:48:15Z</time>
      </trkpt>
      <trkpt lat="42.52832" lon="1.99962">
        <ele>2036.8000488281</ele>
        <time>2016-10-30T10:48:19Z</time>
      </trkpt>
      <trkpt lat="42.52832" lon="1.99961">
        <ele>2036.8000488281</ele>
        <time>2016-10-30T10:48:20Z</time>
      </trkpt>
      <trkpt lat="42.52833" lon="1.99954">
        <ele>2036.8000488281</ele>
        <time>2016-10-30T10:48:25Z</time>
      </trkpt>
      <trkpt lat="42.52834" lon="1.99945">
        <ele>2036.8000488281</ele>
        <time>2016-10-30T10:48:31Z</time>
      </trkpt>
      <trkpt lat="42.52834" lon="1.99937">
        <ele>2036.8000488281</ele>
        <time>2016-10-30T10:48:36Z</time>
      </trkpt>
      <trkpt lat="42.52835" lon="1.99935">
        <ele>2036.8000488281</ele>
        <time>2016-10-30T10:48:38Z</time>
      </trkpt>
      <trkpt lat="42.52836" lon="1.99932">
        <ele>2036.8000488281</ele>
        <time>2016-10-30T10:48:40Z</time>
      </trkpt>
      <trkpt lat="42.52836" lon="1.99926">
        <ele>2036.8000488281</ele>
        <time>2016-10-30T10:48:44Z</time>
      </trkpt>
      <trkpt lat="42.52838" lon="1.99916">
        <ele>2036.8000488281</ele>
        <time>2016-10-30T10:48:51Z</time>
      </trkpt>
      <trkpt lat="42.52839" lon="1.99906">
        <ele>2036.8000488281</ele>
        <time>2016-10-30T10:48:57Z</time>
      </trkpt>
      <trkpt lat="42.52839" lon="1.99903">
        <ele>2036.4000244141</ele>
        <time>2016-10-30T10:48:59Z</time>
      </trkpt>
      <trkpt lat="42.52839" lon="1.99901">
        <ele>2036</ele>
        <time>2016-10-30T10:49:00Z</time>
      </trkpt>
      <trkpt lat="42.52839" lon="1.999">
        <ele>2035.5999755859</ele>
        <time>2016-10-30T10:49:01Z</time>
      </trkpt>
      <trkpt lat="42.52839" lon="1.99899">
        <ele>2035.1999511719</ele>
        <time>2016-10-30T10:49:02Z</time>
      </trkpt>
      <trkpt lat="42.52839" lon="1.99897">
        <ele>2034.8000488281</ele>
        <time>2016-10-30T10:49:03Z</time>
      </trkpt>
      <trkpt lat="42.52839" lon="1.99895">
        <ele>2034.8000488281</ele>
        <time>2016-10-30T10:49:04Z</time>
      </trkpt>
      <trkpt lat="42.52839" lon="1.9989">
        <ele>2034.8000488281</ele>
        <time>2016-10-30T10:49:07Z</time>
      </trkpt>
      <trkpt lat="42.52839" lon="1.99881">
        <ele>2034.8000488281</ele>
        <time>2016-10-30T10:49:13Z</time>
      </trkpt>
      <trkpt lat="42.52838" lon="1.99876">
        <ele>2034.8000488281</ele>
        <time>2016-10-30T10:49:16Z</time>
      </trkpt>
      <trkpt lat="42.52838" lon="1.99873">
        <ele>2034.8000488281</ele>
        <time>2016-10-30T10:49:18Z</time>
      </trkpt>
      <trkpt lat="42.52839" lon="1.99864">
        <ele>2034.8000488281</ele>
        <time>2016-10-30T10:49:24Z</time>
      </trkpt>
      <trkpt lat="42.52837" lon="1.99856">
        <ele>2034.8000488281</ele>
        <time>2016-10-30T10:49:29Z</time>
      </trkpt>
      <trkpt lat="42.52837" lon="1.9985">
        <ele>2034.8000488281</ele>
        <time>2016-10-30T10:49:34Z</time>
      </trkpt>
      <trkpt lat="42.52836" lon="1.99845">
        <ele>2034.8000488281</ele>
        <time>2016-10-30T10:49:37Z</time>
      </trkpt>
      <trkpt lat="42.52835" lon="1.9984">
        <ele>2034.8000488281</ele>
        <time>2016-10-30T10:49:40Z</time>
      </trkpt>
      <trkpt lat="42.52834" lon="1.99831">
        <ele>2034.8000488281</ele>
        <time>2016-10-30T10:49:45Z</time>
      </trkpt>
      <trkpt lat="42.52833" lon="1.99823">
        <ele>2034.8000488281</ele>
        <time>2016-10-30T10:49:50Z</time>
      </trkpt>
      <trkpt lat="42.52834" lon="1.99821">
        <ele>2034.8000488281</ele>
        <time>2016-10-30T10:49:51Z</time>
      </trkpt>
      <trkpt lat="42.52834" lon="1.99816">
        <ele>2034.8000488281</ele>
        <time>2016-10-30T10:49:55Z</time>
      </trkpt>
      <trkpt lat="42.52834" lon="1.99808">
        <ele>2034.8000488281</ele>
        <time>2016-10-30T10:50:00Z</time>
      </trkpt>
      <trkpt lat="42.52834" lon="1.99807">
        <ele>2034.8000488281</ele>
        <time>2016-10-30T10:50:01Z</time>
      </trkpt>
      <trkpt lat="42.52834" lon="1.998">
        <ele>2034.8000488281</ele>
        <time>2016-10-30T10:50:05Z</time>
      </trkpt>
      <trkpt lat="42.52833" lon="1.99797">
        <ele>2034.8000488281</ele>
        <time>2016-10-30T10:50:07Z</time>
      </trkpt>
      <trkpt lat="42.52832" lon="1.99793">
        <ele>2034.8000488281</ele>
        <time>2016-10-30T10:50:10Z</time>
      </trkpt>
      <trkpt lat="42.52832" lon="1.99785">
        <ele>2034.8000488281</ele>
        <time>2016-10-30T10:50:16Z</time>
      </trkpt>
      <trkpt lat="42.52829" lon="1.99777">
        <ele>2034.4000244141</ele>
        <time>2016-10-30T10:50:21Z</time>
      </trkpt>
      <trkpt lat="42.52829" lon="1.99775">
        <ele>2034</ele>
        <time>2016-10-30T10:50:22Z</time>
      </trkpt>
      <trkpt lat="42.52829" lon="1.99774">
        <ele>2033.5999755859</ele>
        <time>2016-10-30T10:50:23Z</time>
      </trkpt>
      <trkpt lat="42.52829" lon="1.99773">
        <ele>2033.1999511719</ele>
        <time>2016-10-30T10:50:24Z</time>
      </trkpt>
      <trkpt lat="42.52829" lon="1.99771">
        <ele>2032.8000488281</ele>
        <time>2016-10-30T10:50:25Z</time>
      </trkpt>
      <trkpt lat="42.52829" lon="1.99766">
        <ele>2032.8000488281</ele>
        <time>2016-10-30T10:50:28Z</time>
      </trkpt>
      <trkpt lat="42.52827" lon="1.99762">
        <ele>2032.8000488281</ele>
        <time>2016-10-30T10:50:32Z</time>
      </trkpt>
      <trkpt lat="42.52825" lon="1.9976">
        <ele>2032.8000488281</ele>
        <time>2016-10-30T10:50:34Z</time>
      </trkpt>
      <trkpt lat="42.52819" lon="1.99752">
        <ele>2032.8000488281</ele>
        <time>2016-10-30T10:50:40Z</time>
      </trkpt>
      <trkpt lat="42.52817" lon="1.99747">
        <ele>2032.8000488281</ele>
        <time>2016-10-30T10:50:46Z</time>
      </trkpt>
      <trkpt lat="42.52817" lon="1.99746">
        <ele>2032.8000488281</ele>
        <time>2016-10-30T10:50:49Z</time>
      </trkpt>
      <trkpt lat="42.52815" lon="1.99742">
        <ele>2032.8000488281</ele>
        <time>2016-10-30T10:50:52Z</time>
      </trkpt>
      <trkpt lat="42.52814" lon="1.9974">
        <ele>2032.8000488281</ele>
        <time>2016-10-30T10:50:53Z</time>
      </trkpt>
      <trkpt lat="42.5281" lon="1.99733">
        <ele>2032.8000488281</ele>
        <time>2016-10-30T10:50:58Z</time>
      </trkpt>
      <trkpt lat="42.52809" lon="1.99731">
        <ele>2032.4000244141</ele>
        <time>2016-10-30T10:50:59Z</time>
      </trkpt>
      <trkpt lat="42.52809" lon="1.9973">
        <ele>2032</ele>
        <time>2016-10-30T10:51:00Z</time>
      </trkpt>
      <trkpt lat="42.52808" lon="1.9973">
        <ele>2031.1999511719</ele>
        <time>2016-10-30T10:51:01Z</time>
      </trkpt>
      <trkpt lat="42.52808" lon="1.99729">
        <ele>2030.8000488281</ele>
        <time>2016-10-30T10:51:02Z</time>
      </trkpt>
      <trkpt lat="42.52807" lon="1.99727">
        <ele>2030.8000488281</ele>
        <time>2016-10-30T10:51:03Z</time>
      </trkpt>
      <trkpt lat="42.52801" lon="1.99716">
        <ele>2030.8000488281</ele>
        <time>2016-10-30T10:51:11Z</time>
      </trkpt>
      <trkpt lat="42.52798" lon="1.99711">
        <ele>2030.8000488281</ele>
        <time>2016-10-30T10:51:16Z</time>
      </trkpt>
      <trkpt lat="42.52796" lon="1.99707">
        <ele>2030.8000488281</ele>
        <time>2016-10-30T10:51:20Z</time>
      </trkpt>
      <trkpt lat="42.52795" lon="1.99705">
        <ele>2030.8000488281</ele>
        <time>2016-10-30T10:51:22Z</time>
      </trkpt>
      <trkpt lat="42.52794" lon="1.99702">
        <ele>2030.8000488281</ele>
        <time>2016-10-30T10:51:24Z</time>
      </trkpt>
      <trkpt lat="42.52793" lon="1.99696">
        <ele>2030.8000488281</ele>
        <time>2016-10-30T10:51:28Z</time>
      </trkpt>
      <trkpt lat="42.52792" lon="1.99694">
        <ele>2030.8000488281</ele>
        <time>2016-10-30T10:51:29Z</time>
      </trkpt>
      <trkpt lat="42.52791" lon="1.9969">
        <ele>2030.8000488281</ele>
        <time>2016-10-30T10:51:32Z</time>
      </trkpt>
      <trkpt lat="42.52789" lon="1.99686">
        <ele>2030.8000488281</ele>
        <time>2016-10-30T10:51:35Z</time>
      </trkpt>
      <trkpt lat="42.52787" lon="1.99677">
        <ele>2030.8000488281</ele>
        <time>2016-10-30T10:51:41Z</time>
      </trkpt>
      <trkpt lat="42.52783" lon="1.99669">
        <ele>2030.8000488281</ele>
        <time>2016-10-30T10:51:46Z</time>
      </trkpt>
      <trkpt lat="42.52779" lon="1.9966">
        <ele>2030.8000488281</ele>
        <time>2016-10-30T10:51:53Z</time>
      </trkpt>
      <trkpt lat="42.52777" lon="1.99655">
        <ele>2030.1999511719</ele>
        <time>2016-10-30T10:51:57Z</time>
      </trkpt>
      <trkpt lat="42.52776" lon="1.99653">
        <ele>2029.8000488281</ele>
        <time>2016-10-30T10:51:58Z</time>
      </trkpt>
      <trkpt lat="42.52775" lon="1.99652">
        <ele>2029.4000244141</ele>
        <time>2016-10-30T10:51:59Z</time>
      </trkpt>
      <trkpt lat="42.52775" lon="1.9965">
        <ele>2029</ele>
        <time>2016-10-30T10:52:00Z</time>
      </trkpt>
      <trkpt lat="42.52774" lon="1.99649">
        <ele>2028.5999755859</ele>
        <time>2016-10-30T10:52:01Z</time>
      </trkpt>
      <trkpt lat="42.52771" lon="1.99644">
        <ele>2028.5999755859</ele>
        <time>2016-10-30T10:52:05Z</time>
      </trkpt>
      <trkpt lat="42.52766" lon="1.99636">
        <ele>2028.5999755859</ele>
        <time>2016-10-30T10:52:12Z</time>
      </trkpt>
      <trkpt lat="42.5276" lon="1.99628">
        <ele>2028.5999755859</ele>
        <time>2016-10-30T10:52:19Z</time>
      </trkpt>
      <trkpt lat="42.52757" lon="1.9962">
        <ele>2028.5999755859</ele>
        <time>2016-10-30T10:52:26Z</time>
      </trkpt>
      <trkpt lat="42.52753" lon="1.9961">
        <ele>2028.5999755859</ele>
        <time>2016-10-30T10:52:33Z</time>
      </trkpt>
      <trkpt lat="42.5275" lon="1.99602">
        <ele>2028.5999755859</ele>
        <time>2016-10-30T10:52:38Z</time>
      </trkpt>
      <trkpt lat="42.5275" lon="1.996">
        <ele>2028.5999755859</ele>
        <time>2016-10-30T10:52:39Z</time>
      </trkpt>
      <trkpt lat="42.52749" lon="1.99595">
        <ele>2028.5999755859</ele>
        <time>2016-10-30T10:52:43Z</time>
      </trkpt>
      <trkpt lat="42.52747" lon="1.99592">
        <ele>2028.5999755859</ele>
        <time>2016-10-30T10:52:45Z</time>
      </trkpt>
      <trkpt lat="42.52745" lon="1.99588">
        <ele>2028.5999755859</ele>
        <time>2016-10-30T10:52:48Z</time>
      </trkpt>
      <trkpt lat="42.52742" lon="1.99581">
        <ele>2028.5999755859</ele>
        <time>2016-10-30T10:52:54Z</time>
      </trkpt>
      <trkpt lat="42.5274" lon="1.99573">
        <ele>2028.5999755859</ele>
        <time>2016-10-30T10:52:59Z</time>
      </trkpt>
      <trkpt lat="42.5274" lon="1.99573">
        <ele>2028.5999755859</ele>
        <time>2016-10-30T10:53:10Z</time>
      </trkpt>
      <trkpt lat="42.5274" lon="1.99572">
        <ele>2028.5999755859</ele>
        <time>2016-10-30T10:53:14Z</time>
      </trkpt>
      <trkpt lat="42.52739" lon="1.99569">
        <ele>2028.5999755859</ele>
        <time>2016-10-30T10:53:16Z</time>
      </trkpt>
      <trkpt lat="42.52738" lon="1.99562">
        <ele>2028.5999755859</ele>
        <time>2016-10-30T10:53:21Z</time>
      </trkpt>
      <trkpt lat="42.52734" lon="1.99552">
        <ele>2028.5999755859</ele>
        <time>2016-10-30T10:53:27Z</time>
      </trkpt>
      <trkpt lat="42.5273" lon="1.99547">
        <ele>2028.5999755859</ele>
        <time>2016-10-30T10:53:32Z</time>
      </trkpt>
      <trkpt lat="42.5273" lon="1.99546">
        <ele>2028.5999755859</ele>
        <time>2016-10-30T10:53:42Z</time>
      </trkpt>
      <trkpt lat="42.52729" lon="1.99542">
        <ele>2028.5999755859</ele>
        <time>2016-10-30T10:53:45Z</time>
      </trkpt>
      <trkpt lat="42.52728" lon="1.99538">
        <ele>2028.5999755859</ele>
        <time>2016-10-30T10:53:47Z</time>
      </trkpt>
      <trkpt lat="42.52727" lon="1.99531">
        <ele>2028.5999755859</ele>
        <time>2016-10-30T10:53:52Z</time>
      </trkpt>
      <trkpt lat="42.52725" lon="1.99523">
        <ele>2028.5999755859</ele>
        <time>2016-10-30T10:53:57Z</time>
      </trkpt>
      <trkpt lat="42.52724" lon="1.99515">
        <ele>2028.5999755859</ele>
        <time>2016-10-30T10:54:02Z</time>
      </trkpt>
      <trkpt lat="42.52724" lon="1.99513">
        <ele>2028.5999755859</ele>
        <time>2016-10-30T10:54:03Z</time>
      </trkpt>
      <trkpt lat="42.52723" lon="1.99506">
        <ele>2028.5999755859</ele>
        <time>2016-10-30T10:54:07Z</time>
      </trkpt>
      <trkpt lat="42.52723" lon="1.99501">
        <ele>2028.5999755859</ele>
        <time>2016-10-30T10:54:10Z</time>
      </trkpt>
      <trkpt lat="42.52722" lon="1.99496">
        <ele>2028.5999755859</ele>
        <time>2016-10-30T10:54:13Z</time>
      </trkpt>
      <trkpt lat="42.52719" lon="1.99486">
        <ele>2028.5999755859</ele>
        <time>2016-10-30T10:54:20Z</time>
      </trkpt>
      <trkpt lat="42.52717" lon="1.99477">
        <ele>2028.5999755859</ele>
        <time>2016-10-30T10:54:25Z</time>
      </trkpt>
      <trkpt lat="42.52716" lon="1.99475">
        <ele>2028.5999755859</ele>
        <time>2016-10-30T10:54:26Z</time>
      </trkpt>
      <trkpt lat="42.52714" lon="1.99468">
        <ele>2028.5999755859</ele>
        <time>2016-10-30T10:54:31Z</time>
      </trkpt>
      <trkpt lat="42.52711" lon="1.99461">
        <ele>2028.5999755859</ele>
        <time>2016-10-30T10:54:36Z</time>
      </trkpt>
      <trkpt lat="42.52708" lon="1.99452">
        <ele>2028.5999755859</ele>
        <time>2016-10-30T10:54:42Z</time>
      </trkpt>
      <trkpt lat="42.52704" lon="1.99442">
        <ele>2028.5999755859</ele>
        <time>2016-10-30T10:54:48Z</time>
      </trkpt>
      <trkpt lat="42.52702" lon="1.99436">
        <ele>2028.5999755859</ele>
        <time>2016-10-30T10:54:53Z</time>
      </trkpt>
      <trkpt lat="42.527" lon="1.99429">
        <ele>2028.5999755859</ele>
        <time>2016-10-30T10:54:57Z</time>
      </trkpt>
      <trkpt lat="42.52697" lon="1.9942">
        <ele>2028.5999755859</ele>
        <time>2016-10-30T10:55:03Z</time>
      </trkpt>
      <trkpt lat="42.52694" lon="1.9941">
        <ele>2028.5999755859</ele>
        <time>2016-10-30T10:55:09Z</time>
      </trkpt>
      <trkpt lat="42.5269" lon="1.99403">
        <ele>2028.5999755859</ele>
        <time>2016-10-30T10:55:14Z</time>
      </trkpt>
      <trkpt lat="42.52689" lon="1.99395">
        <ele>2028.5999755859</ele>
        <time>2016-10-30T10:55:19Z</time>
      </trkpt>
      <trkpt lat="42.52687" lon="1.99388">
        <ele>2028.5999755859</ele>
        <time>2016-10-30T10:55:24Z</time>
      </trkpt>
      <trkpt lat="42.52687" lon="1.99386">
        <ele>2028.5999755859</ele>
        <time>2016-10-30T10:55:25Z</time>
      </trkpt>
      <trkpt lat="42.52687" lon="1.9938">
        <ele>2028.5999755859</ele>
        <time>2016-10-30T10:55:29Z</time>
      </trkpt>
      <trkpt lat="42.52687" lon="1.99375">
        <ele>2028.5999755859</ele>
        <time>2016-10-30T10:55:34Z</time>
      </trkpt>
      <trkpt lat="42.52686" lon="1.9937">
        <ele>2028.5999755859</ele>
        <time>2016-10-30T10:55:40Z</time>
      </trkpt>
      <trkpt lat="42.52687" lon="1.99371">
        <ele>2028.5999755859</ele>
        <time>2016-10-30T10:55:46Z</time>
      </trkpt>
      <trkpt lat="42.52687" lon="1.99372">
        <ele>2028.1999511719</ele>
        <time>2016-10-30T10:55:51Z</time>
      </trkpt>
      <trkpt lat="42.52687" lon="1.99372">
        <ele>2027.5999755859</ele>
        <time>2016-10-30T10:55:52Z</time>
      </trkpt>
      <trkpt lat="42.52687" lon="1.99372">
        <ele>2027.1999511719</ele>
        <time>2016-10-30T10:55:53Z</time>
      </trkpt>
      <trkpt lat="42.52686" lon="1.99372">
        <ele>2027.8000488281</ele>
        <time>2016-10-30T10:55:54Z</time>
      </trkpt>
      <trkpt lat="42.52686" lon="1.99372">
        <ele>2028.1999511719</ele>
        <time>2016-10-30T10:55:55Z</time>
      </trkpt>
      <trkpt lat="42.52686" lon="1.99372">
        <ele>2028.8000488281</ele>
        <time>2016-10-30T10:55:56Z</time>
      </trkpt>
      <trkpt lat="42.52686" lon="1.99372">
        <ele>2029.1999511719</ele>
        <time>2016-10-30T10:55:57Z</time>
      </trkpt>
      <trkpt lat="42.52686" lon="1.99372">
        <ele>2029.8000488281</ele>
        <time>2016-10-30T10:55:58Z</time>
      </trkpt>
      <trkpt lat="42.52683" lon="1.99369">
        <ele>2029.8000488281</ele>
        <time>2016-10-30T10:56:02Z</time>
      </trkpt>
      <trkpt lat="42.52683" lon="1.99365">
        <ele>2029.8000488281</ele>
        <time>2016-10-30T10:56:08Z</time>
      </trkpt>
      <trkpt lat="42.52681" lon="1.99367">
        <ele>2029.8000488281</ele>
        <time>2016-10-30T10:56:13Z</time>
      </trkpt>
      <trkpt lat="42.5268" lon="1.99368">
        <ele>2029.8000488281</ele>
        <time>2016-10-30T10:56:14Z</time>
      </trkpt>
      <trkpt lat="42.52679" lon="1.99371">
        <ele>2029.8000488281</ele>
        <time>2016-10-30T10:56:17Z</time>
      </trkpt>
      <trkpt lat="42.52675" lon="1.99375">
        <ele>2029.8000488281</ele>
        <time>2016-10-30T10:56:24Z</time>
      </trkpt>
      <trkpt lat="42.52675" lon="1.99375">
        <ele>2029.8000488281</ele>
        <time>2016-10-30T10:56:30Z</time>
      </trkpt>
      <trkpt lat="42.52675" lon="1.99375">
        <ele>2029.1999511719</ele>
        <time>2016-10-30T10:56:33Z</time>
      </trkpt>
      <trkpt lat="42.52675" lon="1.99375">
        <ele>2028.4000244141</ele>
        <time>2016-10-30T10:56:34Z</time>
      </trkpt>
      <trkpt lat="42.52675" lon="1.99375">
        <ele>2027.8000488281</ele>
        <time>2016-10-30T10:56:35Z</time>
      </trkpt>
      <trkpt lat="42.52675" lon="1.99375">
        <ele>2028.1999511719</ele>
        <time>2016-10-30T10:56:36Z</time>
      </trkpt>
      <trkpt lat="42.52675" lon="1.99375">
        <ele>2028.5999755859</ele>
        <time>2016-10-30T10:56:37Z</time>
      </trkpt>
      <trkpt lat="42.52675" lon="1.99375">
        <ele>2029</ele>
        <time>2016-10-30T10:56:38Z</time>
      </trkpt>
      <trkpt lat="42.52675" lon="1.99375">
        <ele>2029.1999511719</ele>
        <time>2016-10-30T10:56:39Z</time>
      </trkpt>
      <trkpt lat="42.52675" lon="1.99375">
        <ele>2029.5999755859</ele>
        <time>2016-10-30T10:56:40Z</time>
      </trkpt>
      <trkpt lat="42.52675" lon="1.99375">
        <ele>2029.5999755859</ele>
        <time>2016-10-30T10:56:50Z</time>
      </trkpt>
      <trkpt lat="42.52673" lon="1.99376">
        <ele>2029.5999755859</ele>
        <time>2016-10-30T10:56:56Z</time>
      </trkpt>
      <trkpt lat="42.52672" lon="1.99376">
        <ele>2029.5999755859</ele>
        <time>2016-10-30T10:56:58Z</time>
      </trkpt>
      <trkpt lat="42.52671" lon="1.99376">
        <ele>2029.5999755859</ele>
        <time>2016-10-30T10:57:03Z</time>
      </trkpt>
      <trkpt lat="42.52671" lon="1.99376">
        <ele>2029.5999755859</ele>
        <time>2016-10-30T10:57:16Z</time>
      </trkpt>
      <trkpt lat="42.52672" lon="1.99376">
        <ele>2029.5999755859</ele>
        <time>2016-10-30T10:57:23Z</time>
      </trkpt>
      <trkpt lat="42.52672" lon="1.99376">
        <ele>2029.5999755859</ele>
        <time>2016-10-30T10:57:30Z</time>
      </trkpt>
      <trkpt lat="42.52672" lon="1.99377">
        <ele>2029.5999755859</ele>
        <time>2016-10-30T10:57:36Z</time>
      </trkpt>
      <trkpt lat="42.52671" lon="1.99375">
        <ele>2029.5999755859</ele>
        <time>2016-10-30T10:57:41Z</time>
      </trkpt>
      <trkpt lat="42.5267" lon="1.99375">
        <ele>2029.5999755859</ele>
        <time>2016-10-30T10:57:42Z</time>
      </trkpt>
      <trkpt lat="42.5267" lon="1.99374">
        <ele>2029.5999755859</ele>
        <time>2016-10-30T10:57:45Z</time>
      </trkpt>
      <trkpt lat="42.5267" lon="1.99375">
        <ele>2029.1999511719</ele>
        <time>2016-10-30T10:57:52Z</time>
      </trkpt>
      <trkpt lat="42.5267" lon="1.99375">
        <ele>2028.8000488281</ele>
        <time>2016-10-30T10:57:53Z</time>
      </trkpt>
      <trkpt lat="42.5267" lon="1.99375">
        <ele>2028.4000244141</ele>
        <time>2016-10-30T10:57:54Z</time>
      </trkpt>
      <trkpt lat="42.5267" lon="1.99375">
        <ele>2028</ele>
        <time>2016-10-30T10:57:55Z</time>
      </trkpt>
      <trkpt lat="42.5267" lon="1.99375">
        <ele>2027.4000244141</ele>
        <time>2016-10-30T10:57:56Z</time>
      </trkpt>
      <trkpt lat="42.5267" lon="1.99375">
        <ele>2027.4000244141</ele>
        <time>2016-10-30T10:58:02Z</time>
      </trkpt>
      <trkpt lat="42.52669" lon="1.99373">
        <ele>2027.4000244141</ele>
        <time>2016-10-30T10:58:09Z</time>
      </trkpt>
      <trkpt lat="42.52669" lon="1.99373">
        <ele>2027.4000244141</ele>
        <time>2016-10-30T10:58:10Z</time>
      </trkpt>
      <trkpt lat="42.52665" lon="1.9937">
        <ele>2027.4000244141</ele>
        <time>2016-10-30T10:58:15Z</time>
      </trkpt>
      <trkpt lat="42.52664" lon="1.9937">
        <ele>2027.8000488281</ele>
        <time>2016-10-30T10:58:17Z</time>
      </trkpt>
      <trkpt lat="42.52663" lon="1.99368">
        <ele>2028.1999511719</ele>
        <time>2016-10-30T10:58:18Z</time>
      </trkpt>
      <trkpt lat="42.52663" lon="1.99368">
        <ele>2028.5999755859</ele>
        <time>2016-10-30T10:58:19Z</time>
      </trkpt>
      <trkpt lat="42.52663" lon="1.99367">
        <ele>2029</ele>
        <time>2016-10-30T10:58:20Z</time>
      </trkpt>
      <trkpt lat="42.52663" lon="1.99366">
        <ele>2029.4000244141</ele>
        <time>2016-10-30T10:58:21Z</time>
      </trkpt>
      <trkpt lat="42.52661" lon="1.99365">
        <ele>2029.4000244141</ele>
        <time>2016-10-30T10:58:26Z</time>
      </trkpt>
      <trkpt lat="42.52661" lon="1.99365">
        <ele>2029.4000244141</ele>
        <time>2016-10-30T10:58:37Z</time>
      </trkpt>
      <trkpt lat="42.52661" lon="1.99365">
        <ele>2029.4000244141</ele>
        <time>2016-10-30T10:58:48Z</time>
      </trkpt>
      <trkpt lat="42.52661" lon="1.99365">
        <ele>2029.4000244141</ele>
        <time>2016-10-30T10:59:00Z</time>
      </trkpt>
      <trkpt lat="42.52662" lon="1.99365">
        <ele>2029.4000244141</ele>
        <time>2016-10-30T10:59:05Z</time>
      </trkpt>
      <trkpt lat="42.52663" lon="1.99365">
        <ele>2029.4000244141</ele>
        <time>2016-10-30T10:59:07Z</time>
      </trkpt>
      <trkpt lat="42.52663" lon="1.99365">
        <ele>2029.4000244141</ele>
        <time>2016-10-30T10:59:18Z</time>
      </trkpt>
      <trkpt lat="42.52663" lon="1.99365">
        <ele>2030</ele>
        <time>2016-10-30T10:59:25Z</time>
      </trkpt>
      <trkpt lat="42.52663" lon="1.99365">
        <ele>2030.5999755859</ele>
        <time>2016-10-30T10:59:26Z</time>
      </trkpt>
      <trkpt lat="42.52663" lon="1.99365">
        <ele>2031</ele>
        <time>2016-10-30T10:59:27Z</time>
      </trkpt>
      <trkpt lat="42.52663" lon="1.99365">
        <ele>2031.5999755859</ele>
        <time>2016-10-30T10:59:28Z</time>
      </trkpt>
      <trkpt lat="42.52663" lon="1.99365">
        <ele>2032.1999511719</ele>
        <time>2016-10-30T10:59:29Z</time>
      </trkpt>
      <trkpt lat="42.52663" lon="1.99365">
        <ele>2032.1999511719</ele>
        <time>2016-10-30T10:59:30Z</time>
      </trkpt>
      <trkpt lat="42.52663" lon="1.99365">
        <ele>2031.8000488281</ele>
        <time>2016-10-30T10:59:37Z</time>
      </trkpt>
      <trkpt lat="42.52663" lon="1.99365">
        <ele>2031.4000244141</ele>
        <time>2016-10-30T10:59:38Z</time>
      </trkpt>
      <trkpt lat="42.52663" lon="1.99365">
        <ele>2030.8000488281</ele>
        <time>2016-10-30T10:59:39Z</time>
      </trkpt>
      <trkpt lat="42.52663" lon="1.99365">
        <ele>2030.4000244141</ele>
        <time>2016-10-30T10:59:40Z</time>
      </trkpt>
      <trkpt lat="42.52663" lon="1.99365">
        <ele>2030</ele>
        <time>2016-10-30T10:59:41Z</time>
      </trkpt>
      <trkpt lat="42.52663" lon="1.99365">
        <ele>2030</ele>
        <time>2016-10-30T10:59:53Z</time>
      </trkpt>
      <trkpt lat="42.52663" lon="1.99365">
        <ele>2030</ele>
        <time>2016-10-30T11:00:01Z</time>
      </trkpt>
      <trkpt lat="42.52663" lon="1.99365">
        <ele>2030</ele>
        <time>2016-10-30T11:00:09Z</time>
      </trkpt>
      <trkpt lat="42.52663" lon="1.99365">
        <ele>2030</ele>
        <time>2016-10-30T11:00:25Z</time>
      </trkpt>
      <trkpt lat="42.52663" lon="1.99364">
        <ele>2030</ele>
        <time>2016-10-30T11:00:39Z</time>
      </trkpt>
      <trkpt lat="42.52664" lon="1.99365">
        <ele>2030</ele>
        <time>2016-10-30T11:00:47Z</time>
      </trkpt>
      <trkpt lat="42.52664" lon="1.99365">
        <ele>2030</ele>
        <time>2016-10-30T11:00:53Z</time>
      </trkpt>
      <trkpt lat="42.52665" lon="1.99367">
        <ele>2030</ele>
        <time>2016-10-30T11:00:59Z</time>
      </trkpt>
      <trkpt lat="42.52666" lon="1.99371">
        <ele>2030</ele>
        <time>2016-10-30T11:01:04Z</time>
      </trkpt>
      <trkpt lat="42.52667" lon="1.99371">
        <ele>2030</ele>
        <time>2016-10-30T11:01:12Z</time>
      </trkpt>
      <trkpt lat="42.52667" lon="1.99371">
        <ele>2030</ele>
        <time>2016-10-30T11:01:21Z</time>
      </trkpt>
      <trkpt lat="42.52667" lon="1.99371">
        <ele>2029.5999755859</ele>
        <time>2016-10-30T11:01:28Z</time>
      </trkpt>
      <trkpt lat="42.52667" lon="1.99371">
        <ele>2029.1999511719</ele>
        <time>2016-10-30T11:01:29Z</time>
      </trkpt>
      <trkpt lat="42.52667" lon="1.99371">
        <ele>2028.8000488281</ele>
        <time>2016-10-30T11:01:30Z</time>
      </trkpt>
      <trkpt lat="42.52667" lon="1.99371">
        <ele>2028.4000244141</ele>
        <time>2016-10-30T11:01:31Z</time>
      </trkpt>
      <trkpt lat="42.52667" lon="1.99371">
        <ele>2028</ele>
        <time>2016-10-30T11:01:32Z</time>
      </trkpt>
      <trkpt lat="42.52667" lon="1.99371">
        <ele>2028</ele>
        <time>2016-10-30T11:01:33Z</time>
      </trkpt>
      <trkpt lat="42.52667" lon="1.99371">
        <ele>2028</ele>
        <time>2016-10-30T11:01:43Z</time>
      </trkpt>
      <trkpt lat="42.52666" lon="1.99371">
        <ele>2028</ele>
        <time>2016-10-30T11:01:50Z</time>
      </trkpt>
      <trkpt lat="42.52669" lon="1.99371">
        <ele>2028</ele>
        <time>2016-10-30T11:01:56Z</time>
      </trkpt>
      <trkpt lat="42.52669" lon="1.99371">
        <ele>2028</ele>
        <time>2016-10-30T11:02:02Z</time>
      </trkpt>
      <trkpt lat="42.52669" lon="1.99371">
        <ele>2028</ele>
        <time>2016-10-30T11:02:12Z</time>
      </trkpt>
      <trkpt lat="42.52669" lon="1.99371">
        <ele>2028</ele>
        <time>2016-10-30T11:02:21Z</time>
      </trkpt>
      <trkpt lat="42.52672" lon="1.9937">
        <ele>2028</ele>
        <time>2016-10-30T11:02:29Z</time>
      </trkpt>
      <trkpt lat="42.52673" lon="1.99369">
        <ele>2028</ele>
        <time>2016-10-30T11:02:30Z</time>
      </trkpt>
      <trkpt lat="42.52676" lon="1.9937">
        <ele>2028</ele>
        <time>2016-10-30T11:02:34Z</time>
      </trkpt>
      <trkpt lat="42.52676" lon="1.99371">
        <ele>2028</ele>
        <time>2016-10-30T11:02:40Z</time>
      </trkpt>
      <trkpt lat="42.52676" lon="1.99371">
        <ele>2028</ele>
        <time>2016-10-30T11:02:47Z</time>
      </trkpt>
      <trkpt lat="42.52676" lon="1.99371">
        <ele>2028</ele>
        <time>2016-10-30T11:02:55Z</time>
      </trkpt>
      <trkpt lat="42.52676" lon="1.99371">
        <ele>2028</ele>
        <time>2016-10-30T11:03:04Z</time>
      </trkpt>
      <trkpt lat="42.52676" lon="1.99371">
        <ele>2028</ele>
        <time>2016-10-30T11:03:10Z</time>
      </trkpt>
      <trkpt lat="42.52676" lon="1.99371">
        <ele>2028</ele>
        <time>2016-10-30T11:03:20Z</time>
      </trkpt>
      <trkpt lat="42.52676" lon="1.99373">
        <ele>2028</ele>
        <time>2016-10-30T11:03:29Z</time>
      </trkpt>
      <trkpt lat="42.52674" lon="1.99377">
        <ele>2028</ele>
        <time>2016-10-30T11:03:31Z</time>
      </trkpt>
      <trkpt lat="42.52673" lon="1.99381">
        <ele>2028</ele>
        <time>2016-10-30T11:03:34Z</time>
      </trkpt>
      <trkpt lat="42.52669" lon="1.99385">
        <ele>2028</ele>
        <time>2016-10-30T11:03:37Z</time>
      </trkpt>
      <trkpt lat="42.52669" lon="1.99386">
        <ele>2028</ele>
        <time>2016-10-30T11:03:38Z</time>
      </trkpt>
      <trkpt lat="42.52668" lon="1.99389">
        <ele>2028</ele>
        <time>2016-10-30T11:03:41Z</time>
      </trkpt>
      <trkpt lat="42.52666" lon="1.99393">
        <ele>2028</ele>
        <time>2016-10-30T11:03:44Z</time>
      </trkpt>
      <trkpt lat="42.52665" lon="1.99393">
        <ele>2028</ele>
        <time>2016-10-30T11:03:45Z</time>
      </trkpt>
      <trkpt lat="42.52661" lon="1.99395">
        <ele>2028</ele>
        <time>2016-10-30T11:03:52Z</time>
      </trkpt>
      <trkpt lat="42.5266" lon="1.99395">
        <ele>2028</ele>
        <time>2016-10-30T11:03:59Z</time>
      </trkpt>
      <trkpt lat="42.5266" lon="1.99395">
        <ele>2028</ele>
        <time>2016-10-30T11:04:13Z</time>
      </trkpt>
      <trkpt lat="42.52659" lon="1.99396">
        <ele>2028</ele>
        <time>2016-10-30T11:04:23Z</time>
      </trkpt>
      <trkpt lat="42.52657" lon="1.99397">
        <ele>2028</ele>
        <time>2016-10-30T11:04:26Z</time>
      </trkpt>
      <trkpt lat="42.52653" lon="1.99397">
        <ele>2028</ele>
        <time>2016-10-30T11:04:28Z</time>
      </trkpt>
      <trkpt lat="42.52651" lon="1.99398">
        <ele>2027.5999755859</ele>
        <time>2016-10-30T11:04:30Z</time>
      </trkpt>
      <trkpt lat="42.52651" lon="1.99398">
        <ele>2027.1999511719</ele>
        <time>2016-10-30T11:04:31Z</time>
      </trkpt>
      <trkpt lat="42.52649" lon="1.99397">
        <ele>2026.8000488281</ele>
        <time>2016-10-30T11:04:32Z</time>
      </trkpt>
      <trkpt lat="42.52648" lon="1.99397">
        <ele>2026.4000244141</ele>
        <time>2016-10-30T11:04:33Z</time>
      </trkpt>
      <trkpt lat="42.52647" lon="1.99396">
        <ele>2026</ele>
        <time>2016-10-30T11:04:34Z</time>
      </trkpt>
      <trkpt lat="42.52641" lon="1.99397">
        <ele>2026</ele>
        <time>2016-10-30T11:04:39Z</time>
      </trkpt>
      <trkpt lat="42.52639" lon="1.99397">
        <ele>2026</ele>
        <time>2016-10-30T11:04:40Z</time>
      </trkpt>
      <trkpt lat="42.52634" lon="1.99398">
        <ele>2026</ele>
        <time>2016-10-30T11:04:45Z</time>
      </trkpt>
      <trkpt lat="42.52633" lon="1.99398">
        <ele>2025.5999755859</ele>
        <time>2016-10-30T11:04:46Z</time>
      </trkpt>
      <trkpt lat="42.52632" lon="1.99397">
        <ele>2025.1999511719</ele>
        <time>2016-10-30T11:04:47Z</time>
      </trkpt>
      <trkpt lat="42.52631" lon="1.99397">
        <ele>2024.8000488281</ele>
        <time>2016-10-30T11:04:48Z</time>
      </trkpt>
      <trkpt lat="42.5263" lon="1.99397">
        <ele>2024.4000244141</ele>
        <time>2016-10-30T11:04:49Z</time>
      </trkpt>
      <trkpt lat="42.5263" lon="1.99396">
        <ele>2024</ele>
        <time>2016-10-30T11:04:50Z</time>
      </trkpt>
      <trkpt lat="42.52629" lon="1.99396">
        <ele>2024</ele>
        <time>2016-10-30T11:04:51Z</time>
      </trkpt>
      <trkpt lat="42.52624" lon="1.994">
        <ele>2024</ele>
        <time>2016-10-30T11:04:57Z</time>
      </trkpt>
      <trkpt lat="42.5262" lon="1.99403">
        <ele>2024</ele>
        <time>2016-10-30T11:05:04Z</time>
      </trkpt>
      <trkpt lat="42.52616" lon="1.99404">
        <ele>2023.5999755859</ele>
        <time>2016-10-30T11:05:11Z</time>
      </trkpt>
      <trkpt lat="42.52615" lon="1.99405">
        <ele>2023.1999511719</ele>
        <time>2016-10-30T11:05:12Z</time>
      </trkpt>
      <trkpt lat="42.52614" lon="1.99405">
        <ele>2022.5999755859</ele>
        <time>2016-10-30T11:05:13Z</time>
      </trkpt>
      <trkpt lat="42.52613" lon="1.99406">
        <ele>2022.1999511719</ele>
        <time>2016-10-30T11:05:14Z</time>
      </trkpt>
      <trkpt lat="42.52611" lon="1.99406">
        <ele>2021.8000488281</ele>
        <time>2016-10-30T11:05:15Z</time>
      </trkpt>
      <trkpt lat="42.52609" lon="1.99407">
        <ele>2021.8000488281</ele>
        <time>2016-10-30T11:05:17Z</time>
      </trkpt>
      <trkpt lat="42.52605" lon="1.99409">
        <ele>2021.8000488281</ele>
        <time>2016-10-30T11:05:24Z</time>
      </trkpt>
      <trkpt lat="42.526" lon="1.99411">
        <ele>2021.4000244141</ele>
        <time>2016-10-30T11:05:33Z</time>
      </trkpt>
      <trkpt lat="42.52599" lon="1.99412">
        <ele>2021</ele>
        <time>2016-10-30T11:05:34Z</time>
      </trkpt>
      <trkpt lat="42.52598" lon="1.99412">
        <ele>2020.5999755859</ele>
        <time>2016-10-30T11:05:35Z</time>
      </trkpt>
      <trkpt lat="42.52596" lon="1.99413">
        <ele>2020.1999511719</ele>
        <time>2016-10-30T11:05:36Z</time>
      </trkpt>
      <trkpt lat="42.52594" lon="1.99413">
        <ele>2019.8000488281</ele>
        <time>2016-10-30T11:05:37Z</time>
      </trkpt>
      <trkpt lat="42.52591" lon="1.99416">
        <ele>2019.8000488281</ele>
        <time>2016-10-30T11:05:40Z</time>
      </trkpt>
      <trkpt lat="42.52586" lon="1.99419">
        <ele>2019.8000488281</ele>
        <time>2016-10-30T11:05:43Z</time>
      </trkpt>
      <trkpt lat="42.52581" lon="1.99417">
        <ele>2019.4000244141</ele>
        <time>2016-10-30T11:05:47Z</time>
      </trkpt>
      <trkpt lat="42.5258" lon="1.99417">
        <ele>2019</ele>
        <time>2016-10-30T11:05:48Z</time>
      </trkpt>
      <trkpt lat="42.52578" lon="1.99416">
        <ele>2018.5999755859</ele>
        <time>2016-10-30T11:05:49Z</time>
      </trkpt>
      <trkpt lat="42.52577" lon="1.99416">
        <ele>2018.1999511719</ele>
        <time>2016-10-30T11:05:50Z</time>
      </trkpt>
      <trkpt lat="42.52577" lon="1.99415">
        <ele>2017.8000488281</ele>
        <time>2016-10-30T11:05:51Z</time>
      </trkpt>
      <trkpt lat="42.52574" lon="1.99411">
        <ele>2017.4000244141</ele>
        <time>2016-10-30T11:05:57Z</time>
      </trkpt>
      <trkpt lat="42.52574" lon="1.9941">
        <ele>2017</ele>
        <time>2016-10-30T11:05:58Z</time>
      </trkpt>
      <trkpt lat="42.52574" lon="1.9941">
        <ele>2016.5999755859</ele>
        <time>2016-10-30T11:05:59Z</time>
      </trkpt>
      <trkpt lat="42.52574" lon="1.9941">
        <ele>2016.1999511719</ele>
        <time>2016-10-30T11:06:00Z</time>
      </trkpt>
      <trkpt lat="42.52574" lon="1.99409">
        <ele>2015.5999755859</ele>
        <time>2016-10-30T11:06:01Z</time>
      </trkpt>
      <trkpt lat="42.52574" lon="1.99405">
        <ele>2015.5999755859</ele>
        <time>2016-10-30T11:06:04Z</time>
      </trkpt>
      <trkpt lat="42.52573" lon="1.99404">
        <ele>2015.1999511719</ele>
        <time>2016-10-30T11:06:08Z</time>
      </trkpt>
      <trkpt lat="42.52572" lon="1.99404">
        <ele>2014.8000488281</ele>
        <time>2016-10-30T11:06:09Z</time>
      </trkpt>
      <trkpt lat="42.52571" lon="1.99403">
        <ele>2014.4000244141</ele>
        <time>2016-10-30T11:06:10Z</time>
      </trkpt>
      <trkpt lat="42.5257" lon="1.99403">
        <ele>2014</ele>
        <time>2016-10-30T11:06:11Z</time>
      </trkpt>
      <trkpt lat="42.52569" lon="1.99402">
        <ele>2013.5999755859</ele>
        <time>2016-10-30T11:06:12Z</time>
      </trkpt>
      <trkpt lat="42.52567" lon="1.99398">
        <ele>2013.5999755859</ele>
        <time>2016-10-30T11:06:15Z</time>
      </trkpt>
      <trkpt lat="42.52565" lon="1.99395">
        <ele>2013.1999511719</ele>
        <time>2016-10-30T11:06:19Z</time>
      </trkpt>
      <trkpt lat="42.52564" lon="1.99393">
        <ele>2012.8000488281</ele>
        <time>2016-10-30T11:06:20Z</time>
      </trkpt>
      <trkpt lat="42.52564" lon="1.99393">
        <ele>2012.4000244141</ele>
        <time>2016-10-30T11:06:21Z</time>
      </trkpt>
      <trkpt lat="42.52564" lon="1.99393">
        <ele>2011.8000488281</ele>
        <time>2016-10-30T11:06:22Z</time>
      </trkpt>
      <trkpt lat="42.52563" lon="1.99393">
        <ele>2011.4000244141</ele>
        <time>2016-10-30T11:06:23Z</time>
      </trkpt>
      <trkpt lat="42.52561" lon="1.99396">
        <ele>2011.4000244141</ele>
        <time>2016-10-30T11:06:27Z</time>
      </trkpt>
      <trkpt lat="42.52559" lon="1.99394">
        <ele>2011.4000244141</ele>
        <time>2016-10-30T11:06:32Z</time>
      </trkpt>
      <trkpt lat="42.52559" lon="1.99391">
        <ele>2011</ele>
        <time>2016-10-30T11:06:33Z</time>
      </trkpt>
      <trkpt lat="42.52559" lon="1.9939">
        <ele>2010.5999755859</ele>
        <time>2016-10-30T11:06:34Z</time>
      </trkpt>
      <trkpt lat="42.52559" lon="1.99389">
        <ele>2010.1999511719</ele>
        <time>2016-10-30T11:06:35Z</time>
      </trkpt>
      <trkpt lat="42.52559" lon="1.99388">
        <ele>2009.8000488281</ele>
        <time>2016-10-30T11:06:36Z</time>
      </trkpt>
      <trkpt lat="42.52559" lon="1.99386">
        <ele>2009.4000244141</ele>
        <time>2016-10-30T11:06:37Z</time>
      </trkpt>
      <trkpt lat="42.52557" lon="1.99387">
        <ele>2009.4000244141</ele>
        <time>2016-10-30T11:06:41Z</time>
      </trkpt>
      <trkpt lat="42.52556" lon="1.99384">
        <ele>2008.4000244141</ele>
        <time>2016-10-30T11:06:43Z</time>
      </trkpt>
      <trkpt lat="42.52556" lon="1.99384">
        <ele>2008</ele>
        <time>2016-10-30T11:06:44Z</time>
      </trkpt>
      <trkpt lat="42.52556" lon="1.99382">
        <ele>2007.5999755859</ele>
        <time>2016-10-30T11:06:45Z</time>
      </trkpt>
      <trkpt lat="42.52556" lon="1.9938">
        <ele>2007.1999511719</ele>
        <time>2016-10-30T11:06:46Z</time>
      </trkpt>
      <trkpt lat="42.52555" lon="1.99377">
        <ele>2007.1999511719</ele>
        <time>2016-10-30T11:06:48Z</time>
      </trkpt>
      <trkpt lat="42.52555" lon="1.99374">
        <ele>2007.1999511719</ele>
        <time>2016-10-30T11:06:51Z</time>
      </trkpt>
      <trkpt lat="42.52553" lon="1.99371">
        <ele>2006.8000488281</ele>
        <time>2016-10-30T11:06:55Z</time>
      </trkpt>
      <trkpt lat="42.52552" lon="1.99371">
        <ele>2006.4000244141</ele>
        <time>2016-10-30T11:06:56Z</time>
      </trkpt>
      <trkpt lat="42.52551" lon="1.9937">
        <ele>2006</ele>
        <time>2016-10-30T11:06:57Z</time>
      </trkpt>
      <trkpt lat="42.5255" lon="1.9937">
        <ele>2005.5999755859</ele>
        <time>2016-10-30T11:06:58Z</time>
      </trkpt>
      <trkpt lat="42.52549" lon="1.99371">
        <ele>2005.1999511719</ele>
        <time>2016-10-30T11:06:59Z</time>
      </trkpt>
      <trkpt lat="42.52547" lon="1.99371">
        <ele>2005.1999511719</ele>
        <time>2016-10-30T11:07:04Z</time>
      </trkpt>
      <trkpt lat="42.52547" lon="1.99371">
        <ele>2004.5999755859</ele>
        <time>2016-10-30T11:07:05Z</time>
      </trkpt>
      <trkpt lat="42.52545" lon="1.99372">
        <ele>2004.1999511719</ele>
        <time>2016-10-30T11:07:06Z</time>
      </trkpt>
      <trkpt lat="42.52544" lon="1.99373">
        <ele>2003.8000488281</ele>
        <time>2016-10-30T11:07:07Z</time>
      </trkpt>
      <trkpt lat="42.52543" lon="1.99373">
        <ele>2003</ele>
        <time>2016-10-30T11:07:08Z</time>
      </trkpt>
      <trkpt lat="42.52539" lon="1.99375">
        <ele>2003</ele>
        <time>2016-10-30T11:07:11Z</time>
      </trkpt>
      <trkpt lat="42.52537" lon="1.99376">
        <ele>2002.5999755859</ele>
        <time>2016-10-30T11:07:14Z</time>
      </trkpt>
      <trkpt lat="42.52537" lon="1.99376">
        <ele>2002.1999511719</ele>
        <time>2016-10-30T11:07:15Z</time>
      </trkpt>
      <trkpt lat="42.52537" lon="1.99377">
        <ele>2001.8000488281</ele>
        <time>2016-10-30T11:07:16Z</time>
      </trkpt>
      <trkpt lat="42.52537" lon="1.99378">
        <ele>2001.4000244141</ele>
        <time>2016-10-30T11:07:17Z</time>
      </trkpt>
      <trkpt lat="42.52537" lon="1.99378">
        <ele>2000.8000488281</ele>
        <time>2016-10-30T11:07:18Z</time>
      </trkpt>
      <trkpt lat="42.52537" lon="1.99379">
        <ele>2000.8000488281</ele>
        <time>2016-10-30T11:07:19Z</time>
      </trkpt>
      <trkpt lat="42.52534" lon="1.99381">
        <ele>2000.4000244141</ele>
        <time>2016-10-30T11:07:22Z</time>
      </trkpt>
      <trkpt lat="42.52532" lon="1.99382">
        <ele>2000</ele>
        <time>2016-10-30T11:07:23Z</time>
      </trkpt>
      <trkpt lat="42.52532" lon="1.99381">
        <ele>1999.5999755859</ele>
        <time>2016-10-30T11:07:24Z</time>
      </trkpt>
      <trkpt lat="42.52531" lon="1.99381">
        <ele>1999.1999511719</ele>
        <time>2016-10-30T11:07:25Z</time>
      </trkpt>
      <trkpt lat="42.52531" lon="1.99379">
        <ele>1998.8000488281</ele>
        <time>2016-10-30T11:07:26Z</time>
      </trkpt>
      <trkpt lat="42.52531" lon="1.99379">
        <ele>1998.8000488281</ele>
        <time>2016-10-30T11:07:28Z</time>
      </trkpt>
      <trkpt lat="42.52529" lon="1.99376">
        <ele>1998.4000244141</ele>
        <time>2016-10-30T11:07:33Z</time>
      </trkpt>
      <trkpt lat="42.52529" lon="1.99375">
        <ele>1998</ele>
        <time>2016-10-30T11:07:34Z</time>
      </trkpt>
      <trkpt lat="42.52529" lon="1.99375">
        <ele>1997.5999755859</ele>
        <time>2016-10-30T11:07:35Z</time>
      </trkpt>
      <trkpt lat="42.52529" lon="1.99375">
        <ele>1997.1999511719</ele>
        <time>2016-10-30T11:07:36Z</time>
      </trkpt>
      <trkpt lat="42.52528" lon="1.99375">
        <ele>1996.5999755859</ele>
        <time>2016-10-30T11:07:37Z</time>
      </trkpt>
      <trkpt lat="42.52528" lon="1.99375">
        <ele>1996.5999755859</ele>
        <time>2016-10-30T11:07:38Z</time>
      </trkpt>
      <trkpt lat="42.52525" lon="1.99378">
        <ele>1996.5999755859</ele>
        <time>2016-10-30T11:07:45Z</time>
      </trkpt>
      <trkpt lat="42.52524" lon="1.99379">
        <ele>1996.1999511719</ele>
        <time>2016-10-30T11:07:46Z</time>
      </trkpt>
      <trkpt lat="42.52524" lon="1.99378">
        <ele>1995.8000488281</ele>
        <time>2016-10-30T11:07:47Z</time>
      </trkpt>
      <trkpt lat="42.52523" lon="1.99378">
        <ele>1995.4000244141</ele>
        <time>2016-10-30T11:07:48Z</time>
      </trkpt>
      <trkpt lat="42.52522" lon="1.99378">
        <ele>1995</ele>
        <time>2016-10-30T11:07:49Z</time>
      </trkpt>
      <trkpt lat="42.52521" lon="1.99378">
        <ele>1994.4000244141</ele>
        <time>2016-10-30T11:07:50Z</time>
      </trkpt>
      <trkpt lat="42.52515" lon="1.99377">
        <ele>1993.5999755859</ele>
        <time>2016-10-30T11:07:57Z</time>
      </trkpt>
      <trkpt lat="42.52514" lon="1.99376">
        <ele>1993.1999511719</ele>
        <time>2016-10-30T11:07:58Z</time>
      </trkpt>
      <trkpt lat="42.52513" lon="1.99376">
        <ele>1992.8000488281</ele>
        <time>2016-10-30T11:07:59Z</time>
      </trkpt>
      <trkpt lat="42.52512" lon="1.99375">
        <ele>1992.1999511719</ele>
        <time>2016-10-30T11:08:00Z</time>
      </trkpt>
      <trkpt lat="42.52511" lon="1.99375">
        <ele>1992.1999511719</ele>
        <time>2016-10-30T11:08:01Z</time>
      </trkpt>
      <trkpt lat="42.5251" lon="1.99375">
        <ele>1992.1999511719</ele>
        <time>2016-10-30T11:08:03Z</time>
      </trkpt>
      <trkpt lat="42.52508" lon="1.99374">
        <ele>1991.8000488281</ele>
        <time>2016-10-30T11:08:06Z</time>
      </trkpt>
      <trkpt lat="42.52507" lon="1.99374">
        <ele>1991.4000244141</ele>
        <time>2016-10-30T11:08:07Z</time>
      </trkpt>
      <trkpt lat="42.52506" lon="1.99373">
        <ele>1991</ele>
        <time>2016-10-30T11:08:08Z</time>
      </trkpt>
      <trkpt lat="42.52506" lon="1.99373">
        <ele>1990.5999755859</ele>
        <time>2016-10-30T11:08:09Z</time>
      </trkpt>
      <trkpt lat="42.52506" lon="1.99372">
        <ele>1990.1999511719</ele>
        <time>2016-10-30T11:08:10Z</time>
      </trkpt>
      <trkpt lat="42.52506" lon="1.99367">
        <ele>1990.1999511719</ele>
        <time>2016-10-30T11:08:16Z</time>
      </trkpt>
      <trkpt lat="42.52506" lon="1.99365">
        <ele>1989.8000488281</ele>
        <time>2016-10-30T11:08:17Z</time>
      </trkpt>
      <trkpt lat="42.52506" lon="1.99363">
        <ele>1989.4000244141</ele>
        <time>2016-10-30T11:08:18Z</time>
      </trkpt>
      <trkpt lat="42.52506" lon="1.99362">
        <ele>1989</ele>
        <time>2016-10-30T11:08:19Z</time>
      </trkpt>
      <trkpt lat="42.52506" lon="1.99361">
        <ele>1988.5999755859</ele>
        <time>2016-10-30T11:08:20Z</time>
      </trkpt>
      <trkpt lat="42.52506" lon="1.9936">
        <ele>1988.1999511719</ele>
        <time>2016-10-30T11:08:21Z</time>
      </trkpt>
      <trkpt lat="42.52505" lon="1.99358">
        <ele>1988.1999511719</ele>
        <time>2016-10-30T11:08:22Z</time>
      </trkpt>
      <trkpt lat="42.525" lon="1.99351">
        <ele>1987.8000488281</ele>
        <time>2016-10-30T11:08:29Z</time>
      </trkpt>
      <trkpt lat="42.52499" lon="1.9935">
        <ele>1987.4000244141</ele>
        <time>2016-10-30T11:08:30Z</time>
      </trkpt>
      <trkpt lat="42.52498" lon="1.99349">
        <ele>1987</ele>
        <time>2016-10-30T11:08:31Z</time>
      </trkpt>
      <trkpt lat="42.52498" lon="1.99349">
        <ele>1986.5999755859</ele>
        <time>2016-10-30T11:08:32Z</time>
      </trkpt>
      <trkpt lat="42.52498" lon="1.99349">
        <ele>1986.1999511719</ele>
        <time>2016-10-30T11:08:33Z</time>
      </trkpt>
      <trkpt lat="42.52497" lon="1.99349">
        <ele>1986.1999511719</ele>
        <time>2016-10-30T11:08:35Z</time>
      </trkpt>
      <trkpt lat="42.52497" lon="1.99347">
        <ele>1986.1999511719</ele>
        <time>2016-10-30T11:08:41Z</time>
      </trkpt>
      <trkpt lat="42.52495" lon="1.99342">
        <ele>1985.8000488281</ele>
        <time>2016-10-30T11:08:45Z</time>
      </trkpt>
      <trkpt lat="42.52494" lon="1.99342">
        <ele>1985</ele>
        <time>2016-10-30T11:08:46Z</time>
      </trkpt>
      <trkpt lat="42.52493" lon="1.99341">
        <ele>1984.4000244141</ele>
        <time>2016-10-30T11:08:47Z</time>
      </trkpt>
      <trkpt lat="42.52493" lon="1.99341">
        <ele>1984</ele>
        <time>2016-10-30T11:08:48Z</time>
      </trkpt>
      <trkpt lat="42.52491" lon="1.9934">
        <ele>1984</ele>
        <time>2016-10-30T11:08:52Z</time>
      </trkpt>
      <trkpt lat="42.52489" lon="1.99339">
        <ele>1983.5999755859</ele>
        <time>2016-10-30T11:08:54Z</time>
      </trkpt>
      <trkpt lat="42.52488" lon="1.99339">
        <ele>1983.1999511719</ele>
        <time>2016-10-30T11:08:55Z</time>
      </trkpt>
      <trkpt lat="42.52487" lon="1.99339">
        <ele>1982.5999755859</ele>
        <time>2016-10-30T11:08:56Z</time>
      </trkpt>
      <trkpt lat="42.52486" lon="1.99339">
        <ele>1982.1999511719</ele>
        <time>2016-10-30T11:08:57Z</time>
      </trkpt>
      <trkpt lat="42.52484" lon="1.99339">
        <ele>1981.8000488281</ele>
        <time>2016-10-30T11:08:58Z</time>
      </trkpt>
      <trkpt lat="42.52483" lon="1.9934">
        <ele>1980.8000488281</ele>
        <time>2016-10-30T11:09:02Z</time>
      </trkpt>
      <trkpt lat="42.52483" lon="1.9934">
        <ele>1980.5999755859</ele>
        <time>2016-10-30T11:09:03Z</time>
      </trkpt>
      <trkpt lat="42.52484" lon="1.9934">
        <ele>1980.4000244141</ele>
        <time>2016-10-30T11:09:04Z</time>
      </trkpt>
      <trkpt lat="42.52484" lon="1.99341">
        <ele>1981.5999755859</ele>
        <time>2016-10-30T11:09:05Z</time>
      </trkpt>
      <trkpt lat="42.52484" lon="1.99341">
        <ele>1981.8000488281</ele>
        <time>2016-10-30T11:09:06Z</time>
      </trkpt>
      <trkpt lat="42.52484" lon="1.99341">
        <ele>1982</ele>
        <time>2016-10-30T11:09:07Z</time>
      </trkpt>
      <trkpt lat="42.52484" lon="1.99341">
        <ele>1982.1999511719</ele>
        <time>2016-10-30T11:09:08Z</time>
      </trkpt>
      <trkpt lat="42.52484" lon="1.99341">
        <ele>1982.4000244141</ele>
        <time>2016-10-30T11:09:09Z</time>
      </trkpt>
      <trkpt lat="42.52484" lon="1.99341">
        <ele>1982.8000488281</ele>
        <time>2016-10-30T11:09:10Z</time>
      </trkpt>
      <trkpt lat="42.52484" lon="1.99341">
        <ele>1982.8000488281</ele>
        <time>2016-10-30T11:09:11Z</time>
      </trkpt>
      <trkpt lat="42.52484" lon="1.99338">
        <ele>1982.1999511719</ele>
        <time>2016-10-30T11:09:19Z</time>
      </trkpt>
      <trkpt lat="42.52484" lon="1.99337">
        <ele>1981.8000488281</ele>
        <time>2016-10-30T11:09:20Z</time>
      </trkpt>
      <trkpt lat="42.52483" lon="1.99337">
        <ele>1981.4000244141</ele>
        <time>2016-10-30T11:09:21Z</time>
      </trkpt>
      <trkpt lat="42.52481" lon="1.99337">
        <ele>1981</ele>
        <time>2016-10-30T11:09:22Z</time>
      </trkpt>
      <trkpt lat="42.5248" lon="1.99336">
        <ele>1980.5999755859</ele>
        <time>2016-10-30T11:09:23Z</time>
      </trkpt>
      <trkpt lat="42.52476" lon="1.99336">
        <ele>1980.5999755859</ele>
        <time>2016-10-30T11:09:26Z</time>
      </trkpt>
      <trkpt lat="42.5247" lon="1.99335">
        <ele>1980.5999755859</ele>
        <time>2016-10-30T11:09:31Z</time>
      </trkpt>
      <trkpt lat="42.52468" lon="1.99335">
        <ele>1980.5999755859</ele>
        <time>2016-10-30T11:09:33Z</time>
      </trkpt>
      <trkpt lat="42.52465" lon="1.99333">
        <ele>1980.5999755859</ele>
        <time>2016-10-30T11:09:36Z</time>
      </trkpt>
      <trkpt lat="42.52463" lon="1.99332">
        <ele>1980.5999755859</ele>
        <time>2016-10-30T11:09:42Z</time>
      </trkpt>
      <trkpt lat="42.52464" lon="1.99332">
        <ele>1980.5999755859</ele>
        <time>2016-10-30T11:09:46Z</time>
      </trkpt>
      <trkpt lat="42.52466" lon="1.99331">
        <ele>1980.5999755859</ele>
        <time>2016-10-30T11:09:48Z</time>
      </trkpt>
      <trkpt lat="42.52472" lon="1.99327">
        <ele>1980.5999755859</ele>
        <time>2016-10-30T11:09:54Z</time>
      </trkpt>
      <trkpt lat="42.52471" lon="1.99325">
        <ele>1980.5999755859</ele>
        <time>2016-10-30T11:09:58Z</time>
      </trkpt>
      <trkpt lat="42.52471" lon="1.99324">
        <ele>1980.5999755859</ele>
        <time>2016-10-30T11:10:05Z</time>
      </trkpt>
      <trkpt lat="42.52472" lon="1.99327">
        <ele>1980.5999755859</ele>
        <time>2016-10-30T11:10:08Z</time>
      </trkpt>
      <trkpt lat="42.52472" lon="1.99329">
        <ele>1980.5999755859</ele>
        <time>2016-10-30T11:10:10Z</time>
      </trkpt>
      <trkpt lat="42.52473" lon="1.99335">
        <ele>1980.5999755859</ele>
        <time>2016-10-30T11:10:15Z</time>
      </trkpt>
      <trkpt lat="42.52473" lon="1.99343">
        <ele>1980.5999755859</ele>
        <time>2016-10-30T11:10:20Z</time>
      </trkpt>
      <trkpt lat="42.52471" lon="1.99346">
        <ele>1980.5999755859</ele>
        <time>2016-10-30T11:10:22Z</time>
      </trkpt>
      <trkpt lat="42.52469" lon="1.9935">
        <ele>1980.5999755859</ele>
        <time>2016-10-30T11:10:25Z</time>
      </trkpt>
      <trkpt lat="42.52465" lon="1.99359">
        <ele>1980.5999755859</ele>
        <time>2016-10-30T11:10:31Z</time>
      </trkpt>
      <trkpt lat="42.52464" lon="1.99367">
        <ele>1980.5999755859</ele>
        <time>2016-10-30T11:10:37Z</time>
      </trkpt>
      <trkpt lat="42.52458" lon="1.99374">
        <ele>1980.5999755859</ele>
        <time>2016-10-30T11:10:44Z</time>
      </trkpt>
      <trkpt lat="42.52454" lon="1.99382">
        <ele>1980.5999755859</ele>
        <time>2016-10-30T11:10:51Z</time>
      </trkpt>
      <trkpt lat="42.52451" lon="1.99387">
        <ele>1980.5999755859</ele>
        <time>2016-10-30T11:10:56Z</time>
      </trkpt>
      <trkpt lat="42.52448" lon="1.99393">
        <ele>1980.5999755859</ele>
        <time>2016-10-30T11:11:02Z</time>
      </trkpt>
      <trkpt lat="42.52445" lon="1.99398">
        <ele>1980.5999755859</ele>
        <time>2016-10-30T11:11:08Z</time>
      </trkpt>
      <trkpt lat="42.52443" lon="1.99404">
        <ele>1980.5999755859</ele>
        <time>2016-10-30T11:11:14Z</time>
      </trkpt>
      <trkpt lat="42.5244" lon="1.99412">
        <ele>1980.5999755859</ele>
        <time>2016-10-30T11:11:19Z</time>
      </trkpt>
      <trkpt lat="42.52435" lon="1.99418">
        <ele>1980.5999755859</ele>
        <time>2016-10-30T11:11:25Z</time>
      </trkpt>
      <trkpt lat="42.52433" lon="1.99424">
        <ele>1980.5999755859</ele>
        <time>2016-10-30T11:11:29Z</time>
      </trkpt>
      <trkpt lat="42.52431" lon="1.9943">
        <ele>1980.5999755859</ele>
        <time>2016-10-30T11:11:34Z</time>
      </trkpt>
      <trkpt lat="42.52426" lon="1.99436">
        <ele>1980.5999755859</ele>
        <time>2016-10-30T11:11:40Z</time>
      </trkpt>
      <trkpt lat="42.5242" lon="1.99441">
        <ele>1980.5999755859</ele>
        <time>2016-10-30T11:11:45Z</time>
      </trkpt>
      <trkpt lat="42.52419" lon="1.99442">
        <ele>1980.5999755859</ele>
        <time>2016-10-30T11:11:47Z</time>
      </trkpt>
      <trkpt lat="42.52416" lon="1.99447">
        <ele>1980.5999755859</ele>
        <time>2016-10-30T11:11:52Z</time>
      </trkpt>
      <trkpt lat="42.52413" lon="1.99451">
        <ele>1980.5999755859</ele>
        <time>2016-10-30T11:11:55Z</time>
      </trkpt>
      <trkpt lat="42.52411" lon="1.99454">
        <ele>1980.5999755859</ele>
        <time>2016-10-30T11:11:58Z</time>
      </trkpt>
      <trkpt lat="42.52408" lon="1.99459">
        <ele>1980.5999755859</ele>
        <time>2016-10-30T11:12:02Z</time>
      </trkpt>
      <trkpt lat="42.52407" lon="1.9946">
        <ele>1980.5999755859</ele>
        <time>2016-10-30T11:12:04Z</time>
      </trkpt>
      <trkpt lat="42.52405" lon="1.99467">
        <ele>1980.5999755859</ele>
        <time>2016-10-30T11:12:10Z</time>
      </trkpt>
      <trkpt lat="42.52404" lon="1.99468">
        <ele>1980.5999755859</ele>
        <time>2016-10-30T11:12:12Z</time>
      </trkpt>
      <trkpt lat="42.52401" lon="1.99467">
        <ele>1980.5999755859</ele>
        <time>2016-10-30T11:12:15Z</time>
      </trkpt>
      <trkpt lat="42.524" lon="1.99468">
        <ele>1980.5999755859</ele>
        <time>2016-10-30T11:12:16Z</time>
      </trkpt>
      <trkpt lat="42.52397" lon="1.99469">
        <ele>1980.5999755859</ele>
        <time>2016-10-30T11:12:20Z</time>
      </trkpt>
      <trkpt lat="42.52394" lon="1.99468">
        <ele>1980.5999755859</ele>
        <time>2016-10-30T11:12:22Z</time>
      </trkpt>
      <trkpt lat="42.52392" lon="1.99467">
        <ele>1980.5999755859</ele>
        <time>2016-10-30T11:12:25Z</time>
      </trkpt>
      <trkpt lat="42.5239" lon="1.99467">
        <ele>1980.5999755859</ele>
        <time>2016-10-30T11:12:26Z</time>
      </trkpt>
      <trkpt lat="42.52388" lon="1.99466">
        <ele>1980.5999755859</ele>
        <time>2016-10-30T11:12:28Z</time>
      </trkpt>
      <trkpt lat="42.52386" lon="1.99466">
        <ele>1980.5999755859</ele>
        <time>2016-10-30T11:12:30Z</time>
      </trkpt>
      <trkpt lat="42.52378" lon="1.99463">
        <ele>1980.5999755859</ele>
        <time>2016-10-30T11:12:37Z</time>
      </trkpt>
      <trkpt lat="42.52373" lon="1.99462">
        <ele>1980.1999511719</ele>
        <time>2016-10-30T11:12:42Z</time>
      </trkpt>
      <trkpt lat="42.52372" lon="1.99462">
        <ele>1979.8000488281</ele>
        <time>2016-10-30T11:12:43Z</time>
      </trkpt>
      <trkpt lat="42.52371" lon="1.99462">
        <ele>1979.4000244141</ele>
        <time>2016-10-30T11:12:44Z</time>
      </trkpt>
      <trkpt lat="42.52369" lon="1.99461">
        <ele>1979</ele>
        <time>2016-10-30T11:12:45Z</time>
      </trkpt>
      <trkpt lat="42.52369" lon="1.99461">
        <ele>1978.5999755859</ele>
        <time>2016-10-30T11:12:46Z</time>
      </trkpt>
      <trkpt lat="42.52367" lon="1.99461">
        <ele>1978.5999755859</ele>
        <time>2016-10-30T11:12:47Z</time>
      </trkpt>
      <trkpt lat="42.52366" lon="1.99461">
        <ele>1978.5999755859</ele>
        <time>2016-10-30T11:12:48Z</time>
      </trkpt>
      <trkpt lat="42.52359" lon="1.99461">
        <ele>1978.5999755859</ele>
        <time>2016-10-30T11:12:53Z</time>
      </trkpt>
      <trkpt lat="42.52357" lon="1.9946">
        <ele>1978.5999755859</ele>
        <time>2016-10-30T11:12:55Z</time>
      </trkpt>
      <trkpt lat="42.52353" lon="1.9946">
        <ele>1978.5999755859</ele>
        <time>2016-10-30T11:12:59Z</time>
      </trkpt>
      <trkpt lat="42.52347" lon="1.99459">
        <ele>1978.5999755859</ele>
        <time>2016-10-30T11:13:05Z</time>
      </trkpt>
      <trkpt lat="42.5234" lon="1.99459">
        <ele>1978.5999755859</ele>
        <time>2016-10-30T11:13:11Z</time>
      </trkpt>
      <trkpt lat="42.52333" lon="1.99459">
        <ele>1978.5999755859</ele>
        <time>2016-10-30T11:13:17Z</time>
      </trkpt>
      <trkpt lat="42.52329" lon="1.9946">
        <ele>1978.1999511719</ele>
        <time>2016-10-30T11:13:21Z</time>
      </trkpt>
      <trkpt lat="42.52327" lon="1.9946">
        <ele>1977.5999755859</ele>
        <time>2016-10-30T11:13:22Z</time>
      </trkpt>
      <trkpt lat="42.52326" lon="1.9946">
        <ele>1977.1999511719</ele>
        <time>2016-10-30T11:13:23Z</time>
      </trkpt>
      <trkpt lat="42.52325" lon="1.99461">
        <ele>1976.8000488281</ele>
        <time>2016-10-30T11:13:24Z</time>
      </trkpt>
      <trkpt lat="42.52324" lon="1.99461">
        <ele>1976.4000244141</ele>
        <time>2016-10-30T11:13:25Z</time>
      </trkpt>
      <trkpt lat="42.5232" lon="1.99462">
        <ele>1976.4000244141</ele>
        <time>2016-10-30T11:13:29Z</time>
      </trkpt>
      <trkpt lat="42.52319" lon="1.99462">
        <ele>1976.4000244141</ele>
        <time>2016-10-30T11:13:34Z</time>
      </trkpt>
      <trkpt lat="42.52317" lon="1.99462">
        <ele>1976.4000244141</ele>
        <time>2016-10-30T11:13:45Z</time>
      </trkpt>
      <trkpt lat="42.52318" lon="1.99462">
        <ele>1976.4000244141</ele>
        <time>2016-10-30T11:13:51Z</time>
      </trkpt>
      <trkpt lat="42.52318" lon="1.99462">
        <ele>1976.4000244141</ele>
        <time>2016-10-30T11:14:06Z</time>
      </trkpt>
      <trkpt lat="42.52318" lon="1.99462">
        <ele>1976.4000244141</ele>
        <time>2016-10-30T11:14:18Z</time>
      </trkpt>
      <trkpt lat="42.52318" lon="1.99461">
        <ele>1976.4000244141</ele>
        <time>2016-10-30T11:14:28Z</time>
      </trkpt>
      <trkpt lat="42.52318" lon="1.99461">
        <ele>1976.4000244141</ele>
        <time>2016-10-30T11:14:38Z</time>
      </trkpt>
      <trkpt lat="42.52317" lon="1.99461">
        <ele>1976.4000244141</ele>
        <time>2016-10-30T11:14:46Z</time>
      </trkpt>
      <trkpt lat="42.52317" lon="1.99459">
        <ele>1976.4000244141</ele>
        <time>2016-10-30T11:14:50Z</time>
      </trkpt>
      <trkpt lat="42.52317" lon="1.99459">
        <ele>1976</ele>
        <time>2016-10-30T11:14:56Z</time>
      </trkpt>
      <trkpt lat="42.52317" lon="1.99459">
        <ele>1975.1999511719</ele>
        <time>2016-10-30T11:14:57Z</time>
      </trkpt>
      <trkpt lat="42.52317" lon="1.99459">
        <ele>1974.8000488281</ele>
        <time>2016-10-30T11:14:58Z</time>
      </trkpt>
      <trkpt lat="42.52317" lon="1.99459">
        <ele>1974.4000244141</ele>
        <time>2016-10-30T11:14:59Z</time>
      </trkpt>
      <trkpt lat="42.52317" lon="1.99459">
        <ele>1974.4000244141</ele>
        <time>2016-10-30T11:15:04Z</time>
      </trkpt>
      <trkpt lat="42.52317" lon="1.99459">
        <ele>1974.4000244141</ele>
        <time>2016-10-30T11:15:18Z</time>
      </trkpt>
      <trkpt lat="42.52316" lon="1.99459">
        <ele>1974.4000244141</ele>
        <time>2016-10-30T11:15:31Z</time>
      </trkpt>
      <trkpt lat="42.52315" lon="1.9946">
        <ele>1974.4000244141</ele>
        <time>2016-10-30T11:15:41Z</time>
      </trkpt>
      <trkpt lat="42.52314" lon="1.99463">
        <ele>1974.4000244141</ele>
        <time>2016-10-30T11:15:46Z</time>
      </trkpt>
      <trkpt lat="42.52312" lon="1.99464">
        <ele>1974.4000244141</ele>
        <time>2016-10-30T11:15:51Z</time>
      </trkpt>
      <trkpt lat="42.52307" lon="1.99467">
        <ele>1974.4000244141</ele>
        <time>2016-10-30T11:15:56Z</time>
      </trkpt>
      <trkpt lat="42.52304" lon="1.99469">
        <ele>1974.4000244141</ele>
        <time>2016-10-30T11:15:59Z</time>
      </trkpt>
      <trkpt lat="42.52302" lon="1.99469">
        <ele>1974.4000244141</ele>
        <time>2016-10-30T11:16:01Z</time>
      </trkpt>
      <trkpt lat="42.52296" lon="1.99472">
        <ele>1974.4000244141</ele>
        <time>2016-10-30T11:16:07Z</time>
      </trkpt>
      <trkpt lat="42.52292" lon="1.99473">
        <ele>1974.4000244141</ele>
        <time>2016-10-30T11:16:11Z</time>
      </trkpt>
      <trkpt lat="42.52291" lon="1.99472">
        <ele>1974.4000244141</ele>
        <time>2016-10-30T11:16:12Z</time>
      </trkpt>
      <trkpt lat="42.52288" lon="1.99474">
        <ele>1974</ele>
        <time>2016-10-30T11:16:15Z</time>
      </trkpt>
      <trkpt lat="42.52287" lon="1.99474">
        <ele>1973.5999755859</ele>
        <time>2016-10-30T11:16:16Z</time>
      </trkpt>
      <trkpt lat="42.52285" lon="1.99476">
        <ele>1973.1999511719</ele>
        <time>2016-10-30T11:16:17Z</time>
      </trkpt>
      <trkpt lat="42.52284" lon="1.99477">
        <ele>1972.8000488281</ele>
        <time>2016-10-30T11:16:18Z</time>
      </trkpt>
      <trkpt lat="42.52283" lon="1.99478">
        <ele>1972.4000244141</ele>
        <time>2016-10-30T11:16:19Z</time>
      </trkpt>
      <trkpt lat="42.52276" lon="1.99481">
        <ele>1972.4000244141</ele>
        <time>2016-10-30T11:16:24Z</time>
      </trkpt>
      <trkpt lat="42.52272" lon="1.99482">
        <ele>1972.4000244141</ele>
        <time>2016-10-30T11:16:29Z</time>
      </trkpt>
      <trkpt lat="42.52266" lon="1.99483">
        <ele>1972.4000244141</ele>
        <time>2016-10-30T11:16:34Z</time>
      </trkpt>
      <trkpt lat="42.5226" lon="1.99484">
        <ele>1972.4000244141</ele>
        <time>2016-10-30T11:16:39Z</time>
      </trkpt>
      <trkpt lat="42.52257" lon="1.99485">
        <ele>1972.4000244141</ele>
        <time>2016-10-30T11:16:41Z</time>
      </trkpt>
      <trkpt lat="42.52254" lon="1.99487">
        <ele>1972.4000244141</ele>
        <time>2016-10-30T11:16:44Z</time>
      </trkpt>
      <trkpt lat="42.52249" lon="1.99488">
        <ele>1972.4000244141</ele>
        <time>2016-10-30T11:16:49Z</time>
      </trkpt>
      <trkpt lat="42.52242" lon="1.99491">
        <ele>1972.4000244141</ele>
        <time>2016-10-30T11:16:55Z</time>
      </trkpt>
      <trkpt lat="42.52239" lon="1.99493">
        <ele>1972.4000244141</ele>
        <time>2016-10-30T11:16:57Z</time>
      </trkpt>
      <trkpt lat="42.52237" lon="1.99495">
        <ele>1972.4000244141</ele>
        <time>2016-10-30T11:17:00Z</time>
      </trkpt>
      <trkpt lat="42.52236" lon="1.99497">
        <ele>1972.4000244141</ele>
        <time>2016-10-30T11:17:01Z</time>
      </trkpt>
      <trkpt lat="42.52232" lon="1.99497">
        <ele>1972.4000244141</ele>
        <time>2016-10-30T11:17:04Z</time>
      </trkpt>
      <trkpt lat="42.52225" lon="1.99501">
        <ele>1972.4000244141</ele>
        <time>2016-10-30T11:17:11Z</time>
      </trkpt>
      <trkpt lat="42.5222" lon="1.99505">
        <ele>1972.4000244141</ele>
        <time>2016-10-30T11:17:16Z</time>
      </trkpt>
      <trkpt lat="42.52215" lon="1.99507">
        <ele>1972.4000244141</ele>
        <time>2016-10-30T11:17:21Z</time>
      </trkpt>
      <trkpt lat="42.52211" lon="1.99512">
        <ele>1972.4000244141</ele>
        <time>2016-10-30T11:17:25Z</time>
      </trkpt>
      <trkpt lat="42.52209" lon="1.99512">
        <ele>1972.4000244141</ele>
        <time>2016-10-30T11:17:26Z</time>
      </trkpt>
      <trkpt lat="42.52202" lon="1.99517">
        <ele>1972.4000244141</ele>
        <time>2016-10-30T11:17:32Z</time>
      </trkpt>
      <trkpt lat="42.52195" lon="1.99519">
        <ele>1972.4000244141</ele>
        <time>2016-10-30T11:17:39Z</time>
      </trkpt>
      <trkpt lat="42.52189" lon="1.99523">
        <ele>1972.4000244141</ele>
        <time>2016-10-30T11:17:45Z</time>
      </trkpt>
      <trkpt lat="42.52184" lon="1.99527">
        <ele>1972.4000244141</ele>
        <time>2016-10-30T11:17:50Z</time>
      </trkpt>
      <trkpt lat="42.52182" lon="1.99527">
        <ele>1972.4000244141</ele>
        <time>2016-10-30T11:17:51Z</time>
      </trkpt>
      <trkpt lat="42.52177" lon="1.99529">
        <ele>1972.4000244141</ele>
        <time>2016-10-30T11:17:55Z</time>
      </trkpt>
      <trkpt lat="42.52171" lon="1.99532">
        <ele>1972.4000244141</ele>
        <time>2016-10-30T11:18:01Z</time>
      </trkpt>
      <trkpt lat="42.52164" lon="1.99534">
        <ele>1972.4000244141</ele>
        <time>2016-10-30T11:18:07Z</time>
      </trkpt>
      <trkpt lat="42.5216" lon="1.99537">
        <ele>1972.4000244141</ele>
        <time>2016-10-30T11:18:12Z</time>
      </trkpt>
      <trkpt lat="42.52159" lon="1.99537">
        <ele>1972.4000244141</ele>
        <time>2016-10-30T11:18:13Z</time>
      </trkpt>
      <trkpt lat="42.52156" lon="1.99541">
        <ele>1972.4000244141</ele>
        <time>2016-10-30T11:18:17Z</time>
      </trkpt>
      <trkpt lat="42.52152" lon="1.99542">
        <ele>1972.4000244141</ele>
        <time>2016-10-30T11:18:19Z</time>
      </trkpt>
      <trkpt lat="42.5215" lon="1.99543">
        <ele>1972.4000244141</ele>
        <time>2016-10-30T11:18:21Z</time>
      </trkpt>
      <trkpt lat="42.52147" lon="1.99543">
        <ele>1972.4000244141</ele>
        <time>2016-10-30T11:18:24Z</time>
      </trkpt>
      <trkpt lat="42.52143" lon="1.99544">
        <ele>1972.4000244141</ele>
        <time>2016-10-30T11:18:27Z</time>
      </trkpt>
      <trkpt lat="42.52141" lon="1.99545">
        <ele>1972.4000244141</ele>
        <time>2016-10-30T11:18:29Z</time>
      </trkpt>
      <trkpt lat="42.52139" lon="1.99546">
        <ele>1972.4000244141</ele>
        <time>2016-10-30T11:18:32Z</time>
      </trkpt>
      <trkpt lat="42.52133" lon="1.99551">
        <ele>1972.4000244141</ele>
        <time>2016-10-30T11:18:37Z</time>
      </trkpt>
      <trkpt lat="42.52124" lon="1.99555">
        <ele>1972.4000244141</ele>
        <time>2016-10-30T11:18:44Z</time>
      </trkpt>
      <trkpt lat="42.52117" lon="1.99557">
        <ele>1972.4000244141</ele>
        <time>2016-10-30T11:18:50Z</time>
      </trkpt>
      <trkpt lat="42.52116" lon="1.99557">
        <ele>1972.4000244141</ele>
        <time>2016-10-30T11:18:51Z</time>
      </trkpt>
      <trkpt lat="42.52111" lon="1.99558">
        <ele>1972.4000244141</ele>
        <time>2016-10-30T11:18:56Z</time>
      </trkpt>
      <trkpt lat="42.5211" lon="1.99558">
        <ele>1972.4000244141</ele>
        <time>2016-10-30T11:18:57Z</time>
      </trkpt>
      <trkpt lat="42.52107" lon="1.99558">
        <ele>1972.4000244141</ele>
        <time>2016-10-30T11:19:00Z</time>
      </trkpt>
      <trkpt lat="42.52104" lon="1.99556">
        <ele>1972.4000244141</ele>
        <time>2016-10-30T11:19:03Z</time>
      </trkpt>
      <trkpt lat="42.52103" lon="1.99556">
        <ele>1972.8000488281</ele>
        <time>2016-10-30T11:19:04Z</time>
      </trkpt>
      <trkpt lat="42.52102" lon="1.99555">
        <ele>1973.1999511719</ele>
        <time>2016-10-30T11:19:05Z</time>
      </trkpt>
      <trkpt lat="42.52101" lon="1.99555">
        <ele>1973.5999755859</ele>
        <time>2016-10-30T11:19:06Z</time>
      </trkpt>
      <trkpt lat="42.52101" lon="1.99554">
        <ele>1974</ele>
        <time>2016-10-30T11:19:07Z</time>
      </trkpt>
      <trkpt lat="42.52101" lon="1.99553">
        <ele>1974.4000244141</ele>
        <time>2016-10-30T11:19:08Z</time>
      </trkpt>
      <trkpt lat="42.52101" lon="1.99552">
        <ele>1974.4000244141</ele>
        <time>2016-10-30T11:19:09Z</time>
      </trkpt>
      <trkpt lat="42.52102" lon="1.99547">
        <ele>1974.4000244141</ele>
        <time>2016-10-30T11:19:13Z</time>
      </trkpt>
      <trkpt lat="42.52103" lon="1.99543">
        <ele>1974.4000244141</ele>
        <time>2016-10-30T11:19:16Z</time>
      </trkpt>
      <trkpt lat="42.52106" lon="1.99535">
        <ele>1974.4000244141</ele>
        <time>2016-10-30T11:19:22Z</time>
      </trkpt>
      <trkpt lat="42.52108" lon="1.99526">
        <ele>1974.4000244141</ele>
        <time>2016-10-30T11:19:28Z</time>
      </trkpt>
      <trkpt lat="42.52109" lon="1.99524">
        <ele>1974.8000488281</ele>
        <time>2016-10-30T11:19:29Z</time>
      </trkpt>
      <trkpt lat="42.52109" lon="1.99523">
        <ele>1975.1999511719</ele>
        <time>2016-10-30T11:19:30Z</time>
      </trkpt>
      <trkpt lat="42.52109" lon="1.99522">
        <ele>1975.5999755859</ele>
        <time>2016-10-30T11:19:31Z</time>
      </trkpt>
      <trkpt lat="42.5211" lon="1.99521">
        <ele>1976</ele>
        <time>2016-10-30T11:19:32Z</time>
      </trkpt>
      <trkpt lat="42.5211" lon="1.99519">
        <ele>1976.4000244141</ele>
        <time>2016-10-30T11:19:33Z</time>
      </trkpt>
      <trkpt lat="42.52113" lon="1.99512">
        <ele>1976.4000244141</ele>
        <time>2016-10-30T11:19:39Z</time>
      </trkpt>
      <trkpt lat="42.52114" lon="1.99511">
        <ele>1976.4000244141</ele>
        <time>2016-10-30T11:19:40Z</time>
      </trkpt>
      <trkpt lat="42.52116" lon="1.99506">
        <ele>1976.4000244141</ele>
        <time>2016-10-30T11:19:44Z</time>
      </trkpt>
      <trkpt lat="42.52118" lon="1.99501">
        <ele>1976.4000244141</ele>
        <time>2016-10-30T11:19:48Z</time>
      </trkpt>
      <trkpt lat="42.52118" lon="1.995">
        <ele>1976.4000244141</ele>
        <time>2016-10-30T11:19:49Z</time>
      </trkpt>
      <trkpt lat="42.5212" lon="1.99493">
        <ele>1976.4000244141</ele>
        <time>2016-10-30T11:19:54Z</time>
      </trkpt>
      <trkpt lat="42.52121" lon="1.99486">
        <ele>1976.4000244141</ele>
        <time>2016-10-30T11:19:59Z</time>
      </trkpt>
      <trkpt lat="42.52123" lon="1.99478">
        <ele>1976.4000244141</ele>
        <time>2016-10-30T11:20:04Z</time>
      </trkpt>
      <trkpt lat="42.52125" lon="1.99474">
        <ele>1976.4000244141</ele>
        <time>2016-10-30T11:20:08Z</time>
      </trkpt>
      <trkpt lat="42.52127" lon="1.99472">
        <ele>1976.4000244141</ele>
        <time>2016-10-30T11:20:10Z</time>
      </trkpt>
      <trkpt lat="42.52127" lon="1.99471">
        <ele>1976.8000488281</ele>
        <time>2016-10-30T11:20:11Z</time>
      </trkpt>
      <trkpt lat="42.52128" lon="1.99469">
        <ele>1977.1999511719</ele>
        <time>2016-10-30T11:20:12Z</time>
      </trkpt>
      <trkpt lat="42.52128" lon="1.99467">
        <ele>1977.5999755859</ele>
        <time>2016-10-30T11:20:13Z</time>
      </trkpt>
      <trkpt lat="42.52128" lon="1.99466">
        <ele>1978</ele>
        <time>2016-10-30T11:20:14Z</time>
      </trkpt>
      <trkpt lat="42.52129" lon="1.99465">
        <ele>1978.4000244141</ele>
        <time>2016-10-30T11:20:15Z</time>
      </trkpt>
      <trkpt lat="42.52129" lon="1.99463">
        <ele>1978.4000244141</ele>
        <time>2016-10-30T11:20:16Z</time>
      </trkpt>
      <trkpt lat="42.5213" lon="1.99455">
        <ele>1978.4000244141</ele>
        <time>2016-10-30T11:20:21Z</time>
      </trkpt>
      <trkpt lat="42.52131" lon="1.99447">
        <ele>1978.4000244141</ele>
        <time>2016-10-30T11:20:26Z</time>
      </trkpt>
      <trkpt lat="42.52133" lon="1.99441">
        <ele>1978.4000244141</ele>
        <time>2016-10-30T11:20:31Z</time>
      </trkpt>
      <trkpt lat="42.52133" lon="1.99434">
        <ele>1978.4000244141</ele>
        <time>2016-10-30T11:20:37Z</time>
      </trkpt>
      <trkpt lat="42.52132" lon="1.99431">
        <ele>1978.4000244141</ele>
        <time>2016-10-30T11:20:39Z</time>
      </trkpt>
      <trkpt lat="42.5213" lon="1.99429">
        <ele>1978.4000244141</ele>
        <time>2016-10-30T11:20:41Z</time>
      </trkpt>
      <trkpt lat="42.52129" lon="1.99426">
        <ele>1978.4000244141</ele>
        <time>2016-10-30T11:20:43Z</time>
      </trkpt>
      <trkpt lat="42.52126" lon="1.99422">
        <ele>1978.4000244141</ele>
        <time>2016-10-30T11:20:46Z</time>
      </trkpt>
      <trkpt lat="42.52123" lon="1.99421">
        <ele>1978.4000244141</ele>
        <time>2016-10-30T11:20:49Z</time>
      </trkpt>
      <trkpt lat="42.52119" lon="1.9942">
        <ele>1979</ele>
        <time>2016-10-30T11:20:52Z</time>
      </trkpt>
      <trkpt lat="42.52118" lon="1.9942">
        <ele>1979.4000244141</ele>
        <time>2016-10-30T11:20:53Z</time>
      </trkpt>
      <trkpt lat="42.52117" lon="1.9942">
        <ele>1979.8000488281</ele>
        <time>2016-10-30T11:20:54Z</time>
      </trkpt>
      <trkpt lat="42.52116" lon="1.99421">
        <ele>1980.1999511719</ele>
        <time>2016-10-30T11:20:55Z</time>
      </trkpt>
      <trkpt lat="42.52114" lon="1.99421">
        <ele>1980.5999755859</ele>
        <time>2016-10-30T11:20:56Z</time>
      </trkpt>
      <trkpt lat="42.52109" lon="1.99424">
        <ele>1980.5999755859</ele>
        <time>2016-10-30T11:21:01Z</time>
      </trkpt>
      <trkpt lat="42.52106" lon="1.99426">
        <ele>1980.5999755859</ele>
        <time>2016-10-30T11:21:05Z</time>
      </trkpt>
      <trkpt lat="42.52101" lon="1.99432">
        <ele>1980.5999755859</ele>
        <time>2016-10-30T11:21:11Z</time>
      </trkpt>
      <trkpt lat="42.52095" lon="1.99439">
        <ele>1980.5999755859</ele>
        <time>2016-10-30T11:21:17Z</time>
      </trkpt>
      <trkpt lat="42.52089" lon="1.99445">
        <ele>1980.5999755859</ele>
        <time>2016-10-30T11:21:24Z</time>
      </trkpt>
      <trkpt lat="42.52086" lon="1.99447">
        <ele>1980.5999755859</ele>
        <time>2016-10-30T11:21:27Z</time>
      </trkpt>
      <trkpt lat="42.52084" lon="1.99448">
        <ele>1980.5999755859</ele>
        <time>2016-10-30T11:21:29Z</time>
      </trkpt>
      <trkpt lat="42.52082" lon="1.9945">
        <ele>1980.5999755859</ele>
        <time>2016-10-30T11:21:31Z</time>
      </trkpt>
      <trkpt lat="42.5208" lon="1.99451">
        <ele>1981.1999511719</ele>
        <time>2016-10-30T11:21:33Z</time>
      </trkpt>
      <trkpt lat="42.5208" lon="1.99452">
        <ele>1981.5999755859</ele>
        <time>2016-10-30T11:21:34Z</time>
      </trkpt>
      <trkpt lat="42.52079" lon="1.99453">
        <ele>1982</ele>
        <time>2016-10-30T11:21:35Z</time>
      </trkpt>
      <trkpt lat="42.52078" lon="1.99454">
        <ele>1982.4000244141</ele>
        <time>2016-10-30T11:21:36Z</time>
      </trkpt>
      <trkpt lat="42.52077" lon="1.99455">
        <ele>1982.8000488281</ele>
        <time>2016-10-30T11:21:37Z</time>
      </trkpt>
      <trkpt lat="42.52075" lon="1.99456">
        <ele>1982.8000488281</ele>
        <time>2016-10-30T11:21:39Z</time>
      </trkpt>
      <trkpt lat="42.5207" lon="1.9946">
        <ele>1982.8000488281</ele>
        <time>2016-10-30T11:21:43Z</time>
      </trkpt>
      <trkpt lat="42.52067" lon="1.99462">
        <ele>1982.8000488281</ele>
        <time>2016-10-30T11:21:46Z</time>
      </trkpt>
      <trkpt lat="42.52059" lon="1.99467">
        <ele>1982.8000488281</ele>
        <time>2016-10-30T11:21:54Z</time>
      </trkpt>
      <trkpt lat="42.52052" lon="1.99473">
        <ele>1982.8000488281</ele>
        <time>2016-10-30T11:22:01Z</time>
      </trkpt>
      <trkpt lat="42.52046" lon="1.99478">
        <ele>1982.8000488281</ele>
        <time>2016-10-30T11:22:08Z</time>
      </trkpt>
      <trkpt lat="42.52045" lon="1.99479">
        <ele>1983.1999511719</ele>
        <time>2016-10-30T11:22:09Z</time>
      </trkpt>
      <trkpt lat="42.52044" lon="1.99479">
        <ele>1983.5999755859</ele>
        <time>2016-10-30T11:22:10Z</time>
      </trkpt>
      <trkpt lat="42.52043" lon="1.99479">
        <ele>1984</ele>
        <time>2016-10-30T11:22:11Z</time>
      </trkpt>
      <trkpt lat="42.52042" lon="1.9948">
        <ele>1984.4000244141</ele>
        <time>2016-10-30T11:22:12Z</time>
      </trkpt>
      <trkpt lat="42.52041" lon="1.9948">
        <ele>1985</ele>
        <time>2016-10-30T11:22:13Z</time>
      </trkpt>
      <trkpt lat="42.52035" lon="1.99484">
        <ele>1985</ele>
        <time>2016-10-30T11:22:18Z</time>
      </trkpt>
      <trkpt lat="42.52028" lon="1.99487">
        <ele>1985</ele>
        <time>2016-10-30T11:22:24Z</time>
      </trkpt>
      <trkpt lat="42.52021" lon="1.99487">
        <ele>1985</ele>
        <time>2016-10-30T11:22:30Z</time>
      </trkpt>
      <trkpt lat="42.52016" lon="1.99486">
        <ele>1985</ele>
        <time>2016-10-30T11:22:35Z</time>
      </trkpt>
      <trkpt lat="42.52009" lon="1.99481">
        <ele>1985</ele>
        <time>2016-10-30T11:22:42Z</time>
      </trkpt>
      <trkpt lat="42.52003" lon="1.99477">
        <ele>1985</ele>
        <time>2016-10-30T11:22:47Z</time>
      </trkpt>
      <trkpt lat="42.51999" lon="1.99473">
        <ele>1985</ele>
        <time>2016-10-30T11:22:51Z</time>
      </trkpt>
      <trkpt lat="42.51998" lon="1.99472">
        <ele>1985</ele>
        <time>2016-10-30T11:22:52Z</time>
      </trkpt>
      <trkpt lat="42.51994" lon="1.99466">
        <ele>1985</ele>
        <time>2016-10-30T11:22:58Z</time>
      </trkpt>
      <trkpt lat="42.51989" lon="1.99462">
        <ele>1985</ele>
        <time>2016-10-30T11:23:03Z</time>
      </trkpt>
      <trkpt lat="42.51987" lon="1.99459">
        <ele>1985</ele>
        <time>2016-10-30T11:23:06Z</time>
      </trkpt>
      <trkpt lat="42.51985" lon="1.99456">
        <ele>1985</ele>
        <time>2016-10-30T11:23:08Z</time>
      </trkpt>
      <trkpt lat="42.51983" lon="1.99452">
        <ele>1985</ele>
        <time>2016-10-30T11:23:12Z</time>
      </trkpt>
      <trkpt lat="42.51979" lon="1.99445">
        <ele>1985</ele>
        <time>2016-10-30T11:23:18Z</time>
      </trkpt>
      <trkpt lat="42.51976" lon="1.99436">
        <ele>1985</ele>
        <time>2016-10-30T11:23:25Z</time>
      </trkpt>
      <trkpt lat="42.51973" lon="1.9943">
        <ele>1985</ele>
        <time>2016-10-30T11:23:29Z</time>
      </trkpt>
      <trkpt lat="42.51969" lon="1.99421">
        <ele>1985</ele>
        <time>2016-10-30T11:23:35Z</time>
      </trkpt>
      <trkpt lat="42.51967" lon="1.99415">
        <ele>1985</ele>
        <time>2016-10-30T11:23:40Z</time>
      </trkpt>
      <trkpt lat="42.51963" lon="1.99407">
        <ele>1985</ele>
        <time>2016-10-30T11:23:46Z</time>
      </trkpt>
      <trkpt lat="42.5196" lon="1.99401">
        <ele>1985</ele>
        <time>2016-10-30T11:23:51Z</time>
      </trkpt>
      <trkpt lat="42.51959" lon="1.99399">
        <ele>1985</ele>
        <time>2016-10-30T11:23:53Z</time>
      </trkpt>
      <trkpt lat="42.51957" lon="1.99396">
        <ele>1985</ele>
        <time>2016-10-30T11:23:56Z</time>
      </trkpt>
      <trkpt lat="42.51955" lon="1.99391">
        <ele>1985</ele>
        <time>2016-10-30T11:24:01Z</time>
      </trkpt>
      <trkpt lat="42.51954" lon="1.99389">
        <ele>1985</ele>
        <time>2016-10-30T11:24:02Z</time>
      </trkpt>
      <trkpt lat="42.51952" lon="1.99384">
        <ele>1985.4000244141</ele>
        <time>2016-10-30T11:24:05Z</time>
      </trkpt>
      <trkpt lat="42.51952" lon="1.99383">
        <ele>1985.8000488281</ele>
        <time>2016-10-30T11:24:06Z</time>
      </trkpt>
      <trkpt lat="42.51951" lon="1.99382">
        <ele>1986.1999511719</ele>
        <time>2016-10-30T11:24:07Z</time>
      </trkpt>
      <trkpt lat="42.5195" lon="1.99381">
        <ele>1986.5999755859</ele>
        <time>2016-10-30T11:24:08Z</time>
      </trkpt>
      <trkpt lat="42.51949" lon="1.99379">
        <ele>1987</ele>
        <time>2016-10-30T11:24:09Z</time>
      </trkpt>
      <trkpt lat="42.51947" lon="1.99376">
        <ele>1987</ele>
        <time>2016-10-30T11:24:11Z</time>
      </trkpt>
      <trkpt lat="42.51947" lon="1.99375">
        <ele>1987</ele>
        <time>2016-10-30T11:24:12Z</time>
      </trkpt>
      <trkpt lat="42.51944" lon="1.99367">
        <ele>1987</ele>
        <time>2016-10-30T11:24:18Z</time>
      </trkpt>
      <trkpt lat="42.51941" lon="1.9936">
        <ele>1987</ele>
        <time>2016-10-30T11:24:23Z</time>
      </trkpt>
      <trkpt lat="42.51939" lon="1.99354">
        <ele>1987</ele>
        <time>2016-10-30T11:24:29Z</time>
      </trkpt>
      <trkpt lat="42.51937" lon="1.99347">
        <ele>1987</ele>
        <time>2016-10-30T11:24:34Z</time>
      </trkpt>
      <trkpt lat="42.51933" lon="1.99339">
        <ele>1987</ele>
        <time>2016-10-30T11:24:40Z</time>
      </trkpt>
      <trkpt lat="42.5193" lon="1.99331">
        <ele>1987</ele>
        <time>2016-10-30T11:24:46Z</time>
      </trkpt>
      <trkpt lat="42.51927" lon="1.99322">
        <ele>1987</ele>
        <time>2016-10-30T11:24:52Z</time>
      </trkpt>
      <trkpt lat="42.51923" lon="1.99318">
        <ele>1987</ele>
        <time>2016-10-30T11:24:57Z</time>
      </trkpt>
      <trkpt lat="42.51922" lon="1.99316">
        <ele>1987.4000244141</ele>
        <time>2016-10-30T11:24:59Z</time>
      </trkpt>
      <trkpt lat="42.51922" lon="1.99315">
        <ele>1987.8000488281</ele>
        <time>2016-10-30T11:25:00Z</time>
      </trkpt>
      <trkpt lat="42.51921" lon="1.99314">
        <ele>1988.1999511719</ele>
        <time>2016-10-30T11:25:01Z</time>
      </trkpt>
      <trkpt lat="42.5192" lon="1.99313">
        <ele>1988.8000488281</ele>
        <time>2016-10-30T11:25:02Z</time>
      </trkpt>
      <trkpt lat="42.5192" lon="1.99311">
        <ele>1989.1999511719</ele>
        <time>2016-10-30T11:25:03Z</time>
      </trkpt>
      <trkpt lat="42.51919" lon="1.99309">
        <ele>1989.1999511719</ele>
        <time>2016-10-30T11:25:05Z</time>
      </trkpt>
      <trkpt lat="42.51919" lon="1.99306">
        <ele>1989.1999511719</ele>
        <time>2016-10-30T11:25:07Z</time>
      </trkpt>
      <trkpt lat="42.51919" lon="1.99306">
        <ele>1989.1999511719</ele>
        <time>2016-10-30T11:25:14Z</time>
      </trkpt>
      <trkpt lat="42.51918" lon="1.99303">
        <ele>1989.1999511719</ele>
        <time>2016-10-30T11:25:22Z</time>
      </trkpt>
      <trkpt lat="42.51917" lon="1.99296">
        <ele>1989.1999511719</ele>
        <time>2016-10-30T11:25:27Z</time>
      </trkpt>
      <trkpt lat="42.51916" lon="1.99294">
        <ele>1989.1999511719</ele>
        <time>2016-10-30T11:25:28Z</time>
      </trkpt>
      <trkpt lat="42.51914" lon="1.99288">
        <ele>1989.1999511719</ele>
        <time>2016-10-30T11:25:32Z</time>
      </trkpt>
      <trkpt lat="42.51913" lon="1.99286">
        <ele>1989.1999511719</ele>
        <time>2016-10-30T11:25:33Z</time>
      </trkpt>
      <trkpt lat="42.51912" lon="1.9928">
        <ele>1989.1999511719</ele>
        <time>2016-10-30T11:25:37Z</time>
      </trkpt>
      <trkpt lat="42.51909" lon="1.99274">
        <ele>1989.5999755859</ele>
        <time>2016-10-30T11:25:42Z</time>
      </trkpt>
      <trkpt lat="42.51909" lon="1.99273">
        <ele>1990</ele>
        <time>2016-10-30T11:25:43Z</time>
      </trkpt>
      <trkpt lat="42.51908" lon="1.99272">
        <ele>1990.4000244141</ele>
        <time>2016-10-30T11:25:44Z</time>
      </trkpt>
      <trkpt lat="42.51908" lon="1.99271">
        <ele>1990.8000488281</ele>
        <time>2016-10-30T11:25:45Z</time>
      </trkpt>
      <trkpt lat="42.51907" lon="1.99269">
        <ele>1991.1999511719</ele>
        <time>2016-10-30T11:25:46Z</time>
      </trkpt>
      <trkpt lat="42.51906" lon="1.99265">
        <ele>1991.1999511719</ele>
        <time>2016-10-30T11:25:50Z</time>
      </trkpt>
      <trkpt lat="42.51903" lon="1.99258">
        <ele>1991.1999511719</ele>
        <time>2016-10-30T11:25:55Z</time>
      </trkpt>
      <trkpt lat="42.51902" lon="1.99255">
        <ele>1991.5999755859</ele>
        <time>2016-10-30T11:25:58Z</time>
      </trkpt>
      <trkpt lat="42.51902" lon="1.99254">
        <ele>1992.1999511719</ele>
        <time>2016-10-30T11:25:59Z</time>
      </trkpt>
      <trkpt lat="42.51901" lon="1.99253">
        <ele>1992.5999755859</ele>
        <time>2016-10-30T11:26:00Z</time>
      </trkpt>
      <trkpt lat="42.51901" lon="1.99251">
        <ele>1993</ele>
        <time>2016-10-30T11:26:01Z</time>
      </trkpt>
      <trkpt lat="42.519" lon="1.9925">
        <ele>1993.4000244141</ele>
        <time>2016-10-30T11:26:02Z</time>
      </trkpt>
      <trkpt lat="42.51899" lon="1.99246">
        <ele>1993.4000244141</ele>
        <time>2016-10-30T11:26:05Z</time>
      </trkpt>
      <trkpt lat="42.51895" lon="1.99239">
        <ele>1993.4000244141</ele>
        <time>2016-10-30T11:26:10Z</time>
      </trkpt>
      <trkpt lat="42.51894" lon="1.99233">
        <ele>1993.8000488281</ele>
        <time>2016-10-30T11:26:15Z</time>
      </trkpt>
      <trkpt lat="42.51893" lon="1.99231">
        <ele>1994.4000244141</ele>
        <time>2016-10-30T11:26:16Z</time>
      </trkpt>
      <trkpt lat="42.51893" lon="1.9923">
        <ele>1994.8000488281</ele>
        <time>2016-10-30T11:26:17Z</time>
      </trkpt>
      <trkpt lat="42.51892" lon="1.99229">
        <ele>1995.1999511719</ele>
        <time>2016-10-30T11:26:18Z</time>
      </trkpt>
      <trkpt lat="42.51891" lon="1.99228">
        <ele>1995.5999755859</ele>
        <time>2016-10-30T11:26:19Z</time>
      </trkpt>
      <trkpt lat="42.5189" lon="1.99225">
        <ele>1995.5999755859</ele>
        <time>2016-10-30T11:26:21Z</time>
      </trkpt>
      <trkpt lat="42.51889" lon="1.99221">
        <ele>1995.5999755859</ele>
        <time>2016-10-30T11:26:24Z</time>
      </trkpt>
      <trkpt lat="42.51887" lon="1.99218">
        <ele>1995.5999755859</ele>
        <time>2016-10-30T11:26:26Z</time>
      </trkpt>
      <trkpt lat="42.51883" lon="1.99211">
        <ele>1995.5999755859</ele>
        <time>2016-10-30T11:26:31Z</time>
      </trkpt>
      <trkpt lat="42.51882" lon="1.9921">
        <ele>1995.5999755859</ele>
        <time>2016-10-30T11:26:32Z</time>
      </trkpt>
      <trkpt lat="42.51879" lon="1.99205">
        <ele>1995.5999755859</ele>
        <time>2016-10-30T11:26:37Z</time>
      </trkpt>
      <trkpt lat="42.51876" lon="1.99198">
        <ele>1996</ele>
        <time>2016-10-30T11:26:42Z</time>
      </trkpt>
      <trkpt lat="42.51875" lon="1.99197">
        <ele>1996.5999755859</ele>
        <time>2016-10-30T11:26:43Z</time>
      </trkpt>
      <trkpt lat="42.51874" lon="1.99195">
        <ele>1997</ele>
        <time>2016-10-30T11:26:44Z</time>
      </trkpt>
      <trkpt lat="42.51874" lon="1.99194">
        <ele>1997.4000244141</ele>
        <time>2016-10-30T11:26:45Z</time>
      </trkpt>
      <trkpt lat="42.51874" lon="1.99192">
        <ele>1997.8000488281</ele>
        <time>2016-10-30T11:26:46Z</time>
      </trkpt>
      <trkpt lat="42.51873" lon="1.99191">
        <ele>1997.8000488281</ele>
        <time>2016-10-30T11:26:47Z</time>
      </trkpt>
      <trkpt lat="42.5187" lon="1.99183">
        <ele>1997.8000488281</ele>
        <time>2016-10-30T11:26:53Z</time>
      </trkpt>
      <trkpt lat="42.51867" lon="1.99177">
        <ele>1997.8000488281</ele>
        <time>2016-10-30T11:26:58Z</time>
      </trkpt>
      <trkpt lat="42.51866" lon="1.99175">
        <ele>1997.8000488281</ele>
        <time>2016-10-30T11:26:59Z</time>
      </trkpt>
      <trkpt lat="42.51862" lon="1.99169">
        <ele>1997.8000488281</ele>
        <time>2016-10-30T11:27:05Z</time>
      </trkpt>
      <trkpt lat="42.51856" lon="1.99163">
        <ele>1998.1999511719</ele>
        <time>2016-10-30T11:27:11Z</time>
      </trkpt>
      <trkpt lat="42.51856" lon="1.99162">
        <ele>1998.5999755859</ele>
        <time>2016-10-30T11:27:12Z</time>
      </trkpt>
      <trkpt lat="42.51855" lon="1.99161">
        <ele>1999.1999511719</ele>
        <time>2016-10-30T11:27:13Z</time>
      </trkpt>
      <trkpt lat="42.51855" lon="1.9916">
        <ele>1999.5999755859</ele>
        <time>2016-10-30T11:27:14Z</time>
      </trkpt>
      <trkpt lat="42.51854" lon="1.99158">
        <ele>2000</ele>
        <time>2016-10-30T11:27:15Z</time>
      </trkpt>
      <trkpt lat="42.51853" lon="1.99157">
        <ele>2000</ele>
        <time>2016-10-30T11:27:16Z</time>
      </trkpt>
      <trkpt lat="42.51852" lon="1.99154">
        <ele>2000</ele>
        <time>2016-10-30T11:27:18Z</time>
      </trkpt>
      <trkpt lat="42.5185" lon="1.9915">
        <ele>2000</ele>
        <time>2016-10-30T11:27:21Z</time>
      </trkpt>
      <trkpt lat="42.51846" lon="1.99145">
        <ele>2000</ele>
        <time>2016-10-30T11:27:27Z</time>
      </trkpt>
      <trkpt lat="42.51842" lon="1.9914">
        <ele>2000</ele>
        <time>2016-10-30T11:27:32Z</time>
      </trkpt>
      <trkpt lat="42.51841" lon="1.99138">
        <ele>2000</ele>
        <time>2016-10-30T11:27:34Z</time>
      </trkpt>
      <trkpt lat="42.51839" lon="1.99135">
        <ele>2000</ele>
        <time>2016-10-30T11:27:36Z</time>
      </trkpt>
      <trkpt lat="42.51837" lon="1.99133">
        <ele>2000</ele>
        <time>2016-10-30T11:27:38Z</time>
      </trkpt>
      <trkpt lat="42.51832" lon="1.99126">
        <ele>2000</ele>
        <time>2016-10-30T11:27:44Z</time>
      </trkpt>
      <trkpt lat="42.5183" lon="1.99119">
        <ele>2000</ele>
        <time>2016-10-30T11:27:49Z</time>
      </trkpt>
      <trkpt lat="42.51827" lon="1.99113">
        <ele>2000.4000244141</ele>
        <time>2016-10-30T11:27:53Z</time>
      </trkpt>
      <trkpt lat="42.51827" lon="1.99111">
        <ele>2000.8000488281</ele>
        <time>2016-10-30T11:27:54Z</time>
      </trkpt>
      <trkpt lat="42.51826" lon="1.9911">
        <ele>2001.1999511719</ele>
        <time>2016-10-30T11:27:55Z</time>
      </trkpt>
      <trkpt lat="42.51826" lon="1.99108">
        <ele>2001.5999755859</ele>
        <time>2016-10-30T11:27:56Z</time>
      </trkpt>
      <trkpt lat="42.51825" lon="1.99106">
        <ele>2002</ele>
        <time>2016-10-30T11:27:57Z</time>
      </trkpt>
      <trkpt lat="42.51823" lon="1.99103">
        <ele>2002</ele>
        <time>2016-10-30T11:28:00Z</time>
      </trkpt>
      <trkpt lat="42.51822" lon="1.99102">
        <ele>2002</ele>
        <time>2016-10-30T11:28:01Z</time>
      </trkpt>
      <trkpt lat="42.5182" lon="1.99099">
        <ele>2002</ele>
        <time>2016-10-30T11:28:04Z</time>
      </trkpt>
      <trkpt lat="42.51815" lon="1.99094">
        <ele>2002</ele>
        <time>2016-10-30T11:28:09Z</time>
      </trkpt>
      <trkpt lat="42.51813" lon="1.99091">
        <ele>2002</ele>
        <time>2016-10-30T11:28:13Z</time>
      </trkpt>
      <trkpt lat="42.51808" lon="1.99084">
        <ele>2002</ele>
        <time>2016-10-30T11:28:18Z</time>
      </trkpt>
      <trkpt lat="42.51806" lon="1.99079">
        <ele>2002</ele>
        <time>2016-10-30T11:28:23Z</time>
      </trkpt>
      <trkpt lat="42.51802" lon="1.99072">
        <ele>2002</ele>
        <time>2016-10-30T11:28:28Z</time>
      </trkpt>
      <trkpt lat="42.518" lon="1.99065">
        <ele>2002.4000244141</ele>
        <time>2016-10-30T11:28:33Z</time>
      </trkpt>
      <trkpt lat="42.51799" lon="1.99064">
        <ele>2003</ele>
        <time>2016-10-30T11:28:34Z</time>
      </trkpt>
      <trkpt lat="42.51799" lon="1.99063">
        <ele>2003.4000244141</ele>
        <time>2016-10-30T11:28:35Z</time>
      </trkpt>
      <trkpt lat="42.51798" lon="1.99062">
        <ele>2003.8000488281</ele>
        <time>2016-10-30T11:28:36Z</time>
      </trkpt>
      <trkpt lat="42.51797" lon="1.9906">
        <ele>2004.1999511719</ele>
        <time>2016-10-30T11:28:37Z</time>
      </trkpt>
      <trkpt lat="42.51796" lon="1.99059">
        <ele>2004.1999511719</ele>
        <time>2016-10-30T11:28:39Z</time>
      </trkpt>
      <trkpt lat="42.51794" lon="1.99054">
        <ele>2004.1999511719</ele>
        <time>2016-10-30T11:28:42Z</time>
      </trkpt>
      <trkpt lat="42.51792" lon="1.9905">
        <ele>2004.1999511719</ele>
        <time>2016-10-30T11:28:45Z</time>
      </trkpt>
      <trkpt lat="42.51788" lon="1.99043">
        <ele>2004.1999511719</ele>
        <time>2016-10-30T11:28:51Z</time>
      </trkpt>
      <trkpt lat="42.51788" lon="1.99042">
        <ele>2004.1999511719</ele>
        <time>2016-10-30T11:28:52Z</time>
      </trkpt>
      <trkpt lat="42.51783" lon="1.99035">
        <ele>2004.1999511719</ele>
        <time>2016-10-30T11:28:58Z</time>
      </trkpt>
      <trkpt lat="42.51782" lon="1.99034">
        <ele>2004.5999755859</ele>
        <time>2016-10-30T11:28:59Z</time>
      </trkpt>
      <trkpt lat="42.51781" lon="1.99033">
        <ele>2005</ele>
        <time>2016-10-30T11:29:00Z</time>
      </trkpt>
      <trkpt lat="42.5178" lon="1.99032">
        <ele>2005.4000244141</ele>
        <time>2016-10-30T11:29:01Z</time>
      </trkpt>
      <trkpt lat="42.51779" lon="1.9903">
        <ele>2005.8000488281</ele>
        <time>2016-10-30T11:29:02Z</time>
      </trkpt>
      <trkpt lat="42.51778" lon="1.99029">
        <ele>2006.1999511719</ele>
        <time>2016-10-30T11:29:03Z</time>
      </trkpt>
      <trkpt lat="42.51777" lon="1.99028">
        <ele>2006.1999511719</ele>
        <time>2016-10-30T11:29:04Z</time>
      </trkpt>
      <trkpt lat="42.51776" lon="1.99026">
        <ele>2006.1999511719</ele>
        <time>2016-10-30T11:29:06Z</time>
      </trkpt>
      <trkpt lat="42.51773" lon="1.99023">
        <ele>2006.1999511719</ele>
        <time>2016-10-30T11:29:09Z</time>
      </trkpt>
      <trkpt lat="42.51769" lon="1.99018">
        <ele>2006.1999511719</ele>
        <time>2016-10-30T11:29:14Z</time>
      </trkpt>
      <trkpt lat="42.51765" lon="1.99009">
        <ele>2006.1999511719</ele>
        <time>2016-10-30T11:29:20Z</time>
      </trkpt>
      <trkpt lat="42.51764" lon="1.99008">
        <ele>2006.1999511719</ele>
        <time>2016-10-30T11:29:21Z</time>
      </trkpt>
      <trkpt lat="42.51762" lon="1.99003">
        <ele>2006.1999511719</ele>
        <time>2016-10-30T11:29:24Z</time>
      </trkpt>
      <trkpt lat="42.5176" lon="1.98996">
        <ele>2006.1999511719</ele>
        <time>2016-10-30T11:29:29Z</time>
      </trkpt>
      <trkpt lat="42.51757" lon="1.98993">
        <ele>2006.1999511719</ele>
        <time>2016-10-30T11:29:32Z</time>
      </trkpt>
      <trkpt lat="42.51755" lon="1.98992">
        <ele>2006.1999511719</ele>
        <time>2016-10-30T11:29:34Z</time>
      </trkpt>
      <trkpt lat="42.51753" lon="1.98988">
        <ele>2006.5999755859</ele>
        <time>2016-10-30T11:29:38Z</time>
      </trkpt>
      <trkpt lat="42.51752" lon="1.98986">
        <ele>2007</ele>
        <time>2016-10-30T11:29:39Z</time>
      </trkpt>
      <trkpt lat="42.51752" lon="1.98986">
        <ele>2007.5999755859</ele>
        <time>2016-10-30T11:29:40Z</time>
      </trkpt>
      <trkpt lat="42.5175" lon="1.98985">
        <ele>2008</ele>
        <time>2016-10-30T11:29:41Z</time>
      </trkpt>
      <trkpt lat="42.51749" lon="1.98984">
        <ele>2008.4000244141</ele>
        <time>2016-10-30T11:29:42Z</time>
      </trkpt>
      <trkpt lat="42.51747" lon="1.98982">
        <ele>2008.4000244141</ele>
        <time>2016-10-30T11:29:44Z</time>
      </trkpt>
      <trkpt lat="42.51742" lon="1.98976">
        <ele>2008.4000244141</ele>
        <time>2016-10-30T11:29:50Z</time>
      </trkpt>
      <trkpt lat="42.51738" lon="1.98968">
        <ele>2008.4000244141</ele>
        <time>2016-10-30T11:29:55Z</time>
      </trkpt>
      <trkpt lat="42.51734" lon="1.98962">
        <ele>2008.4000244141</ele>
        <time>2016-10-30T11:30:00Z</time>
      </trkpt>
      <trkpt lat="42.5173" lon="1.98957">
        <ele>2008.4000244141</ele>
        <time>2016-10-30T11:30:05Z</time>
      </trkpt>
      <trkpt lat="42.51729" lon="1.98956">
        <ele>2008.4000244141</ele>
        <time>2016-10-30T11:30:06Z</time>
      </trkpt>
      <trkpt lat="42.51726" lon="1.98953">
        <ele>2008.4000244141</ele>
        <time>2016-10-30T11:30:09Z</time>
      </trkpt>
      <trkpt lat="42.51725" lon="1.98952">
        <ele>2008.4000244141</ele>
        <time>2016-10-30T11:30:10Z</time>
      </trkpt>
      <trkpt lat="42.51725" lon="1.9895">
        <ele>2008.4000244141</ele>
        <time>2016-10-30T11:30:11Z</time>
      </trkpt>
      <trkpt lat="42.51723" lon="1.98946">
        <ele>2008.4000244141</ele>
        <time>2016-10-30T11:30:14Z</time>
      </trkpt>
      <trkpt lat="42.5172" lon="1.98942">
        <ele>2008.4000244141</ele>
        <time>2016-10-30T11:30:17Z</time>
      </trkpt>
      <trkpt lat="42.51715" lon="1.98936">
        <ele>2008.4000244141</ele>
        <time>2016-10-30T11:30:22Z</time>
      </trkpt>
      <trkpt lat="42.51711" lon="1.9893">
        <ele>2008.4000244141</ele>
        <time>2016-10-30T11:30:27Z</time>
      </trkpt>
      <trkpt lat="42.5171" lon="1.98929">
        <ele>2008.4000244141</ele>
        <time>2016-10-30T11:30:28Z</time>
      </trkpt>
      <trkpt lat="42.51708" lon="1.98926">
        <ele>2008.4000244141</ele>
        <time>2016-10-30T11:30:31Z</time>
      </trkpt>
      <trkpt lat="42.51704" lon="1.9892">
        <ele>2008.4000244141</ele>
        <time>2016-10-30T11:30:36Z</time>
      </trkpt>
      <trkpt lat="42.51701" lon="1.98913">
        <ele>2008.4000244141</ele>
        <time>2016-10-30T11:30:41Z</time>
      </trkpt>
      <trkpt lat="42.51698" lon="1.98907">
        <ele>2008.4000244141</ele>
        <time>2016-10-30T11:30:46Z</time>
      </trkpt>
      <trkpt lat="42.51693" lon="1.989">
        <ele>2008.4000244141</ele>
        <time>2016-10-30T11:30:51Z</time>
      </trkpt>
      <trkpt lat="42.51689" lon="1.98894">
        <ele>2008.4000244141</ele>
        <time>2016-10-30T11:30:57Z</time>
      </trkpt>
      <trkpt lat="42.51685" lon="1.98889">
        <ele>2008.4000244141</ele>
        <time>2016-10-30T11:31:01Z</time>
      </trkpt>
      <trkpt lat="42.5168" lon="1.98881">
        <ele>2008.4000244141</ele>
        <time>2016-10-30T11:31:07Z</time>
      </trkpt>
      <trkpt lat="42.51676" lon="1.98876">
        <ele>2008.4000244141</ele>
        <time>2016-10-30T11:31:12Z</time>
      </trkpt>
      <trkpt lat="42.51675" lon="1.98874">
        <ele>2008.4000244141</ele>
        <time>2016-10-30T11:31:14Z</time>
      </trkpt>
      <trkpt lat="42.51669" lon="1.98865">
        <ele>2008.4000244141</ele>
        <time>2016-10-30T11:31:20Z</time>
      </trkpt>
      <trkpt lat="42.51664" lon="1.98859">
        <ele>2008.4000244141</ele>
        <time>2016-10-30T11:31:26Z</time>
      </trkpt>
      <trkpt lat="42.51662" lon="1.98857">
        <ele>2008.8000488281</ele>
        <time>2016-10-30T11:31:28Z</time>
      </trkpt>
      <trkpt lat="42.51662" lon="1.98856">
        <ele>2009.1999511719</ele>
        <time>2016-10-30T11:31:29Z</time>
      </trkpt>
      <trkpt lat="42.51661" lon="1.98855">
        <ele>2009.5999755859</ele>
        <time>2016-10-30T11:31:30Z</time>
      </trkpt>
      <trkpt lat="42.51661" lon="1.98854">
        <ele>2010</ele>
        <time>2016-10-30T11:31:31Z</time>
      </trkpt>
      <trkpt lat="42.5166" lon="1.98852">
        <ele>2010.4000244141</ele>
        <time>2016-10-30T11:31:32Z</time>
      </trkpt>
      <trkpt lat="42.51655" lon="1.98846">
        <ele>2010.4000244141</ele>
        <time>2016-10-30T11:31:38Z</time>
      </trkpt>
      <trkpt lat="42.5165" lon="1.9884">
        <ele>2010.4000244141</ele>
        <time>2016-10-30T11:31:44Z</time>
      </trkpt>
      <trkpt lat="42.51647" lon="1.98836">
        <ele>2010.4000244141</ele>
        <time>2016-10-30T11:31:51Z</time>
      </trkpt>
      <trkpt lat="42.51646" lon="1.98835">
        <ele>2010.4000244141</ele>
        <time>2016-10-30T11:32:01Z</time>
      </trkpt>
      <trkpt lat="42.51646" lon="1.98835">
        <ele>2010.4000244141</ele>
        <time>2016-10-30T11:32:15Z</time>
      </trkpt>
      <trkpt lat="42.51644" lon="1.98832">
        <ele>2010.4000244141</ele>
        <time>2016-10-30T11:32:22Z</time>
      </trkpt>
      <trkpt lat="42.5164" lon="1.98825">
        <ele>2010.4000244141</ele>
        <time>2016-10-30T11:32:27Z</time>
      </trkpt>
      <trkpt lat="42.51636" lon="1.98819">
        <ele>2010.4000244141</ele>
        <time>2016-10-30T11:32:32Z</time>
      </trkpt>
      <trkpt lat="42.51632" lon="1.98813">
        <ele>2010.4000244141</ele>
        <time>2016-10-30T11:32:37Z</time>
      </trkpt>
      <trkpt lat="42.51629" lon="1.98809">
        <ele>2010.8000488281</ele>
        <time>2016-10-30T11:32:41Z</time>
      </trkpt>
      <trkpt lat="42.51628" lon="1.98808">
        <ele>2011.1999511719</ele>
        <time>2016-10-30T11:32:42Z</time>
      </trkpt>
      <trkpt lat="42.51627" lon="1.98806">
        <ele>2011.5999755859</ele>
        <time>2016-10-30T11:32:43Z</time>
      </trkpt>
      <trkpt lat="42.51626" lon="1.98805">
        <ele>2012</ele>
        <time>2016-10-30T11:32:44Z</time>
      </trkpt>
      <trkpt lat="42.51625" lon="1.98804">
        <ele>2012.4000244141</ele>
        <time>2016-10-30T11:32:45Z</time>
      </trkpt>
      <trkpt lat="42.51622" lon="1.98801">
        <ele>2012.4000244141</ele>
        <time>2016-10-30T11:32:49Z</time>
      </trkpt>
      <trkpt lat="42.5162" lon="1.98796">
        <ele>2012.4000244141</ele>
        <time>2016-10-30T11:32:52Z</time>
      </trkpt>
      <trkpt lat="42.51618" lon="1.98793">
        <ele>2012.4000244141</ele>
        <time>2016-10-30T11:32:54Z</time>
      </trkpt>
      <trkpt lat="42.51613" lon="1.98784">
        <ele>2012.4000244141</ele>
        <time>2016-10-30T11:33:01Z</time>
      </trkpt>
      <trkpt lat="42.5161" lon="1.98781">
        <ele>2012.4000244141</ele>
        <time>2016-10-30T11:33:04Z</time>
      </trkpt>
      <trkpt lat="42.51608" lon="1.98779">
        <ele>2012.4000244141</ele>
        <time>2016-10-30T11:33:06Z</time>
      </trkpt>
      <trkpt lat="42.51603" lon="1.98775">
        <ele>2012.4000244141</ele>
        <time>2016-10-30T11:33:11Z</time>
      </trkpt>
      <trkpt lat="42.51599" lon="1.98773">
        <ele>2012.4000244141</ele>
        <time>2016-10-30T11:33:16Z</time>
      </trkpt>
      <trkpt lat="42.51593" lon="1.98774">
        <ele>2012.4000244141</ele>
        <time>2016-10-30T11:33:23Z</time>
      </trkpt>
      <trkpt lat="42.51592" lon="1.98774">
        <ele>2012.4000244141</ele>
        <time>2016-10-30T11:33:33Z</time>
      </trkpt>
      <trkpt lat="42.51592" lon="1.98774">
        <ele>2012.4000244141</ele>
        <time>2016-10-30T11:33:46Z</time>
      </trkpt>
      <trkpt lat="42.51591" lon="1.98774">
        <ele>2012.4000244141</ele>
        <time>2016-10-30T11:33:52Z</time>
      </trkpt>
      <trkpt lat="42.51587" lon="1.98774">
        <ele>2012.4000244141</ele>
        <time>2016-10-30T11:33:55Z</time>
      </trkpt>
      <trkpt lat="42.51585" lon="1.98775">
        <ele>2012.4000244141</ele>
        <time>2016-10-30T11:33:57Z</time>
      </trkpt>
      <trkpt lat="42.51585" lon="1.98775">
        <ele>2012.8000488281</ele>
        <time>2016-10-30T11:33:58Z</time>
      </trkpt>
      <trkpt lat="42.51585" lon="1.98775">
        <ele>2013.4000244141</ele>
        <time>2016-10-30T11:33:59Z</time>
      </trkpt>
      <trkpt lat="42.51585" lon="1.98775">
        <ele>2013.8000488281</ele>
        <time>2016-10-30T11:34:00Z</time>
      </trkpt>
      <trkpt lat="42.51585" lon="1.98775">
        <ele>2014.1999511719</ele>
        <time>2016-10-30T11:34:01Z</time>
      </trkpt>
      <trkpt lat="42.51585" lon="1.98775">
        <ele>2014.5999755859</ele>
        <time>2016-10-30T11:34:02Z</time>
      </trkpt>
      <trkpt lat="42.51583" lon="1.98775">
        <ele>2014.5999755859</ele>
        <time>2016-10-30T11:34:06Z</time>
      </trkpt>
      <trkpt lat="42.51577" lon="1.98777">
        <ele>2014.5999755859</ele>
        <time>2016-10-30T11:34:11Z</time>
      </trkpt>
      <trkpt lat="42.5157" lon="1.9878">
        <ele>2014.5999755859</ele>
        <time>2016-10-30T11:34:16Z</time>
      </trkpt>
      <trkpt lat="42.51561" lon="1.98781">
        <ele>2014.5999755859</ele>
        <time>2016-10-30T11:34:22Z</time>
      </trkpt>
      <trkpt lat="42.51553" lon="1.98782">
        <ele>2014.5999755859</ele>
        <time>2016-10-30T11:34:28Z</time>
      </trkpt>
      <trkpt lat="42.51547" lon="1.98782">
        <ele>2014.5999755859</ele>
        <time>2016-10-30T11:34:33Z</time>
      </trkpt>
      <trkpt lat="42.51545" lon="1.98783">
        <ele>2014.5999755859</ele>
        <time>2016-10-30T11:34:35Z</time>
      </trkpt>
      <trkpt lat="42.51542" lon="1.98783">
        <ele>2014.5999755859</ele>
        <time>2016-10-30T11:34:37Z</time>
      </trkpt>
      <trkpt lat="42.5154" lon="1.98784">
        <ele>2014.5999755859</ele>
        <time>2016-10-30T11:34:40Z</time>
      </trkpt>
      <trkpt lat="42.51538" lon="1.98783">
        <ele>2015</ele>
        <time>2016-10-30T11:34:41Z</time>
      </trkpt>
      <trkpt lat="42.51537" lon="1.98784">
        <ele>2015.4000244141</ele>
        <time>2016-10-30T11:34:42Z</time>
      </trkpt>
      <trkpt lat="42.51535" lon="1.98785">
        <ele>2016</ele>
        <time>2016-10-30T11:34:43Z</time>
      </trkpt>
      <trkpt lat="42.51534" lon="1.98785">
        <ele>2016.8000488281</ele>
        <time>2016-10-30T11:34:44Z</time>
      </trkpt>
      <trkpt lat="42.51533" lon="1.98785">
        <ele>2016.8000488281</ele>
        <time>2016-10-30T11:34:45Z</time>
      </trkpt>
      <trkpt lat="42.51527" lon="1.98787">
        <ele>2016.8000488281</ele>
        <time>2016-10-30T11:34:51Z</time>
      </trkpt>
      <trkpt lat="42.51521" lon="1.98788">
        <ele>2016.8000488281</ele>
        <time>2016-10-30T11:34:56Z</time>
      </trkpt>
      <trkpt lat="42.51515" lon="1.98789">
        <ele>2016.8000488281</ele>
        <time>2016-10-30T11:35:01Z</time>
      </trkpt>
      <trkpt lat="42.51507" lon="1.9879">
        <ele>2016.8000488281</ele>
        <time>2016-10-30T11:35:08Z</time>
      </trkpt>
      <trkpt lat="42.51502" lon="1.98791">
        <ele>2017.1999511719</ele>
        <time>2016-10-30T11:35:12Z</time>
      </trkpt>
      <trkpt lat="42.51501" lon="1.98791">
        <ele>2017.5999755859</ele>
        <time>2016-10-30T11:35:13Z</time>
      </trkpt>
      <trkpt lat="42.51499" lon="1.98791">
        <ele>2018</ele>
        <time>2016-10-30T11:35:14Z</time>
      </trkpt>
      <trkpt lat="42.51498" lon="1.98791">
        <ele>2018.4000244141</ele>
        <time>2016-10-30T11:35:15Z</time>
      </trkpt>
      <trkpt lat="42.51497" lon="1.98792">
        <ele>2018.8000488281</ele>
        <time>2016-10-30T11:35:16Z</time>
      </trkpt>
      <trkpt lat="42.51494" lon="1.98792">
        <ele>2018.8000488281</ele>
        <time>2016-10-30T11:35:18Z</time>
      </trkpt>
      <trkpt lat="42.51488" lon="1.98792">
        <ele>2018.8000488281</ele>
        <time>2016-10-30T11:35:23Z</time>
      </trkpt>
      <trkpt lat="42.51482" lon="1.98794">
        <ele>2018.8000488281</ele>
        <time>2016-10-30T11:35:29Z</time>
      </trkpt>
      <trkpt lat="42.51474" lon="1.98794">
        <ele>2018.8000488281</ele>
        <time>2016-10-30T11:35:36Z</time>
      </trkpt>
      <trkpt lat="42.51469" lon="1.98795">
        <ele>2019.1999511719</ele>
        <time>2016-10-30T11:35:40Z</time>
      </trkpt>
      <trkpt lat="42.51468" lon="1.98795">
        <ele>2019.5999755859</ele>
        <time>2016-10-30T11:35:41Z</time>
      </trkpt>
      <trkpt lat="42.51466" lon="1.98796">
        <ele>2020</ele>
        <time>2016-10-30T11:35:42Z</time>
      </trkpt>
      <trkpt lat="42.51465" lon="1.98796">
        <ele>2020.4000244141</ele>
        <time>2016-10-30T11:35:43Z</time>
      </trkpt>
      <trkpt lat="42.51464" lon="1.98797">
        <ele>2020.8000488281</ele>
        <time>2016-10-30T11:35:44Z</time>
      </trkpt>
      <trkpt lat="42.51459" lon="1.98798">
        <ele>2020.8000488281</ele>
        <time>2016-10-30T11:35:48Z</time>
      </trkpt>
      <trkpt lat="42.51454" lon="1.988">
        <ele>2020.8000488281</ele>
        <time>2016-10-30T11:35:53Z</time>
      </trkpt>
      <trkpt lat="42.51446" lon="1.98802">
        <ele>2020.8000488281</ele>
        <time>2016-10-30T11:35:59Z</time>
      </trkpt>
      <trkpt lat="42.5144" lon="1.98804">
        <ele>2020.8000488281</ele>
        <time>2016-10-30T11:36:04Z</time>
      </trkpt>
      <trkpt lat="42.51435" lon="1.98806">
        <ele>2020.8000488281</ele>
        <time>2016-10-30T11:36:09Z</time>
      </trkpt>
      <trkpt lat="42.51432" lon="1.98807">
        <ele>2020.8000488281</ele>
        <time>2016-10-30T11:36:12Z</time>
      </trkpt>
      <trkpt lat="42.5143" lon="1.98808">
        <ele>2020.8000488281</ele>
        <time>2016-10-30T11:36:14Z</time>
      </trkpt>
      <trkpt lat="42.5143" lon="1.98808">
        <ele>2020.8000488281</ele>
        <time>2016-10-30T11:36:15Z</time>
      </trkpt>
      <trkpt lat="42.51424" lon="1.98812">
        <ele>2020.8000488281</ele>
        <time>2016-10-30T11:36:21Z</time>
      </trkpt>
      <trkpt lat="42.51421" lon="1.98814">
        <ele>2021.4000244141</ele>
        <time>2016-10-30T11:36:23Z</time>
      </trkpt>
      <trkpt lat="42.5142" lon="1.98815">
        <ele>2021.8000488281</ele>
        <time>2016-10-30T11:36:24Z</time>
      </trkpt>
      <trkpt lat="42.51418" lon="1.98816">
        <ele>2022.1999511719</ele>
        <time>2016-10-30T11:36:25Z</time>
      </trkpt>
      <trkpt lat="42.51418" lon="1.98816">
        <ele>2022.8000488281</ele>
        <time>2016-10-30T11:36:26Z</time>
      </trkpt>
      <trkpt lat="42.51417" lon="1.98816">
        <ele>2023.1999511719</ele>
        <time>2016-10-30T11:36:27Z</time>
      </trkpt>
      <trkpt lat="42.51412" lon="1.98818">
        <ele>2023.1999511719</ele>
        <time>2016-10-30T11:36:32Z</time>
      </trkpt>
      <trkpt lat="42.51407" lon="1.98821">
        <ele>2023.1999511719</ele>
        <time>2016-10-30T11:36:38Z</time>
      </trkpt>
      <trkpt lat="42.51399" lon="1.98825">
        <ele>2023.1999511719</ele>
        <time>2016-10-30T11:36:44Z</time>
      </trkpt>
      <trkpt lat="42.51396" lon="1.98827">
        <ele>2023.1999511719</ele>
        <time>2016-10-30T11:36:47Z</time>
      </trkpt>
      <trkpt lat="42.51392" lon="1.98828">
        <ele>2023.1999511719</ele>
        <time>2016-10-30T11:36:50Z</time>
      </trkpt>
      <trkpt lat="42.51388" lon="1.98829">
        <ele>2023.5999755859</ele>
        <time>2016-10-30T11:36:53Z</time>
      </trkpt>
      <trkpt lat="42.51386" lon="1.98831">
        <ele>2024</ele>
        <time>2016-10-30T11:36:54Z</time>
      </trkpt>
      <trkpt lat="42.51385" lon="1.98832">
        <ele>2024.4000244141</ele>
        <time>2016-10-30T11:36:55Z</time>
      </trkpt>
      <trkpt lat="42.51384" lon="1.98832">
        <ele>2024.8000488281</ele>
        <time>2016-10-30T11:36:56Z</time>
      </trkpt>
      <trkpt lat="42.51384" lon="1.98833">
        <ele>2025.1999511719</ele>
        <time>2016-10-30T11:36:57Z</time>
      </trkpt>
      <trkpt lat="42.51382" lon="1.98837">
        <ele>2025.1999511719</ele>
        <time>2016-10-30T11:37:00Z</time>
      </trkpt>
      <trkpt lat="42.51379" lon="1.98839">
        <ele>2025.1999511719</ele>
        <time>2016-10-30T11:37:06Z</time>
      </trkpt>
      <trkpt lat="42.51379" lon="1.98839">
        <ele>2025.1999511719</ele>
        <time>2016-10-30T11:37:14Z</time>
      </trkpt>
      <trkpt lat="42.51379" lon="1.98839">
        <ele>2025.1999511719</ele>
        <time>2016-10-30T11:37:25Z</time>
      </trkpt>
      <trkpt lat="42.51379" lon="1.9884">
        <ele>2025.1999511719</ele>
        <time>2016-10-30T11:37:37Z</time>
      </trkpt>
      <trkpt lat="42.51379" lon="1.98841">
        <ele>2025.1999511719</ele>
        <time>2016-10-30T11:37:44Z</time>
      </trkpt>
      <trkpt lat="42.51381" lon="1.98843">
        <ele>2025.1999511719</ele>
        <time>2016-10-30T11:37:46Z</time>
      </trkpt>
      <trkpt lat="42.51381" lon="1.98844">
        <ele>2025.5999755859</ele>
        <time>2016-10-30T11:37:47Z</time>
      </trkpt>
      <trkpt lat="42.51381" lon="1.98845">
        <ele>2026</ele>
        <time>2016-10-30T11:37:48Z</time>
      </trkpt>
      <trkpt lat="42.51382" lon="1.98847">
        <ele>2026.4000244141</ele>
        <time>2016-10-30T11:37:49Z</time>
      </trkpt>
      <trkpt lat="42.51383" lon="1.98848">
        <ele>2027</ele>
        <time>2016-10-30T11:37:50Z</time>
      </trkpt>
      <trkpt lat="42.51384" lon="1.98849">
        <ele>2027.4000244141</ele>
        <time>2016-10-30T11:37:51Z</time>
      </trkpt>
      <trkpt lat="42.51388" lon="1.98852">
        <ele>2027.4000244141</ele>
        <time>2016-10-30T11:37:56Z</time>
      </trkpt>
      <trkpt lat="42.51393" lon="1.98854">
        <ele>2027.4000244141</ele>
        <time>2016-10-30T11:38:00Z</time>
      </trkpt>
      <trkpt lat="42.51395" lon="1.98855">
        <ele>2027.4000244141</ele>
        <time>2016-10-30T11:38:02Z</time>
      </trkpt>
      <trkpt lat="42.51396" lon="1.98854">
        <ele>2027.4000244141</ele>
        <time>2016-10-30T11:38:03Z</time>
      </trkpt>
      <trkpt lat="42.51401" lon="1.98857">
        <ele>2027.4000244141</ele>
        <time>2016-10-30T11:38:09Z</time>
      </trkpt>
      <trkpt lat="42.51402" lon="1.9886">
        <ele>2027.8000488281</ele>
        <time>2016-10-30T11:38:11Z</time>
      </trkpt>
      <trkpt lat="42.51403" lon="1.98861">
        <ele>2028.1999511719</ele>
        <time>2016-10-30T11:38:12Z</time>
      </trkpt>
      <trkpt lat="42.51403" lon="1.98862">
        <ele>2028.5999755859</ele>
        <time>2016-10-30T11:38:13Z</time>
      </trkpt>
      <trkpt lat="42.51403" lon="1.98862">
        <ele>2029</ele>
        <time>2016-10-30T11:38:14Z</time>
      </trkpt>
      <trkpt lat="42.51404" lon="1.98864">
        <ele>2029.4000244141</ele>
        <time>2016-10-30T11:38:15Z</time>
      </trkpt>
      <trkpt lat="42.51405" lon="1.98865">
        <ele>2029.4000244141</ele>
        <time>2016-10-30T11:38:16Z</time>
      </trkpt>
      <trkpt lat="42.51412" lon="1.9887">
        <ele>2029.4000244141</ele>
        <time>2016-10-30T11:38:22Z</time>
      </trkpt>
      <trkpt lat="42.51417" lon="1.98875">
        <ele>2029.4000244141</ele>
        <time>2016-10-30T11:38:27Z</time>
      </trkpt>
      <trkpt lat="42.51423" lon="1.98881">
        <ele>2029.4000244141</ele>
        <time>2016-10-30T11:38:34Z</time>
      </trkpt>
      <trkpt lat="42.51427" lon="1.98887">
        <ele>2029.8000488281</ele>
        <time>2016-10-30T11:38:39Z</time>
      </trkpt>
      <trkpt lat="42.51427" lon="1.98887">
        <ele>2030.1999511719</ele>
        <time>2016-10-30T11:38:40Z</time>
      </trkpt>
      <trkpt lat="42.51428" lon="1.98888">
        <ele>2030.8000488281</ele>
        <time>2016-10-30T11:38:41Z</time>
      </trkpt>
      <trkpt lat="42.51429" lon="1.98888">
        <ele>2031.1999511719</ele>
        <time>2016-10-30T11:38:42Z</time>
      </trkpt>
      <trkpt lat="42.5143" lon="1.98889">
        <ele>2031.5999755859</ele>
        <time>2016-10-30T11:38:43Z</time>
      </trkpt>
      <trkpt lat="42.51435" lon="1.98893">
        <ele>2031.5999755859</ele>
        <time>2016-10-30T11:38:48Z</time>
      </trkpt>
      <trkpt lat="42.51439" lon="1.98897">
        <ele>2031.5999755859</ele>
        <time>2016-10-30T11:38:54Z</time>
      </trkpt>
      <trkpt lat="42.51443" lon="1.98902">
        <ele>2031.5999755859</ele>
        <time>2016-10-30T11:38:59Z</time>
      </trkpt>
      <trkpt lat="42.51445" lon="1.98907">
        <ele>2032</ele>
        <time>2016-10-30T11:39:03Z</time>
      </trkpt>
      <trkpt lat="42.51445" lon="1.98908">
        <ele>2032.4000244141</ele>
        <time>2016-10-30T11:39:04Z</time>
      </trkpt>
      <trkpt lat="42.51444" lon="1.9891">
        <ele>2032.8000488281</ele>
        <time>2016-10-30T11:39:05Z</time>
      </trkpt>
      <trkpt lat="42.51443" lon="1.98912">
        <ele>2033.4000244141</ele>
        <time>2016-10-30T11:39:06Z</time>
      </trkpt>
      <trkpt lat="42.51443" lon="1.98912">
        <ele>2033.8000488281</ele>
        <time>2016-10-30T11:39:07Z</time>
      </trkpt>
      <trkpt lat="42.51441" lon="1.98914">
        <ele>2033.8000488281</ele>
        <time>2016-10-30T11:39:09Z</time>
      </trkpt>
      <trkpt lat="42.5144" lon="1.98915">
        <ele>2033.8000488281</ele>
        <time>2016-10-30T11:39:10Z</time>
      </trkpt>
      <trkpt lat="42.51435" lon="1.98918">
        <ele>2033.8000488281</ele>
        <time>2016-10-30T11:39:14Z</time>
      </trkpt>
      <trkpt lat="42.51434" lon="1.98918">
        <ele>2033.8000488281</ele>
        <time>2016-10-30T11:39:15Z</time>
      </trkpt>
      <trkpt lat="42.51427" lon="1.9892">
        <ele>2033.8000488281</ele>
        <time>2016-10-30T11:39:21Z</time>
      </trkpt>
      <trkpt lat="42.51419" lon="1.98922">
        <ele>2034.1999511719</ele>
        <time>2016-10-30T11:39:28Z</time>
      </trkpt>
      <trkpt lat="42.51418" lon="1.98922">
        <ele>2034.5999755859</ele>
        <time>2016-10-30T11:39:29Z</time>
      </trkpt>
      <trkpt lat="42.51416" lon="1.98923">
        <ele>2035</ele>
        <time>2016-10-30T11:39:30Z</time>
      </trkpt>
      <trkpt lat="42.51415" lon="1.98923">
        <ele>2035.4000244141</ele>
        <time>2016-10-30T11:39:31Z</time>
      </trkpt>
      <trkpt lat="42.51413" lon="1.98923">
        <ele>2035.8000488281</ele>
        <time>2016-10-30T11:39:32Z</time>
      </trkpt>
      <trkpt lat="42.51412" lon="1.98924">
        <ele>2035.8000488281</ele>
        <time>2016-10-30T11:39:34Z</time>
      </trkpt>
      <trkpt lat="42.51406" lon="1.98926">
        <ele>2035.8000488281</ele>
        <time>2016-10-30T11:39:40Z</time>
      </trkpt>
      <trkpt lat="42.51401" lon="1.98929">
        <ele>2035.8000488281</ele>
        <time>2016-10-30T11:39:46Z</time>
      </trkpt>
      <trkpt lat="42.51396" lon="1.98931">
        <ele>2036.1999511719</ele>
        <time>2016-10-30T11:39:50Z</time>
      </trkpt>
      <trkpt lat="42.51395" lon="1.98931">
        <ele>2036.5999755859</ele>
        <time>2016-10-30T11:39:51Z</time>
      </trkpt>
      <trkpt lat="42.51393" lon="1.98932">
        <ele>2037</ele>
        <time>2016-10-30T11:39:52Z</time>
      </trkpt>
      <trkpt lat="42.51391" lon="1.98932">
        <ele>2037.4000244141</ele>
        <time>2016-10-30T11:39:53Z</time>
      </trkpt>
      <trkpt lat="42.51391" lon="1.98932">
        <ele>2038</ele>
        <time>2016-10-30T11:39:54Z</time>
      </trkpt>
      <trkpt lat="42.51387" lon="1.98934">
        <ele>2038</ele>
        <time>2016-10-30T11:39:57Z</time>
      </trkpt>
      <trkpt lat="42.51382" lon="1.98936">
        <ele>2038</ele>
        <time>2016-10-30T11:40:03Z</time>
      </trkpt>
      <trkpt lat="42.51376" lon="1.98938">
        <ele>2038</ele>
        <time>2016-10-30T11:40:08Z</time>
      </trkpt>
      <trkpt lat="42.51372" lon="1.98939">
        <ele>2038.4000244141</ele>
        <time>2016-10-30T11:40:12Z</time>
      </trkpt>
      <trkpt lat="42.51371" lon="1.98939">
        <ele>2038.8000488281</ele>
        <time>2016-10-30T11:40:13Z</time>
      </trkpt>
      <trkpt lat="42.51369" lon="1.98939">
        <ele>2039.1999511719</ele>
        <time>2016-10-30T11:40:14Z</time>
      </trkpt>
      <trkpt lat="42.51368" lon="1.98938">
        <ele>2039.5999755859</ele>
        <time>2016-10-30T11:40:15Z</time>
      </trkpt>
      <trkpt lat="42.51367" lon="1.98939">
        <ele>2040</ele>
        <time>2016-10-30T11:40:16Z</time>
      </trkpt>
      <trkpt lat="42.51361" lon="1.98941">
        <ele>2040</ele>
        <time>2016-10-30T11:40:21Z</time>
      </trkpt>
      <trkpt lat="42.51356" lon="1.98944">
        <ele>2040</ele>
        <time>2016-10-30T11:40:26Z</time>
      </trkpt>
      <trkpt lat="42.51352" lon="1.98946">
        <ele>2040.5999755859</ele>
        <time>2016-10-30T11:40:30Z</time>
      </trkpt>
      <trkpt lat="42.51351" lon="1.98947">
        <ele>2041</ele>
        <time>2016-10-30T11:40:31Z</time>
      </trkpt>
      <trkpt lat="42.5135" lon="1.98947">
        <ele>2041.4000244141</ele>
        <time>2016-10-30T11:40:32Z</time>
      </trkpt>
      <trkpt lat="42.51349" lon="1.98949">
        <ele>2041.8000488281</ele>
        <time>2016-10-30T11:40:33Z</time>
      </trkpt>
      <trkpt lat="42.51348" lon="1.98949">
        <ele>2042.1999511719</ele>
        <time>2016-10-30T11:40:34Z</time>
      </trkpt>
      <trkpt lat="42.51343" lon="1.98954">
        <ele>2042.1999511719</ele>
        <time>2016-10-30T11:40:39Z</time>
      </trkpt>
      <trkpt lat="42.5134" lon="1.98959">
        <ele>2042.1999511719</ele>
        <time>2016-10-30T11:40:44Z</time>
      </trkpt>
      <trkpt lat="42.5134" lon="1.98964">
        <ele>2042.1999511719</ele>
        <time>2016-10-30T11:40:48Z</time>
      </trkpt>
      <trkpt lat="42.51341" lon="1.98966">
        <ele>2042.5999755859</ele>
        <time>2016-10-30T11:40:50Z</time>
      </trkpt>
      <trkpt lat="42.51341" lon="1.98967">
        <ele>2043</ele>
        <time>2016-10-30T11:40:51Z</time>
      </trkpt>
      <trkpt lat="42.51341" lon="1.98969">
        <ele>2043.4000244141</ele>
        <time>2016-10-30T11:40:52Z</time>
      </trkpt>
      <trkpt lat="42.51341" lon="1.98971">
        <ele>2044</ele>
        <time>2016-10-30T11:40:53Z</time>
      </trkpt>
      <trkpt lat="42.51341" lon="1.98972">
        <ele>2044.4000244141</ele>
        <time>2016-10-30T11:40:54Z</time>
      </trkpt>
      <trkpt lat="42.51341" lon="1.98976">
        <ele>2044.4000244141</ele>
        <time>2016-10-30T11:40:56Z</time>
      </trkpt>
      <trkpt lat="42.51341" lon="1.98981">
        <ele>2044.4000244141</ele>
        <time>2016-10-30T11:41:01Z</time>
      </trkpt>
      <trkpt lat="42.51343" lon="1.98986">
        <ele>2044.8000488281</ele>
        <time>2016-10-30T11:41:05Z</time>
      </trkpt>
      <trkpt lat="42.51343" lon="1.98987">
        <ele>2045.1999511719</ele>
        <time>2016-10-30T11:41:06Z</time>
      </trkpt>
      <trkpt lat="42.51344" lon="1.98989">
        <ele>2045.5999755859</ele>
        <time>2016-10-30T11:41:07Z</time>
      </trkpt>
      <trkpt lat="42.51344" lon="1.98991">
        <ele>2046</ele>
        <time>2016-10-30T11:41:08Z</time>
      </trkpt>
      <trkpt lat="42.51345" lon="1.98992">
        <ele>2046.4000244141</ele>
        <time>2016-10-30T11:41:09Z</time>
      </trkpt>
      <trkpt lat="42.51346" lon="1.98993">
        <ele>2046.4000244141</ele>
        <time>2016-10-30T11:41:10Z</time>
      </trkpt>
      <trkpt lat="42.51349" lon="1.98998">
        <ele>2046.4000244141</ele>
        <time>2016-10-30T11:41:13Z</time>
      </trkpt>
      <trkpt lat="42.5135" lon="1.99001">
        <ele>2046.4000244141</ele>
        <time>2016-10-30T11:41:15Z</time>
      </trkpt>
      <trkpt lat="42.5135" lon="1.99002">
        <ele>2046.4000244141</ele>
        <time>2016-10-30T11:41:18Z</time>
      </trkpt>
      <trkpt lat="42.5135" lon="1.99004">
        <ele>2046.8000488281</ele>
        <time>2016-10-30T11:41:19Z</time>
      </trkpt>
      <trkpt lat="42.51349" lon="1.99005">
        <ele>2047.4000244141</ele>
        <time>2016-10-30T11:41:20Z</time>
      </trkpt>
      <trkpt lat="42.51349" lon="1.99006">
        <ele>2047.8000488281</ele>
        <time>2016-10-30T11:41:21Z</time>
      </trkpt>
      <trkpt lat="42.51349" lon="1.99007">
        <ele>2048.3999023438</ele>
        <time>2016-10-30T11:41:22Z</time>
      </trkpt>
      <trkpt lat="42.51349" lon="1.99009">
        <ele>2048.8000488281</ele>
        <time>2016-10-30T11:41:23Z</time>
      </trkpt>
      <trkpt lat="42.51349" lon="1.99017">
        <ele>2048.8000488281</ele>
        <time>2016-10-30T11:41:29Z</time>
      </trkpt>
      <trkpt lat="42.51349" lon="1.99025">
        <ele>2048.8000488281</ele>
        <time>2016-10-30T11:41:34Z</time>
      </trkpt>
      <trkpt lat="42.51346" lon="1.99031">
        <ele>2048.8000488281</ele>
        <time>2016-10-30T11:41:38Z</time>
      </trkpt>
      <trkpt lat="42.51345" lon="1.99034">
        <ele>2048.8000488281</ele>
        <time>2016-10-30T11:41:40Z</time>
      </trkpt>
      <trkpt lat="42.51346" lon="1.99037">
        <ele>2049.1999511719</ele>
        <time>2016-10-30T11:41:42Z</time>
      </trkpt>
      <trkpt lat="42.51346" lon="1.99038">
        <ele>2049.6000976562</ele>
        <time>2016-10-30T11:41:43Z</time>
      </trkpt>
      <trkpt lat="42.51346" lon="1.99039">
        <ele>2050.3999023438</ele>
        <time>2016-10-30T11:41:44Z</time>
      </trkpt>
      <trkpt lat="42.51345" lon="1.9904">
        <ele>2050.8000488281</ele>
        <time>2016-10-30T11:41:45Z</time>
      </trkpt>
      <trkpt lat="42.51345" lon="1.99046">
        <ele>2050.8000488281</ele>
        <time>2016-10-30T11:41:51Z</time>
      </trkpt>
      <trkpt lat="42.51342" lon="1.99052">
        <ele>2051.1999511719</ele>
        <time>2016-10-30T11:41:56Z</time>
      </trkpt>
      <trkpt lat="42.51342" lon="1.99053">
        <ele>2051.6000976562</ele>
        <time>2016-10-30T11:41:57Z</time>
      </trkpt>
      <trkpt lat="42.51342" lon="1.99054">
        <ele>2052</ele>
        <time>2016-10-30T11:41:58Z</time>
      </trkpt>
      <trkpt lat="42.51341" lon="1.99056">
        <ele>2052.3999023438</ele>
        <time>2016-10-30T11:41:59Z</time>
      </trkpt>
      <trkpt lat="42.5134" lon="1.99057">
        <ele>2052.8000488281</ele>
        <time>2016-10-30T11:42:00Z</time>
      </trkpt>
      <trkpt lat="42.51338" lon="1.99058">
        <ele>2052.8000488281</ele>
        <time>2016-10-30T11:42:02Z</time>
      </trkpt>
      <trkpt lat="42.51332" lon="1.99058">
        <ele>2052.8000488281</ele>
        <time>2016-10-30T11:42:08Z</time>
      </trkpt>
      <trkpt lat="42.51327" lon="1.99059">
        <ele>2053.3999023438</ele>
        <time>2016-10-30T11:42:14Z</time>
      </trkpt>
      <trkpt lat="42.51327" lon="1.9906">
        <ele>2053.8000488281</ele>
        <time>2016-10-30T11:42:15Z</time>
      </trkpt>
      <trkpt lat="42.51326" lon="1.9906">
        <ele>2054.1999511719</ele>
        <time>2016-10-30T11:42:16Z</time>
      </trkpt>
      <trkpt lat="42.51326" lon="1.9906">
        <ele>2054.6000976562</ele>
        <time>2016-10-30T11:42:17Z</time>
      </trkpt>
      <trkpt lat="42.51325" lon="1.9906">
        <ele>2055.1999511719</ele>
        <time>2016-10-30T11:42:18Z</time>
      </trkpt>
      <trkpt lat="42.51323" lon="1.9906">
        <ele>2055.6000976562</ele>
        <time>2016-10-30T11:42:21Z</time>
      </trkpt>
      <trkpt lat="42.51323" lon="1.9906">
        <ele>2056</ele>
        <time>2016-10-30T11:42:22Z</time>
      </trkpt>
      <trkpt lat="42.51323" lon="1.9906">
        <ele>2056.3999023438</ele>
        <time>2016-10-30T11:42:23Z</time>
      </trkpt>
      <trkpt lat="42.51323" lon="1.99061">
        <ele>2056.8000488281</ele>
        <time>2016-10-30T11:42:24Z</time>
      </trkpt>
      <trkpt lat="42.51323" lon="1.99061">
        <ele>2057.3999023438</ele>
        <time>2016-10-30T11:42:25Z</time>
      </trkpt>
      <trkpt lat="42.51323" lon="1.99061">
        <ele>2057.3999023438</ele>
        <time>2016-10-30T11:42:30Z</time>
      </trkpt>
      <trkpt lat="42.51323" lon="1.99063">
        <ele>2057.3999023438</ele>
        <time>2016-10-30T11:42:37Z</time>
      </trkpt>
      <trkpt lat="42.5132" lon="1.99069">
        <ele>2057.3999023438</ele>
        <time>2016-10-30T11:42:42Z</time>
      </trkpt>
      <trkpt lat="42.51317" lon="1.99072">
        <ele>2057.3999023438</ele>
        <time>2016-10-30T11:42:48Z</time>
      </trkpt>
      <trkpt lat="42.51315" lon="1.99072">
        <ele>2057.3999023438</ele>
        <time>2016-10-30T11:42:54Z</time>
      </trkpt>
      <trkpt lat="42.51315" lon="1.99072">
        <ele>2057.3999023438</ele>
        <time>2016-10-30T11:43:03Z</time>
      </trkpt>
      <trkpt lat="42.51314" lon="1.99072">
        <ele>2057.3999023438</ele>
        <time>2016-10-30T11:43:10Z</time>
      </trkpt>
      <trkpt lat="42.51314" lon="1.99071">
        <ele>2057.3999023438</ele>
        <time>2016-10-30T11:43:16Z</time>
      </trkpt>
      <trkpt lat="42.51314" lon="1.99071">
        <ele>2057.3999023438</ele>
        <time>2016-10-30T11:43:24Z</time>
      </trkpt>
      <trkpt lat="42.51314" lon="1.99071">
        <ele>2057.3999023438</ele>
        <time>2016-10-30T11:43:39Z</time>
      </trkpt>
      <trkpt lat="42.51314" lon="1.99071">
        <ele>2057.3999023438</ele>
        <time>2016-10-30T11:43:53Z</time>
      </trkpt>
      <trkpt lat="42.51314" lon="1.99071">
        <ele>2057.3999023438</ele>
        <time>2016-10-30T11:44:04Z</time>
      </trkpt>
      <trkpt lat="42.51314" lon="1.99071">
        <ele>2056.3999023438</ele>
        <time>2016-10-30T11:44:12Z</time>
      </trkpt>
      <trkpt lat="42.51314" lon="1.99071">
        <ele>2056</ele>
        <time>2016-10-30T11:44:13Z</time>
      </trkpt>
      <trkpt lat="42.51314" lon="1.99071">
        <ele>2055.6000976562</ele>
        <time>2016-10-30T11:44:14Z</time>
      </trkpt>
      <trkpt lat="42.51314" lon="1.99071">
        <ele>2055.1999511719</ele>
        <time>2016-10-30T11:44:15Z</time>
      </trkpt>
      <trkpt lat="42.51314" lon="1.99071">
        <ele>2055.1999511719</ele>
        <time>2016-10-30T11:44:27Z</time>
      </trkpt>
      <trkpt lat="42.51314" lon="1.99071">
        <ele>2055.1999511719</ele>
        <time>2016-10-30T11:44:39Z</time>
      </trkpt>
      <trkpt lat="42.51314" lon="1.99071">
        <ele>2055.1999511719</ele>
        <time>2016-10-30T11:44:52Z</time>
      </trkpt>
      <trkpt lat="42.51314" lon="1.99071">
        <ele>2055.1999511719</ele>
        <time>2016-10-30T11:45:03Z</time>
      </trkpt>
      <trkpt lat="42.51313" lon="1.99071">
        <ele>2055.1999511719</ele>
        <time>2016-10-30T11:45:08Z</time>
      </trkpt>
      <trkpt lat="42.51313" lon="1.99069">
        <ele>2055.1999511719</ele>
        <time>2016-10-30T11:45:13Z</time>
      </trkpt>
      <trkpt lat="42.51313" lon="1.99068">
        <ele>2055.1999511719</ele>
        <time>2016-10-30T11:45:20Z</time>
      </trkpt>
      <trkpt lat="42.51314" lon="1.99066">
        <ele>2055.1999511719</ele>
        <time>2016-10-30T11:45:27Z</time>
      </trkpt>
      <trkpt lat="42.51314" lon="1.99066">
        <ele>2055.1999511719</ele>
        <time>2016-10-30T11:45:39Z</time>
      </trkpt>
      <trkpt lat="42.51314" lon="1.99066">
        <ele>2055.1999511719</ele>
        <time>2016-10-30T11:45:48Z</time>
      </trkpt>
      <trkpt lat="42.51314" lon="1.99066">
        <ele>2054</ele>
        <time>2016-10-30T11:45:51Z</time>
      </trkpt>
      <trkpt lat="42.51314" lon="1.99066">
        <ele>2053.8000488281</ele>
        <time>2016-10-30T11:45:52Z</time>
      </trkpt>
      <trkpt lat="42.51313" lon="1.99066">
        <ele>2054.6000976562</ele>
        <time>2016-10-30T11:45:53Z</time>
      </trkpt>
      <trkpt lat="42.51313" lon="1.99066">
        <ele>2055.1999511719</ele>
        <time>2016-10-30T11:45:54Z</time>
      </trkpt>
      <trkpt lat="42.51313" lon="1.99066">
        <ele>2056</ele>
        <time>2016-10-30T11:45:55Z</time>
      </trkpt>
      <trkpt lat="42.51313" lon="1.99066">
        <ele>2056.6000976562</ele>
        <time>2016-10-30T11:45:56Z</time>
      </trkpt>
      <trkpt lat="42.51313" lon="1.99066">
        <ele>2056.3999023438</ele>
        <time>2016-10-30T11:45:57Z</time>
      </trkpt>
      <trkpt lat="42.51313" lon="1.99066">
        <ele>2056</ele>
        <time>2016-10-30T11:45:58Z</time>
      </trkpt>
      <trkpt lat="42.51313" lon="1.99066">
        <ele>2055.8000488281</ele>
        <time>2016-10-30T11:45:59Z</time>
      </trkpt>
      <trkpt lat="42.51313" lon="1.99066">
        <ele>2055.6000976562</ele>
        <time>2016-10-30T11:46:00Z</time>
      </trkpt>
      <trkpt lat="42.51314" lon="1.99066">
        <ele>2055.1999511719</ele>
        <time>2016-10-30T11:46:01Z</time>
      </trkpt>
      <trkpt lat="42.51316" lon="1.99065">
        <ele>2055.1999511719</ele>
        <time>2016-10-30T11:46:07Z</time>
      </trkpt>
      <trkpt lat="42.51315" lon="1.99065">
        <ele>2055.1999511719</ele>
        <time>2016-10-30T11:46:16Z</time>
      </trkpt>
      <trkpt lat="42.51315" lon="1.99065">
        <ele>2055.1999511719</ele>
        <time>2016-10-30T11:46:27Z</time>
      </trkpt>
      <trkpt lat="42.51315" lon="1.99065">
        <ele>2055.1999511719</ele>
        <time>2016-10-30T11:46:40Z</time>
      </trkpt>
      <trkpt lat="42.51315" lon="1.99065">
        <ele>2055.1999511719</ele>
        <time>2016-10-30T11:46:51Z</time>
      </trkpt>
      <trkpt lat="42.51315" lon="1.99065">
        <ele>2055.1999511719</ele>
        <time>2016-10-30T11:47:06Z</time>
      </trkpt>
      <trkpt lat="42.51315" lon="1.99065">
        <ele>2055.1999511719</ele>
        <time>2016-10-30T11:47:19Z</time>
      </trkpt>
      <trkpt lat="42.51315" lon="1.99065">
        <ele>2055.1999511719</ele>
        <time>2016-10-30T11:47:33Z</time>
      </trkpt>
      <trkpt lat="42.51315" lon="1.99065">
        <ele>2055.1999511719</ele>
        <time>2016-10-30T11:47:42Z</time>
      </trkpt>
      <trkpt lat="42.51315" lon="1.99065">
        <ele>2055.1999511719</ele>
        <time>2016-10-30T11:47:55Z</time>
      </trkpt>
      <trkpt lat="42.51314" lon="1.99064">
        <ele>2055.1999511719</ele>
        <time>2016-10-30T11:48:05Z</time>
      </trkpt>
      <trkpt lat="42.51314" lon="1.99064">
        <ele>2055.1999511719</ele>
        <time>2016-10-30T11:48:16Z</time>
      </trkpt>
      <trkpt lat="42.51314" lon="1.99064">
        <ele>2055.1999511719</ele>
        <time>2016-10-30T11:48:30Z</time>
      </trkpt>
      <trkpt lat="42.51314" lon="1.99064">
        <ele>2055.1999511719</ele>
        <time>2016-10-30T11:48:45Z</time>
      </trkpt>
      <trkpt lat="42.51314" lon="1.99064">
        <ele>2055.1999511719</ele>
        <time>2016-10-30T11:48:59Z</time>
      </trkpt>
      <trkpt lat="42.51314" lon="1.99064">
        <ele>2055.1999511719</ele>
        <time>2016-10-30T11:49:12Z</time>
      </trkpt>
      <trkpt lat="42.51314" lon="1.99064">
        <ele>2055.1999511719</ele>
        <time>2016-10-30T11:49:24Z</time>
      </trkpt>
      <trkpt lat="42.51314" lon="1.99064">
        <ele>2054.6000976562</ele>
        <time>2016-10-30T11:49:27Z</time>
      </trkpt>
      <trkpt lat="42.51314" lon="1.99064">
        <ele>2053.8000488281</ele>
        <time>2016-10-30T11:49:28Z</time>
      </trkpt>
      <trkpt lat="42.51314" lon="1.99064">
        <ele>2053</ele>
        <time>2016-10-30T11:49:29Z</time>
      </trkpt>
      <trkpt lat="42.51314" lon="1.99064">
        <ele>2053.6000976562</ele>
        <time>2016-10-30T11:49:30Z</time>
      </trkpt>
      <trkpt lat="42.51313" lon="1.99064">
        <ele>2054.8000488281</ele>
        <time>2016-10-30T11:49:31Z</time>
      </trkpt>
      <trkpt lat="42.51313" lon="1.99064">
        <ele>2056</ele>
        <time>2016-10-30T11:49:32Z</time>
      </trkpt>
      <trkpt lat="42.51313" lon="1.99064">
        <ele>2056</ele>
        <time>2016-10-30T11:49:33Z</time>
      </trkpt>
      <trkpt lat="42.51313" lon="1.99064">
        <ele>2056.1999511719</ele>
        <time>2016-10-30T11:49:34Z</time>
      </trkpt>
      <trkpt lat="42.51313" lon="1.99064">
        <ele>2056.3999023438</ele>
        <time>2016-10-30T11:49:35Z</time>
      </trkpt>
      <trkpt lat="42.51313" lon="1.99064">
        <ele>2056.6000976562</ele>
        <time>2016-10-30T11:49:36Z</time>
      </trkpt>
      <trkpt lat="42.51313" lon="1.99064">
        <ele>2056.6000976562</ele>
        <time>2016-10-30T11:49:40Z</time>
      </trkpt>
      <trkpt lat="42.51313" lon="1.99064">
        <ele>2056.1999511719</ele>
        <time>2016-10-30T11:49:50Z</time>
      </trkpt>
      <trkpt lat="42.51313" lon="1.99064">
        <ele>2055.6000976562</ele>
        <time>2016-10-30T11:49:51Z</time>
      </trkpt>
      <trkpt lat="42.51313" lon="1.99064">
        <ele>2055</ele>
        <time>2016-10-30T11:49:52Z</time>
      </trkpt>
      <trkpt lat="42.51313" lon="1.99064">
        <ele>2054.3999023438</ele>
        <time>2016-10-30T11:49:53Z</time>
      </trkpt>
      <trkpt lat="42.51313" lon="1.99064">
        <ele>2054</ele>
        <time>2016-10-30T11:49:54Z</time>
      </trkpt>
      <trkpt lat="42.51313" lon="1.99064">
        <ele>2054.3999023438</ele>
        <time>2016-10-30T11:49:57Z</time>
      </trkpt>
      <trkpt lat="42.51313" lon="1.99064">
        <ele>2055</ele>
        <time>2016-10-30T11:49:58Z</time>
      </trkpt>
      <trkpt lat="42.51313" lon="1.99064">
        <ele>2055.6000976562</ele>
        <time>2016-10-30T11:49:59Z</time>
      </trkpt>
      <trkpt lat="42.51313" lon="1.99064">
        <ele>2056.6000976562</ele>
        <time>2016-10-30T11:50:00Z</time>
      </trkpt>
      <trkpt lat="42.51313" lon="1.99064">
        <ele>2056.6000976562</ele>
        <time>2016-10-30T11:50:06Z</time>
      </trkpt>
      <trkpt lat="42.51313" lon="1.99064">
        <ele>2055.8000488281</ele>
        <time>2016-10-30T11:50:09Z</time>
      </trkpt>
      <trkpt lat="42.51313" lon="1.99064">
        <ele>2055.1999511719</ele>
        <time>2016-10-30T11:50:10Z</time>
      </trkpt>
      <trkpt lat="42.51313" lon="1.99064">
        <ele>2054.3999023438</ele>
        <time>2016-10-30T11:50:11Z</time>
      </trkpt>
      <trkpt lat="42.51313" lon="1.99064">
        <ele>2054.6000976562</ele>
        <time>2016-10-30T11:50:12Z</time>
      </trkpt>
      <trkpt lat="42.51313" lon="1.99064">
        <ele>2054.6000976562</ele>
        <time>2016-10-30T11:50:13Z</time>
      </trkpt>
      <trkpt lat="42.51313" lon="1.99064">
        <ele>2054.3999023438</ele>
        <time>2016-10-30T11:50:14Z</time>
      </trkpt>
      <trkpt lat="42.51313" lon="1.99064">
        <ele>2054.3999023438</ele>
        <time>2016-10-30T11:50:15Z</time>
      </trkpt>
      <trkpt lat="42.51313" lon="1.99064">
        <ele>2054.6000976562</ele>
        <time>2016-10-30T11:50:16Z</time>
      </trkpt>
      <trkpt lat="42.51313" lon="1.99064">
        <ele>2054.8000488281</ele>
        <time>2016-10-30T11:50:17Z</time>
      </trkpt>
      <trkpt lat="42.51313" lon="1.99064">
        <ele>2055</ele>
        <time>2016-10-30T11:50:18Z</time>
      </trkpt>
      <trkpt lat="42.51313" lon="1.99064">
        <ele>2054.3999023438</ele>
        <time>2016-10-30T11:50:19Z</time>
      </trkpt>
      <trkpt lat="42.51313" lon="1.99064">
        <ele>2053.6000976562</ele>
        <time>2016-10-30T11:50:20Z</time>
      </trkpt>
      <trkpt lat="42.51313" lon="1.99064">
        <ele>2053</ele>
        <time>2016-10-30T11:50:21Z</time>
      </trkpt>
      <trkpt lat="42.51313" lon="1.99064">
        <ele>2054</ele>
        <time>2016-10-30T11:50:22Z</time>
      </trkpt>
      <trkpt lat="42.51313" lon="1.99064">
        <ele>2055</ele>
        <time>2016-10-30T11:50:23Z</time>
      </trkpt>
      <trkpt lat="42.51313" lon="1.99064">
        <ele>2056</ele>
        <time>2016-10-30T11:50:24Z</time>
      </trkpt>
      <trkpt lat="42.51313" lon="1.99064">
        <ele>2055.3999023438</ele>
        <time>2016-10-30T11:50:25Z</time>
      </trkpt>
      <trkpt lat="42.51313" lon="1.99064">
        <ele>2054.3999023438</ele>
        <time>2016-10-30T11:50:26Z</time>
      </trkpt>
      <trkpt lat="42.51313" lon="1.99064">
        <ele>2053.3999023438</ele>
        <time>2016-10-30T11:50:27Z</time>
      </trkpt>
      <trkpt lat="42.51313" lon="1.99065">
        <ele>2053.8000488281</ele>
        <time>2016-10-30T11:50:28Z</time>
      </trkpt>
      <trkpt lat="42.51313" lon="1.99065">
        <ele>2056.6000976562</ele>
        <time>2016-10-30T11:50:29Z</time>
      </trkpt>
      <trkpt lat="42.51313" lon="1.99065">
        <ele>2058</ele>
        <time>2016-10-30T11:50:30Z</time>
      </trkpt>
      <trkpt lat="42.51313" lon="1.99065">
        <ele>2057.3999023438</ele>
        <time>2016-10-30T11:50:31Z</time>
      </trkpt>
      <trkpt lat="42.51313" lon="1.99065">
        <ele>2057</ele>
        <time>2016-10-30T11:50:32Z</time>
      </trkpt>
      <trkpt lat="42.51313" lon="1.99065">
        <ele>2056.6000976562</ele>
        <time>2016-10-30T11:50:33Z</time>
      </trkpt>
      <trkpt lat="42.51313" lon="1.99065">
        <ele>2056.1999511719</ele>
        <time>2016-10-30T11:50:34Z</time>
      </trkpt>
      <trkpt lat="42.51313" lon="1.99065">
        <ele>2055.6000976562</ele>
        <time>2016-10-30T11:50:35Z</time>
      </trkpt>
      <trkpt lat="42.51313" lon="1.99065">
        <ele>2055.6000976562</ele>
        <time>2016-10-30T11:50:45Z</time>
      </trkpt>
      <trkpt lat="42.51313" lon="1.99065">
        <ele>2055.6000976562</ele>
        <time>2016-10-30T11:50:59Z</time>
      </trkpt>
      <trkpt lat="42.51313" lon="1.99065">
        <ele>2055.6000976562</ele>
        <time>2016-10-30T11:51:12Z</time>
      </trkpt>
      <trkpt lat="42.51313" lon="1.99065">
        <ele>2055.1999511719</ele>
        <time>2016-10-30T11:51:17Z</time>
      </trkpt>
      <trkpt lat="42.51313" lon="1.99065">
        <ele>2054.6000976562</ele>
        <time>2016-10-30T11:51:18Z</time>
      </trkpt>
      <trkpt lat="42.51313" lon="1.99065">
        <ele>2054.6000976562</ele>
        <time>2016-10-30T11:51:19Z</time>
      </trkpt>
      <trkpt lat="42.51313" lon="1.99065">
        <ele>2055.1999511719</ele>
        <time>2016-10-30T11:51:20Z</time>
      </trkpt>
      <trkpt lat="42.51313" lon="1.99065">
        <ele>2055.6000976562</ele>
        <time>2016-10-30T11:51:21Z</time>
      </trkpt>
      <trkpt lat="42.51313" lon="1.99065">
        <ele>2056</ele>
        <time>2016-10-30T11:51:22Z</time>
      </trkpt>
      <trkpt lat="42.51313" lon="1.99065">
        <ele>2055.6000976562</ele>
        <time>2016-10-30T11:51:23Z</time>
      </trkpt>
      <trkpt lat="42.51313" lon="1.99065">
        <ele>2055.1999511719</ele>
        <time>2016-10-30T11:51:24Z</time>
      </trkpt>
      <trkpt lat="42.51313" lon="1.99065">
        <ele>2054.8000488281</ele>
        <time>2016-10-30T11:51:25Z</time>
      </trkpt>
      <trkpt lat="42.51313" lon="1.99065">
        <ele>2055.1999511719</ele>
        <time>2016-10-30T11:51:26Z</time>
      </trkpt>
      <trkpt lat="42.51313" lon="1.99065">
        <ele>2055.3999023438</ele>
        <time>2016-10-30T11:51:27Z</time>
      </trkpt>
      <trkpt lat="42.51313" lon="1.99065">
        <ele>2055.8000488281</ele>
        <time>2016-10-30T11:51:28Z</time>
      </trkpt>
      <trkpt lat="42.51313" lon="1.99065">
        <ele>2056</ele>
        <time>2016-10-30T11:51:29Z</time>
      </trkpt>
      <trkpt lat="42.51313" lon="1.99065">
        <ele>2056.3999023438</ele>
        <time>2016-10-30T11:51:30Z</time>
      </trkpt>
      <trkpt lat="42.51313" lon="1.99065">
        <ele>2056.3999023438</ele>
        <time>2016-10-30T11:51:32Z</time>
      </trkpt>
      <trkpt lat="42.51313" lon="1.99065">
        <ele>2056</ele>
        <time>2016-10-30T11:51:33Z</time>
      </trkpt>
      <trkpt lat="42.51313" lon="1.99065">
        <ele>2055.3999023438</ele>
        <time>2016-10-30T11:51:34Z</time>
      </trkpt>
      <trkpt lat="42.51313" lon="1.99065">
        <ele>2055</ele>
        <time>2016-10-30T11:51:35Z</time>
      </trkpt>
      <trkpt lat="42.51313" lon="1.99065">
        <ele>2054.6000976562</ele>
        <time>2016-10-30T11:51:36Z</time>
      </trkpt>
      <trkpt lat="42.51313" lon="1.99065">
        <ele>2054.1999511719</ele>
        <time>2016-10-30T11:51:37Z</time>
      </trkpt>
      <trkpt lat="42.51313" lon="1.99065">
        <ele>2054.1999511719</ele>
        <time>2016-10-30T11:51:45Z</time>
      </trkpt>
      <trkpt lat="42.51313" lon="1.99064">
        <ele>2054.1999511719</ele>
        <time>2016-10-30T11:51:56Z</time>
      </trkpt>
      <trkpt lat="42.51313" lon="1.99064">
        <ele>2054.1999511719</ele>
        <time>2016-10-30T11:52:06Z</time>
      </trkpt>
      <trkpt lat="42.51313" lon="1.99064">
        <ele>2054.1999511719</ele>
        <time>2016-10-30T11:52:13Z</time>
      </trkpt>
      <trkpt lat="42.51313" lon="1.99064">
        <ele>2054.1999511719</ele>
        <time>2016-10-30T11:52:15Z</time>
      </trkpt>
      <trkpt lat="42.51312" lon="1.99064">
        <ele>2054.1999511719</ele>
        <time>2016-10-30T11:52:24Z</time>
      </trkpt>
      <trkpt lat="42.51312" lon="1.99064">
        <ele>2054.1999511719</ele>
        <time>2016-10-30T11:52:36Z</time>
      </trkpt>
      <trkpt lat="42.51312" lon="1.99064">
        <ele>2054.1999511719</ele>
        <time>2016-10-30T11:52:50Z</time>
      </trkpt>
      <trkpt lat="42.51312" lon="1.99064">
        <ele>2054.1999511719</ele>
        <time>2016-10-30T11:53:04Z</time>
      </trkpt>
      <trkpt lat="42.51312" lon="1.99064">
        <ele>2054.1999511719</ele>
        <time>2016-10-30T11:53:17Z</time>
      </trkpt>
      <trkpt lat="42.51312" lon="1.99064">
        <ele>2054.1999511719</ele>
        <time>2016-10-30T11:53:32Z</time>
      </trkpt>
      <trkpt lat="42.51312" lon="1.99064">
        <ele>2054.1999511719</ele>
        <time>2016-10-30T11:53:46Z</time>
      </trkpt>
      <trkpt lat="42.51312" lon="1.99064">
        <ele>2054.1999511719</ele>
        <time>2016-10-30T11:54:00Z</time>
      </trkpt>
      <trkpt lat="42.51312" lon="1.99064">
        <ele>2054.1999511719</ele>
        <time>2016-10-30T11:54:11Z</time>
      </trkpt>
      <trkpt lat="42.51313" lon="1.99064">
        <ele>2054.1999511719</ele>
        <time>2016-10-30T11:54:27Z</time>
      </trkpt>
      <trkpt lat="42.51313" lon="1.99064">
        <ele>2054.1999511719</ele>
        <time>2016-10-30T11:54:37Z</time>
      </trkpt>
      <trkpt lat="42.51313" lon="1.99064">
        <ele>2054.1999511719</ele>
        <time>2016-10-30T11:54:54Z</time>
      </trkpt>
      <trkpt lat="42.51312" lon="1.99064">
        <ele>2054.1999511719</ele>
        <time>2016-10-30T11:55:07Z</time>
      </trkpt>
      <trkpt lat="42.51312" lon="1.99064">
        <ele>2054.1999511719</ele>
        <time>2016-10-30T11:55:21Z</time>
      </trkpt>
      <trkpt lat="42.51312" lon="1.99064">
        <ele>2054.1999511719</ele>
        <time>2016-10-30T11:55:34Z</time>
      </trkpt>
      <trkpt lat="42.51313" lon="1.99064">
        <ele>2054.1999511719</ele>
        <time>2016-10-30T11:55:46Z</time>
      </trkpt>
      <trkpt lat="42.51313" lon="1.99064">
        <ele>2054.1999511719</ele>
        <time>2016-10-30T11:55:58Z</time>
      </trkpt>
      <trkpt lat="42.51313" lon="1.99064">
        <ele>2054.1999511719</ele>
        <time>2016-10-30T11:56:10Z</time>
      </trkpt>
      <trkpt lat="42.51312" lon="1.99064">
        <ele>2054.1999511719</ele>
        <time>2016-10-30T11:56:25Z</time>
      </trkpt>
      <trkpt lat="42.51312" lon="1.99064">
        <ele>2054.1999511719</ele>
        <time>2016-10-30T11:56:32Z</time>
      </trkpt>
      <trkpt lat="42.51312" lon="1.99064">
        <ele>2054.1999511719</ele>
        <time>2016-10-30T11:56:39Z</time>
      </trkpt>
      <trkpt lat="42.51312" lon="1.99064">
        <ele>2054.1999511719</ele>
        <time>2016-10-30T11:56:52Z</time>
      </trkpt>
      <trkpt lat="42.51312" lon="1.99064">
        <ele>2054.1999511719</ele>
        <time>2016-10-30T11:57:05Z</time>
      </trkpt>
      <trkpt lat="42.51312" lon="1.99064">
        <ele>2054.1999511719</ele>
        <time>2016-10-30T11:57:17Z</time>
      </trkpt>
      <trkpt lat="42.51312" lon="1.99064">
        <ele>2054.1999511719</ele>
        <time>2016-10-30T11:57:30Z</time>
      </trkpt>
      <trkpt lat="42.51312" lon="1.99064">
        <ele>2054.1999511719</ele>
        <time>2016-10-30T11:57:43Z</time>
      </trkpt>
      <trkpt lat="42.51312" lon="1.99064">
        <ele>2054.1999511719</ele>
        <time>2016-10-30T11:58:00Z</time>
      </trkpt>
      <trkpt lat="42.51312" lon="1.99064">
        <ele>2054.1999511719</ele>
        <time>2016-10-30T11:58:16Z</time>
      </trkpt>
      <trkpt lat="42.51313" lon="1.99063">
        <ele>2054.1999511719</ele>
        <time>2016-10-30T11:58:19Z</time>
      </trkpt>
      <trkpt lat="42.51313" lon="1.99063">
        <ele>2054.1999511719</ele>
        <time>2016-10-30T11:58:35Z</time>
      </trkpt>
      <trkpt lat="42.51313" lon="1.99063">
        <ele>2054.1999511719</ele>
        <time>2016-10-30T11:58:44Z</time>
      </trkpt>
      <trkpt lat="42.51313" lon="1.99063">
        <ele>2054.1999511719</ele>
        <time>2016-10-30T11:58:56Z</time>
      </trkpt>
      <trkpt lat="42.51314" lon="1.9906">
        <ele>2054.1999511719</ele>
        <time>2016-10-30T11:59:09Z</time>
      </trkpt>
      <trkpt lat="42.51314" lon="1.9906">
        <ele>2054.1999511719</ele>
        <time>2016-10-30T11:59:20Z</time>
      </trkpt>
      <trkpt lat="42.51314" lon="1.9906">
        <ele>2054.1999511719</ele>
        <time>2016-10-30T11:59:33Z</time>
      </trkpt>
      <trkpt lat="42.51314" lon="1.99059">
        <ele>2054.1999511719</ele>
        <time>2016-10-30T11:59:46Z</time>
      </trkpt>
      <trkpt lat="42.51314" lon="1.99059">
        <ele>2054.1999511719</ele>
        <time>2016-10-30T11:59:56Z</time>
      </trkpt>
      <trkpt lat="42.51314" lon="1.99059">
        <ele>2054.1999511719</ele>
        <time>2016-10-30T12:00:09Z</time>
      </trkpt>
      <trkpt lat="42.51315" lon="1.99058">
        <ele>2054.1999511719</ele>
        <time>2016-10-30T12:00:22Z</time>
      </trkpt>
      <trkpt lat="42.51315" lon="1.99058">
        <ele>2054.1999511719</ele>
        <time>2016-10-30T12:00:36Z</time>
      </trkpt>
      <trkpt lat="42.51315" lon="1.99058">
        <ele>2054.1999511719</ele>
        <time>2016-10-30T12:00:52Z</time>
      </trkpt>
      <trkpt lat="42.51315" lon="1.99058">
        <ele>2054.1999511719</ele>
        <time>2016-10-30T12:01:04Z</time>
      </trkpt>
      <trkpt lat="42.51315" lon="1.99058">
        <ele>2054.1999511719</ele>
        <time>2016-10-30T12:01:17Z</time>
      </trkpt>
      <trkpt lat="42.51315" lon="1.99058">
        <ele>2054.1999511719</ele>
        <time>2016-10-30T12:01:30Z</time>
      </trkpt>
      <trkpt lat="42.51315" lon="1.99058">
        <ele>2054.1999511719</ele>
        <time>2016-10-30T12:01:46Z</time>
      </trkpt>
      <trkpt lat="42.51315" lon="1.99058">
        <ele>2054.1999511719</ele>
        <time>2016-10-30T12:01:57Z</time>
      </trkpt>
      <trkpt lat="42.51315" lon="1.99058">
        <ele>2054.1999511719</ele>
        <time>2016-10-30T12:02:07Z</time>
      </trkpt>
      <trkpt lat="42.51315" lon="1.99057">
        <ele>2054.1999511719</ele>
        <time>2016-10-30T12:02:12Z</time>
      </trkpt>
      <trkpt lat="42.51315" lon="1.99057">
        <ele>2054.1999511719</ele>
        <time>2016-10-30T12:02:23Z</time>
      </trkpt>
      <trkpt lat="42.51315" lon="1.99057">
        <ele>2054.1999511719</ele>
        <time>2016-10-30T12:02:34Z</time>
      </trkpt>
      <trkpt lat="42.51315" lon="1.99058">
        <ele>2054.1999511719</ele>
        <time>2016-10-30T12:02:52Z</time>
      </trkpt>
      <trkpt lat="42.51315" lon="1.99058">
        <ele>2054.1999511719</ele>
        <time>2016-10-30T12:03:07Z</time>
      </trkpt>
      <trkpt lat="42.51315" lon="1.99058">
        <ele>2054.1999511719</ele>
        <time>2016-10-30T12:03:26Z</time>
      </trkpt>
      <trkpt lat="42.51315" lon="1.99057">
        <ele>2054.1999511719</ele>
        <time>2016-10-30T12:03:41Z</time>
      </trkpt>
      <trkpt lat="42.51315" lon="1.99057">
        <ele>2054.1999511719</ele>
        <time>2016-10-30T12:03:55Z</time>
      </trkpt>
      <trkpt lat="42.51315" lon="1.99057">
        <ele>2054.1999511719</ele>
        <time>2016-10-30T12:04:07Z</time>
      </trkpt>
      <trkpt lat="42.51315" lon="1.99057">
        <ele>2054.1999511719</ele>
        <time>2016-10-30T12:04:22Z</time>
      </trkpt>
      <trkpt lat="42.51315" lon="1.99057">
        <ele>2054.1999511719</ele>
        <time>2016-10-30T12:04:38Z</time>
      </trkpt>
      <trkpt lat="42.51315" lon="1.99057">
        <ele>2054.1999511719</ele>
        <time>2016-10-30T12:04:53Z</time>
      </trkpt>
      <trkpt lat="42.51315" lon="1.99057">
        <ele>2054.1999511719</ele>
        <time>2016-10-30T12:05:11Z</time>
      </trkpt>
      <trkpt lat="42.51315" lon="1.99057">
        <ele>2054.1999511719</ele>
        <time>2016-10-30T12:05:28Z</time>
      </trkpt>
      <trkpt lat="42.51315" lon="1.99057">
        <ele>2054.1999511719</ele>
        <time>2016-10-30T12:05:43Z</time>
      </trkpt>
      <trkpt lat="42.51316" lon="1.99058">
        <ele>2054.1999511719</ele>
        <time>2016-10-30T12:05:59Z</time>
      </trkpt>
      <trkpt lat="42.51316" lon="1.99058">
        <ele>2054.1999511719</ele>
        <time>2016-10-30T12:06:06Z</time>
      </trkpt>
      <trkpt lat="42.51316" lon="1.99059">
        <ele>2053.6000976562</ele>
        <time>2016-10-30T12:06:09Z</time>
      </trkpt>
      <trkpt lat="42.51316" lon="1.99059">
        <ele>2053.6000976562</ele>
        <time>2016-10-30T12:06:10Z</time>
      </trkpt>
      <trkpt lat="42.51316" lon="1.99059">
        <ele>2053.8000488281</ele>
        <time>2016-10-30T12:06:11Z</time>
      </trkpt>
      <trkpt lat="42.51316" lon="1.99059">
        <ele>2055</ele>
        <time>2016-10-30T12:06:12Z</time>
      </trkpt>
      <trkpt lat="42.51316" lon="1.99059">
        <ele>2055.3999023438</ele>
        <time>2016-10-30T12:06:13Z</time>
      </trkpt>
      <trkpt lat="42.51316" lon="1.99059">
        <ele>2055.8000488281</ele>
        <time>2016-10-30T12:06:14Z</time>
      </trkpt>
      <trkpt lat="42.51316" lon="1.99059">
        <ele>2056</ele>
        <time>2016-10-30T12:06:15Z</time>
      </trkpt>
      <trkpt lat="42.51316" lon="1.99059">
        <ele>2056.3999023438</ele>
        <time>2016-10-30T12:06:16Z</time>
      </trkpt>
      <trkpt lat="42.51316" lon="1.99059">
        <ele>2056.6000976562</ele>
        <time>2016-10-30T12:06:17Z</time>
      </trkpt>
      <trkpt lat="42.51316" lon="1.99059">
        <ele>2056.6000976562</ele>
        <time>2016-10-30T12:06:23Z</time>
      </trkpt>
      <trkpt lat="42.51316" lon="1.99059">
        <ele>2056.6000976562</ele>
        <time>2016-10-30T12:06:35Z</time>
      </trkpt>
      <trkpt lat="42.51316" lon="1.99059">
        <ele>2056.6000976562</ele>
        <time>2016-10-30T12:06:51Z</time>
      </trkpt>
      <trkpt lat="42.51316" lon="1.99059">
        <ele>2056.6000976562</ele>
        <time>2016-10-30T12:07:08Z</time>
      </trkpt>
      <trkpt lat="42.51316" lon="1.99059">
        <ele>2056.1999511719</ele>
        <time>2016-10-30T12:07:12Z</time>
      </trkpt>
      <trkpt lat="42.51316" lon="1.99059">
        <ele>2055.8000488281</ele>
        <time>2016-10-30T12:07:13Z</time>
      </trkpt>
      <trkpt lat="42.51316" lon="1.99059">
        <ele>2055.3999023438</ele>
        <time>2016-10-30T12:07:14Z</time>
      </trkpt>
      <trkpt lat="42.51316" lon="1.99059">
        <ele>2055</ele>
        <time>2016-10-30T12:07:15Z</time>
      </trkpt>
      <trkpt lat="42.51316" lon="1.99059">
        <ele>2054.3999023438</ele>
        <time>2016-10-30T12:07:16Z</time>
      </trkpt>
      <trkpt lat="42.51316" lon="1.99059">
        <ele>2054.3999023438</ele>
        <time>2016-10-30T12:07:19Z</time>
      </trkpt>
      <trkpt lat="42.51316" lon="1.99058">
        <ele>2054.3999023438</ele>
        <time>2016-10-30T12:07:29Z</time>
      </trkpt>
      <trkpt lat="42.51316" lon="1.99058">
        <ele>2054.3999023438</ele>
        <time>2016-10-30T12:07:40Z</time>
      </trkpt>
      <trkpt lat="42.51317" lon="1.99056">
        <ele>2054.3999023438</ele>
        <time>2016-10-30T12:07:50Z</time>
      </trkpt>
      <trkpt lat="42.51317" lon="1.99056">
        <ele>2054.3999023438</ele>
        <time>2016-10-30T12:08:03Z</time>
      </trkpt>
      <trkpt lat="42.51318" lon="1.99053">
        <ele>2054.3999023438</ele>
        <time>2016-10-30T12:08:12Z</time>
      </trkpt>
      <trkpt lat="42.51318" lon="1.99053">
        <ele>2054.3999023438</ele>
        <time>2016-10-30T12:08:23Z</time>
      </trkpt>
      <trkpt lat="42.51318" lon="1.99053">
        <ele>2054.3999023438</ele>
        <time>2016-10-30T12:08:33Z</time>
      </trkpt>
      <trkpt lat="42.51318" lon="1.99053">
        <ele>2054.3999023438</ele>
        <time>2016-10-30T12:08:46Z</time>
      </trkpt>
      <trkpt lat="42.51318" lon="1.99053">
        <ele>2054.3999023438</ele>
        <time>2016-10-30T12:08:56Z</time>
      </trkpt>
      <trkpt lat="42.51318" lon="1.99053">
        <ele>2054.3999023438</ele>
        <time>2016-10-30T12:09:10Z</time>
      </trkpt>
      <trkpt lat="42.51317" lon="1.99055">
        <ele>2054.3999023438</ele>
        <time>2016-10-30T12:09:22Z</time>
      </trkpt>
      <trkpt lat="42.51317" lon="1.99056">
        <ele>2054.3999023438</ele>
        <time>2016-10-30T12:09:31Z</time>
      </trkpt>
      <trkpt lat="42.51316" lon="1.9906">
        <ele>2054.3999023438</ele>
        <time>2016-10-30T12:09:44Z</time>
      </trkpt>
      <trkpt lat="42.51315" lon="1.99068">
        <ele>2054.3999023438</ele>
        <time>2016-10-30T12:09:57Z</time>
      </trkpt>
      <trkpt lat="42.51317" lon="1.9907">
        <ele>2054.3999023438</ele>
        <time>2016-10-30T12:10:10Z</time>
      </trkpt>
      <trkpt lat="42.51317" lon="1.9907">
        <ele>2054.3999023438</ele>
        <time>2016-10-30T12:10:22Z</time>
      </trkpt>
      <trkpt lat="42.51317" lon="1.9907">
        <ele>2054.3999023438</ele>
        <time>2016-10-30T12:10:34Z</time>
      </trkpt>
      <trkpt lat="42.51318" lon="1.99072">
        <ele>2054.3999023438</ele>
        <time>2016-10-30T12:10:46Z</time>
      </trkpt>
      <trkpt lat="42.51318" lon="1.99072">
        <ele>2054.3999023438</ele>
        <time>2016-10-30T12:10:57Z</time>
      </trkpt>
      <trkpt lat="42.51318" lon="1.9907">
        <ele>2054.3999023438</ele>
        <time>2016-10-30T12:11:09Z</time>
      </trkpt>
      <trkpt lat="42.51319" lon="1.99069">
        <ele>2054.3999023438</ele>
        <time>2016-10-30T12:11:19Z</time>
      </trkpt>
      <trkpt lat="42.51317" lon="1.99073">
        <ele>2054.3999023438</ele>
        <time>2016-10-30T12:11:29Z</time>
      </trkpt>
      <trkpt lat="42.51316" lon="1.99074">
        <ele>2054.3999023438</ele>
        <time>2016-10-30T12:11:41Z</time>
      </trkpt>
      <trkpt lat="42.51316" lon="1.99074">
        <ele>2054.3999023438</ele>
        <time>2016-10-30T12:11:51Z</time>
      </trkpt>
      <trkpt lat="42.51316" lon="1.99074">
        <ele>2054</ele>
        <time>2016-10-30T12:11:53Z</time>
      </trkpt>
      <trkpt lat="42.51316" lon="1.99074">
        <ele>2054</ele>
        <time>2016-10-30T12:11:54Z</time>
      </trkpt>
      <trkpt lat="42.51316" lon="1.99074">
        <ele>2054.6000976562</ele>
        <time>2016-10-30T12:11:55Z</time>
      </trkpt>
      <trkpt lat="42.51316" lon="1.99074">
        <ele>2055</ele>
        <time>2016-10-30T12:11:56Z</time>
      </trkpt>
      <trkpt lat="42.51316" lon="1.99074">
        <ele>2055.3999023438</ele>
        <time>2016-10-30T12:11:57Z</time>
      </trkpt>
      <trkpt lat="42.51316" lon="1.99074">
        <ele>2056</ele>
        <time>2016-10-30T12:11:58Z</time>
      </trkpt>
      <trkpt lat="42.51316" lon="1.99074">
        <ele>2056</ele>
        <time>2016-10-30T12:12:02Z</time>
      </trkpt>
      <trkpt lat="42.51315" lon="1.99071">
        <ele>2056</ele>
        <time>2016-10-30T12:12:11Z</time>
      </trkpt>
      <trkpt lat="42.51315" lon="1.99071">
        <ele>2056</ele>
        <time>2016-10-30T12:12:22Z</time>
      </trkpt>
      <trkpt lat="42.51315" lon="1.99071">
        <ele>2056</ele>
        <time>2016-10-30T12:12:34Z</time>
      </trkpt>
      <trkpt lat="42.51313" lon="1.99069">
        <ele>2056</ele>
        <time>2016-10-30T12:12:44Z</time>
      </trkpt>
      <trkpt lat="42.5131" lon="1.99065">
        <ele>2056</ele>
        <time>2016-10-30T12:12:53Z</time>
      </trkpt>
      <trkpt lat="42.5131" lon="1.99064">
        <ele>2056</ele>
        <time>2016-10-30T12:13:02Z</time>
      </trkpt>
      <trkpt lat="42.51312" lon="1.99065">
        <ele>2056</ele>
        <time>2016-10-30T12:13:12Z</time>
      </trkpt>
      <trkpt lat="42.51313" lon="1.99066">
        <ele>2056</ele>
        <time>2016-10-30T12:13:21Z</time>
      </trkpt>
      <trkpt lat="42.51314" lon="1.99065">
        <ele>2056</ele>
        <time>2016-10-30T12:13:30Z</time>
      </trkpt>
      <trkpt lat="42.51315" lon="1.99063">
        <ele>2055.1999511719</ele>
        <time>2016-10-30T12:13:37Z</time>
      </trkpt>
      <trkpt lat="42.51315" lon="1.99063">
        <ele>2054.6000976562</ele>
        <time>2016-10-30T12:13:38Z</time>
      </trkpt>
      <trkpt lat="42.51315" lon="1.99063">
        <ele>2054</ele>
        <time>2016-10-30T12:13:39Z</time>
      </trkpt>
      <trkpt lat="42.51315" lon="1.99063">
        <ele>2053.1999511719</ele>
        <time>2016-10-30T12:13:40Z</time>
      </trkpt>
      <trkpt lat="42.51313" lon="1.99064">
        <ele>2052.6000976562</ele>
        <time>2016-10-30T12:13:41Z</time>
      </trkpt>
      <trkpt lat="42.51319" lon="1.99045">
        <ele>2058.3999023438</ele>
        <time>2016-10-30T12:18:41Z</time>
      </trkpt>
      <trkpt lat="42.51317" lon="1.99053">
        <ele>2058</ele>
        <time>2016-10-30T12:18:42Z</time>
      </trkpt>
      <trkpt lat="42.51316" lon="1.99057">
        <ele>2057.6000976562</ele>
        <time>2016-10-30T12:18:43Z</time>
      </trkpt>
      <trkpt lat="42.51316" lon="1.99058">
        <ele>2057.3999023438</ele>
        <time>2016-10-30T12:18:44Z</time>
      </trkpt>
      <trkpt lat="42.51316" lon="1.99058">
        <ele>2057</ele>
        <time>2016-10-30T12:18:45Z</time>
      </trkpt>
      <trkpt lat="42.51316" lon="1.99059">
        <ele>2056.8000488281</ele>
        <time>2016-10-30T12:18:46Z</time>
      </trkpt>
      <trkpt lat="42.51315" lon="1.99063">
        <ele>2056.8000488281</ele>
        <time>2016-10-30T12:18:51Z</time>
      </trkpt>
      <trkpt lat="42.51313" lon="1.99064">
        <ele>2056.8000488281</ele>
        <time>2016-10-30T12:18:58Z</time>
      </trkpt>
      <trkpt lat="42.51313" lon="1.99064">
        <ele>2056.8000488281</ele>
        <time>2016-10-30T12:19:09Z</time>
      </trkpt>
      <trkpt lat="42.51314" lon="1.99064">
        <ele>2056.8000488281</ele>
        <time>2016-10-30T12:19:20Z</time>
      </trkpt>
      <trkpt lat="42.51315" lon="1.99064">
        <ele>2056.8000488281</ele>
        <time>2016-10-30T12:19:31Z</time>
      </trkpt>
      <trkpt lat="42.51315" lon="1.99065">
        <ele>2056.8000488281</ele>
        <time>2016-10-30T12:19:43Z</time>
      </trkpt>
      <trkpt lat="42.51315" lon="1.99064">
        <ele>2056.8000488281</ele>
        <time>2016-10-30T12:19:56Z</time>
      </trkpt>
      <trkpt lat="42.51315" lon="1.99064">
        <ele>2056.8000488281</ele>
        <time>2016-10-30T12:20:09Z</time>
      </trkpt>
      <trkpt lat="42.51315" lon="1.99063">
        <ele>2056</ele>
        <time>2016-10-30T12:20:16Z</time>
      </trkpt>
      <trkpt lat="42.51315" lon="1.99063">
        <ele>2055</ele>
        <time>2016-10-30T12:20:17Z</time>
      </trkpt>
      <trkpt lat="42.51315" lon="1.99063">
        <ele>2054.1999511719</ele>
        <time>2016-10-30T12:20:18Z</time>
      </trkpt>
      <trkpt lat="42.51315" lon="1.99064">
        <ele>2053.3999023438</ele>
        <time>2016-10-30T12:20:19Z</time>
      </trkpt>
      <trkpt lat="42.51315" lon="1.99064">
        <ele>2052.6000976562</ele>
        <time>2016-10-30T12:20:20Z</time>
      </trkpt>
      <trkpt lat="42.51315" lon="1.99064">
        <ele>2053.6000976562</ele>
        <time>2016-10-30T12:20:21Z</time>
      </trkpt>
      <trkpt lat="42.51315" lon="1.99064">
        <ele>2058</ele>
        <time>2016-10-30T12:20:24Z</time>
      </trkpt>
      <trkpt lat="42.51315" lon="1.99064">
        <ele>2057.6000976562</ele>
        <time>2016-10-30T12:20:25Z</time>
      </trkpt>
      <trkpt lat="42.51315" lon="1.99064">
        <ele>2057.3999023438</ele>
        <time>2016-10-30T12:20:26Z</time>
      </trkpt>
      <trkpt lat="42.51315" lon="1.99064">
        <ele>2057.1999511719</ele>
        <time>2016-10-30T12:20:27Z</time>
      </trkpt>
      <trkpt lat="42.51315" lon="1.99064">
        <ele>2057</ele>
        <time>2016-10-30T12:20:28Z</time>
      </trkpt>
      <trkpt lat="42.51315" lon="1.99064">
        <ele>2056.8000488281</ele>
        <time>2016-10-30T12:20:29Z</time>
      </trkpt>
      <trkpt lat="42.51315" lon="1.99064">
        <ele>2056.8000488281</ele>
        <time>2016-10-30T12:20:34Z</time>
      </trkpt>
      <trkpt lat="42.51315" lon="1.99064">
        <ele>2056.8000488281</ele>
        <time>2016-10-30T12:20:44Z</time>
      </trkpt>
      <trkpt lat="42.51315" lon="1.99064">
        <ele>2056.8000488281</ele>
        <time>2016-10-30T12:20:55Z</time>
      </trkpt>
      <trkpt lat="42.51315" lon="1.99064">
        <ele>2056.8000488281</ele>
        <time>2016-10-30T12:21:10Z</time>
      </trkpt>
      <trkpt lat="42.51315" lon="1.99064">
        <ele>2056.8000488281</ele>
        <time>2016-10-30T12:21:23Z</time>
      </trkpt>
      <trkpt lat="42.51314" lon="1.99064">
        <ele>2056.8000488281</ele>
        <time>2016-10-30T12:21:35Z</time>
      </trkpt>
      <trkpt lat="42.51314" lon="1.99064">
        <ele>2056.8000488281</ele>
        <time>2016-10-30T12:21:45Z</time>
      </trkpt>
      <trkpt lat="42.51314" lon="1.99064">
        <ele>2056</ele>
        <time>2016-10-30T12:21:54Z</time>
      </trkpt>
      <trkpt lat="42.51314" lon="1.99064">
        <ele>2055.8000488281</ele>
        <time>2016-10-30T12:21:55Z</time>
      </trkpt>
      <trkpt lat="42.51314" lon="1.99064">
        <ele>2055.8000488281</ele>
        <time>2016-10-30T12:21:56Z</time>
      </trkpt>
      <trkpt lat="42.51314" lon="1.99064">
        <ele>2056.6000976562</ele>
        <time>2016-10-30T12:21:57Z</time>
      </trkpt>
      <trkpt lat="42.51314" lon="1.99064">
        <ele>2056.3999023438</ele>
        <time>2016-10-30T12:21:58Z</time>
      </trkpt>
      <trkpt lat="42.51314" lon="1.99064">
        <ele>2056.1999511719</ele>
        <time>2016-10-30T12:21:59Z</time>
      </trkpt>
      <trkpt lat="42.51314" lon="1.99064">
        <ele>2056</ele>
        <time>2016-10-30T12:22:00Z</time>
      </trkpt>
      <trkpt lat="42.51314" lon="1.99064">
        <ele>2055.8000488281</ele>
        <time>2016-10-30T12:22:01Z</time>
      </trkpt>
      <trkpt lat="42.51315" lon="1.99064">
        <ele>2055.6000976562</ele>
        <time>2016-10-30T12:22:02Z</time>
      </trkpt>
      <trkpt lat="42.51316" lon="1.99066">
        <ele>2055.6000976562</ele>
        <time>2016-10-30T12:22:06Z</time>
      </trkpt>
      <trkpt lat="42.51315" lon="1.99066">
        <ele>2055.6000976562</ele>
        <time>2016-10-30T12:22:16Z</time>
      </trkpt>
      <trkpt lat="42.51314" lon="1.99066">
        <ele>2055.6000976562</ele>
        <time>2016-10-30T12:22:26Z</time>
      </trkpt>
      <trkpt lat="42.51315" lon="1.99066">
        <ele>2055.6000976562</ele>
        <time>2016-10-30T12:22:38Z</time>
      </trkpt>
      <trkpt lat="42.51314" lon="1.9907">
        <ele>2055.6000976562</ele>
        <time>2016-10-30T12:22:46Z</time>
      </trkpt>
      <trkpt lat="42.51312" lon="1.99069">
        <ele>2055.6000976562</ele>
        <time>2016-10-30T12:22:57Z</time>
      </trkpt>
      <trkpt lat="42.51307" lon="1.99063">
        <ele>2056.1999511719</ele>
        <time>2016-10-30T12:23:02Z</time>
      </trkpt>
      <trkpt lat="42.51308" lon="1.99062">
        <ele>2056.8000488281</ele>
        <time>2016-10-30T12:23:03Z</time>
      </trkpt>
      <trkpt lat="42.51312" lon="1.99064">
        <ele>2057.3999023438</ele>
        <time>2016-10-30T12:23:04Z</time>
      </trkpt>
      <trkpt lat="42.51312" lon="1.99064">
        <ele>2057</ele>
        <time>2016-10-30T12:23:05Z</time>
      </trkpt>
      <trkpt lat="42.51312" lon="1.99064">
        <ele>2056.8000488281</ele>
        <time>2016-10-30T12:23:06Z</time>
      </trkpt>
      <trkpt lat="42.51312" lon="1.99064">
        <ele>2056.6000976562</ele>
        <time>2016-10-30T12:23:07Z</time>
      </trkpt>
      <trkpt lat="42.51312" lon="1.99064">
        <ele>2056.1999511719</ele>
        <time>2016-10-30T12:23:08Z</time>
      </trkpt>
      <trkpt lat="42.51312" lon="1.99064">
        <ele>2056</ele>
        <time>2016-10-30T12:23:09Z</time>
      </trkpt>
      <trkpt lat="42.51312" lon="1.99064">
        <ele>2056</ele>
        <time>2016-10-30T12:23:16Z</time>
      </trkpt>
      <trkpt lat="42.51312" lon="1.99064">
        <ele>2056</ele>
        <time>2016-10-30T12:23:32Z</time>
      </trkpt>
      <trkpt lat="42.51312" lon="1.99063">
        <ele>2056</ele>
        <time>2016-10-30T12:23:44Z</time>
      </trkpt>
      <trkpt lat="42.51312" lon="1.99063">
        <ele>2056</ele>
        <time>2016-10-30T12:23:55Z</time>
      </trkpt>
      <trkpt lat="42.51312" lon="1.99063">
        <ele>2056</ele>
        <time>2016-10-30T12:24:07Z</time>
      </trkpt>
      <trkpt lat="42.51312" lon="1.99063">
        <ele>2056</ele>
        <time>2016-10-30T12:24:23Z</time>
      </trkpt>
      <trkpt lat="42.51312" lon="1.99062">
        <ele>2056</ele>
        <time>2016-10-30T12:24:35Z</time>
      </trkpt>
      <trkpt lat="42.51312" lon="1.99062">
        <ele>2056</ele>
        <time>2016-10-30T12:24:49Z</time>
      </trkpt>
      <trkpt lat="42.51312" lon="1.99062">
        <ele>2056</ele>
        <time>2016-10-30T12:25:01Z</time>
      </trkpt>
      <trkpt lat="42.51313" lon="1.99063">
        <ele>2056</ele>
        <time>2016-10-30T12:25:17Z</time>
      </trkpt>
      <trkpt lat="42.51313" lon="1.99063">
        <ele>2056</ele>
        <time>2016-10-30T12:25:28Z</time>
      </trkpt>
      <trkpt lat="42.51313" lon="1.99063">
        <ele>2056</ele>
        <time>2016-10-30T12:25:41Z</time>
      </trkpt>
      <trkpt lat="42.51313" lon="1.99062">
        <ele>2056</ele>
        <time>2016-10-30T12:25:43Z</time>
      </trkpt>
      <trkpt lat="42.51313" lon="1.99062">
        <ele>2056</ele>
        <time>2016-10-30T12:25:56Z</time>
      </trkpt>
      <trkpt lat="42.51313" lon="1.99062">
        <ele>2056</ele>
        <time>2016-10-30T12:26:10Z</time>
      </trkpt>
      <trkpt lat="42.51313" lon="1.99062">
        <ele>2056</ele>
        <time>2016-10-30T12:26:22Z</time>
      </trkpt>
      <trkpt lat="42.51314" lon="1.99062">
        <ele>2056</ele>
        <time>2016-10-30T12:26:31Z</time>
      </trkpt>
      <trkpt lat="42.51314" lon="1.99064">
        <ele>2056</ele>
        <time>2016-10-30T12:26:38Z</time>
      </trkpt>
      <trkpt lat="42.51314" lon="1.99064">
        <ele>2056</ele>
        <time>2016-10-30T12:26:51Z</time>
      </trkpt>
      <trkpt lat="42.51314" lon="1.99064">
        <ele>2056</ele>
        <time>2016-10-30T12:27:04Z</time>
      </trkpt>
      <trkpt lat="42.51313" lon="1.99064">
        <ele>2056</ele>
        <time>2016-10-30T12:27:16Z</time>
      </trkpt>
      <trkpt lat="42.51313" lon="1.99064">
        <ele>2056</ele>
        <time>2016-10-30T12:27:30Z</time>
      </trkpt>
      <trkpt lat="42.51313" lon="1.99064">
        <ele>2056</ele>
        <time>2016-10-30T12:27:45Z</time>
      </trkpt>
      <trkpt lat="42.51313" lon="1.99063">
        <ele>2056</ele>
        <time>2016-10-30T12:28:00Z</time>
      </trkpt>
      <trkpt lat="42.51313" lon="1.99063">
        <ele>2056</ele>
        <time>2016-10-30T12:28:13Z</time>
      </trkpt>
      <trkpt lat="42.51313" lon="1.99063">
        <ele>2056</ele>
        <time>2016-10-30T12:28:25Z</time>
      </trkpt>
      <trkpt lat="42.51313" lon="1.99062">
        <ele>2056</ele>
        <time>2016-10-30T12:28:37Z</time>
      </trkpt>
      <trkpt lat="42.51313" lon="1.99062">
        <ele>2056</ele>
        <time>2016-10-30T12:28:48Z</time>
      </trkpt>
      <trkpt lat="42.51313" lon="1.99062">
        <ele>2056</ele>
        <time>2016-10-30T12:29:02Z</time>
      </trkpt>
      <trkpt lat="42.51313" lon="1.99062">
        <ele>2056</ele>
        <time>2016-10-30T12:29:12Z</time>
      </trkpt>
      <trkpt lat="42.51313" lon="1.99062">
        <ele>2056</ele>
        <time>2016-10-30T12:29:28Z</time>
      </trkpt>
      <trkpt lat="42.51313" lon="1.99062">
        <ele>2056</ele>
        <time>2016-10-30T12:29:40Z</time>
      </trkpt>
      <trkpt lat="42.51313" lon="1.99062">
        <ele>2056</ele>
        <time>2016-10-30T12:29:52Z</time>
      </trkpt>
      <trkpt lat="42.51313" lon="1.99062">
        <ele>2055.3999023438</ele>
        <time>2016-10-30T12:29:55Z</time>
      </trkpt>
      <trkpt lat="42.51313" lon="1.99062">
        <ele>2054.8000488281</ele>
        <time>2016-10-30T12:29:56Z</time>
      </trkpt>
      <trkpt lat="42.51313" lon="1.99062">
        <ele>2055.1999511719</ele>
        <time>2016-10-30T12:29:57Z</time>
      </trkpt>
      <trkpt lat="42.51313" lon="1.99062">
        <ele>2056</ele>
        <time>2016-10-30T12:29:58Z</time>
      </trkpt>
      <trkpt lat="42.51313" lon="1.99062">
        <ele>2057</ele>
        <time>2016-10-30T12:29:59Z</time>
      </trkpt>
      <trkpt lat="42.51313" lon="1.99062">
        <ele>2056.8000488281</ele>
        <time>2016-10-30T12:30:00Z</time>
      </trkpt>
      <trkpt lat="42.51313" lon="1.99062">
        <ele>2056.6000976562</ele>
        <time>2016-10-30T12:30:01Z</time>
      </trkpt>
      <trkpt lat="42.51313" lon="1.99062">
        <ele>2056.3999023438</ele>
        <time>2016-10-30T12:30:02Z</time>
      </trkpt>
      <trkpt lat="42.51313" lon="1.99062">
        <ele>2056.3999023438</ele>
        <time>2016-10-30T12:30:03Z</time>
      </trkpt>
      <trkpt lat="42.51313" lon="1.99062">
        <ele>2056.1999511719</ele>
        <time>2016-10-30T12:30:04Z</time>
      </trkpt>
      <trkpt lat="42.51313" lon="1.99062">
        <ele>2056.1999511719</ele>
        <time>2016-10-30T12:30:09Z</time>
      </trkpt>
      <trkpt lat="42.51313" lon="1.99062">
        <ele>2056.1999511719</ele>
        <time>2016-10-30T12:30:24Z</time>
      </trkpt>
      <trkpt lat="42.51315" lon="1.99063">
        <ele>2056.1999511719</ele>
        <time>2016-10-30T12:30:30Z</time>
      </trkpt>
      <trkpt lat="42.51315" lon="1.99063">
        <ele>2055.8000488281</ele>
        <time>2016-10-30T12:30:33Z</time>
      </trkpt>
      <trkpt lat="42.51315" lon="1.99063">
        <ele>2055.3999023438</ele>
        <time>2016-10-30T12:30:34Z</time>
      </trkpt>
      <trkpt lat="42.51315" lon="1.99063">
        <ele>2054.6000976562</ele>
        <time>2016-10-30T12:30:35Z</time>
      </trkpt>
      <trkpt lat="42.51315" lon="1.99063">
        <ele>2053.8000488281</ele>
        <time>2016-10-30T12:30:36Z</time>
      </trkpt>
      <trkpt lat="42.51315" lon="1.99063">
        <ele>2053.1999511719</ele>
        <time>2016-10-30T12:30:37Z</time>
      </trkpt>
      <trkpt lat="42.51315" lon="1.99063">
        <ele>2053.8000488281</ele>
        <time>2016-10-30T12:30:38Z</time>
      </trkpt>
      <trkpt lat="42.51315" lon="1.99063">
        <ele>2055</ele>
        <time>2016-10-30T12:30:39Z</time>
      </trkpt>
      <trkpt lat="42.51315" lon="1.99063">
        <ele>2057</ele>
        <time>2016-10-30T12:30:40Z</time>
      </trkpt>
      <trkpt lat="42.51316" lon="1.99063">
        <ele>2059</ele>
        <time>2016-10-30T12:30:41Z</time>
      </trkpt>
      <trkpt lat="42.51317" lon="1.99064">
        <ele>2058.6000976562</ele>
        <time>2016-10-30T12:30:42Z</time>
      </trkpt>
      <trkpt lat="42.51317" lon="1.99064">
        <ele>2058.3999023438</ele>
        <time>2016-10-30T12:30:43Z</time>
      </trkpt>
      <trkpt lat="42.51317" lon="1.99064">
        <ele>2058</ele>
        <time>2016-10-30T12:30:44Z</time>
      </trkpt>
      <trkpt lat="42.51318" lon="1.99065">
        <ele>2057.8000488281</ele>
        <time>2016-10-30T12:30:45Z</time>
      </trkpt>
      <trkpt lat="42.51319" lon="1.99066">
        <ele>2057.3999023438</ele>
        <time>2016-10-30T12:30:46Z</time>
      </trkpt>
      <trkpt lat="42.51321" lon="1.99067">
        <ele>2057.3999023438</ele>
        <time>2016-10-30T12:30:51Z</time>
      </trkpt>
      <trkpt lat="42.51321" lon="1.99067">
        <ele>2057.3999023438</ele>
        <time>2016-10-30T12:30:59Z</time>
      </trkpt>
      <trkpt lat="42.51321" lon="1.99067">
        <ele>2057.3999023438</ele>
        <time>2016-10-30T12:31:11Z</time>
      </trkpt>
      <trkpt lat="42.51321" lon="1.99067">
        <ele>2057.3999023438</ele>
        <time>2016-10-30T12:31:18Z</time>
      </trkpt>
      <trkpt lat="42.5132" lon="1.99067">
        <ele>2057.3999023438</ele>
        <time>2016-10-30T12:31:24Z</time>
      </trkpt>
      <trkpt lat="42.51318" lon="1.99072">
        <ele>2057.3999023438</ele>
        <time>2016-10-30T12:31:30Z</time>
      </trkpt>
      <trkpt lat="42.51318" lon="1.99072">
        <ele>2057.3999023438</ele>
        <time>2016-10-30T12:31:43Z</time>
      </trkpt>
      <trkpt lat="42.51318" lon="1.99072">
        <ele>2057.3999023438</ele>
        <time>2016-10-30T12:31:57Z</time>
      </trkpt>
      <trkpt lat="42.51318" lon="1.99072">
        <ele>2057.3999023438</ele>
        <time>2016-10-30T12:32:08Z</time>
      </trkpt>
      <trkpt lat="42.51318" lon="1.99072">
        <ele>2057.3999023438</ele>
        <time>2016-10-30T12:32:23Z</time>
      </trkpt>
      <trkpt lat="42.51318" lon="1.99072">
        <ele>2057.3999023438</ele>
        <time>2016-10-30T12:32:36Z</time>
      </trkpt>
      <trkpt lat="42.51321" lon="1.99071">
        <ele>2057.3999023438</ele>
        <time>2016-10-30T12:32:44Z</time>
      </trkpt>
      <trkpt lat="42.51323" lon="1.9907">
        <ele>2057.3999023438</ele>
        <time>2016-10-30T12:32:45Z</time>
      </trkpt>
      <trkpt lat="42.51326" lon="1.99068">
        <ele>2057.3999023438</ele>
        <time>2016-10-30T12:32:49Z</time>
      </trkpt>
      <trkpt lat="42.51328" lon="1.99065">
        <ele>2057</ele>
        <time>2016-10-30T12:32:54Z</time>
      </trkpt>
      <trkpt lat="42.51329" lon="1.99065">
        <ele>2056.6000976562</ele>
        <time>2016-10-30T12:32:55Z</time>
      </trkpt>
      <trkpt lat="42.51329" lon="1.99064">
        <ele>2056.1999511719</ele>
        <time>2016-10-30T12:32:56Z</time>
      </trkpt>
      <trkpt lat="42.51329" lon="1.99064">
        <ele>2055.8000488281</ele>
        <time>2016-10-30T12:32:57Z</time>
      </trkpt>
      <trkpt lat="42.51329" lon="1.99064">
        <ele>2055.3999023438</ele>
        <time>2016-10-30T12:32:58Z</time>
      </trkpt>
      <trkpt lat="42.5133" lon="1.99063">
        <ele>2055.3999023438</ele>
        <time>2016-10-30T12:33:01Z</time>
      </trkpt>
      <trkpt lat="42.51332" lon="1.99059">
        <ele>2055.3999023438</ele>
        <time>2016-10-30T12:33:06Z</time>
      </trkpt>
      <trkpt lat="42.51335" lon="1.99054">
        <ele>2055.3999023438</ele>
        <time>2016-10-30T12:33:11Z</time>
      </trkpt>
      <trkpt lat="42.51336" lon="1.99051">
        <ele>2055</ele>
        <time>2016-10-30T12:33:14Z</time>
      </trkpt>
      <trkpt lat="42.51336" lon="1.9905">
        <ele>2054.3999023438</ele>
        <time>2016-10-30T12:33:15Z</time>
      </trkpt>
      <trkpt lat="42.51336" lon="1.99049">
        <ele>2054</ele>
        <time>2016-10-30T12:33:16Z</time>
      </trkpt>
      <trkpt lat="42.51336" lon="1.99048">
        <ele>2053.6000976562</ele>
        <time>2016-10-30T12:33:17Z</time>
      </trkpt>
      <trkpt lat="42.51336" lon="1.99047">
        <ele>2053.1999511719</ele>
        <time>2016-10-30T12:33:18Z</time>
      </trkpt>
      <trkpt lat="42.51336" lon="1.99046">
        <ele>2053.1999511719</ele>
        <time>2016-10-30T12:33:21Z</time>
      </trkpt>
      <trkpt lat="42.51337" lon="1.99046">
        <ele>2053.1999511719</ele>
        <time>2016-10-30T12:33:24Z</time>
      </trkpt>
      <trkpt lat="42.51338" lon="1.99044">
        <ele>2053.1999511719</ele>
        <time>2016-10-30T12:33:27Z</time>
      </trkpt>
      <trkpt lat="42.51339" lon="1.9904">
        <ele>2053.1999511719</ele>
        <time>2016-10-30T12:33:34Z</time>
      </trkpt>
      <trkpt lat="42.51339" lon="1.99038">
        <ele>2053.1999511719</ele>
        <time>2016-10-30T12:33:40Z</time>
      </trkpt>
      <trkpt lat="42.5134" lon="1.99035">
        <ele>2053.1999511719</ele>
        <time>2016-10-30T12:33:49Z</time>
      </trkpt>
      <trkpt lat="42.51341" lon="1.99032">
        <ele>2053.1999511719</ele>
        <time>2016-10-30T12:33:51Z</time>
      </trkpt>
      <trkpt lat="42.51342" lon="1.99028">
        <ele>2053.1999511719</ele>
        <time>2016-10-30T12:33:54Z</time>
      </trkpt>
      <trkpt lat="42.51343" lon="1.99025">
        <ele>2052.8000488281</ele>
        <time>2016-10-30T12:33:56Z</time>
      </trkpt>
      <trkpt lat="42.51344" lon="1.99023">
        <ele>2052.3999023438</ele>
        <time>2016-10-30T12:33:57Z</time>
      </trkpt>
      <trkpt lat="42.51345" lon="1.99022">
        <ele>2051.3999023438</ele>
        <time>2016-10-30T12:33:58Z</time>
      </trkpt>
      <trkpt lat="42.51346" lon="1.99021">
        <ele>2051</ele>
        <time>2016-10-30T12:33:59Z</time>
      </trkpt>
      <trkpt lat="42.51346" lon="1.9902">
        <ele>2051</ele>
        <time>2016-10-30T12:34:00Z</time>
      </trkpt>
      <trkpt lat="42.51347" lon="1.99018">
        <ele>2051</ele>
        <time>2016-10-30T12:34:02Z</time>
      </trkpt>
      <trkpt lat="42.51347" lon="1.99015">
        <ele>2050.6000976562</ele>
        <time>2016-10-30T12:34:04Z</time>
      </trkpt>
      <trkpt lat="42.51347" lon="1.99014">
        <ele>2050.1999511719</ele>
        <time>2016-10-30T12:34:05Z</time>
      </trkpt>
      <trkpt lat="42.51347" lon="1.99013">
        <ele>2049.8000488281</ele>
        <time>2016-10-30T12:34:06Z</time>
      </trkpt>
      <trkpt lat="42.51347" lon="1.99011">
        <ele>2049.3999023438</ele>
        <time>2016-10-30T12:34:07Z</time>
      </trkpt>
      <trkpt lat="42.51347" lon="1.99009">
        <ele>2049</ele>
        <time>2016-10-30T12:34:08Z</time>
      </trkpt>
      <trkpt lat="42.51348" lon="1.99004">
        <ele>2049</ele>
        <time>2016-10-30T12:34:11Z</time>
      </trkpt>
      <trkpt lat="42.51346" lon="1.98994">
        <ele>2049</ele>
        <time>2016-10-30T12:34:17Z</time>
      </trkpt>
      <trkpt lat="42.51345" lon="1.98994">
        <ele>2048.6000976562</ele>
        <time>2016-10-30T12:34:18Z</time>
      </trkpt>
      <trkpt lat="42.51345" lon="1.98992">
        <ele>2048.1999511719</ele>
        <time>2016-10-30T12:34:19Z</time>
      </trkpt>
      <trkpt lat="42.51344" lon="1.98991">
        <ele>2047.8000488281</ele>
        <time>2016-10-30T12:34:20Z</time>
      </trkpt>
      <trkpt lat="42.51344" lon="1.98989">
        <ele>2047.4000244141</ele>
        <time>2016-10-30T12:34:21Z</time>
      </trkpt>
      <trkpt lat="42.51343" lon="1.98988">
        <ele>2047</ele>
        <time>2016-10-30T12:34:22Z</time>
      </trkpt>
      <trkpt lat="42.51342" lon="1.98979">
        <ele>2047</ele>
        <time>2016-10-30T12:34:28Z</time>
      </trkpt>
      <trkpt lat="42.51342" lon="1.98972">
        <ele>2047</ele>
        <time>2016-10-30T12:34:34Z</time>
      </trkpt>
      <trkpt lat="42.51341" lon="1.9897">
        <ele>2046.5999755859</ele>
        <time>2016-10-30T12:34:35Z</time>
      </trkpt>
      <trkpt lat="42.51341" lon="1.98969">
        <ele>2046.1999511719</ele>
        <time>2016-10-30T12:34:36Z</time>
      </trkpt>
      <trkpt lat="42.5134" lon="1.98967">
        <ele>2045.8000488281</ele>
        <time>2016-10-30T12:34:37Z</time>
      </trkpt>
      <trkpt lat="42.5134" lon="1.98965">
        <ele>2045.4000244141</ele>
        <time>2016-10-30T12:34:38Z</time>
      </trkpt>
      <trkpt lat="42.5134" lon="1.98963">
        <ele>2045</ele>
        <time>2016-10-30T12:34:39Z</time>
      </trkpt>
      <trkpt lat="42.51339" lon="1.98963">
        <ele>2045</ele>
        <time>2016-10-30T12:34:40Z</time>
      </trkpt>
      <trkpt lat="42.51339" lon="1.98956">
        <ele>2045</ele>
        <time>2016-10-30T12:34:44Z</time>
      </trkpt>
      <trkpt lat="42.51339" lon="1.98954">
        <ele>2045</ele>
        <time>2016-10-30T12:34:45Z</time>
      </trkpt>
      <trkpt lat="42.51343" lon="1.98946">
        <ele>2045</ele>
        <time>2016-10-30T12:34:52Z</time>
      </trkpt>
      <trkpt lat="42.51346" lon="1.98946">
        <ele>2044.5999755859</ele>
        <time>2016-10-30T12:34:54Z</time>
      </trkpt>
      <trkpt lat="42.51347" lon="1.98946">
        <ele>2044</ele>
        <time>2016-10-30T12:34:55Z</time>
      </trkpt>
      <trkpt lat="42.51348" lon="1.98945">
        <ele>2043.5999755859</ele>
        <time>2016-10-30T12:34:56Z</time>
      </trkpt>
      <trkpt lat="42.51349" lon="1.98945">
        <ele>2043.1999511719</ele>
        <time>2016-10-30T12:34:57Z</time>
      </trkpt>
      <trkpt lat="42.51351" lon="1.98945">
        <ele>2042.8000488281</ele>
        <time>2016-10-30T12:34:58Z</time>
      </trkpt>
      <trkpt lat="42.51352" lon="1.98945">
        <ele>2042.8000488281</ele>
        <time>2016-10-30T12:34:59Z</time>
      </trkpt>
      <trkpt lat="42.51361" lon="1.98942">
        <ele>2042.8000488281</ele>
        <time>2016-10-30T12:35:06Z</time>
      </trkpt>
      <trkpt lat="42.51366" lon="1.98938">
        <ele>2042.4000244141</ele>
        <time>2016-10-30T12:35:12Z</time>
      </trkpt>
      <trkpt lat="42.51367" lon="1.98938">
        <ele>2042</ele>
        <time>2016-10-30T12:35:13Z</time>
      </trkpt>
      <trkpt lat="42.51368" lon="1.98938">
        <ele>2041.5999755859</ele>
        <time>2016-10-30T12:35:14Z</time>
      </trkpt>
      <trkpt lat="42.51369" lon="1.98937">
        <ele>2041.1999511719</ele>
        <time>2016-10-30T12:35:15Z</time>
      </trkpt>
      <trkpt lat="42.5137" lon="1.98937">
        <ele>2040.8000488281</ele>
        <time>2016-10-30T12:35:16Z</time>
      </trkpt>
      <trkpt lat="42.51372" lon="1.98936">
        <ele>2040.8000488281</ele>
        <time>2016-10-30T12:35:18Z</time>
      </trkpt>
      <trkpt lat="42.51377" lon="1.98935">
        <ele>2040.8000488281</ele>
        <time>2016-10-30T12:35:23Z</time>
      </trkpt>
      <trkpt lat="42.51383" lon="1.98932">
        <ele>2040.8000488281</ele>
        <time>2016-10-30T12:35:30Z</time>
      </trkpt>
      <trkpt lat="42.51389" lon="1.98929">
        <ele>2040.4000244141</ele>
        <time>2016-10-30T12:35:36Z</time>
      </trkpt>
      <trkpt lat="42.5139" lon="1.98929">
        <ele>2039.5999755859</ele>
        <time>2016-10-30T12:35:37Z</time>
      </trkpt>
      <trkpt lat="42.51391" lon="1.98929">
        <ele>2039.1999511719</ele>
        <time>2016-10-30T12:35:38Z</time>
      </trkpt>
      <trkpt lat="42.51392" lon="1.98929">
        <ele>2038.8000488281</ele>
        <time>2016-10-30T12:35:39Z</time>
      </trkpt>
      <trkpt lat="42.51398" lon="1.98928">
        <ele>2038.8000488281</ele>
        <time>2016-10-30T12:35:43Z</time>
      </trkpt>
      <trkpt lat="42.51401" lon="1.98927">
        <ele>2038.8000488281</ele>
        <time>2016-10-30T12:35:46Z</time>
      </trkpt>
      <trkpt lat="42.51404" lon="1.98923">
        <ele>2038.8000488281</ele>
        <time>2016-10-30T12:35:50Z</time>
      </trkpt>
      <trkpt lat="42.5141" lon="1.98922">
        <ele>2038.4000244141</ele>
        <time>2016-10-30T12:35:56Z</time>
      </trkpt>
      <trkpt lat="42.51411" lon="1.98921">
        <ele>2037.8000488281</ele>
        <time>2016-10-30T12:35:57Z</time>
      </trkpt>
      <trkpt lat="42.51413" lon="1.98921">
        <ele>2037.4000244141</ele>
        <time>2016-10-30T12:35:58Z</time>
      </trkpt>
      <trkpt lat="42.51414" lon="1.98921">
        <ele>2037</ele>
        <time>2016-10-30T12:35:59Z</time>
      </trkpt>
      <trkpt lat="42.51416" lon="1.9892">
        <ele>2036.5999755859</ele>
        <time>2016-10-30T12:36:00Z</time>
      </trkpt>
      <trkpt lat="42.51417" lon="1.9892">
        <ele>2036.5999755859</ele>
        <time>2016-10-30T12:36:01Z</time>
      </trkpt>
      <trkpt lat="42.51423" lon="1.98918">
        <ele>2036.5999755859</ele>
        <time>2016-10-30T12:36:07Z</time>
      </trkpt>
      <trkpt lat="42.51428" lon="1.98917">
        <ele>2036.5999755859</ele>
        <time>2016-10-30T12:36:11Z</time>
      </trkpt>
      <trkpt lat="42.51435" lon="1.98914">
        <ele>2036.5999755859</ele>
        <time>2016-10-30T12:36:17Z</time>
      </trkpt>
      <trkpt lat="42.51442" lon="1.98912">
        <ele>2036.5999755859</ele>
        <time>2016-10-30T12:36:23Z</time>
      </trkpt>
      <trkpt lat="42.51442" lon="1.98911">
        <ele>2036.1999511719</ele>
        <time>2016-10-30T12:36:25Z</time>
      </trkpt>
      <trkpt lat="42.51442" lon="1.9891">
        <ele>2035.8000488281</ele>
        <time>2016-10-30T12:36:26Z</time>
      </trkpt>
      <trkpt lat="42.51442" lon="1.98908">
        <ele>2035.4000244141</ele>
        <time>2016-10-30T12:36:27Z</time>
      </trkpt>
      <trkpt lat="42.51442" lon="1.98907">
        <ele>2035</ele>
        <time>2016-10-30T12:36:28Z</time>
      </trkpt>
      <trkpt lat="42.51442" lon="1.98906">
        <ele>2034.5999755859</ele>
        <time>2016-10-30T12:36:29Z</time>
      </trkpt>
      <trkpt lat="42.51441" lon="1.98899">
        <ele>2034.5999755859</ele>
        <time>2016-10-30T12:36:34Z</time>
      </trkpt>
      <trkpt lat="42.51439" lon="1.98897">
        <ele>2034.1999511719</ele>
        <time>2016-10-30T12:36:37Z</time>
      </trkpt>
      <trkpt lat="42.51438" lon="1.98896">
        <ele>2033.8000488281</ele>
        <time>2016-10-30T12:36:38Z</time>
      </trkpt>
      <trkpt lat="42.51437" lon="1.98895">
        <ele>2033.4000244141</ele>
        <time>2016-10-30T12:36:39Z</time>
      </trkpt>
      <trkpt lat="42.51437" lon="1.98895">
        <ele>2033</ele>
        <time>2016-10-30T12:36:40Z</time>
      </trkpt>
      <trkpt lat="42.51436" lon="1.98895">
        <ele>2032.5999755859</ele>
        <time>2016-10-30T12:36:41Z</time>
      </trkpt>
      <trkpt lat="42.51432" lon="1.98893">
        <ele>2032.5999755859</ele>
        <time>2016-10-30T12:36:45Z</time>
      </trkpt>
      <trkpt lat="42.51426" lon="1.98888">
        <ele>2032.5999755859</ele>
        <time>2016-10-30T12:36:51Z</time>
      </trkpt>
      <trkpt lat="42.51419" lon="1.98883">
        <ele>2032.5999755859</ele>
        <time>2016-10-30T12:36:58Z</time>
      </trkpt>
      <trkpt lat="42.51414" lon="1.98878">
        <ele>2032.5999755859</ele>
        <time>2016-10-30T12:37:04Z</time>
      </trkpt>
      <trkpt lat="42.5141" lon="1.98875">
        <ele>2032.5999755859</ele>
        <time>2016-10-30T12:37:09Z</time>
      </trkpt>
      <trkpt lat="42.51408" lon="1.98873">
        <ele>2032.1999511719</ele>
        <time>2016-10-30T12:37:11Z</time>
      </trkpt>
      <trkpt lat="42.51407" lon="1.98872">
        <ele>2031.8000488281</ele>
        <time>2016-10-30T12:37:12Z</time>
      </trkpt>
      <trkpt lat="42.51407" lon="1.98871">
        <ele>2031.4000244141</ele>
        <time>2016-10-30T12:37:13Z</time>
      </trkpt>
      <trkpt lat="42.51405" lon="1.9887">
        <ele>2031</ele>
        <time>2016-10-30T12:37:14Z</time>
      </trkpt>
      <trkpt lat="42.51404" lon="1.98869">
        <ele>2030.4000244141</ele>
        <time>2016-10-30T12:37:15Z</time>
      </trkpt>
      <trkpt lat="42.51402" lon="1.98866">
        <ele>2030.4000244141</ele>
        <time>2016-10-30T12:37:19Z</time>
      </trkpt>
      <trkpt lat="42.514" lon="1.98865">
        <ele>2030.4000244141</ele>
        <time>2016-10-30T12:37:20Z</time>
      </trkpt>
      <trkpt lat="42.51396" lon="1.98861">
        <ele>2030.4000244141</ele>
        <time>2016-10-30T12:37:24Z</time>
      </trkpt>
      <trkpt lat="42.51391" lon="1.98857">
        <ele>2030.4000244141</ele>
        <time>2016-10-30T12:37:29Z</time>
      </trkpt>
      <trkpt lat="42.51386" lon="1.98853">
        <ele>2030</ele>
        <time>2016-10-30T12:37:33Z</time>
      </trkpt>
      <trkpt lat="42.51385" lon="1.98853">
        <ele>2029.5999755859</ele>
        <time>2016-10-30T12:37:34Z</time>
      </trkpt>
      <trkpt lat="42.51385" lon="1.98853">
        <ele>2029.1999511719</ele>
        <time>2016-10-30T12:37:35Z</time>
      </trkpt>
      <trkpt lat="42.51384" lon="1.98852">
        <ele>2028.8000488281</ele>
        <time>2016-10-30T12:37:36Z</time>
      </trkpt>
      <trkpt lat="42.51383" lon="1.98851">
        <ele>2028.1999511719</ele>
        <time>2016-10-30T12:37:37Z</time>
      </trkpt>
      <trkpt lat="42.51382" lon="1.98849">
        <ele>2028.1999511719</ele>
        <time>2016-10-30T12:37:39Z</time>
      </trkpt>
      <trkpt lat="42.51378" lon="1.98844">
        <ele>2028.1999511719</ele>
        <time>2016-10-30T12:37:44Z</time>
      </trkpt>
      <trkpt lat="42.51372" lon="1.9884">
        <ele>2028.1999511719</ele>
        <time>2016-10-30T12:37:51Z</time>
      </trkpt>
      <trkpt lat="42.51372" lon="1.9884">
        <ele>2028.1999511719</ele>
        <time>2016-10-30T12:37:58Z</time>
      </trkpt>
      <trkpt lat="42.51374" lon="1.98837">
        <ele>2028.1999511719</ele>
        <time>2016-10-30T12:38:06Z</time>
      </trkpt>
      <trkpt lat="42.51375" lon="1.98837">
        <ele>2028.1999511719</ele>
        <time>2016-10-30T12:38:12Z</time>
      </trkpt>
      <trkpt lat="42.51375" lon="1.98837">
        <ele>2028.1999511719</ele>
        <time>2016-10-30T12:38:21Z</time>
      </trkpt>
      <trkpt lat="42.51375" lon="1.98837">
        <ele>2028.1999511719</ele>
        <time>2016-10-30T12:38:30Z</time>
      </trkpt>
      <trkpt lat="42.51375" lon="1.98837">
        <ele>2028.1999511719</ele>
        <time>2016-10-30T12:38:42Z</time>
      </trkpt>
      <trkpt lat="42.51375" lon="1.98836">
        <ele>2028.1999511719</ele>
        <time>2016-10-30T12:38:50Z</time>
      </trkpt>
      <trkpt lat="42.51375" lon="1.98836">
        <ele>2028.1999511719</ele>
        <time>2016-10-30T12:39:02Z</time>
      </trkpt>
      <trkpt lat="42.5137" lon="1.98837">
        <ele>2028.1999511719</ele>
        <time>2016-10-30T12:39:06Z</time>
      </trkpt>
      <trkpt lat="42.51369" lon="1.98836">
        <ele>2028.1999511719</ele>
        <time>2016-10-30T12:39:07Z</time>
      </trkpt>
      <trkpt lat="42.51363" lon="1.98836">
        <ele>2028.1999511719</ele>
        <time>2016-10-30T12:39:12Z</time>
      </trkpt>
      <trkpt lat="42.51362" lon="1.98836">
        <ele>2027.8000488281</ele>
        <time>2016-10-30T12:39:13Z</time>
      </trkpt>
      <trkpt lat="42.51361" lon="1.98836">
        <ele>2027.4000244141</ele>
        <time>2016-10-30T12:39:14Z</time>
      </trkpt>
      <trkpt lat="42.51359" lon="1.98836">
        <ele>2027</ele>
        <time>2016-10-30T12:39:15Z</time>
      </trkpt>
      <trkpt lat="42.51358" lon="1.98835">
        <ele>2026.5999755859</ele>
        <time>2016-10-30T12:39:16Z</time>
      </trkpt>
      <trkpt lat="42.51357" lon="1.98835">
        <ele>2026.1999511719</ele>
        <time>2016-10-30T12:39:17Z</time>
      </trkpt>
      <trkpt lat="42.51356" lon="1.98835">
        <ele>2026.1999511719</ele>
        <time>2016-10-30T12:39:18Z</time>
      </trkpt>
      <trkpt lat="42.5135" lon="1.98836">
        <ele>2026.1999511719</ele>
        <time>2016-10-30T12:39:23Z</time>
      </trkpt>
      <trkpt lat="42.51344" lon="1.98837">
        <ele>2026.1999511719</ele>
        <time>2016-10-30T12:39:29Z</time>
      </trkpt>
      <trkpt lat="42.51339" lon="1.98838">
        <ele>2026.1999511719</ele>
        <time>2016-10-30T12:39:34Z</time>
      </trkpt>
      <trkpt lat="42.51331" lon="1.98838">
        <ele>2026.1999511719</ele>
        <time>2016-10-30T12:39:40Z</time>
      </trkpt>
      <trkpt lat="42.51331" lon="1.98838">
        <ele>2026.1999511719</ele>
        <time>2016-10-30T12:39:41Z</time>
      </trkpt>
      <trkpt lat="42.51327" lon="1.98838">
        <ele>2026.1999511719</ele>
        <time>2016-10-30T12:39:44Z</time>
      </trkpt>
      <trkpt lat="42.51324" lon="1.9884">
        <ele>2026.1999511719</ele>
        <time>2016-10-30T12:39:49Z</time>
      </trkpt>
      <trkpt lat="42.51318" lon="1.98841">
        <ele>2026.1999511719</ele>
        <time>2016-10-30T12:39:54Z</time>
      </trkpt>
      <trkpt lat="42.51315" lon="1.98842">
        <ele>2026.1999511719</ele>
        <time>2016-10-30T12:39:56Z</time>
      </trkpt>
      <trkpt lat="42.51313" lon="1.98842">
        <ele>2026.1999511719</ele>
        <time>2016-10-30T12:39:58Z</time>
      </trkpt>
      <trkpt lat="42.51311" lon="1.98843">
        <ele>2026.1999511719</ele>
        <time>2016-10-30T12:40:00Z</time>
      </trkpt>
      <trkpt lat="42.51308" lon="1.98845">
        <ele>2026.1999511719</ele>
        <time>2016-10-30T12:40:03Z</time>
      </trkpt>
      <trkpt lat="42.51306" lon="1.98848">
        <ele>2026.1999511719</ele>
        <time>2016-10-30T12:40:05Z</time>
      </trkpt>
      <trkpt lat="42.51303" lon="1.98849">
        <ele>2026.1999511719</ele>
        <time>2016-10-30T12:40:08Z</time>
      </trkpt>
      <trkpt lat="42.51298" lon="1.98854">
        <ele>2026.1999511719</ele>
        <time>2016-10-30T12:40:13Z</time>
      </trkpt>
      <trkpt lat="42.51293" lon="1.98857">
        <ele>2026.5999755859</ele>
        <time>2016-10-30T12:40:18Z</time>
      </trkpt>
      <trkpt lat="42.51292" lon="1.98857">
        <ele>2027</ele>
        <time>2016-10-30T12:40:19Z</time>
      </trkpt>
      <trkpt lat="42.51291" lon="1.98857">
        <ele>2027.4000244141</ele>
        <time>2016-10-30T12:40:20Z</time>
      </trkpt>
      <trkpt lat="42.5129" lon="1.98857">
        <ele>2027.8000488281</ele>
        <time>2016-10-30T12:40:21Z</time>
      </trkpt>
      <trkpt lat="42.51289" lon="1.98857">
        <ele>2028.1999511719</ele>
        <time>2016-10-30T12:40:22Z</time>
      </trkpt>
      <trkpt lat="42.51287" lon="1.98857">
        <ele>2028.1999511719</ele>
        <time>2016-10-30T12:40:24Z</time>
      </trkpt>
      <trkpt lat="42.51283" lon="1.9886">
        <ele>2028.1999511719</ele>
        <time>2016-10-30T12:40:28Z</time>
      </trkpt>
      <trkpt lat="42.51282" lon="1.98862">
        <ele>2028.1999511719</ele>
        <time>2016-10-30T12:40:29Z</time>
      </trkpt>
      <trkpt lat="42.51279" lon="1.98865">
        <ele>2028.1999511719</ele>
        <time>2016-10-30T12:40:33Z</time>
      </trkpt>
      <trkpt lat="42.51278" lon="1.98866">
        <ele>2028.1999511719</ele>
        <time>2016-10-30T12:40:34Z</time>
      </trkpt>
      <trkpt lat="42.51274" lon="1.9887">
        <ele>2028.1999511719</ele>
        <time>2016-10-30T12:40:38Z</time>
      </trkpt>
      <trkpt lat="42.51273" lon="1.98871">
        <ele>2028.1999511719</ele>
        <time>2016-10-30T12:40:39Z</time>
      </trkpt>
      <trkpt lat="42.51267" lon="1.98876">
        <ele>2028.1999511719</ele>
        <time>2016-10-30T12:40:45Z</time>
      </trkpt>
      <trkpt lat="42.51262" lon="1.9888">
        <ele>2028.1999511719</ele>
        <time>2016-10-30T12:40:51Z</time>
      </trkpt>
      <trkpt lat="42.51259" lon="1.98881">
        <ele>2028.1999511719</ele>
        <time>2016-10-30T12:40:56Z</time>
      </trkpt>
      <trkpt lat="42.51256" lon="1.98886">
        <ele>2028.1999511719</ele>
        <time>2016-10-30T12:41:02Z</time>
      </trkpt>
      <trkpt lat="42.51252" lon="1.98892">
        <ele>2028.1999511719</ele>
        <time>2016-10-30T12:41:08Z</time>
      </trkpt>
      <trkpt lat="42.51249" lon="1.98898">
        <ele>2028.1999511719</ele>
        <time>2016-10-30T12:41:16Z</time>
      </trkpt>
      <trkpt lat="42.51245" lon="1.98908">
        <ele>2028.1999511719</ele>
        <time>2016-10-30T12:41:22Z</time>
      </trkpt>
      <trkpt lat="42.51239" lon="1.9891">
        <ele>2028.1999511719</ele>
        <time>2016-10-30T12:41:27Z</time>
      </trkpt>
      <trkpt lat="42.51234" lon="1.98916">
        <ele>2028.1999511719</ele>
        <time>2016-10-30T12:41:33Z</time>
      </trkpt>
      <trkpt lat="42.51232" lon="1.98916">
        <ele>2028.1999511719</ele>
        <time>2016-10-30T12:41:38Z</time>
      </trkpt>
      <trkpt lat="42.51229" lon="1.98918">
        <ele>2028.1999511719</ele>
        <time>2016-10-30T12:41:44Z</time>
      </trkpt>
      <trkpt lat="42.51225" lon="1.98917">
        <ele>2027.8000488281</ele>
        <time>2016-10-30T12:41:49Z</time>
      </trkpt>
      <trkpt lat="42.51225" lon="1.98917">
        <ele>2027.4000244141</ele>
        <time>2016-10-30T12:41:50Z</time>
      </trkpt>
      <trkpt lat="42.51224" lon="1.98916">
        <ele>2027</ele>
        <time>2016-10-30T12:41:51Z</time>
      </trkpt>
      <trkpt lat="42.51224" lon="1.98915">
        <ele>2026.5999755859</ele>
        <time>2016-10-30T12:41:52Z</time>
      </trkpt>
      <trkpt lat="42.51224" lon="1.98915">
        <ele>2026.1999511719</ele>
        <time>2016-10-30T12:41:53Z</time>
      </trkpt>
      <trkpt lat="42.51221" lon="1.98914">
        <ele>2026.1999511719</ele>
        <time>2016-10-30T12:41:58Z</time>
      </trkpt>
      <trkpt lat="42.51216" lon="1.98912">
        <ele>2026.1999511719</ele>
        <time>2016-10-30T12:42:03Z</time>
      </trkpt>
      <trkpt lat="42.51213" lon="1.98913">
        <ele>2025.8000488281</ele>
        <time>2016-10-30T12:42:07Z</time>
      </trkpt>
      <trkpt lat="42.51212" lon="1.98913">
        <ele>2025.4000244141</ele>
        <time>2016-10-30T12:42:08Z</time>
      </trkpt>
      <trkpt lat="42.5121" lon="1.98913">
        <ele>2025</ele>
        <time>2016-10-30T12:42:09Z</time>
      </trkpt>
      <trkpt lat="42.5121" lon="1.98913">
        <ele>2024.5999755859</ele>
        <time>2016-10-30T12:42:10Z</time>
      </trkpt>
      <trkpt lat="42.51209" lon="1.98913">
        <ele>2024.1999511719</ele>
        <time>2016-10-30T12:42:11Z</time>
      </trkpt>
      <trkpt lat="42.51207" lon="1.98912">
        <ele>2024.1999511719</ele>
        <time>2016-10-30T12:42:13Z</time>
      </trkpt>
      <trkpt lat="42.51202" lon="1.9891">
        <ele>2024.1999511719</ele>
        <time>2016-10-30T12:42:18Z</time>
      </trkpt>
      <trkpt lat="42.512" lon="1.9891">
        <ele>2024.1999511719</ele>
        <time>2016-10-30T12:42:19Z</time>
      </trkpt>
      <trkpt lat="42.51199" lon="1.9891">
        <ele>2023.5999755859</ele>
        <time>2016-10-30T12:42:20Z</time>
      </trkpt>
      <trkpt lat="42.51199" lon="1.9891">
        <ele>2023.1999511719</ele>
        <time>2016-10-30T12:42:21Z</time>
      </trkpt>
      <trkpt lat="42.51198" lon="1.98909">
        <ele>2022.8000488281</ele>
        <time>2016-10-30T12:42:22Z</time>
      </trkpt>
      <trkpt lat="42.51197" lon="1.98909">
        <ele>2022.4000244141</ele>
        <time>2016-10-30T12:42:23Z</time>
      </trkpt>
      <trkpt lat="42.51195" lon="1.98909">
        <ele>2022</ele>
        <time>2016-10-30T12:42:24Z</time>
      </trkpt>
      <trkpt lat="42.51192" lon="1.98907">
        <ele>2022</ele>
        <time>2016-10-30T12:42:27Z</time>
      </trkpt>
      <trkpt lat="42.51188" lon="1.98907">
        <ele>2021.5999755859</ele>
        <time>2016-10-30T12:42:31Z</time>
      </trkpt>
      <trkpt lat="42.51186" lon="1.98907">
        <ele>2021.1999511719</ele>
        <time>2016-10-30T12:42:32Z</time>
      </trkpt>
      <trkpt lat="42.51185" lon="1.98908">
        <ele>2020.8000488281</ele>
        <time>2016-10-30T12:42:33Z</time>
      </trkpt>
      <trkpt lat="42.51183" lon="1.98908">
        <ele>2020.4000244141</ele>
        <time>2016-10-30T12:42:34Z</time>
      </trkpt>
      <trkpt lat="42.51182" lon="1.98908">
        <ele>2020</ele>
        <time>2016-10-30T12:42:35Z</time>
      </trkpt>
      <trkpt lat="42.5118" lon="1.98909">
        <ele>2020</ele>
        <time>2016-10-30T12:42:37Z</time>
      </trkpt>
      <trkpt lat="42.51177" lon="1.98912">
        <ele>2020</ele>
        <time>2016-10-30T12:42:42Z</time>
      </trkpt>
      <trkpt lat="42.51174" lon="1.98914">
        <ele>2019.4000244141</ele>
        <time>2016-10-30T12:42:47Z</time>
      </trkpt>
      <trkpt lat="42.51173" lon="1.98914">
        <ele>2019</ele>
        <time>2016-10-30T12:42:48Z</time>
      </trkpt>
      <trkpt lat="42.51171" lon="1.98913">
        <ele>2018.5999755859</ele>
        <time>2016-10-30T12:42:49Z</time>
      </trkpt>
      <trkpt lat="42.5117" lon="1.98913">
        <ele>2018</ele>
        <time>2016-10-30T12:42:50Z</time>
      </trkpt>
      <trkpt lat="42.51169" lon="1.98913">
        <ele>2017.5999755859</ele>
        <time>2016-10-30T12:42:51Z</time>
      </trkpt>
      <trkpt lat="42.51169" lon="1.98913">
        <ele>2017.5999755859</ele>
        <time>2016-10-30T12:42:52Z</time>
      </trkpt>
      <trkpt lat="42.51165" lon="1.98914">
        <ele>2017.5999755859</ele>
        <time>2016-10-30T12:42:57Z</time>
      </trkpt>
      <trkpt lat="42.51162" lon="1.98914">
        <ele>2017.5999755859</ele>
        <time>2016-10-30T12:42:59Z</time>
      </trkpt>
      <trkpt lat="42.51159" lon="1.98915">
        <ele>2016.8000488281</ele>
        <time>2016-10-30T12:43:01Z</time>
      </trkpt>
      <trkpt lat="42.51158" lon="1.98916">
        <ele>2016.4000244141</ele>
        <time>2016-10-30T12:43:02Z</time>
      </trkpt>
      <trkpt lat="42.51157" lon="1.98917">
        <ele>2015.8000488281</ele>
        <time>2016-10-30T12:43:03Z</time>
      </trkpt>
      <trkpt lat="42.51157" lon="1.98918">
        <ele>2015.4000244141</ele>
        <time>2016-10-30T12:43:04Z</time>
      </trkpt>
      <trkpt lat="42.51154" lon="1.98921">
        <ele>2015.4000244141</ele>
        <time>2016-10-30T12:43:08Z</time>
      </trkpt>
      <trkpt lat="42.51149" lon="1.98926">
        <ele>2015.4000244141</ele>
        <time>2016-10-30T12:43:14Z</time>
      </trkpt>
      <trkpt lat="42.51148" lon="1.98927">
        <ele>2015</ele>
        <time>2016-10-30T12:43:15Z</time>
      </trkpt>
      <trkpt lat="42.51147" lon="1.98929">
        <ele>2014.5999755859</ele>
        <time>2016-10-30T12:43:16Z</time>
      </trkpt>
      <trkpt lat="42.51146" lon="1.9893">
        <ele>2014.1999511719</ele>
        <time>2016-10-30T12:43:17Z</time>
      </trkpt>
      <trkpt lat="42.51146" lon="1.9893">
        <ele>2013.8000488281</ele>
        <time>2016-10-30T12:43:18Z</time>
      </trkpt>
      <trkpt lat="42.51145" lon="1.98931">
        <ele>2013.4000244141</ele>
        <time>2016-10-30T12:43:19Z</time>
      </trkpt>
      <trkpt lat="42.51145" lon="1.98932">
        <ele>2013.4000244141</ele>
        <time>2016-10-30T12:43:20Z</time>
      </trkpt>
      <trkpt lat="42.51144" lon="1.98935">
        <ele>2013.4000244141</ele>
        <time>2016-10-30T12:43:26Z</time>
      </trkpt>
      <trkpt lat="42.51141" lon="1.98942">
        <ele>2013</ele>
        <time>2016-10-30T12:43:33Z</time>
      </trkpt>
      <trkpt lat="42.51141" lon="1.98943">
        <ele>2012.5999755859</ele>
        <time>2016-10-30T12:43:34Z</time>
      </trkpt>
      <trkpt lat="42.5114" lon="1.98944">
        <ele>2012.1999511719</ele>
        <time>2016-10-30T12:43:35Z</time>
      </trkpt>
      <trkpt lat="42.51139" lon="1.98946">
        <ele>2011.8000488281</ele>
        <time>2016-10-30T12:43:36Z</time>
      </trkpt>
      <trkpt lat="42.51138" lon="1.98947">
        <ele>2011.4000244141</ele>
        <time>2016-10-30T12:43:37Z</time>
      </trkpt>
      <trkpt lat="42.51137" lon="1.9895">
        <ele>2011.4000244141</ele>
        <time>2016-10-30T12:43:39Z</time>
      </trkpt>
      <trkpt lat="42.51134" lon="1.98958">
        <ele>2011.4000244141</ele>
        <time>2016-10-30T12:43:45Z</time>
      </trkpt>
      <trkpt lat="42.51133" lon="1.98962">
        <ele>2011</ele>
        <time>2016-10-30T12:43:49Z</time>
      </trkpt>
      <trkpt lat="42.51133" lon="1.98963">
        <ele>2010.5999755859</ele>
        <time>2016-10-30T12:43:50Z</time>
      </trkpt>
      <trkpt lat="42.51133" lon="1.98963">
        <ele>2009.8000488281</ele>
        <time>2016-10-30T12:43:51Z</time>
      </trkpt>
      <trkpt lat="42.51133" lon="1.98963">
        <ele>2009.4000244141</ele>
        <time>2016-10-30T12:43:52Z</time>
      </trkpt>
      <trkpt lat="42.51131" lon="1.98968">
        <ele>2009.4000244141</ele>
        <time>2016-10-30T12:43:58Z</time>
      </trkpt>
      <trkpt lat="42.51127" lon="1.98974">
        <ele>2009.4000244141</ele>
        <time>2016-10-30T12:44:03Z</time>
      </trkpt>
      <trkpt lat="42.51127" lon="1.9898">
        <ele>2009.4000244141</ele>
        <time>2016-10-30T12:44:09Z</time>
      </trkpt>
      <trkpt lat="42.51127" lon="1.98982">
        <ele>2009</ele>
        <time>2016-10-30T12:44:14Z</time>
      </trkpt>
      <trkpt lat="42.51127" lon="1.98982">
        <ele>2008.4000244141</ele>
        <time>2016-10-30T12:44:15Z</time>
      </trkpt>
      <trkpt lat="42.51127" lon="1.98982">
        <ele>2007.5999755859</ele>
        <time>2016-10-30T12:44:16Z</time>
      </trkpt>
      <trkpt lat="42.51127" lon="1.98982">
        <ele>2007.1999511719</ele>
        <time>2016-10-30T12:44:17Z</time>
      </trkpt>
      <trkpt lat="42.51127" lon="1.98984">
        <ele>2007.1999511719</ele>
        <time>2016-10-30T12:44:26Z</time>
      </trkpt>
      <trkpt lat="42.51126" lon="1.98985">
        <ele>2007.1999511719</ele>
        <time>2016-10-30T12:44:35Z</time>
      </trkpt>
      <trkpt lat="42.51126" lon="1.98986">
        <ele>2007.1999511719</ele>
        <time>2016-10-30T12:44:42Z</time>
      </trkpt>
      <trkpt lat="42.51126" lon="1.98986">
        <ele>2007.1999511719</ele>
        <time>2016-10-30T12:44:57Z</time>
      </trkpt>
      <trkpt lat="42.51126" lon="1.98986">
        <ele>2007.1999511719</ele>
        <time>2016-10-30T12:45:11Z</time>
      </trkpt>
      <trkpt lat="42.51126" lon="1.98985">
        <ele>2007.1999511719</ele>
        <time>2016-10-30T12:45:22Z</time>
      </trkpt>
      <trkpt lat="42.51125" lon="1.98992">
        <ele>2007.1999511719</ele>
        <time>2016-10-30T12:45:27Z</time>
      </trkpt>
      <trkpt lat="42.51124" lon="1.98999">
        <ele>2007.1999511719</ele>
        <time>2016-10-30T12:45:33Z</time>
      </trkpt>
      <trkpt lat="42.51122" lon="1.99007">
        <ele>2007.1999511719</ele>
        <time>2016-10-30T12:45:39Z</time>
      </trkpt>
      <trkpt lat="42.5112" lon="1.99014">
        <ele>2007.1999511719</ele>
        <time>2016-10-30T12:45:44Z</time>
      </trkpt>
      <trkpt lat="42.5112" lon="1.99019">
        <ele>2007.1999511719</ele>
        <time>2016-10-30T12:45:47Z</time>
      </trkpt>
      <trkpt lat="42.51119" lon="1.99022">
        <ele>2007.1999511719</ele>
        <time>2016-10-30T12:45:49Z</time>
      </trkpt>
      <trkpt lat="42.51118" lon="1.99027">
        <ele>2007.1999511719</ele>
        <time>2016-10-30T12:45:53Z</time>
      </trkpt>
      <trkpt lat="42.51119" lon="1.99029">
        <ele>2006.8000488281</ele>
        <time>2016-10-30T12:45:54Z</time>
      </trkpt>
      <trkpt lat="42.51118" lon="1.9903">
        <ele>2006.4000244141</ele>
        <time>2016-10-30T12:45:55Z</time>
      </trkpt>
      <trkpt lat="42.51118" lon="1.99032">
        <ele>2006</ele>
        <time>2016-10-30T12:45:56Z</time>
      </trkpt>
      <trkpt lat="42.51118" lon="1.99033">
        <ele>2005.5999755859</ele>
        <time>2016-10-30T12:45:57Z</time>
      </trkpt>
      <trkpt lat="42.51117" lon="1.99036">
        <ele>2005.1999511719</ele>
        <time>2016-10-30T12:45:58Z</time>
      </trkpt>
      <trkpt lat="42.51117" lon="1.99037">
        <ele>2005.1999511719</ele>
        <time>2016-10-30T12:46:00Z</time>
      </trkpt>
      <trkpt lat="42.51117" lon="1.99044">
        <ele>2005.1999511719</ele>
        <time>2016-10-30T12:46:05Z</time>
      </trkpt>
      <trkpt lat="42.51117" lon="1.99046">
        <ele>2005.1999511719</ele>
        <time>2016-10-30T12:46:06Z</time>
      </trkpt>
      <trkpt lat="42.51117" lon="1.99052">
        <ele>2005.1999511719</ele>
        <time>2016-10-30T12:46:10Z</time>
      </trkpt>
      <trkpt lat="42.51117" lon="1.99055">
        <ele>2005.1999511719</ele>
        <time>2016-10-30T12:46:12Z</time>
      </trkpt>
      <trkpt lat="42.51118" lon="1.99059">
        <ele>2005.1999511719</ele>
        <time>2016-10-30T12:46:15Z</time>
      </trkpt>
      <trkpt lat="42.51118" lon="1.99066">
        <ele>2005.1999511719</ele>
        <time>2016-10-30T12:46:20Z</time>
      </trkpt>
      <trkpt lat="42.51119" lon="1.99068">
        <ele>2005.1999511719</ele>
        <time>2016-10-30T12:46:22Z</time>
      </trkpt>
      <trkpt lat="42.51119" lon="1.99072">
        <ele>2005.1999511719</ele>
        <time>2016-10-30T12:46:25Z</time>
      </trkpt>
      <trkpt lat="42.5112" lon="1.99078">
        <ele>2005.1999511719</ele>
        <time>2016-10-30T12:46:30Z</time>
      </trkpt>
      <trkpt lat="42.51119" lon="1.99086">
        <ele>2005.1999511719</ele>
        <time>2016-10-30T12:46:36Z</time>
      </trkpt>
      <trkpt lat="42.51118" lon="1.9909">
        <ele>2004.5999755859</ele>
        <time>2016-10-30T12:46:39Z</time>
      </trkpt>
      <trkpt lat="42.51117" lon="1.99091">
        <ele>2004.1999511719</ele>
        <time>2016-10-30T12:46:40Z</time>
      </trkpt>
      <trkpt lat="42.51117" lon="1.99092">
        <ele>2003.8000488281</ele>
        <time>2016-10-30T12:46:41Z</time>
      </trkpt>
      <trkpt lat="42.51116" lon="1.99093">
        <ele>2003.4000244141</ele>
        <time>2016-10-30T12:46:42Z</time>
      </trkpt>
      <trkpt lat="42.51116" lon="1.99095">
        <ele>2003</ele>
        <time>2016-10-30T12:46:43Z</time>
      </trkpt>
      <trkpt lat="42.51111" lon="1.99103">
        <ele>2003</ele>
        <time>2016-10-30T12:46:49Z</time>
      </trkpt>
      <trkpt lat="42.51109" lon="1.99105">
        <ele>2002.5999755859</ele>
        <time>2016-10-30T12:46:51Z</time>
      </trkpt>
      <trkpt lat="42.51108" lon="1.99106">
        <ele>2002.1999511719</ele>
        <time>2016-10-30T12:46:52Z</time>
      </trkpt>
      <trkpt lat="42.51107" lon="1.99107">
        <ele>2001.8000488281</ele>
        <time>2016-10-30T12:46:53Z</time>
      </trkpt>
      <trkpt lat="42.51107" lon="1.99108">
        <ele>2001.4000244141</ele>
        <time>2016-10-30T12:46:54Z</time>
      </trkpt>
      <trkpt lat="42.51106" lon="1.99109">
        <ele>2001</ele>
        <time>2016-10-30T12:46:55Z</time>
      </trkpt>
      <trkpt lat="42.51106" lon="1.9911">
        <ele>2001</ele>
        <time>2016-10-30T12:46:56Z</time>
      </trkpt>
      <trkpt lat="42.51101" lon="1.99118">
        <ele>2001</ele>
        <time>2016-10-30T12:47:03Z</time>
      </trkpt>
      <trkpt lat="42.511" lon="1.99119">
        <ele>2000.5999755859</ele>
        <time>2016-10-30T12:47:05Z</time>
      </trkpt>
      <trkpt lat="42.511" lon="1.99121">
        <ele>2000.1999511719</ele>
        <time>2016-10-30T12:47:06Z</time>
      </trkpt>
      <trkpt lat="42.51099" lon="1.99122">
        <ele>1999.8000488281</ele>
        <time>2016-10-30T12:47:07Z</time>
      </trkpt>
      <trkpt lat="42.51099" lon="1.99124">
        <ele>1998.8000488281</ele>
        <time>2016-10-30T12:47:08Z</time>
      </trkpt>
      <trkpt lat="42.51098" lon="1.99125">
        <ele>1998.8000488281</ele>
        <time>2016-10-30T12:47:09Z</time>
      </trkpt>
      <trkpt lat="42.51097" lon="1.99129">
        <ele>1998.8000488281</ele>
        <time>2016-10-30T12:47:15Z</time>
      </trkpt>
      <trkpt lat="42.51097" lon="1.99129">
        <ele>1998.8000488281</ele>
        <time>2016-10-30T12:47:30Z</time>
      </trkpt>
      <trkpt lat="42.51096" lon="1.99133">
        <ele>1998.8000488281</ele>
        <time>2016-10-30T12:47:38Z</time>
      </trkpt>
      <trkpt lat="42.51096" lon="1.99135">
        <ele>1998.8000488281</ele>
        <time>2016-10-30T12:47:39Z</time>
      </trkpt>
      <trkpt lat="42.51095" lon="1.99141">
        <ele>1998.8000488281</ele>
        <time>2016-10-30T12:47:45Z</time>
      </trkpt>
      <trkpt lat="42.51093" lon="1.99149">
        <ele>1998.8000488281</ele>
        <time>2016-10-30T12:47:51Z</time>
      </trkpt>
      <trkpt lat="42.51093" lon="1.99153">
        <ele>1998.4000244141</ele>
        <time>2016-10-30T12:47:54Z</time>
      </trkpt>
      <trkpt lat="42.51093" lon="1.99154">
        <ele>1998</ele>
        <time>2016-10-30T12:47:55Z</time>
      </trkpt>
      <trkpt lat="42.51093" lon="1.99154">
        <ele>1997.5999755859</ele>
        <time>2016-10-30T12:47:56Z</time>
      </trkpt>
      <trkpt lat="42.51093" lon="1.99156">
        <ele>1996.8000488281</ele>
        <time>2016-10-30T12:47:57Z</time>
      </trkpt>
      <trkpt lat="42.51093" lon="1.99162">
        <ele>1996.8000488281</ele>
        <time>2016-10-30T12:48:02Z</time>
      </trkpt>
      <trkpt lat="42.51091" lon="1.99165">
        <ele>1996.8000488281</ele>
        <time>2016-10-30T12:48:08Z</time>
      </trkpt>
      <trkpt lat="42.5109" lon="1.99165">
        <ele>1996.4000244141</ele>
        <time>2016-10-30T12:48:13Z</time>
      </trkpt>
      <trkpt lat="42.5109" lon="1.99165">
        <ele>1996</ele>
        <time>2016-10-30T12:48:14Z</time>
      </trkpt>
      <trkpt lat="42.5109" lon="1.99165">
        <ele>1995.5999755859</ele>
        <time>2016-10-30T12:48:15Z</time>
      </trkpt>
      <trkpt lat="42.5109" lon="1.99165">
        <ele>1995.1999511719</ele>
        <time>2016-10-30T12:48:16Z</time>
      </trkpt>
      <trkpt lat="42.5109" lon="1.99165">
        <ele>1994.8000488281</ele>
        <time>2016-10-30T12:48:17Z</time>
      </trkpt>
      <trkpt lat="42.5109" lon="1.99168">
        <ele>1994.8000488281</ele>
        <time>2016-10-30T12:48:23Z</time>
      </trkpt>
      <trkpt lat="42.5109" lon="1.99171">
        <ele>1994.8000488281</ele>
        <time>2016-10-30T12:48:25Z</time>
      </trkpt>
      <trkpt lat="42.51091" lon="1.99175">
        <ele>1994.8000488281</ele>
        <time>2016-10-30T12:48:28Z</time>
      </trkpt>
      <trkpt lat="42.5109" lon="1.99179">
        <ele>1994.8000488281</ele>
        <time>2016-10-30T12:48:33Z</time>
      </trkpt>
      <trkpt lat="42.51089" lon="1.99183">
        <ele>1994.8000488281</ele>
        <time>2016-10-30T12:48:42Z</time>
      </trkpt>
      <trkpt lat="42.51089" lon="1.99185">
        <ele>1994.8000488281</ele>
        <time>2016-10-30T12:48:43Z</time>
      </trkpt>
      <trkpt lat="42.5109" lon="1.99189">
        <ele>1994.8000488281</ele>
        <time>2016-10-30T12:48:47Z</time>
      </trkpt>
      <trkpt lat="42.5109" lon="1.99191">
        <ele>1994.8000488281</ele>
        <time>2016-10-30T12:48:48Z</time>
      </trkpt>
      <trkpt lat="42.5109" lon="1.99195">
        <ele>1994.8000488281</ele>
        <time>2016-10-30T12:48:52Z</time>
      </trkpt>
      <trkpt lat="42.5109" lon="1.99197">
        <ele>1994.4000244141</ele>
        <time>2016-10-30T12:48:54Z</time>
      </trkpt>
      <trkpt lat="42.5109" lon="1.99198">
        <ele>1994</ele>
        <time>2016-10-30T12:48:55Z</time>
      </trkpt>
      <trkpt lat="42.5109" lon="1.992">
        <ele>1993.5999755859</ele>
        <time>2016-10-30T12:48:56Z</time>
      </trkpt>
      <trkpt lat="42.5109" lon="1.99201">
        <ele>1993.1999511719</ele>
        <time>2016-10-30T12:48:57Z</time>
      </trkpt>
      <trkpt lat="42.5109" lon="1.99202">
        <ele>1992.8000488281</ele>
        <time>2016-10-30T12:48:58Z</time>
      </trkpt>
      <trkpt lat="42.51091" lon="1.99204">
        <ele>1992.8000488281</ele>
        <time>2016-10-30T12:49:04Z</time>
      </trkpt>
      <trkpt lat="42.5109" lon="1.99209">
        <ele>1992.4000244141</ele>
        <time>2016-10-30T12:49:08Z</time>
      </trkpt>
      <trkpt lat="42.5109" lon="1.99211">
        <ele>1991.8000488281</ele>
        <time>2016-10-30T12:49:09Z</time>
      </trkpt>
      <trkpt lat="42.5109" lon="1.99212">
        <ele>1991.4000244141</ele>
        <time>2016-10-30T12:49:10Z</time>
      </trkpt>
      <trkpt lat="42.5109" lon="1.99212">
        <ele>1990.5999755859</ele>
        <time>2016-10-30T12:49:11Z</time>
      </trkpt>
      <trkpt lat="42.5109" lon="1.99219">
        <ele>1990.5999755859</ele>
        <time>2016-10-30T12:49:15Z</time>
      </trkpt>
      <trkpt lat="42.5109" lon="1.9922">
        <ele>1990.1999511719</ele>
        <time>2016-10-30T12:49:16Z</time>
      </trkpt>
      <trkpt lat="42.5109" lon="1.99221">
        <ele>1989.8000488281</ele>
        <time>2016-10-30T12:49:17Z</time>
      </trkpt>
      <trkpt lat="42.51089" lon="1.99222">
        <ele>1989.4000244141</ele>
        <time>2016-10-30T12:49:18Z</time>
      </trkpt>
      <trkpt lat="42.5109" lon="1.99222">
        <ele>1988.8000488281</ele>
        <time>2016-10-30T12:49:19Z</time>
      </trkpt>
      <trkpt lat="42.5109" lon="1.99224">
        <ele>1988.4000244141</ele>
        <time>2016-10-30T12:49:20Z</time>
      </trkpt>
      <trkpt lat="42.51089" lon="1.99228">
        <ele>1988.4000244141</ele>
        <time>2016-10-30T12:49:22Z</time>
      </trkpt>
      <trkpt lat="42.51089" lon="1.99231">
        <ele>1988</ele>
        <time>2016-10-30T12:49:25Z</time>
      </trkpt>
      <trkpt lat="42.51089" lon="1.99233">
        <ele>1987.5999755859</ele>
        <time>2016-10-30T12:49:26Z</time>
      </trkpt>
      <trkpt lat="42.51089" lon="1.99234">
        <ele>1987.1999511719</ele>
        <time>2016-10-30T12:49:27Z</time>
      </trkpt>
      <trkpt lat="42.51089" lon="1.99235">
        <ele>1986.5999755859</ele>
        <time>2016-10-30T12:49:28Z</time>
      </trkpt>
      <trkpt lat="42.51088" lon="1.99237">
        <ele>1986.1999511719</ele>
        <time>2016-10-30T12:49:29Z</time>
      </trkpt>
      <trkpt lat="42.51088" lon="1.99242">
        <ele>1986.1999511719</ele>
        <time>2016-10-30T12:49:34Z</time>
      </trkpt>
      <trkpt lat="42.51087" lon="1.99247">
        <ele>1985.8000488281</ele>
        <time>2016-10-30T12:49:37Z</time>
      </trkpt>
      <trkpt lat="42.51087" lon="1.99248">
        <ele>1985.4000244141</ele>
        <time>2016-10-30T12:49:38Z</time>
      </trkpt>
      <trkpt lat="42.51087" lon="1.9925">
        <ele>1985</ele>
        <time>2016-10-30T12:49:39Z</time>
      </trkpt>
      <trkpt lat="42.51087" lon="1.99251">
        <ele>1984.5999755859</ele>
        <time>2016-10-30T12:49:40Z</time>
      </trkpt>
      <trkpt lat="42.51086" lon="1.99253">
        <ele>1984.1999511719</ele>
        <time>2016-10-30T12:49:41Z</time>
      </trkpt>
      <trkpt lat="42.51086" lon="1.99259">
        <ele>1984.1999511719</ele>
        <time>2016-10-30T12:49:45Z</time>
      </trkpt>
      <trkpt lat="42.51085" lon="1.99264">
        <ele>1983.8000488281</ele>
        <time>2016-10-30T12:49:48Z</time>
      </trkpt>
      <trkpt lat="42.51085" lon="1.99265">
        <ele>1983.4000244141</ele>
        <time>2016-10-30T12:49:49Z</time>
      </trkpt>
      <trkpt lat="42.51086" lon="1.99266">
        <ele>1983</ele>
        <time>2016-10-30T12:49:50Z</time>
      </trkpt>
      <trkpt lat="42.51086" lon="1.99267">
        <ele>1982.5999755859</ele>
        <time>2016-10-30T12:49:51Z</time>
      </trkpt>
      <trkpt lat="42.51087" lon="1.99268">
        <ele>1982.1999511719</ele>
        <time>2016-10-30T12:49:52Z</time>
      </trkpt>
      <trkpt lat="42.51086" lon="1.99277">
        <ele>1982.1999511719</ele>
        <time>2016-10-30T12:49:57Z</time>
      </trkpt>
      <trkpt lat="42.51086" lon="1.99285">
        <ele>1981.5999755859</ele>
        <time>2016-10-30T12:50:02Z</time>
      </trkpt>
      <trkpt lat="42.51086" lon="1.99286">
        <ele>1981.1999511719</ele>
        <time>2016-10-30T12:50:03Z</time>
      </trkpt>
      <trkpt lat="42.51086" lon="1.99287">
        <ele>1980.8000488281</ele>
        <time>2016-10-30T12:50:04Z</time>
      </trkpt>
      <trkpt lat="42.51086" lon="1.99288">
        <ele>1980.1999511719</ele>
        <time>2016-10-30T12:50:05Z</time>
      </trkpt>
      <trkpt lat="42.51086" lon="1.9929">
        <ele>1979.8000488281</ele>
        <time>2016-10-30T12:50:06Z</time>
      </trkpt>
      <trkpt lat="42.51086" lon="1.99294">
        <ele>1979.8000488281</ele>
        <time>2016-10-30T12:50:08Z</time>
      </trkpt>
      <trkpt lat="42.51087" lon="1.99303">
        <ele>1979.8000488281</ele>
        <time>2016-10-30T12:50:14Z</time>
      </trkpt>
      <trkpt lat="42.51087" lon="1.99309">
        <ele>1979.4000244141</ele>
        <time>2016-10-30T12:50:18Z</time>
      </trkpt>
      <trkpt lat="42.51086" lon="1.9931">
        <ele>1979</ele>
        <time>2016-10-30T12:50:19Z</time>
      </trkpt>
      <trkpt lat="42.51086" lon="1.99312">
        <ele>1978.5999755859</ele>
        <time>2016-10-30T12:50:20Z</time>
      </trkpt>
      <trkpt lat="42.51086" lon="1.99313">
        <ele>1978.1999511719</ele>
        <time>2016-10-30T12:50:21Z</time>
      </trkpt>
      <trkpt lat="42.51086" lon="1.99313">
        <ele>1977.8000488281</ele>
        <time>2016-10-30T12:50:22Z</time>
      </trkpt>
      <trkpt lat="42.51086" lon="1.99317">
        <ele>1977.8000488281</ele>
        <time>2016-10-30T12:50:24Z</time>
      </trkpt>
      <trkpt lat="42.51084" lon="1.99325">
        <ele>1977.8000488281</ele>
        <time>2016-10-30T12:50:30Z</time>
      </trkpt>
      <trkpt lat="42.51083" lon="1.9933">
        <ele>1977.4000244141</ele>
        <time>2016-10-30T12:50:33Z</time>
      </trkpt>
      <trkpt lat="42.51083" lon="1.99332">
        <ele>1976.8000488281</ele>
        <time>2016-10-30T12:50:34Z</time>
      </trkpt>
      <trkpt lat="42.51083" lon="1.99333">
        <ele>1976.4000244141</ele>
        <time>2016-10-30T12:50:35Z</time>
      </trkpt>
      <trkpt lat="42.51082" lon="1.99334">
        <ele>1976</ele>
        <time>2016-10-30T12:50:36Z</time>
      </trkpt>
      <trkpt lat="42.51083" lon="1.99335">
        <ele>1975.5999755859</ele>
        <time>2016-10-30T12:50:37Z</time>
      </trkpt>
      <trkpt lat="42.51083" lon="1.99337">
        <ele>1975.5999755859</ele>
        <time>2016-10-30T12:50:38Z</time>
      </trkpt>
      <trkpt lat="42.51083" lon="1.99345">
        <ele>1975.5999755859</ele>
        <time>2016-10-30T12:50:42Z</time>
      </trkpt>
      <trkpt lat="42.51082" lon="1.99351">
        <ele>1975.5999755859</ele>
        <time>2016-10-30T12:50:47Z</time>
      </trkpt>
      <trkpt lat="42.51083" lon="1.99352">
        <ele>1975.1999511719</ele>
        <time>2016-10-30T12:50:49Z</time>
      </trkpt>
      <trkpt lat="42.51083" lon="1.99354">
        <ele>1974.4000244141</ele>
        <time>2016-10-30T12:50:50Z</time>
      </trkpt>
      <trkpt lat="42.51083" lon="1.99356">
        <ele>1974</ele>
        <time>2016-10-30T12:50:51Z</time>
      </trkpt>
      <trkpt lat="42.51083" lon="1.99357">
        <ele>1973.5999755859</ele>
        <time>2016-10-30T12:50:52Z</time>
      </trkpt>
      <trkpt lat="42.51083" lon="1.99359">
        <ele>1973.5999755859</ele>
        <time>2016-10-30T12:50:53Z</time>
      </trkpt>
      <trkpt lat="42.51082" lon="1.99367">
        <ele>1973.5999755859</ele>
        <time>2016-10-30T12:50:58Z</time>
      </trkpt>
      <trkpt lat="42.51082" lon="1.99368">
        <ele>1973</ele>
        <time>2016-10-30T12:51:01Z</time>
      </trkpt>
      <trkpt lat="42.51082" lon="1.9937">
        <ele>1972.5999755859</ele>
        <time>2016-10-30T12:51:02Z</time>
      </trkpt>
      <trkpt lat="42.51082" lon="1.99372">
        <ele>1972.1999511719</ele>
        <time>2016-10-30T12:51:03Z</time>
      </trkpt>
      <trkpt lat="42.51082" lon="1.99373">
        <ele>1971.8000488281</ele>
        <time>2016-10-30T12:51:04Z</time>
      </trkpt>
      <trkpt lat="42.51083" lon="1.99374">
        <ele>1971.4000244141</ele>
        <time>2016-10-30T12:51:05Z</time>
      </trkpt>
      <trkpt lat="42.51083" lon="1.99376">
        <ele>1971.4000244141</ele>
        <time>2016-10-30T12:51:06Z</time>
      </trkpt>
      <trkpt lat="42.51084" lon="1.99379">
        <ele>1971.4000244141</ele>
        <time>2016-10-30T12:51:08Z</time>
      </trkpt>
      <trkpt lat="42.51084" lon="1.99389">
        <ele>1971.4000244141</ele>
        <time>2016-10-30T12:51:14Z</time>
      </trkpt>
      <trkpt lat="42.51086" lon="1.99395">
        <ele>1970.8000488281</ele>
        <time>2016-10-30T12:51:18Z</time>
      </trkpt>
      <trkpt lat="42.51086" lon="1.99395">
        <ele>1970.4000244141</ele>
        <time>2016-10-30T12:51:19Z</time>
      </trkpt>
      <trkpt lat="42.51086" lon="1.99395">
        <ele>1970</ele>
        <time>2016-10-30T12:51:20Z</time>
      </trkpt>
      <trkpt lat="42.51087" lon="1.99398">
        <ele>1969.5999755859</ele>
        <time>2016-10-30T12:51:21Z</time>
      </trkpt>
      <trkpt lat="42.51087" lon="1.99399">
        <ele>1969.1999511719</ele>
        <time>2016-10-30T12:51:22Z</time>
      </trkpt>
      <trkpt lat="42.51087" lon="1.99403">
        <ele>1969.1999511719</ele>
        <time>2016-10-30T12:51:24Z</time>
      </trkpt>
      <trkpt lat="42.51087" lon="1.99405">
        <ele>1969.1999511719</ele>
        <time>2016-10-30T12:51:25Z</time>
      </trkpt>
      <trkpt lat="42.51089" lon="1.99413">
        <ele>1968.5999755859</ele>
        <time>2016-10-30T12:51:31Z</time>
      </trkpt>
      <trkpt lat="42.51089" lon="1.99414">
        <ele>1968.1999511719</ele>
        <time>2016-10-30T12:51:32Z</time>
      </trkpt>
      <trkpt lat="42.51089" lon="1.99416">
        <ele>1967.8000488281</ele>
        <time>2016-10-30T12:51:33Z</time>
      </trkpt>
      <trkpt lat="42.51091" lon="1.99417">
        <ele>1967.4000244141</ele>
        <time>2016-10-30T12:51:34Z</time>
      </trkpt>
      <trkpt lat="42.51091" lon="1.99419">
        <ele>1967</ele>
        <time>2016-10-30T12:51:35Z</time>
      </trkpt>
      <trkpt lat="42.51091" lon="1.99421">
        <ele>1967</ele>
        <time>2016-10-30T12:51:36Z</time>
      </trkpt>
      <trkpt lat="42.51094" lon="1.99428">
        <ele>1966.4000244141</ele>
        <time>2016-10-30T12:51:42Z</time>
      </trkpt>
      <trkpt lat="42.51095" lon="1.9943">
        <ele>1966</ele>
        <time>2016-10-30T12:51:43Z</time>
      </trkpt>
      <trkpt lat="42.51095" lon="1.99432">
        <ele>1965.5999755859</ele>
        <time>2016-10-30T12:51:44Z</time>
      </trkpt>
      <trkpt lat="42.51096" lon="1.99433">
        <ele>1965.1999511719</ele>
        <time>2016-10-30T12:51:45Z</time>
      </trkpt>
      <trkpt lat="42.51096" lon="1.99433">
        <ele>1964.8000488281</ele>
        <time>2016-10-30T12:51:46Z</time>
      </trkpt>
      <trkpt lat="42.51097" lon="1.99434">
        <ele>1964.8000488281</ele>
        <time>2016-10-30T12:51:47Z</time>
      </trkpt>
      <trkpt lat="42.51097" lon="1.9944">
        <ele>1964.8000488281</ele>
        <time>2016-10-30T12:51:51Z</time>
      </trkpt>
      <trkpt lat="42.51098" lon="1.99441">
        <ele>1964.1999511719</ele>
        <time>2016-10-30T12:51:52Z</time>
      </trkpt>
      <trkpt lat="42.51098" lon="1.99443">
        <ele>1963.8000488281</ele>
        <time>2016-10-30T12:51:53Z</time>
      </trkpt>
      <trkpt lat="42.51098" lon="1.99444">
        <ele>1963.4000244141</ele>
        <time>2016-10-30T12:51:54Z</time>
      </trkpt>
      <trkpt lat="42.51098" lon="1.99446">
        <ele>1963</ele>
        <time>2016-10-30T12:51:55Z</time>
      </trkpt>
      <trkpt lat="42.51098" lon="1.99447">
        <ele>1962.4000244141</ele>
        <time>2016-10-30T12:51:56Z</time>
      </trkpt>
      <trkpt lat="42.51098" lon="1.99449">
        <ele>1962.4000244141</ele>
        <time>2016-10-30T12:51:58Z</time>
      </trkpt>
      <trkpt lat="42.51098" lon="1.99453">
        <ele>1962.4000244141</ele>
        <time>2016-10-30T12:52:01Z</time>
      </trkpt>
      <trkpt lat="42.51098" lon="1.99456">
        <ele>1962</ele>
        <time>2016-10-30T12:52:03Z</time>
      </trkpt>
      <trkpt lat="42.51098" lon="1.99457">
        <ele>1961.1999511719</ele>
        <time>2016-10-30T12:52:04Z</time>
      </trkpt>
      <trkpt lat="42.51098" lon="1.99458">
        <ele>1960.8000488281</ele>
        <time>2016-10-30T12:52:05Z</time>
      </trkpt>
      <trkpt lat="42.51098" lon="1.9946">
        <ele>1960.1999511719</ele>
        <time>2016-10-30T12:52:06Z</time>
      </trkpt>
      <trkpt lat="42.51098" lon="1.99466">
        <ele>1960.1999511719</ele>
        <time>2016-10-30T12:52:10Z</time>
      </trkpt>
      <trkpt lat="42.51098" lon="1.99467">
        <ele>1959.8000488281</ele>
        <time>2016-10-30T12:52:12Z</time>
      </trkpt>
      <trkpt lat="42.51098" lon="1.99469">
        <ele>1959.4000244141</ele>
        <time>2016-10-30T12:52:13Z</time>
      </trkpt>
      <trkpt lat="42.51098" lon="1.9947">
        <ele>1959</ele>
        <time>2016-10-30T12:52:14Z</time>
      </trkpt>
      <trkpt lat="42.51099" lon="1.99472">
        <ele>1958.5999755859</ele>
        <time>2016-10-30T12:52:15Z</time>
      </trkpt>
      <trkpt lat="42.51098" lon="1.99474">
        <ele>1958.1999511719</ele>
        <time>2016-10-30T12:52:16Z</time>
      </trkpt>
      <trkpt lat="42.511" lon="1.9948">
        <ele>1958.1999511719</ele>
        <time>2016-10-30T12:52:21Z</time>
      </trkpt>
      <trkpt lat="42.511" lon="1.99482">
        <ele>1958.1999511719</ele>
        <time>2016-10-30T12:52:22Z</time>
      </trkpt>
      <trkpt lat="42.511" lon="1.99485">
        <ele>1957.8000488281</ele>
        <time>2016-10-30T12:52:25Z</time>
      </trkpt>
      <trkpt lat="42.511" lon="1.99487">
        <ele>1957.4000244141</ele>
        <time>2016-10-30T12:52:26Z</time>
      </trkpt>
      <trkpt lat="42.51101" lon="1.99488">
        <ele>1957</ele>
        <time>2016-10-30T12:52:27Z</time>
      </trkpt>
      <trkpt lat="42.51101" lon="1.99491">
        <ele>1956.1999511719</ele>
        <time>2016-10-30T12:52:28Z</time>
      </trkpt>
      <trkpt lat="42.511" lon="1.99496">
        <ele>1956.1999511719</ele>
        <time>2016-10-30T12:52:32Z</time>
      </trkpt>
      <trkpt lat="42.51101" lon="1.99503">
        <ele>1955.8000488281</ele>
        <time>2016-10-30T12:52:37Z</time>
      </trkpt>
      <trkpt lat="42.51101" lon="1.99504">
        <ele>1955.4000244141</ele>
        <time>2016-10-30T12:52:38Z</time>
      </trkpt>
      <trkpt lat="42.51101" lon="1.99506">
        <ele>1955</ele>
        <time>2016-10-30T12:52:39Z</time>
      </trkpt>
      <trkpt lat="42.51101" lon="1.99507">
        <ele>1954.5999755859</ele>
        <time>2016-10-30T12:52:40Z</time>
      </trkpt>
      <trkpt lat="42.51102" lon="1.99508">
        <ele>1954.1999511719</ele>
        <time>2016-10-30T12:52:41Z</time>
      </trkpt>
      <trkpt lat="42.51102" lon="1.99511">
        <ele>1954.1999511719</ele>
        <time>2016-10-30T12:52:44Z</time>
      </trkpt>
      <trkpt lat="42.51102" lon="1.99518">
        <ele>1953.8000488281</ele>
        <time>2016-10-30T12:52:48Z</time>
      </trkpt>
      <trkpt lat="42.51102" lon="1.9952">
        <ele>1953.1999511719</ele>
        <time>2016-10-30T12:52:49Z</time>
      </trkpt>
      <trkpt lat="42.51102" lon="1.99522">
        <ele>1952.8000488281</ele>
        <time>2016-10-30T12:52:50Z</time>
      </trkpt>
      <trkpt lat="42.51102" lon="1.99524">
        <ele>1952.4000244141</ele>
        <time>2016-10-30T12:52:51Z</time>
      </trkpt>
      <trkpt lat="42.51102" lon="1.99525">
        <ele>1952</ele>
        <time>2016-10-30T12:52:52Z</time>
      </trkpt>
      <trkpt lat="42.51102" lon="1.99528">
        <ele>1952</ele>
        <time>2016-10-30T12:52:54Z</time>
      </trkpt>
      <trkpt lat="42.51103" lon="1.99535">
        <ele>1952</ele>
        <time>2016-10-30T12:53:01Z</time>
      </trkpt>
      <trkpt lat="42.51104" lon="1.99538">
        <ele>1951.4000244141</ele>
        <time>2016-10-30T12:53:02Z</time>
      </trkpt>
      <trkpt lat="42.51104" lon="1.9954">
        <ele>1951</ele>
        <time>2016-10-30T12:53:03Z</time>
      </trkpt>
      <trkpt lat="42.51105" lon="1.99541">
        <ele>1950.5999755859</ele>
        <time>2016-10-30T12:53:04Z</time>
      </trkpt>
      <trkpt lat="42.51105" lon="1.99542">
        <ele>1950.1999511719</ele>
        <time>2016-10-30T12:53:05Z</time>
      </trkpt>
      <trkpt lat="42.51105" lon="1.99543">
        <ele>1949.8000488281</ele>
        <time>2016-10-30T12:53:06Z</time>
      </trkpt>
      <trkpt lat="42.51105" lon="1.99545">
        <ele>1949.8000488281</ele>
        <time>2016-10-30T12:53:07Z</time>
      </trkpt>
      <trkpt lat="42.51106" lon="1.99553">
        <ele>1949.8000488281</ele>
        <time>2016-10-30T12:53:13Z</time>
      </trkpt>
      <trkpt lat="42.51107" lon="1.99559">
        <ele>1949.4000244141</ele>
        <time>2016-10-30T12:53:16Z</time>
      </trkpt>
      <trkpt lat="42.51107" lon="1.99561">
        <ele>1949</ele>
        <time>2016-10-30T12:53:17Z</time>
      </trkpt>
      <trkpt lat="42.51107" lon="1.99563">
        <ele>1948.1999511719</ele>
        <time>2016-10-30T12:53:18Z</time>
      </trkpt>
      <trkpt lat="42.51107" lon="1.99563">
        <ele>1947.8000488281</ele>
        <time>2016-10-30T12:53:19Z</time>
      </trkpt>
      <trkpt lat="42.51107" lon="1.99565">
        <ele>1947.8000488281</ele>
        <time>2016-10-30T12:53:20Z</time>
      </trkpt>
      <trkpt lat="42.51107" lon="1.99568">
        <ele>1947.8000488281</ele>
        <time>2016-10-30T12:53:22Z</time>
      </trkpt>
      <trkpt lat="42.51106" lon="1.99575">
        <ele>1947.8000488281</ele>
        <time>2016-10-30T12:53:26Z</time>
      </trkpt>
      <trkpt lat="42.51106" lon="1.99574">
        <ele>1947.1999511719</ele>
        <time>2016-10-30T12:53:27Z</time>
      </trkpt>
      <trkpt lat="42.51106" lon="1.99577">
        <ele>1946.8000488281</ele>
        <time>2016-10-30T12:53:28Z</time>
      </trkpt>
      <trkpt lat="42.51106" lon="1.99578">
        <ele>1946.4000244141</ele>
        <time>2016-10-30T12:53:29Z</time>
      </trkpt>
      <trkpt lat="42.51106" lon="1.9958">
        <ele>1945.8000488281</ele>
        <time>2016-10-30T12:53:30Z</time>
      </trkpt>
      <trkpt lat="42.51106" lon="1.9958">
        <ele>1945.4000244141</ele>
        <time>2016-10-30T12:53:31Z</time>
      </trkpt>
      <trkpt lat="42.51105" lon="1.99582">
        <ele>1945.4000244141</ele>
        <time>2016-10-30T12:53:32Z</time>
      </trkpt>
      <trkpt lat="42.51105" lon="1.99588">
        <ele>1945</ele>
        <time>2016-10-30T12:53:36Z</time>
      </trkpt>
      <trkpt lat="42.51105" lon="1.99589">
        <ele>1944.5999755859</ele>
        <time>2016-10-30T12:53:37Z</time>
      </trkpt>
      <trkpt lat="42.51105" lon="1.9959">
        <ele>1944.1999511719</ele>
        <time>2016-10-30T12:53:38Z</time>
      </trkpt>
      <trkpt lat="42.51105" lon="1.99592">
        <ele>1943.8000488281</ele>
        <time>2016-10-30T12:53:39Z</time>
      </trkpt>
      <trkpt lat="42.51105" lon="1.99593">
        <ele>1943.1999511719</ele>
        <time>2016-10-30T12:53:40Z</time>
      </trkpt>
      <trkpt lat="42.51104" lon="1.99595">
        <ele>1942.8000488281</ele>
        <time>2016-10-30T12:53:43Z</time>
      </trkpt>
      <trkpt lat="42.51104" lon="1.99595">
        <ele>1942.4000244141</ele>
        <time>2016-10-30T12:53:44Z</time>
      </trkpt>
      <trkpt lat="42.51105" lon="1.99596">
        <ele>1942</ele>
        <time>2016-10-30T12:53:45Z</time>
      </trkpt>
      <trkpt lat="42.51105" lon="1.99596">
        <ele>1941.5999755859</ele>
        <time>2016-10-30T12:53:46Z</time>
      </trkpt>
      <trkpt lat="42.51105" lon="1.99597">
        <ele>1941.1999511719</ele>
        <time>2016-10-30T12:53:47Z</time>
      </trkpt>
      <trkpt lat="42.51104" lon="1.996">
        <ele>1941.1999511719</ele>
        <time>2016-10-30T12:53:49Z</time>
      </trkpt>
      <trkpt lat="42.51105" lon="1.99608">
        <ele>1941.1999511719</ele>
        <time>2016-10-30T12:53:55Z</time>
      </trkpt>
      <trkpt lat="42.51106" lon="1.99609">
        <ele>1941.1999511719</ele>
        <time>2016-10-30T12:53:56Z</time>
      </trkpt>
      <trkpt lat="42.51109" lon="1.99614">
        <ele>1941.1999511719</ele>
        <time>2016-10-30T12:54:00Z</time>
      </trkpt>
      <trkpt lat="42.51109" lon="1.99614">
        <ele>1940.8000488281</ele>
        <time>2016-10-30T12:54:03Z</time>
      </trkpt>
      <trkpt lat="42.51109" lon="1.99614">
        <ele>1940.4000244141</ele>
        <time>2016-10-30T12:54:04Z</time>
      </trkpt>
      <trkpt lat="42.51111" lon="1.99617">
        <ele>1939.8000488281</ele>
        <time>2016-10-30T12:54:05Z</time>
      </trkpt>
      <trkpt lat="42.51112" lon="1.99618">
        <ele>1939.4000244141</ele>
        <time>2016-10-30T12:54:06Z</time>
      </trkpt>
      <trkpt lat="42.51113" lon="1.9962">
        <ele>1939</ele>
        <time>2016-10-30T12:54:07Z</time>
      </trkpt>
      <trkpt lat="42.51119" lon="1.99627">
        <ele>1939</ele>
        <time>2016-10-30T12:54:13Z</time>
      </trkpt>
      <trkpt lat="42.51121" lon="1.99632">
        <ele>1939</ele>
        <time>2016-10-30T12:54:18Z</time>
      </trkpt>
      <trkpt lat="42.51126" lon="1.99639">
        <ele>1939</ele>
        <time>2016-10-30T12:54:24Z</time>
      </trkpt>
      <trkpt lat="42.5113" lon="1.99643">
        <ele>1938.5999755859</ele>
        <time>2016-10-30T12:54:28Z</time>
      </trkpt>
      <trkpt lat="42.5113" lon="1.99644">
        <ele>1938.1999511719</ele>
        <time>2016-10-30T12:54:29Z</time>
      </trkpt>
      <trkpt lat="42.51131" lon="1.99646">
        <ele>1937.8000488281</ele>
        <time>2016-10-30T12:54:30Z</time>
      </trkpt>
      <trkpt lat="42.51132" lon="1.99647">
        <ele>1937.4000244141</ele>
        <time>2016-10-30T12:54:31Z</time>
      </trkpt>
      <trkpt lat="42.51133" lon="1.99649">
        <ele>1937</ele>
        <time>2016-10-30T12:54:32Z</time>
      </trkpt>
      <trkpt lat="42.51139" lon="1.99653">
        <ele>1937</ele>
        <time>2016-10-30T12:54:36Z</time>
      </trkpt>
      <trkpt lat="42.51141" lon="1.99656">
        <ele>1937</ele>
        <time>2016-10-30T12:54:38Z</time>
      </trkpt>
      <trkpt lat="42.51143" lon="1.99658">
        <ele>1937</ele>
        <time>2016-10-30T12:54:40Z</time>
      </trkpt>
      <trkpt lat="42.51148" lon="1.99663">
        <ele>1937</ele>
        <time>2016-10-30T12:54:45Z</time>
      </trkpt>
      <trkpt lat="42.51152" lon="1.9967">
        <ele>1937</ele>
        <time>2016-10-30T12:54:51Z</time>
      </trkpt>
      <trkpt lat="42.51158" lon="1.99678">
        <ele>1936.5999755859</ele>
        <time>2016-10-30T12:54:57Z</time>
      </trkpt>
      <trkpt lat="42.51159" lon="1.99679">
        <ele>1936.1999511719</ele>
        <time>2016-10-30T12:54:58Z</time>
      </trkpt>
      <trkpt lat="42.51159" lon="1.99681">
        <ele>1935.5999755859</ele>
        <time>2016-10-30T12:54:59Z</time>
      </trkpt>
      <trkpt lat="42.51159" lon="1.99683">
        <ele>1935.1999511719</ele>
        <time>2016-10-30T12:55:00Z</time>
      </trkpt>
      <trkpt lat="42.5116" lon="1.99683">
        <ele>1934.8000488281</ele>
        <time>2016-10-30T12:55:01Z</time>
      </trkpt>
      <trkpt lat="42.5116" lon="1.99684">
        <ele>1934.8000488281</ele>
        <time>2016-10-30T12:55:02Z</time>
      </trkpt>
      <trkpt lat="42.51166" lon="1.99694">
        <ele>1934.8000488281</ele>
        <time>2016-10-30T12:55:09Z</time>
      </trkpt>
      <trkpt lat="42.51168" lon="1.99699">
        <ele>1934.4000244141</ele>
        <time>2016-10-30T12:55:13Z</time>
      </trkpt>
      <trkpt lat="42.51169" lon="1.997">
        <ele>1934</ele>
        <time>2016-10-30T12:55:14Z</time>
      </trkpt>
      <trkpt lat="42.5117" lon="1.99701">
        <ele>1933.5999755859</ele>
        <time>2016-10-30T12:55:15Z</time>
      </trkpt>
      <trkpt lat="42.5117" lon="1.99702">
        <ele>1933.1999511719</ele>
        <time>2016-10-30T12:55:16Z</time>
      </trkpt>
      <trkpt lat="42.51171" lon="1.99704">
        <ele>1932.8000488281</ele>
        <time>2016-10-30T12:55:17Z</time>
      </trkpt>
      <trkpt lat="42.51172" lon="1.99706">
        <ele>1932.8000488281</ele>
        <time>2016-10-30T12:55:18Z</time>
      </trkpt>
      <trkpt lat="42.51176" lon="1.99715">
        <ele>1932.8000488281</ele>
        <time>2016-10-30T12:55:25Z</time>
      </trkpt>
      <trkpt lat="42.51177" lon="1.99719">
        <ele>1932.8000488281</ele>
        <time>2016-10-30T12:55:28Z</time>
      </trkpt>
      <trkpt lat="42.51179" lon="1.99723">
        <ele>1932.8000488281</ele>
        <time>2016-10-30T12:55:31Z</time>
      </trkpt>
      <trkpt lat="42.51181" lon="1.99727">
        <ele>1932.1999511719</ele>
        <time>2016-10-30T12:55:34Z</time>
      </trkpt>
      <trkpt lat="42.51181" lon="1.99728">
        <ele>1931.5999755859</ele>
        <time>2016-10-30T12:55:35Z</time>
      </trkpt>
      <trkpt lat="42.51182" lon="1.99729">
        <ele>1931.1999511719</ele>
        <time>2016-10-30T12:55:36Z</time>
      </trkpt>
      <trkpt lat="42.51182" lon="1.99731">
        <ele>1930.5999755859</ele>
        <time>2016-10-30T12:55:37Z</time>
      </trkpt>
      <trkpt lat="42.51183" lon="1.99732">
        <ele>1930</ele>
        <time>2016-10-30T12:55:38Z</time>
      </trkpt>
      <trkpt lat="42.51187" lon="1.99742">
        <ele>1930</ele>
        <time>2016-10-30T12:55:46Z</time>
      </trkpt>
      <trkpt lat="42.51191" lon="1.99753">
        <ele>1930</ele>
        <time>2016-10-30T12:55:54Z</time>
      </trkpt>
      <trkpt lat="42.51195" lon="1.99762">
        <ele>1930</ele>
        <time>2016-10-30T12:56:01Z</time>
      </trkpt>
      <trkpt lat="42.51199" lon="1.99774">
        <ele>1929.5999755859</ele>
        <time>2016-10-30T12:56:10Z</time>
      </trkpt>
      <trkpt lat="42.512" lon="1.99776">
        <ele>1929.1999511719</ele>
        <time>2016-10-30T12:56:11Z</time>
      </trkpt>
      <trkpt lat="42.512" lon="1.99777">
        <ele>1928.8000488281</ele>
        <time>2016-10-30T12:56:12Z</time>
      </trkpt>
      <trkpt lat="42.512" lon="1.99779">
        <ele>1928.4000244141</ele>
        <time>2016-10-30T12:56:13Z</time>
      </trkpt>
      <trkpt lat="42.51201" lon="1.9978">
        <ele>1928</ele>
        <time>2016-10-30T12:56:14Z</time>
      </trkpt>
      <trkpt lat="42.51203" lon="1.99787">
        <ele>1928</ele>
        <time>2016-10-30T12:56:19Z</time>
      </trkpt>
      <trkpt lat="42.51205" lon="1.99795">
        <ele>1927.5999755859</ele>
        <time>2016-10-30T12:56:24Z</time>
      </trkpt>
      <trkpt lat="42.51205" lon="1.99796">
        <ele>1927.1999511719</ele>
        <time>2016-10-30T12:56:25Z</time>
      </trkpt>
      <trkpt lat="42.51205" lon="1.99798">
        <ele>1926.8000488281</ele>
        <time>2016-10-30T12:56:26Z</time>
      </trkpt>
      <trkpt lat="42.51205" lon="1.99799">
        <ele>1926.4000244141</ele>
        <time>2016-10-30T12:56:27Z</time>
      </trkpt>
      <trkpt lat="42.51206" lon="1.998">
        <ele>1926</ele>
        <time>2016-10-30T12:56:28Z</time>
      </trkpt>
      <trkpt lat="42.51208" lon="1.99812">
        <ele>1926</ele>
        <time>2016-10-30T12:56:36Z</time>
      </trkpt>
      <trkpt lat="42.51209" lon="1.99819">
        <ele>1925.4000244141</ele>
        <time>2016-10-30T12:56:41Z</time>
      </trkpt>
      <trkpt lat="42.5121" lon="1.99821">
        <ele>1925</ele>
        <time>2016-10-30T12:56:42Z</time>
      </trkpt>
      <trkpt lat="42.5121" lon="1.99822">
        <ele>1924</ele>
        <time>2016-10-30T12:56:43Z</time>
      </trkpt>
      <trkpt lat="42.5121" lon="1.99824">
        <ele>1923.5999755859</ele>
        <time>2016-10-30T12:56:44Z</time>
      </trkpt>
      <trkpt lat="42.51212" lon="1.99837">
        <ele>1923.5999755859</ele>
        <time>2016-10-30T12:56:52Z</time>
      </trkpt>
      <trkpt lat="42.51215" lon="1.99852">
        <ele>1923.5999755859</ele>
        <time>2016-10-30T12:57:01Z</time>
      </trkpt>
      <trkpt lat="42.51215" lon="1.99853">
        <ele>1923</ele>
        <time>2016-10-30T12:57:02Z</time>
      </trkpt>
      <trkpt lat="42.51215" lon="1.99855">
        <ele>1922.5999755859</ele>
        <time>2016-10-30T12:57:03Z</time>
      </trkpt>
      <trkpt lat="42.51216" lon="1.99856">
        <ele>1922.1999511719</ele>
        <time>2016-10-30T12:57:04Z</time>
      </trkpt>
      <trkpt lat="42.51216" lon="1.99858">
        <ele>1921.8000488281</ele>
        <time>2016-10-30T12:57:05Z</time>
      </trkpt>
      <trkpt lat="42.51216" lon="1.99859">
        <ele>1921.4000244141</ele>
        <time>2016-10-30T12:57:06Z</time>
      </trkpt>
      <trkpt lat="42.51217" lon="1.99863">
        <ele>1921.4000244141</ele>
        <time>2016-10-30T12:57:08Z</time>
      </trkpt>
      <trkpt lat="42.51218" lon="1.99872">
        <ele>1921</ele>
        <time>2016-10-30T12:57:14Z</time>
      </trkpt>
      <trkpt lat="42.51219" lon="1.99873">
        <ele>1920.5999755859</ele>
        <time>2016-10-30T12:57:15Z</time>
      </trkpt>
      <trkpt lat="42.51219" lon="1.99875">
        <ele>1920.1999511719</ele>
        <time>2016-10-30T12:57:16Z</time>
      </trkpt>
      <trkpt lat="42.51219" lon="1.99877">
        <ele>1919.5999755859</ele>
        <time>2016-10-30T12:57:17Z</time>
      </trkpt>
      <trkpt lat="42.5122" lon="1.99878">
        <ele>1919.1999511719</ele>
        <time>2016-10-30T12:57:18Z</time>
      </trkpt>
      <trkpt lat="42.5122" lon="1.99885">
        <ele>1919.1999511719</ele>
        <time>2016-10-30T12:57:22Z</time>
      </trkpt>
      <trkpt lat="42.51223" lon="1.99892">
        <ele>1919.1999511719</ele>
        <time>2016-10-30T12:57:27Z</time>
      </trkpt>
      <trkpt lat="42.51224" lon="1.99895">
        <ele>1919.1999511719</ele>
        <time>2016-10-30T12:57:29Z</time>
      </trkpt>
      <trkpt lat="42.51225" lon="1.99904">
        <ele>1919.1999511719</ele>
        <time>2016-10-30T12:57:34Z</time>
      </trkpt>
      <trkpt lat="42.51227" lon="1.99913">
        <ele>1919.1999511719</ele>
        <time>2016-10-30T12:57:40Z</time>
      </trkpt>
      <trkpt lat="42.51227" lon="1.99921">
        <ele>1918.8000488281</ele>
        <time>2016-10-30T12:57:45Z</time>
      </trkpt>
      <trkpt lat="42.51227" lon="1.99922">
        <ele>1918.4000244141</ele>
        <time>2016-10-30T12:57:46Z</time>
      </trkpt>
      <trkpt lat="42.51227" lon="1.99924">
        <ele>1917.8000488281</ele>
        <time>2016-10-30T12:57:47Z</time>
      </trkpt>
      <trkpt lat="42.51227" lon="1.99926">
        <ele>1917.4000244141</ele>
        <time>2016-10-30T12:57:48Z</time>
      </trkpt>
      <trkpt lat="42.51227" lon="1.99928">
        <ele>1917</ele>
        <time>2016-10-30T12:57:49Z</time>
      </trkpt>
      <trkpt lat="42.51228" lon="1.99931">
        <ele>1917</ele>
        <time>2016-10-30T12:57:51Z</time>
      </trkpt>
      <trkpt lat="42.51229" lon="1.99941">
        <ele>1917</ele>
        <time>2016-10-30T12:57:57Z</time>
      </trkpt>
      <trkpt lat="42.51233" lon="1.9995">
        <ele>1917</ele>
        <time>2016-10-30T12:58:03Z</time>
      </trkpt>
      <trkpt lat="42.51234" lon="1.99961">
        <ele>1917</ele>
        <time>2016-10-30T12:58:10Z</time>
      </trkpt>
      <trkpt lat="42.51235" lon="1.99975">
        <ele>1917</ele>
        <time>2016-10-30T12:58:18Z</time>
      </trkpt>
      <trkpt lat="42.51236" lon="1.99985">
        <ele>1917</ele>
        <time>2016-10-30T12:58:24Z</time>
      </trkpt>
      <trkpt lat="42.51236" lon="1.99993">
        <ele>1916.5999755859</ele>
        <time>2016-10-30T12:58:28Z</time>
      </trkpt>
      <trkpt lat="42.51236" lon="1.99995">
        <ele>1916.1999511719</ele>
        <time>2016-10-30T12:58:29Z</time>
      </trkpt>
      <trkpt lat="42.51236" lon="1.99996">
        <ele>1915.8000488281</ele>
        <time>2016-10-30T12:58:30Z</time>
      </trkpt>
      <trkpt lat="42.51236" lon="1.99997">
        <ele>1915.1999511719</ele>
        <time>2016-10-30T12:58:31Z</time>
      </trkpt>
      <trkpt lat="42.51236" lon="1.99999">
        <ele>1914.8000488281</ele>
        <time>2016-10-30T12:58:32Z</time>
      </trkpt>
      <trkpt lat="42.51237" lon="2.00007">
        <ele>1914.8000488281</ele>
        <time>2016-10-30T12:58:37Z</time>
      </trkpt>
      <trkpt lat="42.51236" lon="2.00019">
        <ele>1914.4000244141</ele>
        <time>2016-10-30T12:58:43Z</time>
      </trkpt>
      <trkpt lat="42.51236" lon="2.0002">
        <ele>1914</ele>
        <time>2016-10-30T12:58:44Z</time>
      </trkpt>
      <trkpt lat="42.51236" lon="2.0002">
        <ele>1913.5999755859</ele>
        <time>2016-10-30T12:58:45Z</time>
      </trkpt>
      <trkpt lat="42.51236" lon="2.00021">
        <ele>1913.1999511719</ele>
        <time>2016-10-30T12:58:46Z</time>
      </trkpt>
      <trkpt lat="42.51237" lon="2.00023">
        <ele>1912.8000488281</ele>
        <time>2016-10-30T12:58:47Z</time>
      </trkpt>
      <trkpt lat="42.51237" lon="2.00025">
        <ele>1912.8000488281</ele>
        <time>2016-10-30T12:58:48Z</time>
      </trkpt>
      <trkpt lat="42.51241" lon="2.00035">
        <ele>1912.8000488281</ele>
        <time>2016-10-30T12:58:55Z</time>
      </trkpt>
      <trkpt lat="42.51245" lon="2.00043">
        <ele>1912.8000488281</ele>
        <time>2016-10-30T12:59:01Z</time>
      </trkpt>
      <trkpt lat="42.51248" lon="2.00049">
        <ele>1912.8000488281</ele>
        <time>2016-10-30T12:59:06Z</time>
      </trkpt>
      <trkpt lat="42.51252" lon="2.00057">
        <ele>1912.8000488281</ele>
        <time>2016-10-30T12:59:13Z</time>
      </trkpt>
      <trkpt lat="42.51255" lon="2.00063">
        <ele>1912.8000488281</ele>
        <time>2016-10-30T12:59:18Z</time>
      </trkpt>
      <trkpt lat="42.5126" lon="2.00071">
        <ele>1912.8000488281</ele>
        <time>2016-10-30T12:59:24Z</time>
      </trkpt>
      <trkpt lat="42.51264" lon="2.0008">
        <ele>1912.8000488281</ele>
        <time>2016-10-30T12:59:30Z</time>
      </trkpt>
      <trkpt lat="42.51268" lon="2.00085">
        <ele>1912.8000488281</ele>
        <time>2016-10-30T12:59:35Z</time>
      </trkpt>
      <trkpt lat="42.5127" lon="2.00092">
        <ele>1912.8000488281</ele>
        <time>2016-10-30T12:59:40Z</time>
      </trkpt>
      <trkpt lat="42.51271" lon="2.00097">
        <ele>1913.1999511719</ele>
        <time>2016-10-30T12:59:43Z</time>
      </trkpt>
      <trkpt lat="42.51272" lon="2.00098">
        <ele>1913.5999755859</ele>
        <time>2016-10-30T12:59:44Z</time>
      </trkpt>
      <trkpt lat="42.51272" lon="2.001">
        <ele>1914.1999511719</ele>
        <time>2016-10-30T12:59:45Z</time>
      </trkpt>
      <trkpt lat="42.51273" lon="2.00101">
        <ele>1914.5999755859</ele>
        <time>2016-10-30T12:59:46Z</time>
      </trkpt>
      <trkpt lat="42.51274" lon="2.00103">
        <ele>1915</ele>
        <time>2016-10-30T12:59:47Z</time>
      </trkpt>
      <trkpt lat="42.51275" lon="2.00106">
        <ele>1915</ele>
        <time>2016-10-30T12:59:52Z</time>
      </trkpt>
      <trkpt lat="42.51275" lon="2.00107">
        <ele>1915</ele>
        <time>2016-10-30T12:59:59Z</time>
      </trkpt>
      <trkpt lat="42.51278" lon="2.0011">
        <ele>1915</ele>
        <time>2016-10-30T13:00:08Z</time>
      </trkpt>
      <trkpt lat="42.51285" lon="2.00116">
        <ele>1915</ele>
        <time>2016-10-30T13:00:14Z</time>
      </trkpt>
      <trkpt lat="42.51289" lon="2.00119">
        <ele>1915</ele>
        <time>2016-10-30T13:00:18Z</time>
      </trkpt>
      <trkpt lat="42.5129" lon="2.00122">
        <ele>1915</ele>
        <time>2016-10-30T13:00:20Z</time>
      </trkpt>
      <trkpt lat="42.51294" lon="2.00128">
        <ele>1915</ele>
        <time>2016-10-30T13:00:26Z</time>
      </trkpt>
      <trkpt lat="42.51301" lon="2.00134">
        <ele>1915</ele>
        <time>2016-10-30T13:00:32Z</time>
      </trkpt>
      <trkpt lat="42.51304" lon="2.00141">
        <ele>1915</ele>
        <time>2016-10-30T13:00:37Z</time>
      </trkpt>
      <trkpt lat="42.51308" lon="2.00148">
        <ele>1915</ele>
        <time>2016-10-30T13:00:42Z</time>
      </trkpt>
      <trkpt lat="42.51313" lon="2.00156">
        <ele>1915</ele>
        <time>2016-10-30T13:00:48Z</time>
      </trkpt>
      <trkpt lat="42.51316" lon="2.00162">
        <ele>1915</ele>
        <time>2016-10-30T13:00:53Z</time>
      </trkpt>
      <trkpt lat="42.51317" lon="2.00164">
        <ele>1915.4000244141</ele>
        <time>2016-10-30T13:00:54Z</time>
      </trkpt>
      <trkpt lat="42.51317" lon="2.00165">
        <ele>1915.8000488281</ele>
        <time>2016-10-30T13:00:55Z</time>
      </trkpt>
      <trkpt lat="42.51318" lon="2.00166">
        <ele>1916.1999511719</ele>
        <time>2016-10-30T13:00:56Z</time>
      </trkpt>
      <trkpt lat="42.51318" lon="2.00167">
        <ele>1916.5999755859</ele>
        <time>2016-10-30T13:00:57Z</time>
      </trkpt>
      <trkpt lat="42.51319" lon="2.00168">
        <ele>1917</ele>
        <time>2016-10-30T13:00:58Z</time>
      </trkpt>
      <trkpt lat="42.51321" lon="2.00173">
        <ele>1917</ele>
        <time>2016-10-30T13:01:02Z</time>
      </trkpt>
      <trkpt lat="42.51322" lon="2.00175">
        <ele>1917</ele>
        <time>2016-10-30T13:01:03Z</time>
      </trkpt>
      <trkpt lat="42.51325" lon="2.00179">
        <ele>1917</ele>
        <time>2016-10-30T13:01:07Z</time>
      </trkpt>
      <trkpt lat="42.51328" lon="2.00185">
        <ele>1917</ele>
        <time>2016-10-30T13:01:12Z</time>
      </trkpt>
      <trkpt lat="42.51329" lon="2.00187">
        <ele>1917</ele>
        <time>2016-10-30T13:01:13Z</time>
      </trkpt>
      <trkpt lat="42.51333" lon="2.00192">
        <ele>1917</ele>
        <time>2016-10-30T13:01:18Z</time>
      </trkpt>
      <trkpt lat="42.51338" lon="2.00199">
        <ele>1917</ele>
        <time>2016-10-30T13:01:24Z</time>
      </trkpt>
      <trkpt lat="42.51345" lon="2.00205">
        <ele>1917</ele>
        <time>2016-10-30T13:01:31Z</time>
      </trkpt>
      <trkpt lat="42.51352" lon="2.00209">
        <ele>1917</ele>
        <time>2016-10-30T13:01:37Z</time>
      </trkpt>
      <trkpt lat="42.51357" lon="2.00213">
        <ele>1917</ele>
        <time>2016-10-30T13:01:42Z</time>
      </trkpt>
      <trkpt lat="42.51365" lon="2.00217">
        <ele>1917</ele>
        <time>2016-10-30T13:01:48Z</time>
      </trkpt>
      <trkpt lat="42.51371" lon="2.00216">
        <ele>1917</ele>
        <time>2016-10-30T13:01:54Z</time>
      </trkpt>
      <trkpt lat="42.51371" lon="2.00216">
        <ele>1917</ele>
        <time>2016-10-30T13:01:55Z</time>
      </trkpt>
      <trkpt lat="42.51373" lon="2.00216">
        <ele>1917</ele>
        <time>2016-10-30T13:02:01Z</time>
      </trkpt>
      <trkpt lat="42.51377" lon="2.00215">
        <ele>1917</ele>
        <time>2016-10-30T13:02:06Z</time>
      </trkpt>
      <trkpt lat="42.51377" lon="2.00216">
        <ele>1917</ele>
        <time>2016-10-30T13:02:18Z</time>
      </trkpt>
      <trkpt lat="42.51377" lon="2.00216">
        <ele>1917</ele>
        <time>2016-10-30T13:02:32Z</time>
      </trkpt>
      <trkpt lat="42.51377" lon="2.00216">
        <ele>1917</ele>
        <time>2016-10-30T13:02:45Z</time>
      </trkpt>
      <trkpt lat="42.51377" lon="2.00216">
        <ele>1917</ele>
        <time>2016-10-30T13:02:58Z</time>
      </trkpt>
      <trkpt lat="42.51377" lon="2.00216">
        <ele>1917</ele>
        <time>2016-10-30T13:03:07Z</time>
      </trkpt>
      <trkpt lat="42.51377" lon="2.00216">
        <ele>1917</ele>
        <time>2016-10-30T13:03:12Z</time>
      </trkpt>
      <trkpt lat="42.51378" lon="2.00216">
        <ele>1917</ele>
        <time>2016-10-30T13:03:18Z</time>
      </trkpt>
      <trkpt lat="42.51381" lon="2.0022">
        <ele>1917</ele>
        <time>2016-10-30T13:03:24Z</time>
      </trkpt>
      <trkpt lat="42.51383" lon="2.00222">
        <ele>1917</ele>
        <time>2016-10-30T13:03:27Z</time>
      </trkpt>
      <trkpt lat="42.51385" lon="2.00224">
        <ele>1917</ele>
        <time>2016-10-30T13:03:29Z</time>
      </trkpt>
      <trkpt lat="42.51389" lon="2.0023">
        <ele>1917</ele>
        <time>2016-10-30T13:03:35Z</time>
      </trkpt>
      <trkpt lat="42.51391" lon="2.00233">
        <ele>1917</ele>
        <time>2016-10-30T13:03:39Z</time>
      </trkpt>
      <trkpt lat="42.51392" lon="2.00237">
        <ele>1917</ele>
        <time>2016-10-30T13:03:46Z</time>
      </trkpt>
      <trkpt lat="42.51393" lon="2.0024">
        <ele>1917</ele>
        <time>2016-10-30T13:03:53Z</time>
      </trkpt>
      <trkpt lat="42.51395" lon="2.00245">
        <ele>1916.5999755859</ele>
        <time>2016-10-30T13:03:57Z</time>
      </trkpt>
      <trkpt lat="42.51395" lon="2.00246">
        <ele>1916.1999511719</ele>
        <time>2016-10-30T13:03:58Z</time>
      </trkpt>
      <trkpt lat="42.51396" lon="2.00248">
        <ele>1915.8000488281</ele>
        <time>2016-10-30T13:03:59Z</time>
      </trkpt>
      <trkpt lat="42.51396" lon="2.00249">
        <ele>1915.4000244141</ele>
        <time>2016-10-30T13:04:00Z</time>
      </trkpt>
      <trkpt lat="42.51396" lon="2.0025">
        <ele>1915</ele>
        <time>2016-10-30T13:04:01Z</time>
      </trkpt>
      <trkpt lat="42.51397" lon="2.00253">
        <ele>1915</ele>
        <time>2016-10-30T13:04:03Z</time>
      </trkpt>
      <trkpt lat="42.51402" lon="2.0026">
        <ele>1915</ele>
        <time>2016-10-30T13:04:09Z</time>
      </trkpt>
      <trkpt lat="42.51403" lon="2.00268">
        <ele>1915</ele>
        <time>2016-10-30T13:04:15Z</time>
      </trkpt>
      <trkpt lat="42.51403" lon="2.0027">
        <ele>1915</ele>
        <time>2016-10-30T13:04:16Z</time>
      </trkpt>
      <trkpt lat="42.51403" lon="2.00275">
        <ele>1915</ele>
        <time>2016-10-30T13:04:20Z</time>
      </trkpt>
      <trkpt lat="42.51405" lon="2.00282">
        <ele>1915</ele>
        <time>2016-10-30T13:04:26Z</time>
      </trkpt>
      <trkpt lat="42.51407" lon="2.00289">
        <ele>1914.5999755859</ele>
        <time>2016-10-30T13:04:31Z</time>
      </trkpt>
      <trkpt lat="42.51406" lon="2.0029">
        <ele>1914</ele>
        <time>2016-10-30T13:04:32Z</time>
      </trkpt>
      <trkpt lat="42.51406" lon="2.00289">
        <ele>1913.1999511719</ele>
        <time>2016-10-30T13:04:33Z</time>
      </trkpt>
      <trkpt lat="42.51406" lon="2.00289">
        <ele>1912.8000488281</ele>
        <time>2016-10-30T13:04:34Z</time>
      </trkpt>
      <trkpt lat="42.51406" lon="2.00289">
        <ele>1912.4000244141</ele>
        <time>2016-10-30T13:04:36Z</time>
      </trkpt>
      <trkpt lat="42.51406" lon="2.00289">
        <ele>1911.8000488281</ele>
        <time>2016-10-30T13:04:37Z</time>
      </trkpt>
      <trkpt lat="42.51406" lon="2.00289">
        <ele>1911.4000244141</ele>
        <time>2016-10-30T13:04:38Z</time>
      </trkpt>
      <trkpt lat="42.51406" lon="2.00289">
        <ele>1911.8000488281</ele>
        <time>2016-10-30T13:04:39Z</time>
      </trkpt>
      <trkpt lat="42.51406" lon="2.00289">
        <ele>1912</ele>
        <time>2016-10-30T13:04:40Z</time>
      </trkpt>
      <trkpt lat="42.51406" lon="2.00289">
        <ele>1912.1999511719</ele>
        <time>2016-10-30T13:04:41Z</time>
      </trkpt>
      <trkpt lat="42.51406" lon="2.00289">
        <ele>1912.4000244141</ele>
        <time>2016-10-30T13:04:42Z</time>
      </trkpt>
      <trkpt lat="42.51406" lon="2.00289">
        <ele>1912.5999755859</ele>
        <time>2016-10-30T13:04:43Z</time>
      </trkpt>
      <trkpt lat="42.51406" lon="2.00289">
        <ele>1912.5999755859</ele>
        <time>2016-10-30T13:04:47Z</time>
      </trkpt>
      <trkpt lat="42.51406" lon="2.00289">
        <ele>1912.5999755859</ele>
        <time>2016-10-30T13:05:01Z</time>
      </trkpt>
      <trkpt lat="42.51406" lon="2.00294">
        <ele>1912.5999755859</ele>
        <time>2016-10-30T13:05:04Z</time>
      </trkpt>
      <trkpt lat="42.51407" lon="2.00299">
        <ele>1912.5999755859</ele>
        <time>2016-10-30T13:05:08Z</time>
      </trkpt>
      <trkpt lat="42.51405" lon="2.00306">
        <ele>1912.5999755859</ele>
        <time>2016-10-30T13:05:12Z</time>
      </trkpt>
      <trkpt lat="42.51401" lon="2.00315">
        <ele>1912.5999755859</ele>
        <time>2016-10-30T13:05:18Z</time>
      </trkpt>
      <trkpt lat="42.51401" lon="2.00316">
        <ele>1912.1999511719</ele>
        <time>2016-10-30T13:05:19Z</time>
      </trkpt>
      <trkpt lat="42.51401" lon="2.00316">
        <ele>1911.8000488281</ele>
        <time>2016-10-30T13:05:20Z</time>
      </trkpt>
      <trkpt lat="42.51401" lon="2.00316">
        <ele>1911.4000244141</ele>
        <time>2016-10-30T13:05:21Z</time>
      </trkpt>
      <trkpt lat="42.51401" lon="2.00316">
        <ele>1911</ele>
        <time>2016-10-30T13:05:22Z</time>
      </trkpt>
      <trkpt lat="42.51401" lon="2.00316">
        <ele>1910.5999755859</ele>
        <time>2016-10-30T13:05:23Z</time>
      </trkpt>
      <trkpt lat="42.514" lon="2.00317">
        <ele>1910.5999755859</ele>
        <time>2016-10-30T13:05:30Z</time>
      </trkpt>
      <trkpt lat="42.514" lon="2.00319">
        <ele>1910.5999755859</ele>
        <time>2016-10-30T13:05:32Z</time>
      </trkpt>
      <trkpt lat="42.51399" lon="2.00322">
        <ele>1910.5999755859</ele>
        <time>2016-10-30T13:05:34Z</time>
      </trkpt>
      <trkpt lat="42.51394" lon="2.00326">
        <ele>1910.5999755859</ele>
        <time>2016-10-30T13:05:36Z</time>
      </trkpt>
      <trkpt lat="42.51392" lon="2.00328">
        <ele>1910.5999755859</ele>
        <time>2016-10-30T13:05:38Z</time>
      </trkpt>
      <trkpt lat="42.51391" lon="2.0033">
        <ele>1910.5999755859</ele>
        <time>2016-10-30T13:05:40Z</time>
      </trkpt>
      <trkpt lat="42.51391" lon="2.00331">
        <ele>1910.5999755859</ele>
        <time>2016-10-30T13:05:41Z</time>
      </trkpt>
      <trkpt lat="42.51387" lon="2.00336">
        <ele>1910.5999755859</ele>
        <time>2016-10-30T13:05:45Z</time>
      </trkpt>
      <trkpt lat="42.51387" lon="2.00338">
        <ele>1910.5999755859</ele>
        <time>2016-10-30T13:05:47Z</time>
      </trkpt>
      <trkpt lat="42.51386" lon="2.00342">
        <ele>1910.5999755859</ele>
        <time>2016-10-30T13:05:49Z</time>
      </trkpt>
      <trkpt lat="42.51384" lon="2.00349">
        <ele>1910.1999511719</ele>
        <time>2016-10-30T13:05:54Z</time>
      </trkpt>
      <trkpt lat="42.51384" lon="2.00351">
        <ele>1909.8000488281</ele>
        <time>2016-10-30T13:05:55Z</time>
      </trkpt>
      <trkpt lat="42.51384" lon="2.00354">
        <ele>1909.4000244141</ele>
        <time>2016-10-30T13:05:56Z</time>
      </trkpt>
      <trkpt lat="42.51384" lon="2.00356">
        <ele>1909</ele>
        <time>2016-10-30T13:05:57Z</time>
      </trkpt>
      <trkpt lat="42.51384" lon="2.00357">
        <ele>1908.5999755859</ele>
        <time>2016-10-30T13:05:58Z</time>
      </trkpt>
      <trkpt lat="42.51384" lon="2.00358">
        <ele>1908.5999755859</ele>
        <time>2016-10-30T13:05:59Z</time>
      </trkpt>
      <trkpt lat="42.51385" lon="2.0036">
        <ele>1908.5999755859</ele>
        <time>2016-10-30T13:06:00Z</time>
      </trkpt>
      <trkpt lat="42.51386" lon="2.00366">
        <ele>1908.5999755859</ele>
        <time>2016-10-30T13:06:04Z</time>
      </trkpt>
      <trkpt lat="42.51386" lon="2.0037">
        <ele>1908.5999755859</ele>
        <time>2016-10-30T13:06:06Z</time>
      </trkpt>
      <trkpt lat="42.51384" lon="2.00377">
        <ele>1908.1999511719</ele>
        <time>2016-10-30T13:06:10Z</time>
      </trkpt>
      <trkpt lat="42.51384" lon="2.00378">
        <ele>1907.8000488281</ele>
        <time>2016-10-30T13:06:11Z</time>
      </trkpt>
      <trkpt lat="42.51385" lon="2.00378">
        <ele>1907.4000244141</ele>
        <time>2016-10-30T13:06:12Z</time>
      </trkpt>
      <trkpt lat="42.51384" lon="2.0038">
        <ele>1907</ele>
        <time>2016-10-30T13:06:13Z</time>
      </trkpt>
      <trkpt lat="42.51384" lon="2.00382">
        <ele>1906.4000244141</ele>
        <time>2016-10-30T13:06:14Z</time>
      </trkpt>
      <trkpt lat="42.51382" lon="2.00386">
        <ele>1906.4000244141</ele>
        <time>2016-10-30T13:06:18Z</time>
      </trkpt>
      <trkpt lat="42.5138" lon="2.00388">
        <ele>1906.4000244141</ele>
        <time>2016-10-30T13:06:20Z</time>
      </trkpt>
      <trkpt lat="42.51378" lon="2.00391">
        <ele>1906.4000244141</ele>
        <time>2016-10-30T13:06:22Z</time>
      </trkpt>
      <trkpt lat="42.51375" lon="2.004">
        <ele>1906.4000244141</ele>
        <time>2016-10-30T13:06:27Z</time>
      </trkpt>
      <trkpt lat="42.51374" lon="2.00403">
        <ele>1906</ele>
        <time>2016-10-30T13:06:29Z</time>
      </trkpt>
      <trkpt lat="42.51374" lon="2.00403">
        <ele>1905.5999755859</ele>
        <time>2016-10-30T13:06:30Z</time>
      </trkpt>
      <trkpt lat="42.51374" lon="2.00403">
        <ele>1905.1999511719</ele>
        <time>2016-10-30T13:06:31Z</time>
      </trkpt>
      <trkpt lat="42.51374" lon="2.00403">
        <ele>1904.8000488281</ele>
        <time>2016-10-30T13:06:32Z</time>
      </trkpt>
      <trkpt lat="42.51374" lon="2.00403">
        <ele>1904.4000244141</ele>
        <time>2016-10-30T13:06:33Z</time>
      </trkpt>
      <trkpt lat="42.51374" lon="2.00403">
        <ele>1904.4000244141</ele>
        <time>2016-10-30T13:06:47Z</time>
      </trkpt>
      <trkpt lat="42.51374" lon="2.00403">
        <ele>1904.4000244141</ele>
        <time>2016-10-30T13:07:02Z</time>
      </trkpt>
      <trkpt lat="42.51374" lon="2.00403">
        <ele>1904.4000244141</ele>
        <time>2016-10-30T13:07:16Z</time>
      </trkpt>
      <trkpt lat="42.51375" lon="2.00404">
        <ele>1904.4000244141</ele>
        <time>2016-10-30T13:07:19Z</time>
      </trkpt>
      <trkpt lat="42.51376" lon="2.00408">
        <ele>1904.4000244141</ele>
        <time>2016-10-30T13:07:22Z</time>
      </trkpt>
      <trkpt lat="42.51376" lon="2.00415">
        <ele>1904.4000244141</ele>
        <time>2016-10-30T13:07:27Z</time>
      </trkpt>
      <trkpt lat="42.51377" lon="2.00425">
        <ele>1904.4000244141</ele>
        <time>2016-10-30T13:07:32Z</time>
      </trkpt>
      <trkpt lat="42.51377" lon="2.00426">
        <ele>1904</ele>
        <time>2016-10-30T13:07:33Z</time>
      </trkpt>
      <trkpt lat="42.51377" lon="2.00426">
        <ele>1903.5999755859</ele>
        <time>2016-10-30T13:07:34Z</time>
      </trkpt>
      <trkpt lat="42.51377" lon="2.00428">
        <ele>1903.1999511719</ele>
        <time>2016-10-30T13:07:35Z</time>
      </trkpt>
      <trkpt lat="42.51377" lon="2.00429">
        <ele>1902.8000488281</ele>
        <time>2016-10-30T13:07:36Z</time>
      </trkpt>
      <trkpt lat="42.51377" lon="2.0043">
        <ele>1902.4000244141</ele>
        <time>2016-10-30T13:07:37Z</time>
      </trkpt>
      <trkpt lat="42.51376" lon="2.00433">
        <ele>1902.4000244141</ele>
        <time>2016-10-30T13:07:38Z</time>
      </trkpt>
      <trkpt lat="42.51375" lon="2.00436">
        <ele>1901.8000488281</ele>
        <time>2016-10-30T13:07:40Z</time>
      </trkpt>
      <trkpt lat="42.51375" lon="2.00437">
        <ele>1901.4000244141</ele>
        <time>2016-10-30T13:07:41Z</time>
      </trkpt>
      <trkpt lat="42.51375" lon="2.00438">
        <ele>1901</ele>
        <time>2016-10-30T13:07:42Z</time>
      </trkpt>
      <trkpt lat="42.51375" lon="2.00439">
        <ele>1900.5999755859</ele>
        <time>2016-10-30T13:07:43Z</time>
      </trkpt>
      <trkpt lat="42.51375" lon="2.00441">
        <ele>1900</ele>
        <time>2016-10-30T13:07:44Z</time>
      </trkpt>
      <trkpt lat="42.51373" lon="2.00445">
        <ele>1900</ele>
        <time>2016-10-30T13:07:47Z</time>
      </trkpt>
      <trkpt lat="42.5137" lon="2.0045">
        <ele>1899.5999755859</ele>
        <time>2016-10-30T13:07:51Z</time>
      </trkpt>
      <trkpt lat="42.5137" lon="2.00451">
        <ele>1899</ele>
        <time>2016-10-30T13:07:52Z</time>
      </trkpt>
      <trkpt lat="42.5137" lon="2.00452">
        <ele>1898.5999755859</ele>
        <time>2016-10-30T13:07:53Z</time>
      </trkpt>
      <trkpt lat="42.51369" lon="2.00453">
        <ele>1898</ele>
        <time>2016-10-30T13:07:54Z</time>
      </trkpt>
      <trkpt lat="42.51369" lon="2.00455">
        <ele>1897.5999755859</ele>
        <time>2016-10-30T13:07:55Z</time>
      </trkpt>
      <trkpt lat="42.51369" lon="2.00459">
        <ele>1897.5999755859</ele>
        <time>2016-10-30T13:07:58Z</time>
      </trkpt>
      <trkpt lat="42.51366" lon="2.00463">
        <ele>1897</ele>
        <time>2016-10-30T13:08:03Z</time>
      </trkpt>
      <trkpt lat="42.51365" lon="2.00465">
        <ele>1896.5999755859</ele>
        <time>2016-10-30T13:08:04Z</time>
      </trkpt>
      <trkpt lat="42.51365" lon="2.00465">
        <ele>1896</ele>
        <time>2016-10-30T13:08:05Z</time>
      </trkpt>
      <trkpt lat="42.51363" lon="2.00466">
        <ele>1895.5999755859</ele>
        <time>2016-10-30T13:08:06Z</time>
      </trkpt>
      <trkpt lat="42.51362" lon="2.00466">
        <ele>1895</ele>
        <time>2016-10-30T13:08:07Z</time>
      </trkpt>
      <trkpt lat="42.51361" lon="2.00469">
        <ele>1895</ele>
        <time>2016-10-30T13:08:10Z</time>
      </trkpt>
      <trkpt lat="42.51361" lon="2.00471">
        <ele>1894.5999755859</ele>
        <time>2016-10-30T13:08:12Z</time>
      </trkpt>
      <trkpt lat="42.51361" lon="2.00472">
        <ele>1894.1999511719</ele>
        <time>2016-10-30T13:08:13Z</time>
      </trkpt>
      <trkpt lat="42.5136" lon="2.00474">
        <ele>1893.5999755859</ele>
        <time>2016-10-30T13:08:14Z</time>
      </trkpt>
      <trkpt lat="42.5136" lon="2.00475">
        <ele>1893.1999511719</ele>
        <time>2016-10-30T13:08:15Z</time>
      </trkpt>
      <trkpt lat="42.51359" lon="2.00477">
        <ele>1892.8000488281</ele>
        <time>2016-10-30T13:08:16Z</time>
      </trkpt>
      <trkpt lat="42.51358" lon="2.00478">
        <ele>1892.8000488281</ele>
        <time>2016-10-30T13:08:17Z</time>
      </trkpt>
      <trkpt lat="42.51356" lon="2.00482">
        <ele>1892.8000488281</ele>
        <time>2016-10-30T13:08:21Z</time>
      </trkpt>
      <trkpt lat="42.51354" lon="2.00485">
        <ele>1892.8000488281</ele>
        <time>2016-10-30T13:08:23Z</time>
      </trkpt>
      <trkpt lat="42.51354" lon="2.00486">
        <ele>1892.4000244141</ele>
        <time>2016-10-30T13:08:24Z</time>
      </trkpt>
      <trkpt lat="42.51354" lon="2.00487">
        <ele>1891.5999755859</ele>
        <time>2016-10-30T13:08:25Z</time>
      </trkpt>
      <trkpt lat="42.51354" lon="2.00489">
        <ele>1891</ele>
        <time>2016-10-30T13:08:26Z</time>
      </trkpt>
      <trkpt lat="42.51355" lon="2.0049">
        <ele>1890.5999755859</ele>
        <time>2016-10-30T13:08:27Z</time>
      </trkpt>
      <trkpt lat="42.51355" lon="2.00491">
        <ele>1890.5999755859</ele>
        <time>2016-10-30T13:08:29Z</time>
      </trkpt>
      <trkpt lat="42.51356" lon="2.00495">
        <ele>1890.5999755859</ele>
        <time>2016-10-30T13:08:34Z</time>
      </trkpt>
      <trkpt lat="42.51355" lon="2.00495">
        <ele>1890.5999755859</ele>
        <time>2016-10-30T13:08:41Z</time>
      </trkpt>
      <trkpt lat="42.51355" lon="2.00499">
        <ele>1890.5999755859</ele>
        <time>2016-10-30T13:08:48Z</time>
      </trkpt>
      <trkpt lat="42.51355" lon="2.005">
        <ele>1890.1999511719</ele>
        <time>2016-10-30T13:08:49Z</time>
      </trkpt>
      <trkpt lat="42.51355" lon="2.00502">
        <ele>1889.4000244141</ele>
        <time>2016-10-30T13:08:50Z</time>
      </trkpt>
      <trkpt lat="42.51355" lon="2.00503">
        <ele>1889</ele>
        <time>2016-10-30T13:08:51Z</time>
      </trkpt>
      <trkpt lat="42.51355" lon="2.00505">
        <ele>1888.5999755859</ele>
        <time>2016-10-30T13:08:52Z</time>
      </trkpt>
      <trkpt lat="42.51354" lon="2.00506">
        <ele>1888.5999755859</ele>
        <time>2016-10-30T13:08:53Z</time>
      </trkpt>
      <trkpt lat="42.51352" lon="2.00511">
        <ele>1888.5999755859</ele>
        <time>2016-10-30T13:08:58Z</time>
      </trkpt>
      <trkpt lat="42.51351" lon="2.00514">
        <ele>1888.1999511719</ele>
        <time>2016-10-30T13:09:00Z</time>
      </trkpt>
      <trkpt lat="42.5135" lon="2.00515">
        <ele>1887.5999755859</ele>
        <time>2016-10-30T13:09:01Z</time>
      </trkpt>
      <trkpt lat="42.5135" lon="2.00517">
        <ele>1887.1999511719</ele>
        <time>2016-10-30T13:09:02Z</time>
      </trkpt>
      <trkpt lat="42.5135" lon="2.00518">
        <ele>1886.8000488281</ele>
        <time>2016-10-30T13:09:03Z</time>
      </trkpt>
      <trkpt lat="42.5135" lon="2.0052">
        <ele>1886.1999511719</ele>
        <time>2016-10-30T13:09:04Z</time>
      </trkpt>
      <trkpt lat="42.51347" lon="2.00526">
        <ele>1886.1999511719</ele>
        <time>2016-10-30T13:09:09Z</time>
      </trkpt>
      <trkpt lat="42.51346" lon="2.00532">
        <ele>1885.8000488281</ele>
        <time>2016-10-30T13:09:13Z</time>
      </trkpt>
      <trkpt lat="42.51346" lon="2.00532">
        <ele>1885.4000244141</ele>
        <time>2016-10-30T13:09:14Z</time>
      </trkpt>
      <trkpt lat="42.51345" lon="2.00533">
        <ele>1884.5999755859</ele>
        <time>2016-10-30T13:09:15Z</time>
      </trkpt>
      <trkpt lat="42.51345" lon="2.00533">
        <ele>1884.1999511719</ele>
        <time>2016-10-30T13:09:16Z</time>
      </trkpt>
      <trkpt lat="42.51343" lon="2.00533">
        <ele>1884.1999511719</ele>
        <time>2016-10-30T13:09:18Z</time>
      </trkpt>
      <trkpt lat="42.5134" lon="2.00534">
        <ele>1884.1999511719</ele>
        <time>2016-10-30T13:09:21Z</time>
      </trkpt>
      <trkpt lat="42.51338" lon="2.00533">
        <ele>1883.5999755859</ele>
        <time>2016-10-30T13:09:23Z</time>
      </trkpt>
      <trkpt lat="42.51337" lon="2.00533">
        <ele>1883.1999511719</ele>
        <time>2016-10-30T13:09:24Z</time>
      </trkpt>
      <trkpt lat="42.51337" lon="2.00534">
        <ele>1882.8000488281</ele>
        <time>2016-10-30T13:09:25Z</time>
      </trkpt>
      <trkpt lat="42.51336" lon="2.00535">
        <ele>1882.4000244141</ele>
        <time>2016-10-30T13:09:26Z</time>
      </trkpt>
      <trkpt lat="42.51336" lon="2.00537">
        <ele>1882</ele>
        <time>2016-10-30T13:09:27Z</time>
      </trkpt>
      <trkpt lat="42.51333" lon="2.00542">
        <ele>1882</ele>
        <time>2016-10-30T13:09:31Z</time>
      </trkpt>
      <trkpt lat="42.51332" lon="2.00543">
        <ele>1881.4000244141</ele>
        <time>2016-10-30T13:09:33Z</time>
      </trkpt>
      <trkpt lat="42.51332" lon="2.00543">
        <ele>1881</ele>
        <time>2016-10-30T13:09:34Z</time>
      </trkpt>
      <trkpt lat="42.51331" lon="2.00545">
        <ele>1880.4000244141</ele>
        <time>2016-10-30T13:09:35Z</time>
      </trkpt>
      <trkpt lat="42.51331" lon="2.00546">
        <ele>1880</ele>
        <time>2016-10-30T13:09:36Z</time>
      </trkpt>
      <trkpt lat="42.51331" lon="2.00547">
        <ele>1879.4000244141</ele>
        <time>2016-10-30T13:09:37Z</time>
      </trkpt>
      <trkpt lat="42.5133" lon="2.00548">
        <ele>1878.5999755859</ele>
        <time>2016-10-30T13:09:39Z</time>
      </trkpt>
      <trkpt lat="42.51329" lon="2.00548">
        <ele>1878.1999511719</ele>
        <time>2016-10-30T13:09:40Z</time>
      </trkpt>
      <trkpt lat="42.51328" lon="2.0055">
        <ele>1877.8000488281</ele>
        <time>2016-10-30T13:09:41Z</time>
      </trkpt>
      <trkpt lat="42.51327" lon="2.0055">
        <ele>1877.4000244141</ele>
        <time>2016-10-30T13:09:42Z</time>
      </trkpt>
      <trkpt lat="42.51324" lon="2.00557">
        <ele>1877.4000244141</ele>
        <time>2016-10-30T13:09:48Z</time>
      </trkpt>
      <trkpt lat="42.51322" lon="2.0056">
        <ele>1877</ele>
        <time>2016-10-30T13:09:51Z</time>
      </trkpt>
      <trkpt lat="42.51322" lon="2.00561">
        <ele>1876.5999755859</ele>
        <time>2016-10-30T13:09:52Z</time>
      </trkpt>
      <trkpt lat="42.51321" lon="2.00562">
        <ele>1876.1999511719</ele>
        <time>2016-10-30T13:09:53Z</time>
      </trkpt>
      <trkpt lat="42.5132" lon="2.00563">
        <ele>1875.5999755859</ele>
        <time>2016-10-30T13:09:54Z</time>
      </trkpt>
      <trkpt lat="42.5132" lon="2.00564">
        <ele>1875.1999511719</ele>
        <time>2016-10-30T13:09:55Z</time>
      </trkpt>
      <trkpt lat="42.51321" lon="2.00563">
        <ele>1874.8000488281</ele>
        <time>2016-10-30T13:09:57Z</time>
      </trkpt>
      <trkpt lat="42.51321" lon="2.00563">
        <ele>1874.4000244141</ele>
        <time>2016-10-30T13:09:58Z</time>
      </trkpt>
      <trkpt lat="42.51322" lon="2.00562">
        <ele>1874</ele>
        <time>2016-10-30T13:09:59Z</time>
      </trkpt>
      <trkpt lat="42.51322" lon="2.00562">
        <ele>1873.4000244141</ele>
        <time>2016-10-30T13:10:00Z</time>
      </trkpt>
      <trkpt lat="42.51322" lon="2.00562">
        <ele>1873.8000488281</ele>
        <time>2016-10-30T13:10:01Z</time>
      </trkpt>
      <trkpt lat="42.51322" lon="2.00562">
        <ele>1874.1999511719</ele>
        <time>2016-10-30T13:10:02Z</time>
      </trkpt>
      <trkpt lat="42.51322" lon="2.00562">
        <ele>1874.5999755859</ele>
        <time>2016-10-30T13:10:03Z</time>
      </trkpt>
      <trkpt lat="42.51322" lon="2.00562">
        <ele>1875.1999511719</ele>
        <time>2016-10-30T13:10:04Z</time>
      </trkpt>
      <trkpt lat="42.51322" lon="2.00562">
        <ele>1875.1999511719</ele>
        <time>2016-10-30T13:10:08Z</time>
      </trkpt>
      <trkpt lat="42.51322" lon="2.00562">
        <ele>1875.1999511719</ele>
        <time>2016-10-30T13:10:19Z</time>
      </trkpt>
      <trkpt lat="42.51322" lon="2.00562">
        <ele>1875.1999511719</ele>
        <time>2016-10-30T13:10:28Z</time>
      </trkpt>
      <trkpt lat="42.51322" lon="2.00562">
        <ele>1875.1999511719</ele>
        <time>2016-10-30T13:10:38Z</time>
      </trkpt>
      <trkpt lat="42.51321" lon="2.00562">
        <ele>1875.1999511719</ele>
        <time>2016-10-30T13:10:53Z</time>
      </trkpt>
      <trkpt lat="42.51321" lon="2.00562">
        <ele>1875.1999511719</ele>
        <time>2016-10-30T13:11:03Z</time>
      </trkpt>
      <trkpt lat="42.51319" lon="2.00562">
        <ele>1874.8000488281</ele>
        <time>2016-10-30T13:11:06Z</time>
      </trkpt>
      <trkpt lat="42.51318" lon="2.00562">
        <ele>1874.4000244141</ele>
        <time>2016-10-30T13:11:07Z</time>
      </trkpt>
      <trkpt lat="42.51317" lon="2.00562">
        <ele>1873.8000488281</ele>
        <time>2016-10-30T13:11:08Z</time>
      </trkpt>
      <trkpt lat="42.51316" lon="2.00563">
        <ele>1873.4000244141</ele>
        <time>2016-10-30T13:11:09Z</time>
      </trkpt>
      <trkpt lat="42.51314" lon="2.00562">
        <ele>1873</ele>
        <time>2016-10-30T13:11:10Z</time>
      </trkpt>
      <trkpt lat="42.51311" lon="2.00562">
        <ele>1873</ele>
        <time>2016-10-30T13:11:12Z</time>
      </trkpt>
      <trkpt lat="42.5131" lon="2.00561">
        <ele>1873</ele>
        <time>2016-10-30T13:11:13Z</time>
      </trkpt>
      <trkpt lat="42.5131" lon="2.00561">
        <ele>1872.5999755859</ele>
        <time>2016-10-30T13:11:14Z</time>
      </trkpt>
      <trkpt lat="42.51309" lon="2.0056">
        <ele>1872</ele>
        <time>2016-10-30T13:11:15Z</time>
      </trkpt>
      <trkpt lat="42.51307" lon="2.00559">
        <ele>1871.5999755859</ele>
        <time>2016-10-30T13:11:16Z</time>
      </trkpt>
      <trkpt lat="42.51307" lon="2.00558">
        <ele>1871.1999511719</ele>
        <time>2016-10-30T13:11:17Z</time>
      </trkpt>
      <trkpt lat="42.51306" lon="2.00557">
        <ele>1870.8000488281</ele>
        <time>2016-10-30T13:11:18Z</time>
      </trkpt>
      <trkpt lat="42.51303" lon="2.00555">
        <ele>1870.1999511719</ele>
        <time>2016-10-30T13:11:22Z</time>
      </trkpt>
      <trkpt lat="42.51303" lon="2.00554">
        <ele>1869.8000488281</ele>
        <time>2016-10-30T13:11:23Z</time>
      </trkpt>
      <trkpt lat="42.51303" lon="2.00554">
        <ele>1869.4000244141</ele>
        <time>2016-10-30T13:11:24Z</time>
      </trkpt>
      <trkpt lat="42.51303" lon="2.00554">
        <ele>1869</ele>
        <time>2016-10-30T13:11:25Z</time>
      </trkpt>
      <trkpt lat="42.51302" lon="2.00555">
        <ele>1868.5999755859</ele>
        <time>2016-10-30T13:11:26Z</time>
      </trkpt>
      <trkpt lat="42.513" lon="2.00558">
        <ele>1868.5999755859</ele>
        <time>2016-10-30T13:11:29Z</time>
      </trkpt>
      <trkpt lat="42.51299" lon="2.00561">
        <ele>1868</ele>
        <time>2016-10-30T13:11:32Z</time>
      </trkpt>
      <trkpt lat="42.51299" lon="2.00562">
        <ele>1867.4000244141</ele>
        <time>2016-10-30T13:11:33Z</time>
      </trkpt>
      <trkpt lat="42.51298" lon="2.00564">
        <ele>1866.8000488281</ele>
        <time>2016-10-30T13:11:34Z</time>
      </trkpt>
      <trkpt lat="42.51297" lon="2.00565">
        <ele>1866.4000244141</ele>
        <time>2016-10-30T13:11:35Z</time>
      </trkpt>
      <trkpt lat="42.51296" lon="2.00564">
        <ele>1865.8000488281</ele>
        <time>2016-10-30T13:11:36Z</time>
      </trkpt>
      <trkpt lat="42.51295" lon="2.00563">
        <ele>1865.4000244141</ele>
        <time>2016-10-30T13:11:38Z</time>
      </trkpt>
      <trkpt lat="42.51295" lon="2.00563">
        <ele>1865</ele>
        <time>2016-10-30T13:11:39Z</time>
      </trkpt>
      <trkpt lat="42.51294" lon="2.00563">
        <ele>1864.5999755859</ele>
        <time>2016-10-30T13:11:40Z</time>
      </trkpt>
      <trkpt lat="42.51294" lon="2.00563">
        <ele>1864</ele>
        <time>2016-10-30T13:11:41Z</time>
      </trkpt>
      <trkpt lat="42.51294" lon="2.00563">
        <ele>1863.5999755859</ele>
        <time>2016-10-30T13:11:42Z</time>
      </trkpt>
      <trkpt lat="42.5129" lon="2.00566">
        <ele>1863.1999511719</ele>
        <time>2016-10-30T13:11:47Z</time>
      </trkpt>
      <trkpt lat="42.5129" lon="2.00567">
        <ele>1862.5999755859</ele>
        <time>2016-10-30T13:11:48Z</time>
      </trkpt>
      <trkpt lat="42.5129" lon="2.00568">
        <ele>1862.1999511719</ele>
        <time>2016-10-30T13:11:49Z</time>
      </trkpt>
      <trkpt lat="42.5129" lon="2.00568">
        <ele>1861.8000488281</ele>
        <time>2016-10-30T13:11:50Z</time>
      </trkpt>
      <trkpt lat="42.5129" lon="2.00568">
        <ele>1861.1999511719</ele>
        <time>2016-10-30T13:11:51Z</time>
      </trkpt>
      <trkpt lat="42.5129" lon="2.00569">
        <ele>1861.1999511719</ele>
        <time>2016-10-30T13:11:58Z</time>
      </trkpt>
      <trkpt lat="42.5129" lon="2.00569">
        <ele>1860.8000488281</ele>
        <time>2016-10-30T13:12:02Z</time>
      </trkpt>
      <trkpt lat="42.5129" lon="2.00569">
        <ele>1860.4000244141</ele>
        <time>2016-10-30T13:12:03Z</time>
      </trkpt>
      <trkpt lat="42.5129" lon="2.00569">
        <ele>1860</ele>
        <time>2016-10-30T13:12:04Z</time>
      </trkpt>
      <trkpt lat="42.5129" lon="2.00569">
        <ele>1859.5999755859</ele>
        <time>2016-10-30T13:12:05Z</time>
      </trkpt>
      <trkpt lat="42.5129" lon="2.00569">
        <ele>1859.1999511719</ele>
        <time>2016-10-30T13:12:06Z</time>
      </trkpt>
      <trkpt lat="42.5129" lon="2.00569">
        <ele>1858.8000488281</ele>
        <time>2016-10-30T13:12:08Z</time>
      </trkpt>
      <trkpt lat="42.5129" lon="2.00569">
        <ele>1858.1999511719</ele>
        <time>2016-10-30T13:12:09Z</time>
      </trkpt>
      <trkpt lat="42.51289" lon="2.00569">
        <ele>1857.8000488281</ele>
        <time>2016-10-30T13:12:10Z</time>
      </trkpt>
      <trkpt lat="42.51288" lon="2.00569">
        <ele>1857.1999511719</ele>
        <time>2016-10-30T13:12:11Z</time>
      </trkpt>
      <trkpt lat="42.51288" lon="2.00569">
        <ele>1856.8000488281</ele>
        <time>2016-10-30T13:12:12Z</time>
      </trkpt>
      <trkpt lat="42.51287" lon="2.00568">
        <ele>1856.8000488281</ele>
        <time>2016-10-30T13:12:13Z</time>
      </trkpt>
      <trkpt lat="42.51278" lon="2.00572">
        <ele>1856.8000488281</ele>
        <time>2016-10-30T13:12:20Z</time>
      </trkpt>
      <trkpt lat="42.51275" lon="2.00579">
        <ele>1856.8000488281</ele>
        <time>2016-10-30T13:12:25Z</time>
      </trkpt>
      <trkpt lat="42.51274" lon="2.00582">
        <ele>1856.1999511719</ele>
        <time>2016-10-30T13:12:27Z</time>
      </trkpt>
      <trkpt lat="42.51274" lon="2.00582">
        <ele>1855.1999511719</ele>
        <time>2016-10-30T13:12:28Z</time>
      </trkpt>
      <trkpt lat="42.51274" lon="2.00582">
        <ele>1854.1999511719</ele>
        <time>2016-10-30T13:12:29Z</time>
      </trkpt>
      <trkpt lat="42.51274" lon="2.00582">
        <ele>1853</ele>
        <time>2016-10-30T13:12:30Z</time>
      </trkpt>
      <trkpt lat="42.51274" lon="2.00582">
        <ele>1853.4000244141</ele>
        <time>2016-10-30T13:12:31Z</time>
      </trkpt>
      <trkpt lat="42.51274" lon="2.00582">
        <ele>1853.8000488281</ele>
        <time>2016-10-30T13:12:32Z</time>
      </trkpt>
      <trkpt lat="42.51275" lon="2.00583">
        <ele>1854.1999511719</ele>
        <time>2016-10-30T13:12:33Z</time>
      </trkpt>
      <trkpt lat="42.51275" lon="2.00585">
        <ele>1855</ele>
        <time>2016-10-30T13:12:34Z</time>
      </trkpt>
      <trkpt lat="42.51277" lon="2.00588">
        <ele>1855</ele>
        <time>2016-10-30T13:12:39Z</time>
      </trkpt>
      <trkpt lat="42.51277" lon="2.00594">
        <ele>1855</ele>
        <time>2016-10-30T13:12:44Z</time>
      </trkpt>
      <trkpt lat="42.51276" lon="2.006">
        <ele>1854.4000244141</ele>
        <time>2016-10-30T13:12:49Z</time>
      </trkpt>
      <trkpt lat="42.51276" lon="2.00602">
        <ele>1854</ele>
        <time>2016-10-30T13:12:50Z</time>
      </trkpt>
      <trkpt lat="42.51276" lon="2.00603">
        <ele>1853.4000244141</ele>
        <time>2016-10-30T13:12:51Z</time>
      </trkpt>
      <trkpt lat="42.51276" lon="2.00605">
        <ele>1852.8000488281</ele>
        <time>2016-10-30T13:12:52Z</time>
      </trkpt>
      <trkpt lat="42.51276" lon="2.00607">
        <ele>1852.4000244141</ele>
        <time>2016-10-30T13:12:53Z</time>
      </trkpt>
      <trkpt lat="42.51276" lon="2.00608">
        <ele>1852.4000244141</ele>
        <time>2016-10-30T13:12:55Z</time>
      </trkpt>
      <trkpt lat="42.51276" lon="2.0061">
        <ele>1851.8000488281</ele>
        <time>2016-10-30T13:12:56Z</time>
      </trkpt>
      <trkpt lat="42.51276" lon="2.00611">
        <ele>1851.1999511719</ele>
        <time>2016-10-30T13:12:57Z</time>
      </trkpt>
      <trkpt lat="42.51276" lon="2.00612">
        <ele>1850</ele>
        <time>2016-10-30T13:12:58Z</time>
      </trkpt>
      <trkpt lat="42.51276" lon="2.00613">
        <ele>1849.4000244141</ele>
        <time>2016-10-30T13:12:59Z</time>
      </trkpt>
      <trkpt lat="42.51276" lon="2.00617">
        <ele>1849.4000244141</ele>
        <time>2016-10-30T13:13:02Z</time>
      </trkpt>
      <trkpt lat="42.51275" lon="2.00623">
        <ele>1849.4000244141</ele>
        <time>2016-10-30T13:13:08Z</time>
      </trkpt>
      <trkpt lat="42.51274" lon="2.00626">
        <ele>1849</ele>
        <time>2016-10-30T13:13:13Z</time>
      </trkpt>
      <trkpt lat="42.51274" lon="2.00627">
        <ele>1848.5999755859</ele>
        <time>2016-10-30T13:13:14Z</time>
      </trkpt>
      <trkpt lat="42.51273" lon="2.00628">
        <ele>1848.1999511719</ele>
        <time>2016-10-30T13:13:15Z</time>
      </trkpt>
      <trkpt lat="42.51273" lon="2.0063">
        <ele>1847.8000488281</ele>
        <time>2016-10-30T13:13:16Z</time>
      </trkpt>
      <trkpt lat="42.51273" lon="2.0063">
        <ele>1847.4000244141</ele>
        <time>2016-10-30T13:13:17Z</time>
      </trkpt>
      <trkpt lat="42.51273" lon="2.00635">
        <ele>1847.4000244141</ele>
        <time>2016-10-30T13:13:22Z</time>
      </trkpt>
      <trkpt lat="42.51273" lon="2.00637">
        <ele>1847</ele>
        <time>2016-10-30T13:13:24Z</time>
      </trkpt>
      <trkpt lat="42.51273" lon="2.00638">
        <ele>1846.4000244141</ele>
        <time>2016-10-30T13:13:25Z</time>
      </trkpt>
      <trkpt lat="42.51273" lon="2.00638">
        <ele>1846</ele>
        <time>2016-10-30T13:13:26Z</time>
      </trkpt>
      <trkpt lat="42.51273" lon="2.00638">
        <ele>1845.4000244141</ele>
        <time>2016-10-30T13:13:27Z</time>
      </trkpt>
      <trkpt lat="42.51273" lon="2.00638">
        <ele>1845</ele>
        <time>2016-10-30T13:13:28Z</time>
      </trkpt>
      <trkpt lat="42.51273" lon="2.00638">
        <ele>1845</ele>
        <time>2016-10-30T13:13:42Z</time>
      </trkpt>
      <trkpt lat="42.51273" lon="2.00638">
        <ele>1845</ele>
        <time>2016-10-30T13:13:52Z</time>
      </trkpt>
      <trkpt lat="42.51273" lon="2.00638">
        <ele>1845</ele>
        <time>2016-10-30T13:14:05Z</time>
      </trkpt>
      <trkpt lat="42.51276" lon="2.00641">
        <ele>1845</ele>
        <time>2016-10-30T13:14:11Z</time>
      </trkpt>
      <trkpt lat="42.51277" lon="2.00642">
        <ele>1845</ele>
        <time>2016-10-30T13:14:12Z</time>
      </trkpt>
      <trkpt lat="42.51279" lon="2.00647">
        <ele>1845</ele>
        <time>2016-10-30T13:14:16Z</time>
      </trkpt>
      <trkpt lat="42.51282" lon="2.00655">
        <ele>1845</ele>
        <time>2016-10-30T13:14:22Z</time>
      </trkpt>
      <trkpt lat="42.51283" lon="2.00658">
        <ele>1845</ele>
        <time>2016-10-30T13:14:28Z</time>
      </trkpt>
      <trkpt lat="42.5129" lon="2.00665">
        <ele>1845.4000244141</ele>
        <time>2016-10-30T13:14:36Z</time>
      </trkpt>
      <trkpt lat="42.51291" lon="2.00665">
        <ele>1845.8000488281</ele>
        <time>2016-10-30T13:14:37Z</time>
      </trkpt>
      <trkpt lat="42.51292" lon="2.00666">
        <ele>1846.5999755859</ele>
        <time>2016-10-30T13:14:38Z</time>
      </trkpt>
      <trkpt lat="42.51293" lon="2.00667">
        <ele>1847</ele>
        <time>2016-10-30T13:14:39Z</time>
      </trkpt>
      <trkpt lat="42.51296" lon="2.0067">
        <ele>1847</ele>
        <time>2016-10-30T13:14:42Z</time>
      </trkpt>
      <trkpt lat="42.51298" lon="2.00677">
        <ele>1847</ele>
        <time>2016-10-30T13:14:48Z</time>
      </trkpt>
      <trkpt lat="42.51302" lon="2.00685">
        <ele>1847</ele>
        <time>2016-10-30T13:14:55Z</time>
      </trkpt>
      <trkpt lat="42.51306" lon="2.00693">
        <ele>1847</ele>
        <time>2016-10-30T13:15:01Z</time>
      </trkpt>
      <trkpt lat="42.51307" lon="2.00698">
        <ele>1847</ele>
        <time>2016-10-30T13:15:05Z</time>
      </trkpt>
      <trkpt lat="42.51308" lon="2.00704">
        <ele>1847</ele>
        <time>2016-10-30T13:15:10Z</time>
      </trkpt>
      <trkpt lat="42.51309" lon="2.00712">
        <ele>1847</ele>
        <time>2016-10-30T13:15:15Z</time>
      </trkpt>
      <trkpt lat="42.51308" lon="2.00719">
        <ele>1847</ele>
        <time>2016-10-30T13:15:20Z</time>
      </trkpt>
      <trkpt lat="42.51307" lon="2.0072">
        <ele>1846.5999755859</ele>
        <time>2016-10-30T13:15:23Z</time>
      </trkpt>
      <trkpt lat="42.51307" lon="2.00721">
        <ele>1846.1999511719</ele>
        <time>2016-10-30T13:15:24Z</time>
      </trkpt>
      <trkpt lat="42.51307" lon="2.00723">
        <ele>1845.8000488281</ele>
        <time>2016-10-30T13:15:25Z</time>
      </trkpt>
      <trkpt lat="42.51306" lon="2.00724">
        <ele>1845.4000244141</ele>
        <time>2016-10-30T13:15:26Z</time>
      </trkpt>
      <trkpt lat="42.51306" lon="2.00726">
        <ele>1845</ele>
        <time>2016-10-30T13:15:27Z</time>
      </trkpt>
      <trkpt lat="42.51306" lon="2.00726">
        <ele>1845.4000244141</ele>
        <time>2016-10-30T13:15:28Z</time>
      </trkpt>
      <trkpt lat="42.51306" lon="2.00728">
        <ele>1845.8000488281</ele>
        <time>2016-10-30T13:15:29Z</time>
      </trkpt>
      <trkpt lat="42.51306" lon="2.0073">
        <ele>1846.1999511719</ele>
        <time>2016-10-30T13:15:30Z</time>
      </trkpt>
      <trkpt lat="42.51306" lon="2.00731">
        <ele>1846.5999755859</ele>
        <time>2016-10-30T13:15:31Z</time>
      </trkpt>
      <trkpt lat="42.51306" lon="2.00732">
        <ele>1847</ele>
        <time>2016-10-30T13:15:32Z</time>
      </trkpt>
      <trkpt lat="42.51306" lon="2.00736">
        <ele>1847</ele>
        <time>2016-10-30T13:15:34Z</time>
      </trkpt>
      <trkpt lat="42.51306" lon="2.00738">
        <ele>1847</ele>
        <time>2016-10-30T13:15:35Z</time>
      </trkpt>
      <trkpt lat="42.51309" lon="2.00747">
        <ele>1847</ele>
        <time>2016-10-30T13:15:41Z</time>
      </trkpt>
      <trkpt lat="42.5131" lon="2.00756">
        <ele>1847</ele>
        <time>2016-10-30T13:15:47Z</time>
      </trkpt>
      <trkpt lat="42.5131" lon="2.00763">
        <ele>1847</ele>
        <time>2016-10-30T13:15:52Z</time>
      </trkpt>
      <trkpt lat="42.51314" lon="2.00773">
        <ele>1847</ele>
        <time>2016-10-30T13:15:58Z</time>
      </trkpt>
      <trkpt lat="42.51316" lon="2.00774">
        <ele>1847.4000244141</ele>
        <time>2016-10-30T13:16:00Z</time>
      </trkpt>
      <trkpt lat="42.51317" lon="2.00776">
        <ele>1848</ele>
        <time>2016-10-30T13:16:01Z</time>
      </trkpt>
      <trkpt lat="42.51318" lon="2.00777">
        <ele>1848.4000244141</ele>
        <time>2016-10-30T13:16:02Z</time>
      </trkpt>
      <trkpt lat="42.51319" lon="2.00778">
        <ele>1848.8000488281</ele>
        <time>2016-10-30T13:16:03Z</time>
      </trkpt>
      <trkpt lat="42.5132" lon="2.00778">
        <ele>1849.1999511719</ele>
        <time>2016-10-30T13:16:04Z</time>
      </trkpt>
      <trkpt lat="42.51324" lon="2.0078">
        <ele>1849.1999511719</ele>
        <time>2016-10-30T13:16:08Z</time>
      </trkpt>
      <trkpt lat="42.5133" lon="2.00783">
        <ele>1849.1999511719</ele>
        <time>2016-10-30T13:16:15Z</time>
      </trkpt>
      <trkpt lat="42.51332" lon="2.00784">
        <ele>1849.1999511719</ele>
        <time>2016-10-30T13:16:17Z</time>
      </trkpt>
      <trkpt lat="42.51336" lon="2.00786">
        <ele>1849.1999511719</ele>
        <time>2016-10-30T13:16:22Z</time>
      </trkpt>
      <trkpt lat="42.51338" lon="2.00786">
        <ele>1849.1999511719</ele>
        <time>2016-10-30T13:16:24Z</time>
      </trkpt>
      <trkpt lat="42.51341" lon="2.00787">
        <ele>1849.1999511719</ele>
        <time>2016-10-30T13:16:28Z</time>
      </trkpt>
      <trkpt lat="42.51349" lon="2.00792">
        <ele>1849.1999511719</ele>
        <time>2016-10-30T13:16:36Z</time>
      </trkpt>
      <trkpt lat="42.51353" lon="2.00794">
        <ele>1849.1999511719</ele>
        <time>2016-10-30T13:16:41Z</time>
      </trkpt>
      <trkpt lat="42.51356" lon="2.00795">
        <ele>1849.1999511719</ele>
        <time>2016-10-30T13:16:43Z</time>
      </trkpt>
      <trkpt lat="42.51359" lon="2.00796">
        <ele>1849.1999511719</ele>
        <time>2016-10-30T13:16:46Z</time>
      </trkpt>
      <trkpt lat="42.51363" lon="2.00798">
        <ele>1849.1999511719</ele>
        <time>2016-10-30T13:16:50Z</time>
      </trkpt>
      <trkpt lat="42.51366" lon="2.008">
        <ele>1849.1999511719</ele>
        <time>2016-10-30T13:16:53Z</time>
      </trkpt>
      <trkpt lat="42.51369" lon="2.00801">
        <ele>1849.1999511719</ele>
        <time>2016-10-30T13:16:56Z</time>
      </trkpt>
      <trkpt lat="42.5137" lon="2.00802">
        <ele>1849.5999755859</ele>
        <time>2016-10-30T13:16:57Z</time>
      </trkpt>
      <trkpt lat="42.5137" lon="2.00803">
        <ele>1850</ele>
        <time>2016-10-30T13:16:58Z</time>
      </trkpt>
      <trkpt lat="42.51371" lon="2.00803">
        <ele>1850.4000244141</ele>
        <time>2016-10-30T13:16:59Z</time>
      </trkpt>
      <trkpt lat="42.51372" lon="2.00804">
        <ele>1850.8000488281</ele>
        <time>2016-10-30T13:17:00Z</time>
      </trkpt>
      <trkpt lat="42.51373" lon="2.00805">
        <ele>1851.4000244141</ele>
        <time>2016-10-30T13:17:01Z</time>
      </trkpt>
      <trkpt lat="42.51375" lon="2.00806">
        <ele>1851.4000244141</ele>
        <time>2016-10-30T13:17:03Z</time>
      </trkpt>
      <trkpt lat="42.51378" lon="2.00808">
        <ele>1851.4000244141</ele>
        <time>2016-10-30T13:17:06Z</time>
      </trkpt>
      <trkpt lat="42.51382" lon="2.0081">
        <ele>1851.4000244141</ele>
        <time>2016-10-30T13:17:11Z</time>
      </trkpt>
      <trkpt lat="42.51387" lon="2.00813">
        <ele>1851.4000244141</ele>
        <time>2016-10-30T13:17:17Z</time>
      </trkpt>
      <trkpt lat="42.51396" lon="2.00817">
        <ele>1851.4000244141</ele>
        <time>2016-10-30T13:17:26Z</time>
      </trkpt>
      <trkpt lat="42.51399" lon="2.00818">
        <ele>1852</ele>
        <time>2016-10-30T13:17:29Z</time>
      </trkpt>
      <trkpt lat="42.514" lon="2.00818">
        <ele>1852.5999755859</ele>
        <time>2016-10-30T13:17:30Z</time>
      </trkpt>
      <trkpt lat="42.514" lon="2.00818">
        <ele>1853.1999511719</ele>
        <time>2016-10-30T13:17:31Z</time>
      </trkpt>
      <trkpt lat="42.51401" lon="2.00818">
        <ele>1853.8000488281</ele>
        <time>2016-10-30T13:17:32Z</time>
      </trkpt>
      <trkpt lat="42.51402" lon="2.00819">
        <ele>1854.4000244141</ele>
        <time>2016-10-30T13:17:33Z</time>
      </trkpt>
      <trkpt lat="42.51403" lon="2.0082">
        <ele>1854.4000244141</ele>
        <time>2016-10-30T13:17:35Z</time>
      </trkpt>
      <trkpt lat="42.51406" lon="2.0082">
        <ele>1854.4000244141</ele>
        <time>2016-10-30T13:17:38Z</time>
      </trkpt>
      <trkpt lat="42.5141" lon="2.00818">
        <ele>1854.4000244141</ele>
        <time>2016-10-30T13:17:44Z</time>
      </trkpt>
      <trkpt lat="42.5141" lon="2.00819">
        <ele>1854.4000244141</ele>
        <time>2016-10-30T13:17:52Z</time>
      </trkpt>
      <trkpt lat="42.5141" lon="2.00819">
        <ele>1854.4000244141</ele>
        <time>2016-10-30T13:18:05Z</time>
      </trkpt>
      <trkpt lat="42.51414" lon="2.00817">
        <ele>1854.4000244141</ele>
        <time>2016-10-30T13:18:13Z</time>
      </trkpt>
      <trkpt lat="42.51415" lon="2.00817">
        <ele>1854.4000244141</ele>
        <time>2016-10-30T13:18:19Z</time>
      </trkpt>
      <trkpt lat="42.51418" lon="2.00817">
        <ele>1854.4000244141</ele>
        <time>2016-10-30T13:18:27Z</time>
      </trkpt>
      <trkpt lat="42.51422" lon="2.00815">
        <ele>1854.4000244141</ele>
        <time>2016-10-30T13:18:32Z</time>
      </trkpt>
      <trkpt lat="42.51428" lon="2.00815">
        <ele>1854.4000244141</ele>
        <time>2016-10-30T13:18:38Z</time>
      </trkpt>
      <trkpt lat="42.51435" lon="2.00814">
        <ele>1854.4000244141</ele>
        <time>2016-10-30T13:18:45Z</time>
      </trkpt>
      <trkpt lat="42.51441" lon="2.00813">
        <ele>1854.8000488281</ele>
        <time>2016-10-30T13:18:51Z</time>
      </trkpt>
      <trkpt lat="42.51442" lon="2.00813">
        <ele>1855.1999511719</ele>
        <time>2016-10-30T13:18:52Z</time>
      </trkpt>
      <trkpt lat="42.51443" lon="2.00813">
        <ele>1855.5999755859</ele>
        <time>2016-10-30T13:18:53Z</time>
      </trkpt>
      <trkpt lat="42.51444" lon="2.00812">
        <ele>1856.1999511719</ele>
        <time>2016-10-30T13:18:54Z</time>
      </trkpt>
      <trkpt lat="42.51445" lon="2.00812">
        <ele>1856.5999755859</ele>
        <time>2016-10-30T13:18:55Z</time>
      </trkpt>
      <trkpt lat="42.51447" lon="2.00812">
        <ele>1856.5999755859</ele>
        <time>2016-10-30T13:18:57Z</time>
      </trkpt>
      <trkpt lat="42.5145" lon="2.00813">
        <ele>1857</ele>
        <time>2016-10-30T13:19:00Z</time>
      </trkpt>
      <trkpt lat="42.51451" lon="2.00813">
        <ele>1857.5999755859</ele>
        <time>2016-10-30T13:19:01Z</time>
      </trkpt>
      <trkpt lat="42.51451" lon="2.00813">
        <ele>1858</ele>
        <time>2016-10-30T13:19:02Z</time>
      </trkpt>
      <trkpt lat="42.51453" lon="2.00812">
        <ele>1858.5999755859</ele>
        <time>2016-10-30T13:19:03Z</time>
      </trkpt>
      <trkpt lat="42.51453" lon="2.00812">
        <ele>1859.1999511719</ele>
        <time>2016-10-30T13:19:04Z</time>
      </trkpt>
      <trkpt lat="42.5146" lon="2.00811">
        <ele>1859.1999511719</ele>
        <time>2016-10-30T13:19:10Z</time>
      </trkpt>
      <trkpt lat="42.51462" lon="2.0081">
        <ele>1859.1999511719</ele>
        <time>2016-10-30T13:19:12Z</time>
      </trkpt>
      <trkpt lat="42.51464" lon="2.00808">
        <ele>1859.1999511719</ele>
        <time>2016-10-30T13:19:15Z</time>
      </trkpt>
      <trkpt lat="42.51471" lon="2.00803">
        <ele>1859.1999511719</ele>
        <time>2016-10-30T13:19:21Z</time>
      </trkpt>
      <trkpt lat="42.51477" lon="2.008">
        <ele>1859.1999511719</ele>
        <time>2016-10-30T13:19:27Z</time>
      </trkpt>
      <trkpt lat="42.51482" lon="2.00801">
        <ele>1859.1999511719</ele>
        <time>2016-10-30T13:19:34Z</time>
      </trkpt>
      <trkpt lat="42.51487" lon="2.00801">
        <ele>1859.1999511719</ele>
        <time>2016-10-30T13:19:39Z</time>
      </trkpt>
      <trkpt lat="42.51488" lon="2.008">
        <ele>1859.1999511719</ele>
        <time>2016-10-30T13:19:40Z</time>
      </trkpt>
      <trkpt lat="42.51489" lon="2.008">
        <ele>1859.5999755859</ele>
        <time>2016-10-30T13:19:41Z</time>
      </trkpt>
      <trkpt lat="42.5149" lon="2.008">
        <ele>1860</ele>
        <time>2016-10-30T13:19:42Z</time>
      </trkpt>
      <trkpt lat="42.51491" lon="2.008">
        <ele>1860.4000244141</ele>
        <time>2016-10-30T13:19:43Z</time>
      </trkpt>
      <trkpt lat="42.51493" lon="2.008">
        <ele>1860.8000488281</ele>
        <time>2016-10-30T13:19:44Z</time>
      </trkpt>
      <trkpt lat="42.51493" lon="2.008">
        <ele>1861.1999511719</ele>
        <time>2016-10-30T13:19:45Z</time>
      </trkpt>
      <trkpt lat="42.51498" lon="2.00799">
        <ele>1861.1999511719</ele>
        <time>2016-10-30T13:19:49Z</time>
      </trkpt>
      <trkpt lat="42.51505" lon="2.00794">
        <ele>1861.1999511719</ele>
        <time>2016-10-30T13:19:55Z</time>
      </trkpt>
      <trkpt lat="42.51512" lon="2.00789">
        <ele>1861.1999511719</ele>
        <time>2016-10-30T13:20:02Z</time>
      </trkpt>
      <trkpt lat="42.51515" lon="2.00786">
        <ele>1861.1999511719</ele>
        <time>2016-10-30T13:20:08Z</time>
      </trkpt>
      <trkpt lat="42.51519" lon="2.00783">
        <ele>1861.1999511719</ele>
        <time>2016-10-30T13:20:13Z</time>
      </trkpt>
      <trkpt lat="42.51527" lon="2.00778">
        <ele>1861.1999511719</ele>
        <time>2016-10-30T13:20:20Z</time>
      </trkpt>
      <trkpt lat="42.51531" lon="2.00774">
        <ele>1861.1999511719</ele>
        <time>2016-10-30T13:20:24Z</time>
      </trkpt>
      <trkpt lat="42.51533" lon="2.00772">
        <ele>1861.1999511719</ele>
        <time>2016-10-30T13:20:26Z</time>
      </trkpt>
      <trkpt lat="42.5154" lon="2.00764">
        <ele>1861.1999511719</ele>
        <time>2016-10-30T13:20:33Z</time>
      </trkpt>
      <trkpt lat="42.51541" lon="2.00764">
        <ele>1861.1999511719</ele>
        <time>2016-10-30T13:20:34Z</time>
      </trkpt>
      <trkpt lat="42.51544" lon="2.00762">
        <ele>1861.1999511719</ele>
        <time>2016-10-30T13:20:38Z</time>
      </trkpt>
      <trkpt lat="42.51547" lon="2.00761">
        <ele>1861.8000488281</ele>
        <time>2016-10-30T13:20:40Z</time>
      </trkpt>
      <trkpt lat="42.51548" lon="2.0076">
        <ele>1862.5999755859</ele>
        <time>2016-10-30T13:20:41Z</time>
      </trkpt>
      <trkpt lat="42.5155" lon="2.0076">
        <ele>1863.1999511719</ele>
        <time>2016-10-30T13:20:42Z</time>
      </trkpt>
      <trkpt lat="42.51551" lon="2.00759">
        <ele>1863.5999755859</ele>
        <time>2016-10-30T13:20:43Z</time>
      </trkpt>
      <trkpt lat="42.51552" lon="2.00758">
        <ele>1863.5999755859</ele>
        <time>2016-10-30T13:20:44Z</time>
      </trkpt>
      <trkpt lat="42.51552" lon="2.00757">
        <ele>1863.5999755859</ele>
        <time>2016-10-30T13:20:45Z</time>
      </trkpt>
      <trkpt lat="42.51557" lon="2.00754">
        <ele>1863.5999755859</ele>
        <time>2016-10-30T13:20:50Z</time>
      </trkpt>
      <trkpt lat="42.51565" lon="2.0075">
        <ele>1863.5999755859</ele>
        <time>2016-10-30T13:20:56Z</time>
      </trkpt>
      <trkpt lat="42.51571" lon="2.00746">
        <ele>1863.5999755859</ele>
        <time>2016-10-30T13:21:02Z</time>
      </trkpt>
      <trkpt lat="42.51577" lon="2.00742">
        <ele>1863.5999755859</ele>
        <time>2016-10-30T13:21:08Z</time>
      </trkpt>
      <trkpt lat="42.51579" lon="2.0074">
        <ele>1864</ele>
        <time>2016-10-30T13:21:10Z</time>
      </trkpt>
      <trkpt lat="42.5158" lon="2.00738">
        <ele>1864.4000244141</ele>
        <time>2016-10-30T13:21:11Z</time>
      </trkpt>
      <trkpt lat="42.5158" lon="2.00738">
        <ele>1864.8000488281</ele>
        <time>2016-10-30T13:21:12Z</time>
      </trkpt>
      <trkpt lat="42.51582" lon="2.00737">
        <ele>1865.4000244141</ele>
        <time>2016-10-30T13:21:13Z</time>
      </trkpt>
      <trkpt lat="42.51583" lon="2.00737">
        <ele>1865.8000488281</ele>
        <time>2016-10-30T13:21:14Z</time>
      </trkpt>
      <trkpt lat="42.51585" lon="2.00734">
        <ele>1865.8000488281</ele>
        <time>2016-10-30T13:21:16Z</time>
      </trkpt>
      <trkpt lat="42.51586" lon="2.00732">
        <ele>1865.8000488281</ele>
        <time>2016-10-30T13:21:18Z</time>
      </trkpt>
      <trkpt lat="42.51592" lon="2.00727">
        <ele>1865.8000488281</ele>
        <time>2016-10-30T13:21:24Z</time>
      </trkpt>
      <trkpt lat="42.51598" lon="2.00723">
        <ele>1865.8000488281</ele>
        <time>2016-10-30T13:21:31Z</time>
      </trkpt>
      <trkpt lat="42.51605" lon="2.00719">
        <ele>1865.8000488281</ele>
        <time>2016-10-30T13:21:37Z</time>
      </trkpt>
      <trkpt lat="42.51612" lon="2.00715">
        <ele>1865.8000488281</ele>
        <time>2016-10-30T13:21:44Z</time>
      </trkpt>
      <trkpt lat="42.51613" lon="2.00714">
        <ele>1866.4000244141</ele>
        <time>2016-10-30T13:21:45Z</time>
      </trkpt>
      <trkpt lat="42.51614" lon="2.00714">
        <ele>1867</ele>
        <time>2016-10-30T13:21:46Z</time>
      </trkpt>
      <trkpt lat="42.51615" lon="2.00713">
        <ele>1866.8000488281</ele>
        <time>2016-10-30T13:21:47Z</time>
      </trkpt>
      <trkpt lat="42.51615" lon="2.00712">
        <ele>1866.8000488281</ele>
        <time>2016-10-30T13:21:48Z</time>
      </trkpt>
      <trkpt lat="42.51616" lon="2.00712">
        <ele>1867</ele>
        <time>2016-10-30T13:21:49Z</time>
      </trkpt>
      <trkpt lat="42.51617" lon="2.0071">
        <ele>1867.4000244141</ele>
        <time>2016-10-30T13:21:50Z</time>
      </trkpt>
      <trkpt lat="42.51618" lon="2.00709">
        <ele>1867.8000488281</ele>
        <time>2016-10-30T13:21:51Z</time>
      </trkpt>
      <trkpt lat="42.51618" lon="2.00709">
        <ele>1868</ele>
        <time>2016-10-30T13:21:52Z</time>
      </trkpt>
      <trkpt lat="42.51619" lon="2.00709">
        <ele>1868.4000244141</ele>
        <time>2016-10-30T13:21:53Z</time>
      </trkpt>
      <trkpt lat="42.51623" lon="2.00708">
        <ele>1868.4000244141</ele>
        <time>2016-10-30T13:21:57Z</time>
      </trkpt>
      <trkpt lat="42.51627" lon="2.00707">
        <ele>1869</ele>
        <time>2016-10-30T13:22:01Z</time>
      </trkpt>
      <trkpt lat="42.51628" lon="2.00706">
        <ele>1869.4000244141</ele>
        <time>2016-10-30T13:22:02Z</time>
      </trkpt>
      <trkpt lat="42.5163" lon="2.00706">
        <ele>1870</ele>
        <time>2016-10-30T13:22:03Z</time>
      </trkpt>
      <trkpt lat="42.5163" lon="2.00706">
        <ele>1869.8000488281</ele>
        <time>2016-10-30T13:22:04Z</time>
      </trkpt>
      <trkpt lat="42.51632" lon="2.00705">
        <ele>1869.4000244141</ele>
        <time>2016-10-30T13:22:05Z</time>
      </trkpt>
      <trkpt lat="42.51633" lon="2.00705">
        <ele>1869.8000488281</ele>
        <time>2016-10-30T13:22:06Z</time>
      </trkpt>
      <trkpt lat="42.51634" lon="2.00704">
        <ele>1870.1999511719</ele>
        <time>2016-10-30T13:22:07Z</time>
      </trkpt>
      <trkpt lat="42.51636" lon="2.00704">
        <ele>1870.4000244141</ele>
        <time>2016-10-30T13:22:08Z</time>
      </trkpt>
      <trkpt lat="42.51637" lon="2.00704">
        <ele>1870.8000488281</ele>
        <time>2016-10-30T13:22:09Z</time>
      </trkpt>
      <trkpt lat="42.51637" lon="2.00703">
        <ele>1871.1999511719</ele>
        <time>2016-10-30T13:22:10Z</time>
      </trkpt>
      <trkpt lat="42.51644" lon="2.00702">
        <ele>1871.1999511719</ele>
        <time>2016-10-30T13:22:17Z</time>
      </trkpt>
      <trkpt lat="42.51645" lon="2.00703">
        <ele>1871.5999755859</ele>
        <time>2016-10-30T13:22:19Z</time>
      </trkpt>
      <trkpt lat="42.51646" lon="2.00703">
        <ele>1872</ele>
        <time>2016-10-30T13:22:20Z</time>
      </trkpt>
      <trkpt lat="42.51647" lon="2.00703">
        <ele>1872.4000244141</ele>
        <time>2016-10-30T13:22:21Z</time>
      </trkpt>
      <trkpt lat="42.51649" lon="2.00704">
        <ele>1872.8000488281</ele>
        <time>2016-10-30T13:22:22Z</time>
      </trkpt>
      <trkpt lat="42.51649" lon="2.00704">
        <ele>1873.1999511719</ele>
        <time>2016-10-30T13:22:23Z</time>
      </trkpt>
      <trkpt lat="42.51652" lon="2.00705">
        <ele>1873.1999511719</ele>
        <time>2016-10-30T13:22:26Z</time>
      </trkpt>
      <trkpt lat="42.51656" lon="2.00704">
        <ele>1873.1999511719</ele>
        <time>2016-10-30T13:22:31Z</time>
      </trkpt>
      <trkpt lat="42.51658" lon="2.00704">
        <ele>1873.5999755859</ele>
        <time>2016-10-30T13:22:33Z</time>
      </trkpt>
      <trkpt lat="42.51659" lon="2.00704">
        <ele>1874</ele>
        <time>2016-10-30T13:22:34Z</time>
      </trkpt>
      <trkpt lat="42.51661" lon="2.00704">
        <ele>1874.4000244141</ele>
        <time>2016-10-30T13:22:35Z</time>
      </trkpt>
      <trkpt lat="42.51662" lon="2.00704">
        <ele>1874.8000488281</ele>
        <time>2016-10-30T13:22:36Z</time>
      </trkpt>
      <trkpt lat="42.51663" lon="2.00704">
        <ele>1875.4000244141</ele>
        <time>2016-10-30T13:22:37Z</time>
      </trkpt>
      <trkpt lat="42.51664" lon="2.00705">
        <ele>1875.4000244141</ele>
        <time>2016-10-30T13:22:38Z</time>
      </trkpt>
      <trkpt lat="42.51672" lon="2.00713">
        <ele>1875.4000244141</ele>
        <time>2016-10-30T13:22:46Z</time>
      </trkpt>
      <trkpt lat="42.51676" lon="2.00716">
        <ele>1875.8000488281</ele>
        <time>2016-10-30T13:22:50Z</time>
      </trkpt>
      <trkpt lat="42.51676" lon="2.00717">
        <ele>1875.5999755859</ele>
        <time>2016-10-30T13:22:51Z</time>
      </trkpt>
      <trkpt lat="42.51677" lon="2.00718">
        <ele>1875.5999755859</ele>
        <time>2016-10-30T13:22:52Z</time>
      </trkpt>
      <trkpt lat="42.51677" lon="2.00718">
        <ele>1875.4000244141</ele>
        <time>2016-10-30T13:22:53Z</time>
      </trkpt>
      <trkpt lat="42.51679" lon="2.00719">
        <ele>1876</ele>
        <time>2016-10-30T13:22:54Z</time>
      </trkpt>
      <trkpt lat="42.51679" lon="2.0072">
        <ele>1876.5999755859</ele>
        <time>2016-10-30T13:22:55Z</time>
      </trkpt>
      <trkpt lat="42.5168" lon="2.0072">
        <ele>1877.1999511719</ele>
        <time>2016-10-30T13:22:56Z</time>
      </trkpt>
      <trkpt lat="42.51681" lon="2.00721">
        <ele>1877.5999755859</ele>
        <time>2016-10-30T13:22:57Z</time>
      </trkpt>
      <trkpt lat="42.51682" lon="2.00721">
        <ele>1878.1999511719</ele>
        <time>2016-10-30T13:22:58Z</time>
      </trkpt>
      <trkpt lat="42.51686" lon="2.00723">
        <ele>1878.1999511719</ele>
        <time>2016-10-30T13:23:05Z</time>
      </trkpt>
      <trkpt lat="42.51693" lon="2.00729">
        <ele>1878.5999755859</ele>
        <time>2016-10-30T13:23:12Z</time>
      </trkpt>
      <trkpt lat="42.51694" lon="2.00729">
        <ele>1879</ele>
        <time>2016-10-30T13:23:13Z</time>
      </trkpt>
      <trkpt lat="42.51694" lon="2.0073">
        <ele>1879.5999755859</ele>
        <time>2016-10-30T13:23:14Z</time>
      </trkpt>
      <trkpt lat="42.51695" lon="2.00731">
        <ele>1880</ele>
        <time>2016-10-30T13:23:15Z</time>
      </trkpt>
      <trkpt lat="42.51694" lon="2.00731">
        <ele>1880.4000244141</ele>
        <time>2016-10-30T13:23:16Z</time>
      </trkpt>
      <trkpt lat="42.51696" lon="2.00733">
        <ele>1880.4000244141</ele>
        <time>2016-10-30T13:23:18Z</time>
      </trkpt>
      <trkpt lat="42.51697" lon="2.00736">
        <ele>1880.4000244141</ele>
        <time>2016-10-30T13:23:20Z</time>
      </trkpt>
      <trkpt lat="42.51698" lon="2.00738">
        <ele>1880.4000244141</ele>
        <time>2016-10-30T13:23:22Z</time>
      </trkpt>
      <trkpt lat="42.51698" lon="2.0074">
        <ele>1880.4000244141</ele>
        <time>2016-10-30T13:23:23Z</time>
      </trkpt>
      <trkpt lat="42.517" lon="2.00749">
        <ele>1880.4000244141</ele>
        <time>2016-10-30T13:23:29Z</time>
      </trkpt>
      <trkpt lat="42.517" lon="2.00754">
        <ele>1880.8000488281</ele>
        <time>2016-10-30T13:23:32Z</time>
      </trkpt>
      <trkpt lat="42.517" lon="2.00755">
        <ele>1881.1999511719</ele>
        <time>2016-10-30T13:23:33Z</time>
      </trkpt>
      <trkpt lat="42.517" lon="2.00757">
        <ele>1881.5999755859</ele>
        <time>2016-10-30T13:23:34Z</time>
      </trkpt>
      <trkpt lat="42.51701" lon="2.00759">
        <ele>1882</ele>
        <time>2016-10-30T13:23:35Z</time>
      </trkpt>
      <trkpt lat="42.51701" lon="2.0076">
        <ele>1882.5999755859</ele>
        <time>2016-10-30T13:23:36Z</time>
      </trkpt>
      <trkpt lat="42.51702" lon="2.00767">
        <ele>1882.5999755859</ele>
        <time>2016-10-30T13:23:41Z</time>
      </trkpt>
      <trkpt lat="42.51703" lon="2.00771">
        <ele>1882.5999755859</ele>
        <time>2016-10-30T13:23:45Z</time>
      </trkpt>
      <trkpt lat="42.51704" lon="2.00774">
        <ele>1882.5999755859</ele>
        <time>2016-10-30T13:23:47Z</time>
      </trkpt>
      <trkpt lat="42.51705" lon="2.00777">
        <ele>1883</ele>
        <time>2016-10-30T13:23:49Z</time>
      </trkpt>
      <trkpt lat="42.51705" lon="2.00778">
        <ele>1883.4000244141</ele>
        <time>2016-10-30T13:23:50Z</time>
      </trkpt>
      <trkpt lat="42.51705" lon="2.00778">
        <ele>1883.8000488281</ele>
        <time>2016-10-30T13:23:51Z</time>
      </trkpt>
      <trkpt lat="42.51706" lon="2.0078">
        <ele>1884.4000244141</ele>
        <time>2016-10-30T13:23:52Z</time>
      </trkpt>
      <trkpt lat="42.51706" lon="2.00781">
        <ele>1884.8000488281</ele>
        <time>2016-10-30T13:23:53Z</time>
      </trkpt>
      <trkpt lat="42.51707" lon="2.00786">
        <ele>1884.8000488281</ele>
        <time>2016-10-30T13:23:57Z</time>
      </trkpt>
      <trkpt lat="42.51708" lon="2.00795">
        <ele>1884.8000488281</ele>
        <time>2016-10-30T13:24:03Z</time>
      </trkpt>
      <trkpt lat="42.51709" lon="2.00803">
        <ele>1884.8000488281</ele>
        <time>2016-10-30T13:24:09Z</time>
      </trkpt>
      <trkpt lat="42.51709" lon="2.0081">
        <ele>1884.8000488281</ele>
        <time>2016-10-30T13:24:14Z</time>
      </trkpt>
      <trkpt lat="42.51709" lon="2.00814">
        <ele>1885.1999511719</ele>
        <time>2016-10-30T13:24:17Z</time>
      </trkpt>
      <trkpt lat="42.51709" lon="2.00816">
        <ele>1885.5999755859</ele>
        <time>2016-10-30T13:24:18Z</time>
      </trkpt>
      <trkpt lat="42.51709" lon="2.00816">
        <ele>1886</ele>
        <time>2016-10-30T13:24:19Z</time>
      </trkpt>
      <trkpt lat="42.51709" lon="2.00817">
        <ele>1886.4000244141</ele>
        <time>2016-10-30T13:24:20Z</time>
      </trkpt>
      <trkpt lat="42.51709" lon="2.00819">
        <ele>1886.8000488281</ele>
        <time>2016-10-30T13:24:21Z</time>
      </trkpt>
      <trkpt lat="42.5171" lon="2.0082">
        <ele>1886.8000488281</ele>
        <time>2016-10-30T13:24:24Z</time>
      </trkpt>
      <trkpt lat="42.51712" lon="2.00827">
        <ele>1886.8000488281</ele>
        <time>2016-10-30T13:24:30Z</time>
      </trkpt>
      <trkpt lat="42.51713" lon="2.00833">
        <ele>1886.8000488281</ele>
        <time>2016-10-30T13:24:35Z</time>
      </trkpt>
      <trkpt lat="42.51715" lon="2.00844">
        <ele>1887.5999755859</ele>
        <time>2016-10-30T13:24:41Z</time>
      </trkpt>
      <trkpt lat="42.51715" lon="2.00845">
        <ele>1888.1999511719</ele>
        <time>2016-10-30T13:24:42Z</time>
      </trkpt>
      <trkpt lat="42.51716" lon="2.00847">
        <ele>1888.8000488281</ele>
        <time>2016-10-30T13:24:43Z</time>
      </trkpt>
      <trkpt lat="42.51716" lon="2.00848">
        <ele>1889.4000244141</ele>
        <time>2016-10-30T13:24:44Z</time>
      </trkpt>
      <trkpt lat="42.51716" lon="2.0085">
        <ele>1890.1999511719</ele>
        <time>2016-10-30T13:24:45Z</time>
      </trkpt>
      <trkpt lat="42.51717" lon="2.00851">
        <ele>1889.5999755859</ele>
        <time>2016-10-30T13:24:46Z</time>
      </trkpt>
      <trkpt lat="42.51717" lon="2.00851">
        <ele>1889.1999511719</ele>
        <time>2016-10-30T13:24:47Z</time>
      </trkpt>
      <trkpt lat="42.51718" lon="2.00852">
        <ele>1888.8000488281</ele>
        <time>2016-10-30T13:24:48Z</time>
      </trkpt>
      <trkpt lat="42.51718" lon="2.00854">
        <ele>1888.1999511719</ele>
        <time>2016-10-30T13:24:49Z</time>
      </trkpt>
      <trkpt lat="42.51718" lon="2.00856">
        <ele>1887.8000488281</ele>
        <time>2016-10-30T13:24:50Z</time>
      </trkpt>
      <trkpt lat="42.51719" lon="2.00857">
        <ele>1888.1999511719</ele>
        <time>2016-10-30T13:24:51Z</time>
      </trkpt>
      <trkpt lat="42.51719" lon="2.00858">
        <ele>1888.5999755859</ele>
        <time>2016-10-30T13:24:52Z</time>
      </trkpt>
      <trkpt lat="42.51719" lon="2.0086">
        <ele>1889</ele>
        <time>2016-10-30T13:24:53Z</time>
      </trkpt>
      <trkpt lat="42.5172" lon="2.00861">
        <ele>1889.5999755859</ele>
        <time>2016-10-30T13:24:54Z</time>
      </trkpt>
      <trkpt lat="42.5172" lon="2.00862">
        <ele>1890</ele>
        <time>2016-10-30T13:24:55Z</time>
      </trkpt>
      <trkpt lat="42.51722" lon="2.00868">
        <ele>1890</ele>
        <time>2016-10-30T13:24:59Z</time>
      </trkpt>
      <trkpt lat="42.51726" lon="2.00877">
        <ele>1890</ele>
        <time>2016-10-30T13:25:05Z</time>
      </trkpt>
      <trkpt lat="42.51728" lon="2.00883">
        <ele>1890</ele>
        <time>2016-10-30T13:25:11Z</time>
      </trkpt>
      <trkpt lat="42.51728" lon="2.00884">
        <ele>1890</ele>
        <time>2016-10-30T13:25:12Z</time>
      </trkpt>
      <trkpt lat="42.5173" lon="2.0089">
        <ele>1890</ele>
        <time>2016-10-30T13:25:17Z</time>
      </trkpt>
      <trkpt lat="42.51732" lon="2.00899">
        <ele>1890</ele>
        <time>2016-10-30T13:25:23Z</time>
      </trkpt>
      <trkpt lat="42.51732" lon="2.00902">
        <ele>1890.4000244141</ele>
        <time>2016-10-30T13:25:25Z</time>
      </trkpt>
      <trkpt lat="42.51733" lon="2.00903">
        <ele>1890.8000488281</ele>
        <time>2016-10-30T13:25:26Z</time>
      </trkpt>
      <trkpt lat="42.51733" lon="2.00904">
        <ele>1891.1999511719</ele>
        <time>2016-10-30T13:25:27Z</time>
      </trkpt>
      <trkpt lat="42.51733" lon="2.00905">
        <ele>1891.5999755859</ele>
        <time>2016-10-30T13:25:28Z</time>
      </trkpt>
      <trkpt lat="42.51734" lon="2.00907">
        <ele>1892</ele>
        <time>2016-10-30T13:25:29Z</time>
      </trkpt>
      <trkpt lat="42.51735" lon="2.0091">
        <ele>1892</ele>
        <time>2016-10-30T13:25:32Z</time>
      </trkpt>
      <trkpt lat="42.51739" lon="2.00922">
        <ele>1892</ele>
        <time>2016-10-30T13:25:41Z</time>
      </trkpt>
      <trkpt lat="42.51743" lon="2.00933">
        <ele>1892</ele>
        <time>2016-10-30T13:25:49Z</time>
      </trkpt>
      <trkpt lat="42.51746" lon="2.00937">
        <ele>1892.4000244141</ele>
        <time>2016-10-30T13:25:53Z</time>
      </trkpt>
      <trkpt lat="42.51747" lon="2.00938">
        <ele>1893</ele>
        <time>2016-10-30T13:25:54Z</time>
      </trkpt>
      <trkpt lat="42.51747" lon="2.00939">
        <ele>1893.5999755859</ele>
        <time>2016-10-30T13:25:55Z</time>
      </trkpt>
      <trkpt lat="42.51748" lon="2.0094">
        <ele>1894</ele>
        <time>2016-10-30T13:25:56Z</time>
      </trkpt>
      <trkpt lat="42.51749" lon="2.00941">
        <ele>1894.5999755859</ele>
        <time>2016-10-30T13:25:57Z</time>
      </trkpt>
      <trkpt lat="42.51751" lon="2.00945">
        <ele>1894.1999511719</ele>
        <time>2016-10-30T13:26:01Z</time>
      </trkpt>
      <trkpt lat="42.51752" lon="2.00946">
        <ele>1893.8000488281</ele>
        <time>2016-10-30T13:26:02Z</time>
      </trkpt>
      <trkpt lat="42.51753" lon="2.00947">
        <ele>1893.4000244141</ele>
        <time>2016-10-30T13:26:03Z</time>
      </trkpt>
      <trkpt lat="42.51753" lon="2.00948">
        <ele>1893</ele>
        <time>2016-10-30T13:26:04Z</time>
      </trkpt>
      <trkpt lat="42.51754" lon="2.00949">
        <ele>1892.5999755859</ele>
        <time>2016-10-30T13:26:05Z</time>
      </trkpt>
      <trkpt lat="42.51756" lon="2.00952">
        <ele>1892.5999755859</ele>
        <time>2016-10-30T13:26:08Z</time>
      </trkpt>
      <trkpt lat="42.51757" lon="2.00955">
        <ele>1892.5999755859</ele>
        <time>2016-10-30T13:26:10Z</time>
      </trkpt>
      <trkpt lat="42.51765" lon="2.00964">
        <ele>1892.5999755859</ele>
        <time>2016-10-30T13:26:19Z</time>
      </trkpt>
      <trkpt lat="42.51767" lon="2.00966">
        <ele>1893</ele>
        <time>2016-10-30T13:26:21Z</time>
      </trkpt>
      <trkpt lat="42.51768" lon="2.00967">
        <ele>1893.4000244141</ele>
        <time>2016-10-30T13:26:22Z</time>
      </trkpt>
      <trkpt lat="42.51768" lon="2.00968">
        <ele>1893.8000488281</ele>
        <time>2016-10-30T13:26:23Z</time>
      </trkpt>
      <trkpt lat="42.51769" lon="2.00968">
        <ele>1894.1999511719</ele>
        <time>2016-10-30T13:26:24Z</time>
      </trkpt>
      <trkpt lat="42.5177" lon="2.00969">
        <ele>1894.8000488281</ele>
        <time>2016-10-30T13:26:25Z</time>
      </trkpt>
      <trkpt lat="42.51775" lon="2.00976">
        <ele>1894.8000488281</ele>
        <time>2016-10-30T13:26:31Z</time>
      </trkpt>
      <trkpt lat="42.51777" lon="2.00978">
        <ele>1894.8000488281</ele>
        <time>2016-10-30T13:26:33Z</time>
      </trkpt>
      <trkpt lat="42.51779" lon="2.0098">
        <ele>1894.8000488281</ele>
        <time>2016-10-30T13:26:36Z</time>
      </trkpt>
      <trkpt lat="42.51784" lon="2.00986">
        <ele>1894.8000488281</ele>
        <time>2016-10-30T13:26:42Z</time>
      </trkpt>
      <trkpt lat="42.51789" lon="2.00991">
        <ele>1894.8000488281</ele>
        <time>2016-10-30T13:26:48Z</time>
      </trkpt>
      <trkpt lat="42.51795" lon="2.00994">
        <ele>1894.8000488281</ele>
        <time>2016-10-30T13:26:55Z</time>
      </trkpt>
      <trkpt lat="42.51795" lon="2.00996">
        <ele>1894.8000488281</ele>
        <time>2016-10-30T13:26:56Z</time>
      </trkpt>
      <trkpt lat="42.51799" lon="2.00998">
        <ele>1894.8000488281</ele>
        <time>2016-10-30T13:27:00Z</time>
      </trkpt>
      <trkpt lat="42.518" lon="2.00999">
        <ele>1895.5999755859</ele>
        <time>2016-10-30T13:27:02Z</time>
      </trkpt>
      <trkpt lat="42.51801" lon="2.00999">
        <ele>1896</ele>
        <time>2016-10-30T13:27:03Z</time>
      </trkpt>
      <trkpt lat="42.51802" lon="2.01">
        <ele>1896.4000244141</ele>
        <time>2016-10-30T13:27:04Z</time>
      </trkpt>
      <trkpt lat="42.51803" lon="2.01">
        <ele>1896.8000488281</ele>
        <time>2016-10-30T13:27:05Z</time>
      </trkpt>
      <trkpt lat="42.51806" lon="2.01002">
        <ele>1896.8000488281</ele>
        <time>2016-10-30T13:27:08Z</time>
      </trkpt>
      <trkpt lat="42.51814" lon="2.01007">
        <ele>1896.8000488281</ele>
        <time>2016-10-30T13:27:16Z</time>
      </trkpt>
      <trkpt lat="42.5182" lon="2.0101">
        <ele>1896.8000488281</ele>
        <time>2016-10-30T13:27:22Z</time>
      </trkpt>
      <trkpt lat="42.51824" lon="2.01013">
        <ele>1896.8000488281</ele>
        <time>2016-10-30T13:27:26Z</time>
      </trkpt>
      <trkpt lat="42.51826" lon="2.01013">
        <ele>1896.8000488281</ele>
        <time>2016-10-30T13:27:28Z</time>
      </trkpt>
      <trkpt lat="42.51832" lon="2.01013">
        <ele>1896.8000488281</ele>
        <time>2016-10-30T13:27:34Z</time>
      </trkpt>
      <trkpt lat="42.51833" lon="2.01012">
        <ele>1896.8000488281</ele>
        <time>2016-10-30T13:27:35Z</time>
      </trkpt>
      <trkpt lat="42.51838" lon="2.01011">
        <ele>1897.1999511719</ele>
        <time>2016-10-30T13:27:39Z</time>
      </trkpt>
      <trkpt lat="42.51839" lon="2.01011">
        <ele>1897.8000488281</ele>
        <time>2016-10-30T13:27:40Z</time>
      </trkpt>
      <trkpt lat="42.51841" lon="2.01011">
        <ele>1898.1999511719</ele>
        <time>2016-10-30T13:27:41Z</time>
      </trkpt>
      <trkpt lat="42.51842" lon="2.01012">
        <ele>1898.5999755859</ele>
        <time>2016-10-30T13:27:42Z</time>
      </trkpt>
      <trkpt lat="42.51843" lon="2.01012">
        <ele>1899</ele>
        <time>2016-10-30T13:27:43Z</time>
      </trkpt>
      <trkpt lat="42.51851" lon="2.01009">
        <ele>1899</ele>
        <time>2016-10-30T13:27:51Z</time>
      </trkpt>
      <trkpt lat="42.51852" lon="2.01008">
        <ele>1899</ele>
        <time>2016-10-30T13:27:52Z</time>
      </trkpt>
      <trkpt lat="42.51856" lon="2.01005">
        <ele>1899</ele>
        <time>2016-10-30T13:27:55Z</time>
      </trkpt>
      <trkpt lat="42.51857" lon="2.01004">
        <ele>1899</ele>
        <time>2016-10-30T13:27:56Z</time>
      </trkpt>
      <trkpt lat="42.51859" lon="2.01002">
        <ele>1899</ele>
        <time>2016-10-30T13:27:58Z</time>
      </trkpt>
      <trkpt lat="42.51863" lon="2.01">
        <ele>1899</ele>
        <time>2016-10-30T13:28:01Z</time>
      </trkpt>
      <trkpt lat="42.51865" lon="2.00999">
        <ele>1899</ele>
        <time>2016-10-30T13:28:03Z</time>
      </trkpt>
      <trkpt lat="42.51868" lon="2.00997">
        <ele>1899</ele>
        <time>2016-10-30T13:28:06Z</time>
      </trkpt>
      <trkpt lat="42.5187" lon="2.00996">
        <ele>1899</ele>
        <time>2016-10-30T13:28:08Z</time>
      </trkpt>
      <trkpt lat="42.51873" lon="2.00995">
        <ele>1899</ele>
        <time>2016-10-30T13:28:11Z</time>
      </trkpt>
      <trkpt lat="42.51879" lon="2.00992">
        <ele>1899</ele>
        <time>2016-10-30T13:28:16Z</time>
      </trkpt>
      <trkpt lat="42.51881" lon="2.00991">
        <ele>1899</ele>
        <time>2016-10-30T13:28:18Z</time>
      </trkpt>
      <trkpt lat="42.51884" lon="2.00992">
        <ele>1899</ele>
        <time>2016-10-30T13:28:21Z</time>
      </trkpt>
      <trkpt lat="42.5189" lon="2.00989">
        <ele>1899</ele>
        <time>2016-10-30T13:28:26Z</time>
      </trkpt>
      <trkpt lat="42.51892" lon="2.00987">
        <ele>1899</ele>
        <time>2016-10-30T13:28:28Z</time>
      </trkpt>
      <trkpt lat="42.51895" lon="2.00986">
        <ele>1899</ele>
        <time>2016-10-30T13:28:31Z</time>
      </trkpt>
      <trkpt lat="42.51901" lon="2.0098">
        <ele>1899</ele>
        <time>2016-10-30T13:28:37Z</time>
      </trkpt>
      <trkpt lat="42.51904" lon="2.00979">
        <ele>1899</ele>
        <time>2016-10-30T13:28:39Z</time>
      </trkpt>
      <trkpt lat="42.51912" lon="2.00975">
        <ele>1899</ele>
        <time>2016-10-30T13:28:47Z</time>
      </trkpt>
      <trkpt lat="42.51914" lon="2.00973">
        <ele>1899.4000244141</ele>
        <time>2016-10-30T13:28:49Z</time>
      </trkpt>
      <trkpt lat="42.51916" lon="2.00972">
        <ele>1899.4000244141</ele>
        <time>2016-10-30T13:28:50Z</time>
      </trkpt>
      <trkpt lat="42.51917" lon="2.00971">
        <ele>1899.5999755859</ele>
        <time>2016-10-30T13:28:51Z</time>
      </trkpt>
      <trkpt lat="42.51918" lon="2.00971">
        <ele>1899.5999755859</ele>
        <time>2016-10-30T13:28:52Z</time>
      </trkpt>
      <trkpt lat="42.51919" lon="2.0097">
        <ele>1900.1999511719</ele>
        <time>2016-10-30T13:28:53Z</time>
      </trkpt>
      <trkpt lat="42.51919" lon="2.00969">
        <ele>1900.5999755859</ele>
        <time>2016-10-30T13:28:54Z</time>
      </trkpt>
      <trkpt lat="42.51921" lon="2.00969">
        <ele>1901.1999511719</ele>
        <time>2016-10-30T13:28:55Z</time>
      </trkpt>
      <trkpt lat="42.51922" lon="2.00967">
        <ele>1901.8000488281</ele>
        <time>2016-10-30T13:28:56Z</time>
      </trkpt>
      <trkpt lat="42.51923" lon="2.00967">
        <ele>1902.4000244141</ele>
        <time>2016-10-30T13:28:57Z</time>
      </trkpt>
      <trkpt lat="42.51925" lon="2.00965">
        <ele>1902.4000244141</ele>
        <time>2016-10-30T13:28:59Z</time>
      </trkpt>
      <trkpt lat="42.51932" lon="2.00962">
        <ele>1902.4000244141</ele>
        <time>2016-10-30T13:29:05Z</time>
      </trkpt>
      <trkpt lat="42.5194" lon="2.0096">
        <ele>1902.4000244141</ele>
        <time>2016-10-30T13:29:12Z</time>
      </trkpt>
      <trkpt lat="42.51946" lon="2.00959">
        <ele>1902.4000244141</ele>
        <time>2016-10-30T13:29:19Z</time>
      </trkpt>
      <trkpt lat="42.5195" lon="2.00959">
        <ele>1902.4000244141</ele>
        <time>2016-10-30T13:29:25Z</time>
      </trkpt>
      <trkpt lat="42.51954" lon="2.00959">
        <ele>1902.4000244141</ele>
        <time>2016-10-30T13:29:33Z</time>
      </trkpt>
      <trkpt lat="42.51958" lon="2.00959">
        <ele>1902.4000244141</ele>
        <time>2016-10-30T13:29:36Z</time>
      </trkpt>
      <trkpt lat="42.51962" lon="2.0096">
        <ele>1902.4000244141</ele>
        <time>2016-10-30T13:29:40Z</time>
      </trkpt>
      <trkpt lat="42.51971" lon="2.00963">
        <ele>1902.4000244141</ele>
        <time>2016-10-30T13:29:47Z</time>
      </trkpt>
      <trkpt lat="42.51977" lon="2.00966">
        <ele>1902.4000244141</ele>
        <time>2016-10-30T13:29:53Z</time>
      </trkpt>
      <trkpt lat="42.51978" lon="2.00966">
        <ele>1902.4000244141</ele>
        <time>2016-10-30T13:29:54Z</time>
      </trkpt>
      <trkpt lat="42.51979" lon="2.00967">
        <ele>1902.8000488281</ele>
        <time>2016-10-30T13:29:55Z</time>
      </trkpt>
      <trkpt lat="42.51981" lon="2.00967">
        <ele>1903.4000244141</ele>
        <time>2016-10-30T13:29:56Z</time>
      </trkpt>
      <trkpt lat="42.51982" lon="2.00969">
        <ele>1903.8000488281</ele>
        <time>2016-10-30T13:29:57Z</time>
      </trkpt>
      <trkpt lat="42.51983" lon="2.00969">
        <ele>1904.4000244141</ele>
        <time>2016-10-30T13:29:58Z</time>
      </trkpt>
      <trkpt lat="42.51984" lon="2.00969">
        <ele>1904.8000488281</ele>
        <time>2016-10-30T13:29:59Z</time>
      </trkpt>
      <trkpt lat="42.51989" lon="2.00974">
        <ele>1904.8000488281</ele>
        <time>2016-10-30T13:30:05Z</time>
      </trkpt>
      <trkpt lat="42.51993" lon="2.00978">
        <ele>1904.8000488281</ele>
        <time>2016-10-30T13:30:09Z</time>
      </trkpt>
      <trkpt lat="42.51998" lon="2.00983">
        <ele>1904.8000488281</ele>
        <time>2016-10-30T13:30:15Z</time>
      </trkpt>
      <trkpt lat="42.52002" lon="2.00989">
        <ele>1904.8000488281</ele>
        <time>2016-10-30T13:30:21Z</time>
      </trkpt>
      <trkpt lat="42.52004" lon="2.00991">
        <ele>1905.4000244141</ele>
        <time>2016-10-30T13:30:23Z</time>
      </trkpt>
      <trkpt lat="42.52006" lon="2.00992">
        <ele>1905.8000488281</ele>
        <time>2016-10-30T13:30:24Z</time>
      </trkpt>
      <trkpt lat="42.52007" lon="2.00993">
        <ele>1906.1999511719</ele>
        <time>2016-10-30T13:30:25Z</time>
      </trkpt>
      <trkpt lat="42.52008" lon="2.00993">
        <ele>1906.5999755859</ele>
        <time>2016-10-30T13:30:26Z</time>
      </trkpt>
      <trkpt lat="42.52009" lon="2.00994">
        <ele>1907.1999511719</ele>
        <time>2016-10-30T13:30:27Z</time>
      </trkpt>
      <trkpt lat="42.5201" lon="2.00994">
        <ele>1907.1999511719</ele>
        <time>2016-10-30T13:30:28Z</time>
      </trkpt>
      <trkpt lat="42.52014" lon="2.01">
        <ele>1907.1999511719</ele>
        <time>2016-10-30T13:30:33Z</time>
      </trkpt>
      <trkpt lat="42.52018" lon="2.01005">
        <ele>1907.1999511719</ele>
        <time>2016-10-30T13:30:38Z</time>
      </trkpt>
      <trkpt lat="42.52023" lon="2.01016">
        <ele>1907.1999511719</ele>
        <time>2016-10-30T13:30:45Z</time>
      </trkpt>
      <trkpt lat="42.52025" lon="2.01019">
        <ele>1907.1999511719</ele>
        <time>2016-10-30T13:30:48Z</time>
      </trkpt>
      <trkpt lat="42.52026" lon="2.0102">
        <ele>1907.1999511719</ele>
        <time>2016-10-30T13:30:49Z</time>
      </trkpt>
      <trkpt lat="42.5203" lon="2.01025">
        <ele>1907.1999511719</ele>
        <time>2016-10-30T13:30:54Z</time>
      </trkpt>
      <trkpt lat="42.52035" lon="2.0103">
        <ele>1907.1999511719</ele>
        <time>2016-10-30T13:30:59Z</time>
      </trkpt>
      <trkpt lat="42.52038" lon="2.01036">
        <ele>1907.1999511719</ele>
        <time>2016-10-30T13:31:04Z</time>
      </trkpt>
      <trkpt lat="42.52042" lon="2.01043">
        <ele>1907.1999511719</ele>
        <time>2016-10-30T13:31:10Z</time>
      </trkpt>
      <trkpt lat="42.52046" lon="2.01052">
        <ele>1907.1999511719</ele>
        <time>2016-10-30T13:31:17Z</time>
      </trkpt>
      <trkpt lat="42.52051" lon="2.01058">
        <ele>1907.1999511719</ele>
        <time>2016-10-30T13:31:23Z</time>
      </trkpt>
      <trkpt lat="42.52056" lon="2.01067">
        <ele>1907.1999511719</ele>
        <time>2016-10-30T13:31:30Z</time>
      </trkpt>
      <trkpt lat="42.52058" lon="2.0107">
        <ele>1907.5999755859</ele>
        <time>2016-10-30T13:31:33Z</time>
      </trkpt>
      <trkpt lat="42.52059" lon="2.01071">
        <ele>1908.1999511719</ele>
        <time>2016-10-30T13:31:34Z</time>
      </trkpt>
      <trkpt lat="42.52059" lon="2.01073">
        <ele>1908.5999755859</ele>
        <time>2016-10-30T13:31:35Z</time>
      </trkpt>
      <trkpt lat="42.5206" lon="2.01074">
        <ele>1909</ele>
        <time>2016-10-30T13:31:36Z</time>
      </trkpt>
      <trkpt lat="42.52061" lon="2.01075">
        <ele>1909.5999755859</ele>
        <time>2016-10-30T13:31:37Z</time>
      </trkpt>
      <trkpt lat="42.52066" lon="2.0108">
        <ele>1909.5999755859</ele>
        <time>2016-10-30T13:31:42Z</time>
      </trkpt>
      <trkpt lat="42.52071" lon="2.01085">
        <ele>1909.5999755859</ele>
        <time>2016-10-30T13:31:48Z</time>
      </trkpt>
      <trkpt lat="42.52077" lon="2.01091">
        <ele>1909.5999755859</ele>
        <time>2016-10-30T13:31:54Z</time>
      </trkpt>
      <trkpt lat="42.52082" lon="2.01096">
        <ele>1909.5999755859</ele>
        <time>2016-10-30T13:31:59Z</time>
      </trkpt>
      <trkpt lat="42.52087" lon="2.01104">
        <ele>1909.5999755859</ele>
        <time>2016-10-30T13:32:05Z</time>
      </trkpt>
      <trkpt lat="42.52094" lon="2.01109">
        <ele>1909.5999755859</ele>
        <time>2016-10-30T13:32:11Z</time>
      </trkpt>
      <trkpt lat="42.52098" lon="2.01114">
        <ele>1909.5999755859</ele>
        <time>2016-10-30T13:32:16Z</time>
      </trkpt>
      <trkpt lat="42.521" lon="2.01115">
        <ele>1910</ele>
        <time>2016-10-30T13:32:18Z</time>
      </trkpt>
      <trkpt lat="42.521" lon="2.01117">
        <ele>1910.4000244141</ele>
        <time>2016-10-30T13:32:19Z</time>
      </trkpt>
      <trkpt lat="42.52101" lon="2.01118">
        <ele>1910.8000488281</ele>
        <time>2016-10-30T13:32:20Z</time>
      </trkpt>
      <trkpt lat="42.52102" lon="2.01119">
        <ele>1911.4000244141</ele>
        <time>2016-10-30T13:32:21Z</time>
      </trkpt>
      <trkpt lat="42.52103" lon="2.0112">
        <ele>1911.8000488281</ele>
        <time>2016-10-30T13:32:22Z</time>
      </trkpt>
      <trkpt lat="42.52107" lon="2.01127">
        <ele>1911.8000488281</ele>
        <time>2016-10-30T13:32:28Z</time>
      </trkpt>
      <trkpt lat="42.52112" lon="2.01136">
        <ele>1911.8000488281</ele>
        <time>2016-10-30T13:32:35Z</time>
      </trkpt>
      <trkpt lat="42.52113" lon="2.0114">
        <ele>1911.8000488281</ele>
        <time>2016-10-30T13:32:38Z</time>
      </trkpt>
      <trkpt lat="42.52116" lon="2.01145">
        <ele>1911.8000488281</ele>
        <time>2016-10-30T13:32:41Z</time>
      </trkpt>
      <trkpt lat="42.5212" lon="2.01154">
        <ele>1911.8000488281</ele>
        <time>2016-10-30T13:32:48Z</time>
      </trkpt>
      <trkpt lat="42.52125" lon="2.01162">
        <ele>1911.8000488281</ele>
        <time>2016-10-30T13:32:54Z</time>
      </trkpt>
      <trkpt lat="42.52129" lon="2.01165">
        <ele>1911.8000488281</ele>
        <time>2016-10-30T13:32:59Z</time>
      </trkpt>
      <trkpt lat="42.52133" lon="2.01164">
        <ele>1912.1999511719</ele>
        <time>2016-10-30T13:33:03Z</time>
      </trkpt>
      <trkpt lat="42.52134" lon="2.01164">
        <ele>1912.5999755859</ele>
        <time>2016-10-30T13:33:04Z</time>
      </trkpt>
      <trkpt lat="42.52135" lon="2.01164">
        <ele>1913</ele>
        <time>2016-10-30T13:33:05Z</time>
      </trkpt>
      <trkpt lat="42.52136" lon="2.01163">
        <ele>1913.4000244141</ele>
        <time>2016-10-30T13:33:06Z</time>
      </trkpt>
      <trkpt lat="42.52136" lon="2.01163">
        <ele>1913.8000488281</ele>
        <time>2016-10-30T13:33:07Z</time>
      </trkpt>
      <trkpt lat="42.52137" lon="2.01163">
        <ele>1914.1999511719</ele>
        <time>2016-10-30T13:33:09Z</time>
      </trkpt>
      <trkpt lat="42.52138" lon="2.01163">
        <ele>1914.5999755859</ele>
        <time>2016-10-30T13:33:10Z</time>
      </trkpt>
      <trkpt lat="42.52139" lon="2.01163">
        <ele>1915</ele>
        <time>2016-10-30T13:33:11Z</time>
      </trkpt>
      <trkpt lat="42.5214" lon="2.01163">
        <ele>1915.4000244141</ele>
        <time>2016-10-30T13:33:12Z</time>
      </trkpt>
      <trkpt lat="42.52141" lon="2.01162">
        <ele>1915.8000488281</ele>
        <time>2016-10-30T13:33:13Z</time>
      </trkpt>
      <trkpt lat="42.52144" lon="2.01161">
        <ele>1915.8000488281</ele>
        <time>2016-10-30T13:33:16Z</time>
      </trkpt>
      <trkpt lat="42.52145" lon="2.0116">
        <ele>1916.1999511719</ele>
        <time>2016-10-30T13:33:18Z</time>
      </trkpt>
      <trkpt lat="42.52147" lon="2.0116">
        <ele>1916.5999755859</ele>
        <time>2016-10-30T13:33:19Z</time>
      </trkpt>
      <trkpt lat="42.52148" lon="2.0116">
        <ele>1917</ele>
        <time>2016-10-30T13:33:20Z</time>
      </trkpt>
      <trkpt lat="42.52149" lon="2.01159">
        <ele>1917.4000244141</ele>
        <time>2016-10-30T13:33:21Z</time>
      </trkpt>
      <trkpt lat="42.52149" lon="2.01159">
        <ele>1917.8000488281</ele>
        <time>2016-10-30T13:33:22Z</time>
      </trkpt>
      <trkpt lat="42.52153" lon="2.01158">
        <ele>1917.8000488281</ele>
        <time>2016-10-30T13:33:27Z</time>
      </trkpt>
      <trkpt lat="42.5216" lon="2.01154">
        <ele>1917.8000488281</ele>
        <time>2016-10-30T13:33:33Z</time>
      </trkpt>
      <trkpt lat="42.52165" lon="2.01152">
        <ele>1917.8000488281</ele>
        <time>2016-10-30T13:33:39Z</time>
      </trkpt>
      <trkpt lat="42.52169" lon="2.01149">
        <ele>1918.5999755859</ele>
        <time>2016-10-30T13:33:44Z</time>
      </trkpt>
      <trkpt lat="42.5217" lon="2.01149">
        <ele>1919.1999511719</ele>
        <time>2016-10-30T13:33:45Z</time>
      </trkpt>
      <trkpt lat="42.52171" lon="2.01149">
        <ele>1919.8000488281</ele>
        <time>2016-10-30T13:33:46Z</time>
      </trkpt>
      <trkpt lat="42.52172" lon="2.01148">
        <ele>1920.4000244141</ele>
        <time>2016-10-30T13:33:47Z</time>
      </trkpt>
      <trkpt lat="42.52173" lon="2.01147">
        <ele>1921</ele>
        <time>2016-10-30T13:33:48Z</time>
      </trkpt>
      <trkpt lat="42.52174" lon="2.01147">
        <ele>1920.5999755859</ele>
        <time>2016-10-30T13:33:49Z</time>
      </trkpt>
      <trkpt lat="42.52174" lon="2.01147">
        <ele>1920</ele>
        <time>2016-10-30T13:33:50Z</time>
      </trkpt>
      <trkpt lat="42.52175" lon="2.01147">
        <ele>1919.5999755859</ele>
        <time>2016-10-30T13:33:51Z</time>
      </trkpt>
      <trkpt lat="42.52176" lon="2.01147">
        <ele>1920</ele>
        <time>2016-10-30T13:33:52Z</time>
      </trkpt>
      <trkpt lat="42.52176" lon="2.01146">
        <ele>1920.4000244141</ele>
        <time>2016-10-30T13:33:53Z</time>
      </trkpt>
      <trkpt lat="42.52176" lon="2.01146">
        <ele>1920.8000488281</ele>
        <time>2016-10-30T13:33:54Z</time>
      </trkpt>
      <trkpt lat="42.52177" lon="2.01146">
        <ele>1921.1999511719</ele>
        <time>2016-10-30T13:33:55Z</time>
      </trkpt>
      <trkpt lat="42.52177" lon="2.01146">
        <ele>1920.5999755859</ele>
        <time>2016-10-30T13:33:56Z</time>
      </trkpt>
      <trkpt lat="42.52177" lon="2.01146">
        <ele>1920.1999511719</ele>
        <time>2016-10-30T13:33:57Z</time>
      </trkpt>
      <trkpt lat="42.52176" lon="2.01146">
        <ele>1919.8000488281</ele>
        <time>2016-10-30T13:33:58Z</time>
      </trkpt>
      <trkpt lat="42.52176" lon="2.01145">
        <ele>1919.1999511719</ele>
        <time>2016-10-30T13:33:59Z</time>
      </trkpt>
      <trkpt lat="42.52176" lon="2.01144">
        <ele>1918.8000488281</ele>
        <time>2016-10-30T13:34:00Z</time>
      </trkpt>
      <trkpt lat="42.52175" lon="2.0113">
        <ele>1918.8000488281</ele>
        <time>2016-10-30T13:34:18Z</time>
      </trkpt>
      <trkpt lat="42.52178" lon="2.01135">
        <ele>1918.8000488281</ele>
        <time>2016-10-30T13:34:30Z</time>
      </trkpt>
      <trkpt lat="42.52178" lon="2.01135">
        <ele>1918.8000488281</ele>
        <time>2016-10-30T13:34:43Z</time>
      </trkpt>
      <trkpt lat="42.52178" lon="2.01135">
        <ele>1918.8000488281</ele>
        <time>2016-10-30T13:34:54Z</time>
      </trkpt>
      <trkpt lat="42.52179" lon="2.01145">
        <ele>1918.8000488281</ele>
        <time>2016-10-30T13:35:03Z</time>
      </trkpt>
      <trkpt lat="42.52179" lon="2.01148">
        <ele>1918.8000488281</ele>
        <time>2016-10-30T13:35:06Z</time>
      </trkpt>
      <trkpt lat="42.5218" lon="2.01147">
        <ele>1918.8000488281</ele>
        <time>2016-10-30T13:35:07Z</time>
      </trkpt>
      <trkpt lat="42.52181" lon="2.01145">
        <ele>1918.8000488281</ele>
        <time>2016-10-30T13:35:14Z</time>
      </trkpt>
      <trkpt lat="42.52181" lon="2.01145">
        <ele>1918.8000488281</ele>
        <time>2016-10-30T13:35:27Z</time>
      </trkpt>
      <trkpt lat="42.52181" lon="2.01146">
        <ele>1918.8000488281</ele>
        <time>2016-10-30T13:35:36Z</time>
      </trkpt>
      <trkpt lat="42.5218" lon="2.01149">
        <ele>1918.8000488281</ele>
        <time>2016-10-30T13:35:42Z</time>
      </trkpt>
      <trkpt lat="42.52181" lon="2.01144">
        <ele>1918.8000488281</ele>
        <time>2016-10-30T13:35:49Z</time>
      </trkpt>
      <trkpt lat="42.52179" lon="2.01149">
        <ele>1918.8000488281</ele>
        <time>2016-10-30T13:35:57Z</time>
      </trkpt>
      <trkpt lat="42.52178" lon="2.01148">
        <ele>1918.1999511719</ele>
        <time>2016-10-30T13:35:58Z</time>
      </trkpt>
      <trkpt lat="42.52178" lon="2.01149">
        <ele>1917.8000488281</ele>
        <time>2016-10-30T13:35:59Z</time>
      </trkpt>
      <trkpt lat="42.52178" lon="2.01149">
        <ele>1917.1999511719</ele>
        <time>2016-10-30T13:36:00Z</time>
      </trkpt>
      <trkpt lat="42.52177" lon="2.01148">
        <ele>1917.8000488281</ele>
        <time>2016-10-30T13:36:01Z</time>
      </trkpt>
      <trkpt lat="42.52177" lon="2.01148">
        <ele>1918.5999755859</ele>
        <time>2016-10-30T13:36:02Z</time>
      </trkpt>
      <trkpt lat="42.52177" lon="2.01148">
        <ele>1919.1999511719</ele>
        <time>2016-10-30T13:36:03Z</time>
      </trkpt>
      <trkpt lat="42.52177" lon="2.01148">
        <ele>1920</ele>
        <time>2016-10-30T13:36:04Z</time>
      </trkpt>
      <trkpt lat="42.52177" lon="2.01148">
        <ele>1920.5999755859</ele>
        <time>2016-10-30T13:36:05Z</time>
      </trkpt>
      <trkpt lat="42.52176" lon="2.01149">
        <ele>1920.5999755859</ele>
        <time>2016-10-30T13:36:08Z</time>
      </trkpt>
      <trkpt lat="42.52176" lon="2.01151">
        <ele>1920.5999755859</ele>
        <time>2016-10-30T13:36:09Z</time>
      </trkpt>
      <trkpt lat="42.52175" lon="2.01159">
        <ele>1920.5999755859</ele>
        <time>2016-10-30T13:36:13Z</time>
      </trkpt>
      <trkpt lat="42.52176" lon="2.01161">
        <ele>1920.5999755859</ele>
        <time>2016-10-30T13:36:14Z</time>
      </trkpt>
      <trkpt lat="42.52176" lon="2.01162">
        <ele>1920.1999511719</ele>
        <time>2016-10-30T13:36:15Z</time>
      </trkpt>
      <trkpt lat="42.52176" lon="2.01163">
        <ele>1919.8000488281</ele>
        <time>2016-10-30T13:36:16Z</time>
      </trkpt>
      <trkpt lat="42.52176" lon="2.01164">
        <ele>1919.4000244141</ele>
        <time>2016-10-30T13:36:17Z</time>
      </trkpt>
      <trkpt lat="42.52176" lon="2.01166">
        <ele>1919</ele>
        <time>2016-10-30T13:36:18Z</time>
      </trkpt>
      <trkpt lat="42.52176" lon="2.01167">
        <ele>1918.4000244141</ele>
        <time>2016-10-30T13:36:19Z</time>
      </trkpt>
      <trkpt lat="42.52176" lon="2.01168">
        <ele>1918.4000244141</ele>
        <time>2016-10-30T13:36:20Z</time>
      </trkpt>
      <trkpt lat="42.52175" lon="2.01172">
        <ele>1918</ele>
        <time>2016-10-30T13:36:24Z</time>
      </trkpt>
      <trkpt lat="42.52175" lon="2.01173">
        <ele>1917.5999755859</ele>
        <time>2016-10-30T13:36:25Z</time>
      </trkpt>
      <trkpt lat="42.52175" lon="2.01175">
        <ele>1917.1999511719</ele>
        <time>2016-10-30T13:36:26Z</time>
      </trkpt>
      <trkpt lat="42.52176" lon="2.01176">
        <ele>1916.5999755859</ele>
        <time>2016-10-30T13:36:27Z</time>
      </trkpt>
      <trkpt lat="42.52176" lon="2.01177">
        <ele>1916.1999511719</ele>
        <time>2016-10-30T13:36:28Z</time>
      </trkpt>
      <trkpt lat="42.52177" lon="2.01179">
        <ele>1916.1999511719</ele>
        <time>2016-10-30T13:36:31Z</time>
      </trkpt>
      <trkpt lat="42.52177" lon="2.01182">
        <ele>1915.8000488281</ele>
        <time>2016-10-30T13:36:34Z</time>
      </trkpt>
      <trkpt lat="42.52178" lon="2.01183">
        <ele>1915.4000244141</ele>
        <time>2016-10-30T13:36:35Z</time>
      </trkpt>
      <trkpt lat="42.52179" lon="2.01183">
        <ele>1915</ele>
        <time>2016-10-30T13:36:36Z</time>
      </trkpt>
      <trkpt lat="42.52179" lon="2.01184">
        <ele>1914.5999755859</ele>
        <time>2016-10-30T13:36:37Z</time>
      </trkpt>
      <trkpt lat="42.52179" lon="2.01184">
        <ele>1914</ele>
        <time>2016-10-30T13:36:38Z</time>
      </trkpt>
      <trkpt lat="42.52179" lon="2.01184">
        <ele>1914</ele>
        <time>2016-10-30T13:36:46Z</time>
      </trkpt>
      <trkpt lat="42.52184" lon="2.01187">
        <ele>1914</ele>
        <time>2016-10-30T13:36:53Z</time>
      </trkpt>
      <trkpt lat="42.52186" lon="2.01188">
        <ele>1913.5999755859</ele>
        <time>2016-10-30T13:36:55Z</time>
      </trkpt>
      <trkpt lat="42.52187" lon="2.01189">
        <ele>1913.1999511719</ele>
        <time>2016-10-30T13:36:56Z</time>
      </trkpt>
      <trkpt lat="42.52187" lon="2.01189">
        <ele>1912.8000488281</ele>
        <time>2016-10-30T13:36:57Z</time>
      </trkpt>
      <trkpt lat="42.52189" lon="2.01188">
        <ele>1912.1999511719</ele>
        <time>2016-10-30T13:36:58Z</time>
      </trkpt>
      <trkpt lat="42.5219" lon="2.01188">
        <ele>1911.8000488281</ele>
        <time>2016-10-30T13:36:59Z</time>
      </trkpt>
      <trkpt lat="42.52191" lon="2.01188">
        <ele>1911.8000488281</ele>
        <time>2016-10-30T13:37:00Z</time>
      </trkpt>
      <trkpt lat="42.52197" lon="2.01188">
        <ele>1911.8000488281</ele>
        <time>2016-10-30T13:37:06Z</time>
      </trkpt>
      <trkpt lat="42.52204" lon="2.0119">
        <ele>1911.8000488281</ele>
        <time>2016-10-30T13:37:12Z</time>
      </trkpt>
      <trkpt lat="42.52209" lon="2.01193">
        <ele>1911.8000488281</ele>
        <time>2016-10-30T13:37:18Z</time>
      </trkpt>
      <trkpt lat="42.52211" lon="2.01193">
        <ele>1911.8000488281</ele>
        <time>2016-10-30T13:37:20Z</time>
      </trkpt>
      <trkpt lat="42.52214" lon="2.01195">
        <ele>1911.8000488281</ele>
        <time>2016-10-30T13:37:23Z</time>
      </trkpt>
      <trkpt lat="42.52219" lon="2.01196">
        <ele>1911.8000488281</ele>
        <time>2016-10-30T13:37:28Z</time>
      </trkpt>
      <trkpt lat="42.52225" lon="2.01197">
        <ele>1911.8000488281</ele>
        <time>2016-10-30T13:37:33Z</time>
      </trkpt>
      <trkpt lat="42.52235" lon="2.012">
        <ele>1911.8000488281</ele>
        <time>2016-10-30T13:37:41Z</time>
      </trkpt>
      <trkpt lat="42.52241" lon="2.01201">
        <ele>1911.8000488281</ele>
        <time>2016-10-30T13:37:47Z</time>
      </trkpt>
      <trkpt lat="42.52249" lon="2.01202">
        <ele>1911.8000488281</ele>
        <time>2016-10-30T13:37:55Z</time>
      </trkpt>
      <trkpt lat="42.52254" lon="2.01204">
        <ele>1911.8000488281</ele>
        <time>2016-10-30T13:38:00Z</time>
      </trkpt>
      <trkpt lat="42.52257" lon="2.01205">
        <ele>1911.8000488281</ele>
        <time>2016-10-30T13:38:02Z</time>
      </trkpt>
      <trkpt lat="42.52265" lon="2.01206">
        <ele>1911.8000488281</ele>
        <time>2016-10-30T13:38:09Z</time>
      </trkpt>
      <trkpt lat="42.52272" lon="2.01208">
        <ele>1911.8000488281</ele>
        <time>2016-10-30T13:38:16Z</time>
      </trkpt>
      <trkpt lat="42.52279" lon="2.01212">
        <ele>1911.8000488281</ele>
        <time>2016-10-30T13:38:23Z</time>
      </trkpt>
      <trkpt lat="42.52285" lon="2.01214">
        <ele>1911.8000488281</ele>
        <time>2016-10-30T13:38:30Z</time>
      </trkpt>
      <trkpt lat="42.52285" lon="2.01217">
        <ele>1911.8000488281</ele>
        <time>2016-10-30T13:38:33Z</time>
      </trkpt>
      <trkpt lat="42.52284" lon="2.01219">
        <ele>1911.8000488281</ele>
        <time>2016-10-30T13:38:35Z</time>
      </trkpt>
      <trkpt lat="42.52284" lon="2.0122">
        <ele>1911.8000488281</ele>
        <time>2016-10-30T13:38:42Z</time>
      </trkpt>
      <trkpt lat="42.52287" lon="2.01219">
        <ele>1911.8000488281</ele>
        <time>2016-10-30T13:38:47Z</time>
      </trkpt>
      <trkpt lat="42.52288" lon="2.01218">
        <ele>1911.8000488281</ele>
        <time>2016-10-30T13:38:48Z</time>
      </trkpt>
      <trkpt lat="42.52294" lon="2.01219">
        <ele>1911.8000488281</ele>
        <time>2016-10-30T13:38:54Z</time>
      </trkpt>
      <trkpt lat="42.52299" lon="2.01221">
        <ele>1911.8000488281</ele>
        <time>2016-10-30T13:38:59Z</time>
      </trkpt>
      <trkpt lat="42.52301" lon="2.01223">
        <ele>1911.8000488281</ele>
        <time>2016-10-30T13:39:01Z</time>
      </trkpt>
      <trkpt lat="42.52304" lon="2.01224">
        <ele>1911.8000488281</ele>
        <time>2016-10-30T13:39:03Z</time>
      </trkpt>
      <trkpt lat="42.52307" lon="2.01227">
        <ele>1911.8000488281</ele>
        <time>2016-10-30T13:39:07Z</time>
      </trkpt>
      <trkpt lat="42.52314" lon="2.01229">
        <ele>1911.8000488281</ele>
        <time>2016-10-30T13:39:13Z</time>
      </trkpt>
      <trkpt lat="42.52319" lon="2.01232">
        <ele>1911.8000488281</ele>
        <time>2016-10-30T13:39:17Z</time>
      </trkpt>
      <trkpt lat="42.52319" lon="2.01233">
        <ele>1911.8000488281</ele>
        <time>2016-10-30T13:39:18Z</time>
      </trkpt>
      <trkpt lat="42.52324" lon="2.01238">
        <ele>1911.8000488281</ele>
        <time>2016-10-30T13:39:23Z</time>
      </trkpt>
      <trkpt lat="42.52328" lon="2.01245">
        <ele>1911.8000488281</ele>
        <time>2016-10-30T13:39:29Z</time>
      </trkpt>
      <trkpt lat="42.52335" lon="2.0125">
        <ele>1911.8000488281</ele>
        <time>2016-10-30T13:39:36Z</time>
      </trkpt>
      <trkpt lat="42.52339" lon="2.01252">
        <ele>1911.8000488281</ele>
        <time>2016-10-30T13:39:39Z</time>
      </trkpt>
      <trkpt lat="42.52343" lon="2.01255">
        <ele>1911.8000488281</ele>
        <time>2016-10-30T13:39:43Z</time>
      </trkpt>
      <trkpt lat="42.52344" lon="2.01255">
        <ele>1912.1999511719</ele>
        <time>2016-10-30T13:39:44Z</time>
      </trkpt>
      <trkpt lat="42.52346" lon="2.01256">
        <ele>1913</ele>
        <time>2016-10-30T13:39:45Z</time>
      </trkpt>
      <trkpt lat="42.52347" lon="2.01255">
        <ele>1913.4000244141</ele>
        <time>2016-10-30T13:39:46Z</time>
      </trkpt>
      <trkpt lat="42.52348" lon="2.01255">
        <ele>1913.8000488281</ele>
        <time>2016-10-30T13:39:47Z</time>
      </trkpt>
      <trkpt lat="42.52351" lon="2.01257">
        <ele>1913.8000488281</ele>
        <time>2016-10-30T13:39:49Z</time>
      </trkpt>
      <trkpt lat="42.52352" lon="2.01257">
        <ele>1913.8000488281</ele>
        <time>2016-10-30T13:39:50Z</time>
      </trkpt>
      <trkpt lat="42.52354" lon="2.01259">
        <ele>1913.8000488281</ele>
        <time>2016-10-30T13:39:53Z</time>
      </trkpt>
      <trkpt lat="42.52356" lon="2.01261">
        <ele>1913.8000488281</ele>
        <time>2016-10-30T13:39:55Z</time>
      </trkpt>
      <trkpt lat="42.52358" lon="2.01262">
        <ele>1913.8000488281</ele>
        <time>2016-10-30T13:39:58Z</time>
      </trkpt>
      <trkpt lat="42.5236" lon="2.01265">
        <ele>1913.8000488281</ele>
        <time>2016-10-30T13:40:00Z</time>
      </trkpt>
      <trkpt lat="42.52362" lon="2.01266">
        <ele>1913.8000488281</ele>
        <time>2016-10-30T13:40:02Z</time>
      </trkpt>
      <trkpt lat="42.52365" lon="2.01271">
        <ele>1913.8000488281</ele>
        <time>2016-10-30T13:40:05Z</time>
      </trkpt>
      <trkpt lat="42.52369" lon="2.01276">
        <ele>1913.8000488281</ele>
        <time>2016-10-30T13:40:09Z</time>
      </trkpt>
      <trkpt lat="42.5237" lon="2.01278">
        <ele>1913.8000488281</ele>
        <time>2016-10-30T13:40:11Z</time>
      </trkpt>
      <trkpt lat="42.52373" lon="2.01287">
        <ele>1913.8000488281</ele>
        <time>2016-10-30T13:40:18Z</time>
      </trkpt>
      <trkpt lat="42.52376" lon="2.01297">
        <ele>1913.8000488281</ele>
        <time>2016-10-30T13:40:25Z</time>
      </trkpt>
      <trkpt lat="42.52379" lon="2.01305">
        <ele>1913.8000488281</ele>
        <time>2016-10-30T13:40:31Z</time>
      </trkpt>
      <trkpt lat="42.52381" lon="2.01314">
        <ele>1913.8000488281</ele>
        <time>2016-10-30T13:40:37Z</time>
      </trkpt>
      <trkpt lat="42.52383" lon="2.01317">
        <ele>1913.8000488281</ele>
        <time>2016-10-30T13:40:39Z</time>
      </trkpt>
      <trkpt lat="42.52384" lon="2.01321">
        <ele>1913.8000488281</ele>
        <time>2016-10-30T13:40:42Z</time>
      </trkpt>
      <trkpt lat="42.52384" lon="2.0133">
        <ele>1913.8000488281</ele>
        <time>2016-10-30T13:40:48Z</time>
      </trkpt>
      <trkpt lat="42.52381" lon="2.01338">
        <ele>1913.8000488281</ele>
        <time>2016-10-30T13:40:53Z</time>
      </trkpt>
      <trkpt lat="42.52381" lon="2.01339">
        <ele>1913.8000488281</ele>
        <time>2016-10-30T13:40:54Z</time>
      </trkpt>
      <trkpt lat="42.52378" lon="2.01349">
        <ele>1913.8000488281</ele>
        <time>2016-10-30T13:41:00Z</time>
      </trkpt>
      <trkpt lat="42.52375" lon="2.01359">
        <ele>1913.8000488281</ele>
        <time>2016-10-30T13:41:06Z</time>
      </trkpt>
      <trkpt lat="42.52371" lon="2.01368">
        <ele>1914.1999511719</ele>
        <time>2016-10-30T13:41:13Z</time>
      </trkpt>
      <trkpt lat="42.5237" lon="2.0137">
        <ele>1914.8000488281</ele>
        <time>2016-10-30T13:41:14Z</time>
      </trkpt>
      <trkpt lat="42.5237" lon="2.01371">
        <ele>1915.1999511719</ele>
        <time>2016-10-30T13:41:15Z</time>
      </trkpt>
      <trkpt lat="42.5237" lon="2.01372">
        <ele>1915.5999755859</ele>
        <time>2016-10-30T13:41:16Z</time>
      </trkpt>
      <trkpt lat="42.52368" lon="2.01373">
        <ele>1916</ele>
        <time>2016-10-30T13:41:17Z</time>
      </trkpt>
      <trkpt lat="42.52367" lon="2.01376">
        <ele>1916</ele>
        <time>2016-10-30T13:41:19Z</time>
      </trkpt>
      <trkpt lat="42.52366" lon="2.01378">
        <ele>1916</ele>
        <time>2016-10-30T13:41:21Z</time>
      </trkpt>
      <trkpt lat="42.52362" lon="2.01383">
        <ele>1916</ele>
        <time>2016-10-30T13:41:25Z</time>
      </trkpt>
      <trkpt lat="42.52357" lon="2.01388">
        <ele>1916</ele>
        <time>2016-10-30T13:41:31Z</time>
      </trkpt>
      <trkpt lat="42.52351" lon="2.01396">
        <ele>1916</ele>
        <time>2016-10-30T13:41:38Z</time>
      </trkpt>
      <trkpt lat="42.52345" lon="2.014">
        <ele>1916</ele>
        <time>2016-10-30T13:41:44Z</time>
      </trkpt>
      <trkpt lat="42.52339" lon="2.01402">
        <ele>1916</ele>
        <time>2016-10-30T13:41:48Z</time>
      </trkpt>
      <trkpt lat="42.52339" lon="2.01403">
        <ele>1916</ele>
        <time>2016-10-30T13:41:49Z</time>
      </trkpt>
      <trkpt lat="42.52333" lon="2.01408">
        <ele>1916</ele>
        <time>2016-10-30T13:41:55Z</time>
      </trkpt>
      <trkpt lat="42.52329" lon="2.01413">
        <ele>1916</ele>
        <time>2016-10-30T13:41:59Z</time>
      </trkpt>
      <trkpt lat="42.52328" lon="2.01415">
        <ele>1916</ele>
        <time>2016-10-30T13:42:01Z</time>
      </trkpt>
      <trkpt lat="42.52323" lon="2.01423">
        <ele>1916</ele>
        <time>2016-10-30T13:42:07Z</time>
      </trkpt>
      <trkpt lat="42.52319" lon="2.01427">
        <ele>1916</ele>
        <time>2016-10-30T13:42:11Z</time>
      </trkpt>
      <trkpt lat="42.52317" lon="2.01429">
        <ele>1916</ele>
        <time>2016-10-30T13:42:13Z</time>
      </trkpt>
      <trkpt lat="42.52312" lon="2.01437">
        <ele>1916</ele>
        <time>2016-10-30T13:42:19Z</time>
      </trkpt>
      <trkpt lat="42.52309" lon="2.01442">
        <ele>1916</ele>
        <time>2016-10-30T13:42:23Z</time>
      </trkpt>
      <trkpt lat="42.52306" lon="2.01444">
        <ele>1916</ele>
        <time>2016-10-30T13:42:25Z</time>
      </trkpt>
      <trkpt lat="42.52304" lon="2.01448">
        <ele>1916</ele>
        <time>2016-10-30T13:42:28Z</time>
      </trkpt>
      <trkpt lat="42.52304" lon="2.01449">
        <ele>1916</ele>
        <time>2016-10-30T13:42:29Z</time>
      </trkpt>
      <trkpt lat="42.523" lon="2.01456">
        <ele>1916</ele>
        <time>2016-10-30T13:42:34Z</time>
      </trkpt>
      <trkpt lat="42.52296" lon="2.01461">
        <ele>1916</ele>
        <time>2016-10-30T13:42:39Z</time>
      </trkpt>
      <trkpt lat="42.52293" lon="2.01469">
        <ele>1916</ele>
        <time>2016-10-30T13:42:44Z</time>
      </trkpt>
      <trkpt lat="42.5229" lon="2.01474">
        <ele>1916</ele>
        <time>2016-10-30T13:42:49Z</time>
      </trkpt>
      <trkpt lat="42.52286" lon="2.0148">
        <ele>1916</ele>
        <time>2016-10-30T13:42:54Z</time>
      </trkpt>
      <trkpt lat="42.52282" lon="2.01487">
        <ele>1916</ele>
        <time>2016-10-30T13:43:00Z</time>
      </trkpt>
      <trkpt lat="42.5228" lon="2.01491">
        <ele>1916.4000244141</ele>
        <time>2016-10-30T13:43:03Z</time>
      </trkpt>
      <trkpt lat="42.52279" lon="2.01493">
        <ele>1916.8000488281</ele>
        <time>2016-10-30T13:43:04Z</time>
      </trkpt>
      <trkpt lat="42.52279" lon="2.01495">
        <ele>1917.1999511719</ele>
        <time>2016-10-30T13:43:05Z</time>
      </trkpt>
      <trkpt lat="42.52278" lon="2.01497">
        <ele>1917.8000488281</ele>
        <time>2016-10-30T13:43:06Z</time>
      </trkpt>
      <trkpt lat="42.52277" lon="2.01498">
        <ele>1918.1999511719</ele>
        <time>2016-10-30T13:43:07Z</time>
      </trkpt>
      <trkpt lat="42.52276" lon="2.01504">
        <ele>1918.1999511719</ele>
        <time>2016-10-30T13:43:11Z</time>
      </trkpt>
      <trkpt lat="42.52273" lon="2.01509">
        <ele>1918.1999511719</ele>
        <time>2016-10-30T13:43:16Z</time>
      </trkpt>
      <trkpt lat="42.52271" lon="2.01515">
        <ele>1918.1999511719</ele>
        <time>2016-10-30T13:43:21Z</time>
      </trkpt>
      <trkpt lat="42.5227" lon="2.01525">
        <ele>1918.1999511719</ele>
        <time>2016-10-30T13:43:27Z</time>
      </trkpt>
      <trkpt lat="42.52269" lon="2.01531">
        <ele>1918.5999755859</ele>
        <time>2016-10-30T13:43:31Z</time>
      </trkpt>
      <trkpt lat="42.52269" lon="2.01532">
        <ele>1919</ele>
        <time>2016-10-30T13:43:32Z</time>
      </trkpt>
      <trkpt lat="42.52268" lon="2.01533">
        <ele>1919.4000244141</ele>
        <time>2016-10-30T13:43:33Z</time>
      </trkpt>
      <trkpt lat="42.52268" lon="2.01535">
        <ele>1919.8000488281</ele>
        <time>2016-10-30T13:43:34Z</time>
      </trkpt>
      <trkpt lat="42.52268" lon="2.01536">
        <ele>1920.1999511719</ele>
        <time>2016-10-30T13:43:35Z</time>
      </trkpt>
      <trkpt lat="42.52268" lon="2.01538">
        <ele>1920.1999511719</ele>
        <time>2016-10-30T13:43:36Z</time>
      </trkpt>
      <trkpt lat="42.52268" lon="2.01541">
        <ele>1920.1999511719</ele>
        <time>2016-10-30T13:43:38Z</time>
      </trkpt>
      <trkpt lat="42.52269" lon="2.01553">
        <ele>1920.1999511719</ele>
        <time>2016-10-30T13:43:45Z</time>
      </trkpt>
      <trkpt lat="42.5227" lon="2.01561">
        <ele>1920.1999511719</ele>
        <time>2016-10-30T13:43:51Z</time>
      </trkpt>
      <trkpt lat="42.52271" lon="2.01568">
        <ele>1920.1999511719</ele>
        <time>2016-10-30T13:43:56Z</time>
      </trkpt>
      <trkpt lat="42.5227" lon="2.01569">
        <ele>1920.5999755859</ele>
        <time>2016-10-30T13:43:57Z</time>
      </trkpt>
      <trkpt lat="42.52271" lon="2.0157">
        <ele>1921</ele>
        <time>2016-10-30T13:43:58Z</time>
      </trkpt>
      <trkpt lat="42.52271" lon="2.01572">
        <ele>1921.4000244141</ele>
        <time>2016-10-30T13:43:59Z</time>
      </trkpt>
      <trkpt lat="42.52271" lon="2.01574">
        <ele>1921.8000488281</ele>
        <time>2016-10-30T13:44:00Z</time>
      </trkpt>
      <trkpt lat="42.52272" lon="2.01576">
        <ele>1922.1999511719</ele>
        <time>2016-10-30T13:44:01Z</time>
      </trkpt>
      <trkpt lat="42.52272" lon="2.01586">
        <ele>1922.1999511719</ele>
        <time>2016-10-30T13:44:06Z</time>
      </trkpt>
      <trkpt lat="42.52272" lon="2.01594">
        <ele>1922.1999511719</ele>
        <time>2016-10-30T13:44:11Z</time>
      </trkpt>
      <trkpt lat="42.52274" lon="2.01604">
        <ele>1922.1999511719</ele>
        <time>2016-10-30T13:44:17Z</time>
      </trkpt>
      <trkpt lat="42.52274" lon="2.01612">
        <ele>1922.1999511719</ele>
        <time>2016-10-30T13:44:22Z</time>
      </trkpt>
      <trkpt lat="42.52275" lon="2.01618">
        <ele>1922.1999511719</ele>
        <time>2016-10-30T13:44:27Z</time>
      </trkpt>
      <trkpt lat="42.52275" lon="2.01628">
        <ele>1922.1999511719</ele>
        <time>2016-10-30T13:44:33Z</time>
      </trkpt>
      <trkpt lat="42.52277" lon="2.01636">
        <ele>1922.1999511719</ele>
        <time>2016-10-30T13:44:38Z</time>
      </trkpt>
      <trkpt lat="42.52277" lon="2.01637">
        <ele>1922.5999755859</ele>
        <time>2016-10-30T13:44:39Z</time>
      </trkpt>
      <trkpt lat="42.52277" lon="2.01638">
        <ele>1923</ele>
        <time>2016-10-30T13:44:40Z</time>
      </trkpt>
      <trkpt lat="42.52278" lon="2.0164">
        <ele>1923.5999755859</ele>
        <time>2016-10-30T13:44:41Z</time>
      </trkpt>
      <trkpt lat="42.52277" lon="2.01641">
        <ele>1924</ele>
        <time>2016-10-30T13:44:42Z</time>
      </trkpt>
      <trkpt lat="42.52278" lon="2.01643">
        <ele>1924.4000244141</ele>
        <time>2016-10-30T13:44:43Z</time>
      </trkpt>
      <trkpt lat="42.52281" lon="2.01652">
        <ele>1924.4000244141</ele>
        <time>2016-10-30T13:44:49Z</time>
      </trkpt>
      <trkpt lat="42.52281" lon="2.01652">
        <ele>1924.4000244141</ele>
        <time>2016-10-30T13:44:56Z</time>
      </trkpt>
      <trkpt lat="42.52281" lon="2.01652">
        <ele>1924.4000244141</ele>
        <time>2016-10-30T13:45:10Z</time>
      </trkpt>
      <trkpt lat="42.52281" lon="2.01652">
        <ele>1924.4000244141</ele>
        <time>2016-10-30T13:45:20Z</time>
      </trkpt>
      <trkpt lat="42.52281" lon="2.01652">
        <ele>1924.4000244141</ele>
        <time>2016-10-30T13:45:37Z</time>
      </trkpt>
      <trkpt lat="42.52281" lon="2.01652">
        <ele>1924.4000244141</ele>
        <time>2016-10-30T13:45:48Z</time>
      </trkpt>
      <trkpt lat="42.52281" lon="2.01655">
        <ele>1924.4000244141</ele>
        <time>2016-10-30T13:45:59Z</time>
      </trkpt>
      <trkpt lat="42.52282" lon="2.01659">
        <ele>1924.4000244141</ele>
        <time>2016-10-30T13:46:05Z</time>
      </trkpt>
      <trkpt lat="42.52282" lon="2.01661">
        <ele>1924.4000244141</ele>
        <time>2016-10-30T13:46:16Z</time>
      </trkpt>
      <trkpt lat="42.52284" lon="2.01668">
        <ele>1924.4000244141</ele>
        <time>2016-10-30T13:46:22Z</time>
      </trkpt>
      <trkpt lat="42.52285" lon="2.01675">
        <ele>1924.4000244141</ele>
        <time>2016-10-30T13:46:28Z</time>
      </trkpt>
      <trkpt lat="42.52286" lon="2.01686">
        <ele>1924.4000244141</ele>
        <time>2016-10-30T13:46:35Z</time>
      </trkpt>
      <trkpt lat="42.52288" lon="2.01692">
        <ele>1924.4000244141</ele>
        <time>2016-10-30T13:46:40Z</time>
      </trkpt>
      <trkpt lat="42.52288" lon="2.01694">
        <ele>1924.4000244141</ele>
        <time>2016-10-30T13:46:41Z</time>
      </trkpt>
      <trkpt lat="42.5229" lon="2.01702">
        <ele>1924.8000488281</ele>
        <time>2016-10-30T13:46:45Z</time>
      </trkpt>
      <trkpt lat="42.5229" lon="2.01703">
        <ele>1925.1999511719</ele>
        <time>2016-10-30T13:46:46Z</time>
      </trkpt>
      <trkpt lat="42.5229" lon="2.01704">
        <ele>1925.5999755859</ele>
        <time>2016-10-30T13:46:47Z</time>
      </trkpt>
      <trkpt lat="42.5229" lon="2.01706">
        <ele>1926</ele>
        <time>2016-10-30T13:46:48Z</time>
      </trkpt>
      <trkpt lat="42.52291" lon="2.01707">
        <ele>1926.4000244141</ele>
        <time>2016-10-30T13:46:49Z</time>
      </trkpt>
      <trkpt lat="42.52291" lon="2.01713">
        <ele>1926.4000244141</ele>
        <time>2016-10-30T13:46:52Z</time>
      </trkpt>
      <trkpt lat="42.52292" lon="2.01721">
        <ele>1926.4000244141</ele>
        <time>2016-10-30T13:46:57Z</time>
      </trkpt>
      <trkpt lat="42.52293" lon="2.01732">
        <ele>1926.4000244141</ele>
        <time>2016-10-30T13:47:04Z</time>
      </trkpt>
      <trkpt lat="42.52295" lon="2.01741">
        <ele>1926.4000244141</ele>
        <time>2016-10-30T13:47:10Z</time>
      </trkpt>
      <trkpt lat="42.52296" lon="2.0175">
        <ele>1926.4000244141</ele>
        <time>2016-10-30T13:47:16Z</time>
      </trkpt>
      <trkpt lat="42.52297" lon="2.01751">
        <ele>1927</ele>
        <time>2016-10-30T13:47:17Z</time>
      </trkpt>
      <trkpt lat="42.52297" lon="2.01752">
        <ele>1927.4000244141</ele>
        <time>2016-10-30T13:47:18Z</time>
      </trkpt>
      <trkpt lat="42.52298" lon="2.01753">
        <ele>1927.8000488281</ele>
        <time>2016-10-30T13:47:19Z</time>
      </trkpt>
      <trkpt lat="42.52299" lon="2.01755">
        <ele>1928.1999511719</ele>
        <time>2016-10-30T13:47:20Z</time>
      </trkpt>
      <trkpt lat="42.523" lon="2.01757">
        <ele>1928.5999755859</ele>
        <time>2016-10-30T13:47:21Z</time>
      </trkpt>
      <trkpt lat="42.523" lon="2.01758">
        <ele>1928.5999755859</ele>
        <time>2016-10-30T13:47:22Z</time>
      </trkpt>
      <trkpt lat="42.52301" lon="2.01762">
        <ele>1928.5999755859</ele>
        <time>2016-10-30T13:47:25Z</time>
      </trkpt>
      <trkpt lat="42.52303" lon="2.01766">
        <ele>1928.5999755859</ele>
        <time>2016-10-30T13:47:27Z</time>
      </trkpt>
      <trkpt lat="42.52305" lon="2.01775">
        <ele>1928.5999755859</ele>
        <time>2016-10-30T13:47:33Z</time>
      </trkpt>
      <trkpt lat="42.52307" lon="2.01782">
        <ele>1928.5999755859</ele>
        <time>2016-10-30T13:47:39Z</time>
      </trkpt>
      <trkpt lat="42.52311" lon="2.01792">
        <ele>1928.5999755859</ele>
        <time>2016-10-30T13:47:45Z</time>
      </trkpt>
      <trkpt lat="42.52312" lon="2.01795">
        <ele>1928.5999755859</ele>
        <time>2016-10-30T13:47:47Z</time>
      </trkpt>
      <trkpt lat="42.52313" lon="2.01801">
        <ele>1929</ele>
        <time>2016-10-30T13:47:51Z</time>
      </trkpt>
      <trkpt lat="42.52314" lon="2.01802">
        <ele>1929.5999755859</ele>
        <time>2016-10-30T13:47:52Z</time>
      </trkpt>
      <trkpt lat="42.52314" lon="2.01803">
        <ele>1930</ele>
        <time>2016-10-30T13:47:53Z</time>
      </trkpt>
      <trkpt lat="42.52315" lon="2.01804">
        <ele>1930.4000244141</ele>
        <time>2016-10-30T13:47:54Z</time>
      </trkpt>
      <trkpt lat="42.52315" lon="2.01806">
        <ele>1930.8000488281</ele>
        <time>2016-10-30T13:47:55Z</time>
      </trkpt>
      <trkpt lat="42.52317" lon="2.0181">
        <ele>1930.8000488281</ele>
        <time>2016-10-30T13:47:57Z</time>
      </trkpt>
      <trkpt lat="42.52321" lon="2.01818">
        <ele>1930.8000488281</ele>
        <time>2016-10-30T13:48:03Z</time>
      </trkpt>
      <trkpt lat="42.52324" lon="2.01824">
        <ele>1930.8000488281</ele>
        <time>2016-10-30T13:48:08Z</time>
      </trkpt>
      <trkpt lat="42.52328" lon="2.01833">
        <ele>1930.8000488281</ele>
        <time>2016-10-30T13:48:15Z</time>
      </trkpt>
      <trkpt lat="42.5233" lon="2.01843">
        <ele>1930.8000488281</ele>
        <time>2016-10-30T13:48:22Z</time>
      </trkpt>
      <trkpt lat="42.52332" lon="2.0185">
        <ele>1930.8000488281</ele>
        <time>2016-10-30T13:48:27Z</time>
      </trkpt>
      <trkpt lat="42.52335" lon="2.0186">
        <ele>1930.8000488281</ele>
        <time>2016-10-30T13:48:33Z</time>
      </trkpt>
      <trkpt lat="42.52336" lon="2.01867">
        <ele>1931.1999511719</ele>
        <time>2016-10-30T13:48:38Z</time>
      </trkpt>
      <trkpt lat="42.52336" lon="2.01868">
        <ele>1931.5999755859</ele>
        <time>2016-10-30T13:48:39Z</time>
      </trkpt>
      <trkpt lat="42.52337" lon="2.01869">
        <ele>1932.1999511719</ele>
        <time>2016-10-30T13:48:40Z</time>
      </trkpt>
      <trkpt lat="42.52337" lon="2.0187">
        <ele>1932.5999755859</ele>
        <time>2016-10-30T13:48:41Z</time>
      </trkpt>
      <trkpt lat="42.52338" lon="2.01871">
        <ele>1933</ele>
        <time>2016-10-30T13:48:42Z</time>
      </trkpt>
      <trkpt lat="42.5234" lon="2.01876">
        <ele>1933</ele>
        <time>2016-10-30T13:48:44Z</time>
      </trkpt>
      <trkpt lat="42.52343" lon="2.01882">
        <ele>1933</ele>
        <time>2016-10-30T13:48:49Z</time>
      </trkpt>
      <trkpt lat="42.52348" lon="2.01892">
        <ele>1933</ele>
        <time>2016-10-30T13:48:56Z</time>
      </trkpt>
      <trkpt lat="42.52351" lon="2.01901">
        <ele>1933</ele>
        <time>2016-10-30T13:49:02Z</time>
      </trkpt>
      <trkpt lat="42.52354" lon="2.01911">
        <ele>1933</ele>
        <time>2016-10-30T13:49:09Z</time>
      </trkpt>
      <trkpt lat="42.52354" lon="2.01917">
        <ele>1933.4000244141</ele>
        <time>2016-10-30T13:49:13Z</time>
      </trkpt>
      <trkpt lat="42.52355" lon="2.01919">
        <ele>1933.8000488281</ele>
        <time>2016-10-30T13:49:14Z</time>
      </trkpt>
      <trkpt lat="42.52355" lon="2.0192">
        <ele>1934.4000244141</ele>
        <time>2016-10-30T13:49:15Z</time>
      </trkpt>
      <trkpt lat="42.52356" lon="2.01921">
        <ele>1934.8000488281</ele>
        <time>2016-10-30T13:49:16Z</time>
      </trkpt>
      <trkpt lat="42.52356" lon="2.01923">
        <ele>1935.1999511719</ele>
        <time>2016-10-30T13:49:17Z</time>
      </trkpt>
      <trkpt lat="42.52358" lon="2.01929">
        <ele>1935.1999511719</ele>
        <time>2016-10-30T13:49:22Z</time>
      </trkpt>
      <trkpt lat="42.52362" lon="2.01937">
        <ele>1935.1999511719</ele>
        <time>2016-10-30T13:49:27Z</time>
      </trkpt>
      <trkpt lat="42.52363" lon="2.01946">
        <ele>1935.1999511719</ele>
        <time>2016-10-30T13:49:33Z</time>
      </trkpt>
      <trkpt lat="42.52366" lon="2.01956">
        <ele>1935.1999511719</ele>
        <time>2016-10-30T13:49:40Z</time>
      </trkpt>
      <trkpt lat="42.52367" lon="2.01963">
        <ele>1935.5999755859</ele>
        <time>2016-10-30T13:49:45Z</time>
      </trkpt>
      <trkpt lat="42.52368" lon="2.01965">
        <ele>1936</ele>
        <time>2016-10-30T13:49:46Z</time>
      </trkpt>
      <trkpt lat="42.52368" lon="2.01966">
        <ele>1936.4000244141</ele>
        <time>2016-10-30T13:49:47Z</time>
      </trkpt>
      <trkpt lat="42.52368" lon="2.01968">
        <ele>1936.8000488281</ele>
        <time>2016-10-30T13:49:48Z</time>
      </trkpt>
      <trkpt lat="42.52368" lon="2.01969">
        <ele>1937.1999511719</ele>
        <time>2016-10-30T13:49:49Z</time>
      </trkpt>
      <trkpt lat="42.5237" lon="2.01974">
        <ele>1937.1999511719</ele>
        <time>2016-10-30T13:49:52Z</time>
      </trkpt>
      <trkpt lat="42.5237" lon="2.01982">
        <ele>1937.1999511719</ele>
        <time>2016-10-30T13:49:57Z</time>
      </trkpt>
      <trkpt lat="42.52372" lon="2.01993">
        <ele>1937.1999511719</ele>
        <time>2016-10-30T13:50:03Z</time>
      </trkpt>
      <trkpt lat="42.52374" lon="2.01997">
        <ele>1937.1999511719</ele>
        <time>2016-10-30T13:50:06Z</time>
      </trkpt>
      <trkpt lat="42.52375" lon="2.01999">
        <ele>1937.1999511719</ele>
        <time>2016-10-30T13:50:08Z</time>
      </trkpt>
      <trkpt lat="42.52377" lon="2.02004">
        <ele>1937.1999511719</ele>
        <time>2016-10-30T13:50:14Z</time>
      </trkpt>
      <trkpt lat="42.52378" lon="2.0201">
        <ele>1937.5999755859</ele>
        <time>2016-10-30T13:50:17Z</time>
      </trkpt>
      <trkpt lat="42.52378" lon="2.02011">
        <ele>1938.1999511719</ele>
        <time>2016-10-30T13:50:18Z</time>
      </trkpt>
      <trkpt lat="42.52377" lon="2.02013">
        <ele>1938.5999755859</ele>
        <time>2016-10-30T13:50:19Z</time>
      </trkpt>
      <trkpt lat="42.52378" lon="2.02015">
        <ele>1939</ele>
        <time>2016-10-30T13:50:20Z</time>
      </trkpt>
      <trkpt lat="42.52378" lon="2.02017">
        <ele>1939.4000244141</ele>
        <time>2016-10-30T13:50:21Z</time>
      </trkpt>
      <trkpt lat="42.52379" lon="2.02023">
        <ele>1939.4000244141</ele>
        <time>2016-10-30T13:50:24Z</time>
      </trkpt>
      <trkpt lat="42.52379" lon="2.02028">
        <ele>1939.4000244141</ele>
        <time>2016-10-30T13:50:27Z</time>
      </trkpt>
      <trkpt lat="42.5238" lon="2.02037">
        <ele>1939.4000244141</ele>
        <time>2016-10-30T13:50:33Z</time>
      </trkpt>
      <trkpt lat="42.5238" lon="2.02045">
        <ele>1939.4000244141</ele>
        <time>2016-10-30T13:50:38Z</time>
      </trkpt>
      <trkpt lat="42.5238" lon="2.02053">
        <ele>1939.4000244141</ele>
        <time>2016-10-30T13:50:43Z</time>
      </trkpt>
      <trkpt lat="42.52381" lon="2.02061">
        <ele>1939.4000244141</ele>
        <time>2016-10-30T13:50:48Z</time>
      </trkpt>
      <trkpt lat="42.52382" lon="2.02068">
        <ele>1939.4000244141</ele>
        <time>2016-10-30T13:50:53Z</time>
      </trkpt>
      <trkpt lat="42.52385" lon="2.02076">
        <ele>1939.4000244141</ele>
        <time>2016-10-30T13:50:59Z</time>
      </trkpt>
      <trkpt lat="42.52386" lon="2.02079">
        <ele>1939.8000488281</ele>
        <time>2016-10-30T13:51:02Z</time>
      </trkpt>
      <trkpt lat="42.52387" lon="2.0208">
        <ele>1940.1999511719</ele>
        <time>2016-10-30T13:51:03Z</time>
      </trkpt>
      <trkpt lat="42.52387" lon="2.02082">
        <ele>1940.5999755859</ele>
        <time>2016-10-30T13:51:04Z</time>
      </trkpt>
      <trkpt lat="42.52387" lon="2.02084">
        <ele>1941.4000244141</ele>
        <time>2016-10-30T13:51:05Z</time>
      </trkpt>
      <trkpt lat="42.52389" lon="2.02089">
        <ele>1941.4000244141</ele>
        <time>2016-10-30T13:51:09Z</time>
      </trkpt>
      <trkpt lat="42.52391" lon="2.02097">
        <ele>1941.4000244141</ele>
        <time>2016-10-30T13:51:15Z</time>
      </trkpt>
      <trkpt lat="42.52393" lon="2.02105">
        <ele>1941.4000244141</ele>
        <time>2016-10-30T13:51:20Z</time>
      </trkpt>
      <trkpt lat="42.52395" lon="2.02114">
        <ele>1941.4000244141</ele>
        <time>2016-10-30T13:51:26Z</time>
      </trkpt>
      <trkpt lat="42.52395" lon="2.02116">
        <ele>1941.4000244141</ele>
        <time>2016-10-30T13:51:27Z</time>
      </trkpt>
      <trkpt lat="42.52395" lon="2.0212">
        <ele>1941.4000244141</ele>
        <time>2016-10-30T13:51:30Z</time>
      </trkpt>
      <trkpt lat="42.52399" lon="2.02127">
        <ele>1941.4000244141</ele>
        <time>2016-10-30T13:51:37Z</time>
      </trkpt>
      <trkpt lat="42.524" lon="2.0213">
        <ele>1942</ele>
        <time>2016-10-30T13:51:39Z</time>
      </trkpt>
      <trkpt lat="42.52401" lon="2.02132">
        <ele>1942.4000244141</ele>
        <time>2016-10-30T13:51:40Z</time>
      </trkpt>
      <trkpt lat="42.52402" lon="2.02133">
        <ele>1942.8000488281</ele>
        <time>2016-10-30T13:51:41Z</time>
      </trkpt>
      <trkpt lat="42.52402" lon="2.02134">
        <ele>1943.4000244141</ele>
        <time>2016-10-30T13:51:42Z</time>
      </trkpt>
      <trkpt lat="42.52403" lon="2.02134">
        <ele>1943.8000488281</ele>
        <time>2016-10-30T13:51:43Z</time>
      </trkpt>
      <trkpt lat="42.52407" lon="2.02143">
        <ele>1943.8000488281</ele>
        <time>2016-10-30T13:51:49Z</time>
      </trkpt>
      <trkpt lat="42.52412" lon="2.02151">
        <ele>1943.8000488281</ele>
        <time>2016-10-30T13:51:55Z</time>
      </trkpt>
      <trkpt lat="42.52416" lon="2.0216">
        <ele>1943.8000488281</ele>
        <time>2016-10-30T13:52:00Z</time>
      </trkpt>
      <trkpt lat="42.52417" lon="2.02161">
        <ele>1943.8000488281</ele>
        <time>2016-10-30T13:52:01Z</time>
      </trkpt>
      <trkpt lat="42.52419" lon="2.02164">
        <ele>1943.8000488281</ele>
        <time>2016-10-30T13:52:05Z</time>
      </trkpt>
      <trkpt lat="42.52425" lon="2.02171">
        <ele>1943.8000488281</ele>
        <time>2016-10-30T13:52:12Z</time>
      </trkpt>
      <trkpt lat="42.52433" lon="2.02174">
        <ele>1943.8000488281</ele>
        <time>2016-10-30T13:52:19Z</time>
      </trkpt>
      <trkpt lat="42.52442" lon="2.02175">
        <ele>1943.8000488281</ele>
        <time>2016-10-30T13:52:26Z</time>
      </trkpt>
      <trkpt lat="42.52448" lon="2.02178">
        <ele>1943.8000488281</ele>
        <time>2016-10-30T13:52:32Z</time>
      </trkpt>
      <trkpt lat="42.52456" lon="2.0218">
        <ele>1943.8000488281</ele>
        <time>2016-10-30T13:52:38Z</time>
      </trkpt>
      <trkpt lat="42.5246" lon="2.02181">
        <ele>1944.1999511719</ele>
        <time>2016-10-30T13:52:42Z</time>
      </trkpt>
      <trkpt lat="42.52461" lon="2.02181">
        <ele>1944.5999755859</ele>
        <time>2016-10-30T13:52:43Z</time>
      </trkpt>
      <trkpt lat="42.52462" lon="2.02181">
        <ele>1945.4000244141</ele>
        <time>2016-10-30T13:52:44Z</time>
      </trkpt>
      <trkpt lat="42.52464" lon="2.02181">
        <ele>1946</ele>
        <time>2016-10-30T13:52:45Z</time>
      </trkpt>
      <trkpt lat="42.52467" lon="2.02181">
        <ele>1946</ele>
        <time>2016-10-30T13:52:47Z</time>
      </trkpt>
      <trkpt lat="42.52471" lon="2.02181">
        <ele>1946</ele>
        <time>2016-10-30T13:52:52Z</time>
      </trkpt>
      <trkpt lat="42.52481" lon="2.02182">
        <ele>1946</ele>
        <time>2016-10-30T13:53:00Z</time>
      </trkpt>
      <trkpt lat="42.52488" lon="2.02183">
        <ele>1946</ele>
        <time>2016-10-30T13:53:06Z</time>
      </trkpt>
      <trkpt lat="42.52496" lon="2.02184">
        <ele>1946</ele>
        <time>2016-10-30T13:53:13Z</time>
      </trkpt>
      <trkpt lat="42.52503" lon="2.02185">
        <ele>1946</ele>
        <time>2016-10-30T13:53:19Z</time>
      </trkpt>
      <trkpt lat="42.52507" lon="2.02189">
        <ele>1946</ele>
        <time>2016-10-30T13:53:24Z</time>
      </trkpt>
      <trkpt lat="42.52509" lon="2.02191">
        <ele>1946</ele>
        <time>2016-10-30T13:53:26Z</time>
      </trkpt>
      <trkpt lat="42.52509" lon="2.02194">
        <ele>1946</ele>
        <time>2016-10-30T13:53:29Z</time>
      </trkpt>
      <trkpt lat="42.5251" lon="2.02201">
        <ele>1946</ele>
        <time>2016-10-30T13:53:35Z</time>
      </trkpt>
      <trkpt lat="42.52509" lon="2.02204">
        <ele>1946</ele>
        <time>2016-10-30T13:53:42Z</time>
      </trkpt>
      <trkpt lat="42.52509" lon="2.02204">
        <ele>1946</ele>
        <time>2016-10-30T13:53:51Z</time>
      </trkpt>
      <trkpt lat="42.52508" lon="2.02201">
        <ele>1946</ele>
        <time>2016-10-30T13:53:55Z</time>
      </trkpt>
      <trkpt lat="42.52507" lon="2.02198">
        <ele>1946</ele>
        <time>2016-10-30T13:53:57Z</time>
      </trkpt>
      <trkpt lat="42.52504" lon="2.02193">
        <ele>1946</ele>
        <time>2016-10-30T13:54:02Z</time>
      </trkpt>
      <trkpt lat="42.52502" lon="2.02193">
        <ele>1946</ele>
        <time>2016-10-30T13:54:09Z</time>
      </trkpt>
      <trkpt lat="42.52502" lon="2.02194">
        <ele>1946</ele>
        <time>2016-10-30T13:54:16Z</time>
      </trkpt>
      <trkpt lat="42.52501" lon="2.02199">
        <ele>1946</ele>
        <time>2016-10-30T13:54:23Z</time>
      </trkpt>
      <trkpt lat="42.52498" lon="2.02202">
        <ele>1946</ele>
        <time>2016-10-30T13:54:28Z</time>
      </trkpt>
      <trkpt lat="42.52497" lon="2.02205">
        <ele>1946</ele>
        <time>2016-10-30T13:54:33Z</time>
      </trkpt>
      <trkpt lat="42.52492" lon="2.02212">
        <ele>1946</ele>
        <time>2016-10-30T13:54:39Z</time>
      </trkpt>
      <trkpt lat="42.52489" lon="2.02219">
        <ele>1946</ele>
        <time>2016-10-30T13:54:45Z</time>
      </trkpt>
      <trkpt lat="42.52485" lon="2.02224">
        <ele>1945.4000244141</ele>
        <time>2016-10-30T13:54:49Z</time>
      </trkpt>
      <trkpt lat="42.52484" lon="2.02226">
        <ele>1945</ele>
        <time>2016-10-30T13:54:50Z</time>
      </trkpt>
      <trkpt lat="42.52484" lon="2.02226">
        <ele>1944.5999755859</ele>
        <time>2016-10-30T13:54:51Z</time>
      </trkpt>
      <trkpt lat="42.52483" lon="2.02227">
        <ele>1944.1999511719</ele>
        <time>2016-10-30T13:54:52Z</time>
      </trkpt>
      <trkpt lat="42.52482" lon="2.02228">
        <ele>1943.8000488281</ele>
        <time>2016-10-30T13:54:53Z</time>
      </trkpt>
      <trkpt lat="42.52481" lon="2.02231">
        <ele>1943.8000488281</ele>
        <time>2016-10-30T13:54:55Z</time>
      </trkpt>
      <trkpt lat="42.52477" lon="2.02237">
        <ele>1943.8000488281</ele>
        <time>2016-10-30T13:55:00Z</time>
      </trkpt>
      <trkpt lat="42.52473" lon="2.0224">
        <ele>1943.8000488281</ele>
        <time>2016-10-30T13:55:04Z</time>
      </trkpt>
      <trkpt lat="42.52472" lon="2.02243">
        <ele>1943.8000488281</ele>
        <time>2016-10-30T13:55:06Z</time>
      </trkpt>
      <trkpt lat="42.52471" lon="2.02243">
        <ele>1943.4000244141</ele>
        <time>2016-10-30T13:55:07Z</time>
      </trkpt>
      <trkpt lat="42.5247" lon="2.02244">
        <ele>1943</ele>
        <time>2016-10-30T13:55:08Z</time>
      </trkpt>
      <trkpt lat="42.52469" lon="2.02245">
        <ele>1942.5999755859</ele>
        <time>2016-10-30T13:55:09Z</time>
      </trkpt>
      <trkpt lat="42.52467" lon="2.02245">
        <ele>1942.1999511719</ele>
        <time>2016-10-30T13:55:10Z</time>
      </trkpt>
      <trkpt lat="42.52466" lon="2.02246">
        <ele>1941.8000488281</ele>
        <time>2016-10-30T13:55:11Z</time>
      </trkpt>
      <trkpt lat="42.52465" lon="2.02246">
        <ele>1941.8000488281</ele>
        <time>2016-10-30T13:55:12Z</time>
      </trkpt>
      <trkpt lat="42.5246" lon="2.0225">
        <ele>1941.8000488281</ele>
        <time>2016-10-30T13:55:18Z</time>
      </trkpt>
      <trkpt lat="42.52457" lon="2.02252">
        <ele>1941.8000488281</ele>
        <time>2016-10-30T13:55:21Z</time>
      </trkpt>
      <trkpt lat="42.52454" lon="2.02255">
        <ele>1941.8000488281</ele>
        <time>2016-10-30T13:55:24Z</time>
      </trkpt>
      <trkpt lat="42.52449" lon="2.02257">
        <ele>1941.8000488281</ele>
        <time>2016-10-30T13:55:27Z</time>
      </trkpt>
      <trkpt lat="42.52448" lon="2.02258">
        <ele>1941.8000488281</ele>
        <time>2016-10-30T13:55:29Z</time>
      </trkpt>
      <trkpt lat="42.52443" lon="2.02259">
        <ele>1941.8000488281</ele>
        <time>2016-10-30T13:55:34Z</time>
      </trkpt>
      <trkpt lat="42.52439" lon="2.02258">
        <ele>1941.4000244141</ele>
        <time>2016-10-30T13:55:36Z</time>
      </trkpt>
      <trkpt lat="42.52438" lon="2.02259">
        <ele>1940.5999755859</ele>
        <time>2016-10-30T13:55:37Z</time>
      </trkpt>
      <trkpt lat="42.52437" lon="2.0226">
        <ele>1940</ele>
        <time>2016-10-30T13:55:38Z</time>
      </trkpt>
      <trkpt lat="42.52435" lon="2.0226">
        <ele>1939.5999755859</ele>
        <time>2016-10-30T13:55:39Z</time>
      </trkpt>
      <trkpt lat="42.52433" lon="2.0226">
        <ele>1939.5999755859</ele>
        <time>2016-10-30T13:55:41Z</time>
      </trkpt>
      <trkpt lat="42.52432" lon="2.0226">
        <ele>1939.5999755859</ele>
        <time>2016-10-30T13:55:43Z</time>
      </trkpt>
      <trkpt lat="42.5243" lon="2.0226">
        <ele>1939.5999755859</ele>
        <time>2016-10-30T13:55:44Z</time>
      </trkpt>
      <trkpt lat="42.52427" lon="2.02266">
        <ele>1939.5999755859</ele>
        <time>2016-10-30T13:55:48Z</time>
      </trkpt>
      <trkpt lat="42.52422" lon="2.02274">
        <ele>1939.5999755859</ele>
        <time>2016-10-30T13:55:54Z</time>
      </trkpt>
      <trkpt lat="42.52416" lon="2.02282">
        <ele>1939.5999755859</ele>
        <time>2016-10-30T13:56:01Z</time>
      </trkpt>
      <trkpt lat="42.52412" lon="2.02286">
        <ele>1939.1999511719</ele>
        <time>2016-10-30T13:56:07Z</time>
      </trkpt>
      <trkpt lat="42.52411" lon="2.02286">
        <ele>1938.8000488281</ele>
        <time>2016-10-30T13:56:08Z</time>
      </trkpt>
      <trkpt lat="42.5241" lon="2.02289">
        <ele>1938.4000244141</ele>
        <time>2016-10-30T13:56:09Z</time>
      </trkpt>
      <trkpt lat="42.52409" lon="2.0229">
        <ele>1938</ele>
        <time>2016-10-30T13:56:10Z</time>
      </trkpt>
      <trkpt lat="42.52408" lon="2.0229">
        <ele>1937.5999755859</ele>
        <time>2016-10-30T13:56:11Z</time>
      </trkpt>
      <trkpt lat="42.52405" lon="2.02296">
        <ele>1937.5999755859</ele>
        <time>2016-10-30T13:56:17Z</time>
      </trkpt>
      <trkpt lat="42.52401" lon="2.02302">
        <ele>1937.5999755859</ele>
        <time>2016-10-30T13:56:22Z</time>
      </trkpt>
      <trkpt lat="42.52402" lon="2.02305">
        <ele>1937.5999755859</ele>
        <time>2016-10-30T13:56:24Z</time>
      </trkpt>
      <trkpt lat="42.52402" lon="2.02309">
        <ele>1937.5999755859</ele>
        <time>2016-10-30T13:56:26Z</time>
      </trkpt>
      <trkpt lat="42.52401" lon="2.02316">
        <ele>1937.5999755859</ele>
        <time>2016-10-30T13:56:31Z</time>
      </trkpt>
      <trkpt lat="42.524" lon="2.02318">
        <ele>1937.5999755859</ele>
        <time>2016-10-30T13:56:32Z</time>
      </trkpt>
      <trkpt lat="42.52397" lon="2.02324">
        <ele>1937.5999755859</ele>
        <time>2016-10-30T13:56:37Z</time>
      </trkpt>
      <trkpt lat="42.52395" lon="2.02331">
        <ele>1937.5999755859</ele>
        <time>2016-10-30T13:56:41Z</time>
      </trkpt>
      <trkpt lat="42.52393" lon="2.02334">
        <ele>1937.5999755859</ele>
        <time>2016-10-30T13:56:43Z</time>
      </trkpt>
      <trkpt lat="42.5239" lon="2.02338">
        <ele>1937.5999755859</ele>
        <time>2016-10-30T13:56:48Z</time>
      </trkpt>
      <trkpt lat="42.52388" lon="2.0234">
        <ele>1937.5999755859</ele>
        <time>2016-10-30T13:56:50Z</time>
      </trkpt>
      <trkpt lat="42.52385" lon="2.02343">
        <ele>1937.5999755859</ele>
        <time>2016-10-30T13:56:53Z</time>
      </trkpt>
      <trkpt lat="42.52382" lon="2.02346">
        <ele>1937.5999755859</ele>
        <time>2016-10-30T13:56:58Z</time>
      </trkpt>
      <trkpt lat="42.52378" lon="2.02355">
        <ele>1937.5999755859</ele>
        <time>2016-10-30T13:57:05Z</time>
      </trkpt>
      <trkpt lat="42.52375" lon="2.02361">
        <ele>1937.1999511719</ele>
        <time>2016-10-30T13:57:10Z</time>
      </trkpt>
      <trkpt lat="42.52374" lon="2.02361">
        <ele>1936.8000488281</ele>
        <time>2016-10-30T13:57:11Z</time>
      </trkpt>
      <trkpt lat="42.52374" lon="2.02363">
        <ele>1936.1999511719</ele>
        <time>2016-10-30T13:57:12Z</time>
      </trkpt>
      <trkpt lat="42.52373" lon="2.02365">
        <ele>1935.8000488281</ele>
        <time>2016-10-30T13:57:13Z</time>
      </trkpt>
      <trkpt lat="42.52372" lon="2.02365">
        <ele>1935.4000244141</ele>
        <time>2016-10-30T13:57:14Z</time>
      </trkpt>
      <trkpt lat="42.52371" lon="2.02367">
        <ele>1935.4000244141</ele>
        <time>2016-10-30T13:57:16Z</time>
      </trkpt>
      <trkpt lat="42.52367" lon="2.02375">
        <ele>1935.4000244141</ele>
        <time>2016-10-30T13:57:23Z</time>
      </trkpt>
      <trkpt lat="42.52366" lon="2.02376">
        <ele>1935.4000244141</ele>
        <time>2016-10-30T13:57:24Z</time>
      </trkpt>
      <trkpt lat="42.52363" lon="2.02379">
        <ele>1935.4000244141</ele>
        <time>2016-10-30T13:57:28Z</time>
      </trkpt>
      <trkpt lat="42.52362" lon="2.0238">
        <ele>1935.4000244141</ele>
        <time>2016-10-30T13:57:30Z</time>
      </trkpt>
      <trkpt lat="42.52358" lon="2.02387">
        <ele>1935.4000244141</ele>
        <time>2016-10-30T13:57:36Z</time>
      </trkpt>
      <trkpt lat="42.52353" lon="2.02392">
        <ele>1935.4000244141</ele>
        <time>2016-10-30T13:57:41Z</time>
      </trkpt>
      <trkpt lat="42.52351" lon="2.02395">
        <ele>1935.4000244141</ele>
        <time>2016-10-30T13:57:43Z</time>
      </trkpt>
      <trkpt lat="42.52348" lon="2.02398">
        <ele>1935.4000244141</ele>
        <time>2016-10-30T13:57:46Z</time>
      </trkpt>
      <trkpt lat="42.52345" lon="2.02401">
        <ele>1935.4000244141</ele>
        <time>2016-10-30T13:57:49Z</time>
      </trkpt>
      <trkpt lat="42.52342" lon="2.02404">
        <ele>1935.4000244141</ele>
        <time>2016-10-30T13:57:51Z</time>
      </trkpt>
      <trkpt lat="42.5234" lon="2.02407">
        <ele>1935</ele>
        <time>2016-10-30T13:57:54Z</time>
      </trkpt>
      <trkpt lat="42.52339" lon="2.02409">
        <ele>1934.5999755859</ele>
        <time>2016-10-30T13:57:55Z</time>
      </trkpt>
      <trkpt lat="42.52339" lon="2.0241">
        <ele>1934.1999511719</ele>
        <time>2016-10-30T13:57:56Z</time>
      </trkpt>
      <trkpt lat="42.52339" lon="2.02411">
        <ele>1933.8000488281</ele>
        <time>2016-10-30T13:57:57Z</time>
      </trkpt>
      <trkpt lat="42.52339" lon="2.02412">
        <ele>1933.4000244141</ele>
        <time>2016-10-30T13:57:58Z</time>
      </trkpt>
      <trkpt lat="42.52336" lon="2.02416">
        <ele>1933.4000244141</ele>
        <time>2016-10-30T13:58:03Z</time>
      </trkpt>
      <trkpt lat="42.52336" lon="2.02419">
        <ele>1933.4000244141</ele>
        <time>2016-10-30T13:58:04Z</time>
      </trkpt>
      <trkpt lat="42.52334" lon="2.02423">
        <ele>1933.4000244141</ele>
        <time>2016-10-30T13:58:07Z</time>
      </trkpt>
      <trkpt lat="42.52333" lon="2.02425">
        <ele>1933.4000244141</ele>
        <time>2016-10-30T13:58:08Z</time>
      </trkpt>
      <trkpt lat="42.52326" lon="2.02431">
        <ele>1933.4000244141</ele>
        <time>2016-10-30T13:58:15Z</time>
      </trkpt>
      <trkpt lat="42.52325" lon="2.02433">
        <ele>1933.4000244141</ele>
        <time>2016-10-30T13:58:18Z</time>
      </trkpt>
      <trkpt lat="42.52322" lon="2.02437">
        <ele>1933.4000244141</ele>
        <time>2016-10-30T13:58:20Z</time>
      </trkpt>
      <trkpt lat="42.52321" lon="2.0244">
        <ele>1933.4000244141</ele>
        <time>2016-10-30T13:58:22Z</time>
      </trkpt>
      <trkpt lat="42.5232" lon="2.02448">
        <ele>1933.4000244141</ele>
        <time>2016-10-30T13:58:27Z</time>
      </trkpt>
      <trkpt lat="42.52319" lon="2.02457">
        <ele>1933.4000244141</ele>
        <time>2016-10-30T13:58:34Z</time>
      </trkpt>
      <trkpt lat="42.52319" lon="2.02461">
        <ele>1933.4000244141</ele>
        <time>2016-10-30T13:58:40Z</time>
      </trkpt>
      <trkpt lat="42.52318" lon="2.0246">
        <ele>1933.4000244141</ele>
        <time>2016-10-30T13:58:46Z</time>
      </trkpt>
      <trkpt lat="42.52318" lon="2.0246">
        <ele>1933.4000244141</ele>
        <time>2016-10-30T13:58:56Z</time>
      </trkpt>
      <trkpt lat="42.52318" lon="2.0246">
        <ele>1933.4000244141</ele>
        <time>2016-10-30T13:59:04Z</time>
      </trkpt>
      <trkpt lat="42.52318" lon="2.0246">
        <ele>1933.4000244141</ele>
        <time>2016-10-30T13:59:12Z</time>
      </trkpt>
      <trkpt lat="42.52318" lon="2.0246">
        <ele>1933.4000244141</ele>
        <time>2016-10-30T13:59:15Z</time>
      </trkpt>
    </trkseg>
  </trk>
</gpx>